<?xml version="1.0" encoding="UTF-8" standalone="no" ?>
<gpx xmlns="http://www.topografix.com/GPX/1/1" xmlns:xsi="http://www.w3.org/2001/XMLSchema-instance" xsi:schemaLocation="http://www.topografix.com/GPX/1/1 http://www.topografix.com/GPX/1/1/gpx.xsd" version="1.1" creator="VisuGPX - https://www.visugpx.com">
  <metadata>
    <name>20150821 Rosuel Tignes</name>
    <desc><![CDATA[Etape 4 du GR5]]></desc>
  </metadata>
  <trk>
    <name><![CDATA[20150821 Rosuel Tignes_1]]></name>
    <trkseg>
      <trkpt lat="45.51804" lon="6.8054">
        <ele>1686.4</ele>
        <time>2015-08-21T07:18:42Z</time>
      </trkpt>
      <trkpt lat="45.51806" lon="6.80531">
        <ele>1686.4</ele>
        <time>2015-08-21T07:18:57Z</time>
      </trkpt>
      <trkpt lat="45.51818" lon="6.8053">
        <ele>1666.4305</ele>
        <time>2015-08-21T07:19:02Z</time>
      </trkpt>
      <trkpt lat="45.51817" lon="6.80529">
        <ele>1666.4305</ele>
        <time>2015-08-21T07:19:12Z</time>
      </trkpt>
      <trkpt lat="45.51813" lon="6.80527">
        <ele>1666.4305</ele>
        <time>2015-08-21T07:19:17Z</time>
      </trkpt>
      <trkpt lat="45.51815" lon="6.80524">
        <ele>1666.4305</ele>
        <time>2015-08-21T07:19:27Z</time>
      </trkpt>
      <trkpt lat="45.51817" lon="6.80522">
        <ele>1668.703</ele>
        <time>2015-08-21T07:19:32Z</time>
      </trkpt>
      <trkpt lat="45.51823" lon="6.80515">
        <ele>1667.6477</ele>
        <time>2015-08-21T07:19:42Z</time>
      </trkpt>
      <trkpt lat="45.51825" lon="6.80513">
        <ele>1666.5923</ele>
        <time>2015-08-21T07:19:47Z</time>
      </trkpt>
      <trkpt lat="45.51833" lon="6.80511">
        <ele>1666.5923</ele>
        <time>2015-08-21T07:19:57Z</time>
      </trkpt>
      <trkpt lat="45.51843" lon="6.80477">
        <ele>1663.1554</ele>
        <time>2015-08-21T07:20:02Z</time>
      </trkpt>
      <trkpt lat="45.51842" lon="6.80475">
        <ele>1663.1554</ele>
        <time>2015-08-21T07:20:17Z</time>
      </trkpt>
      <trkpt lat="45.51859" lon="6.80482">
        <ele>1659.0597</ele>
        <time>2015-08-21T07:20:32Z</time>
      </trkpt>
      <trkpt lat="45.51861" lon="6.80484">
        <ele>1659.0597</ele>
        <time>2015-08-21T07:20:37Z</time>
      </trkpt>
      <trkpt lat="45.51862" lon="6.80487">
        <ele>1659.0597</ele>
        <time>2015-08-21T07:20:47Z</time>
      </trkpt>
      <trkpt lat="45.51862" lon="6.80486">
        <ele>1659.0597</ele>
        <time>2015-08-21T07:20:52Z</time>
      </trkpt>
      <trkpt lat="45.51867" lon="6.80482">
        <ele>1656.3052</ele>
        <time>2015-08-21T07:21:02Z</time>
      </trkpt>
      <trkpt lat="45.51869" lon="6.80481">
        <ele>1656.3052</ele>
        <time>2015-08-21T07:21:07Z</time>
      </trkpt>
      <trkpt lat="45.51862" lon="6.80489">
        <ele>1654.5298</ele>
        <time>2015-08-21T07:21:17Z</time>
      </trkpt>
      <trkpt lat="45.51857" lon="6.80491">
        <ele>1654.5298</ele>
        <time>2015-08-21T07:21:22Z</time>
      </trkpt>
      <trkpt lat="45.51857" lon="6.80491">
        <ele>1654.5298</ele>
        <time>2015-08-21T07:21:32Z</time>
      </trkpt>
      <trkpt lat="45.51857" lon="6.80491">
        <ele>1654.5298</ele>
        <time>2015-08-21T07:21:37Z</time>
      </trkpt>
      <trkpt lat="45.51858" lon="6.80491">
        <ele>1654.5298</ele>
        <time>2015-08-21T07:21:42Z</time>
      </trkpt>
      <trkpt lat="45.51858" lon="6.80491">
        <ele>1654.5298</ele>
        <time>2015-08-21T07:21:57Z</time>
      </trkpt>
      <trkpt lat="45.51859" lon="6.8049">
        <ele>1654.5298</ele>
        <time>2015-08-21T07:22:12Z</time>
      </trkpt>
      <trkpt lat="45.51859" lon="6.8049">
        <ele>1654.5298</ele>
        <time>2015-08-21T07:22:17Z</time>
      </trkpt>
      <trkpt lat="45.51859" lon="6.8049">
        <ele>1654.5298</ele>
        <time>2015-08-21T07:22:42Z</time>
      </trkpt>
      <trkpt lat="45.5186" lon="6.8049">
        <ele>1654.5298</ele>
        <time>2015-08-21T07:22:47Z</time>
      </trkpt>
      <trkpt lat="45.51862" lon="6.80492">
        <ele>1652.0574</ele>
        <time>2015-08-21T07:22:57Z</time>
      </trkpt>
      <trkpt lat="45.5186" lon="6.80492">
        <ele>1652.0574</ele>
        <time>2015-08-21T07:23:47Z</time>
      </trkpt>
      <trkpt lat="45.51859" lon="6.805">
        <ele>1652.0574</ele>
        <time>2015-08-21T07:23:57Z</time>
      </trkpt>
      <trkpt lat="45.51856" lon="6.80505">
        <ele>1648.8519</ele>
        <time>2015-08-21T07:24:02Z</time>
      </trkpt>
      <trkpt lat="45.5185" lon="6.80523">
        <ele>1644.9381</ele>
        <time>2015-08-21T07:24:12Z</time>
      </trkpt>
      <trkpt lat="45.51847" lon="6.80527">
        <ele>1644.9381</ele>
        <time>2015-08-21T07:24:17Z</time>
      </trkpt>
      <trkpt lat="45.51841" lon="6.80535">
        <ele>1639.5178</ele>
        <time>2015-08-21T07:24:27Z</time>
      </trkpt>
      <trkpt lat="45.51835" lon="6.80545">
        <ele>1639.5178</ele>
        <time>2015-08-21T07:24:32Z</time>
      </trkpt>
      <trkpt lat="45.51829" lon="6.80559">
        <ele>1633.891</ele>
        <time>2015-08-21T07:24:42Z</time>
      </trkpt>
      <trkpt lat="45.51825" lon="6.80566">
        <ele>1633.891</ele>
        <time>2015-08-21T07:24:47Z</time>
      </trkpt>
      <trkpt lat="45.5182" lon="6.80568">
        <ele>1628.5328</ele>
        <time>2015-08-21T07:24:57Z</time>
      </trkpt>
      <trkpt lat="45.5182" lon="6.80568">
        <ele>1628.5328</ele>
        <time>2015-08-21T07:25:02Z</time>
      </trkpt>
      <trkpt lat="45.51818" lon="6.8057">
        <ele>1628.5328</ele>
        <time>2015-08-21T07:25:32Z</time>
      </trkpt>
      <trkpt lat="45.51815" lon="6.80576">
        <ele>1628.5328</ele>
        <time>2015-08-21T07:25:37Z</time>
      </trkpt>
      <trkpt lat="45.51812" lon="6.8058">
        <ele>1623.6984</ele>
        <time>2015-08-21T07:25:47Z</time>
      </trkpt>
      <trkpt lat="45.51811" lon="6.80584">
        <ele>1623.6984</ele>
        <time>2015-08-21T07:25:52Z</time>
      </trkpt>
      <trkpt lat="45.51807" lon="6.80596">
        <ele>1618.8788</ele>
        <time>2015-08-21T07:26:02Z</time>
      </trkpt>
      <trkpt lat="45.51805" lon="6.80601">
        <ele>1618.8788</ele>
        <time>2015-08-21T07:26:07Z</time>
      </trkpt>
      <trkpt lat="45.51801" lon="6.80612">
        <ele>1614.2274</ele>
        <time>2015-08-21T07:26:17Z</time>
      </trkpt>
      <trkpt lat="45.51798" lon="6.80617">
        <ele>1614.2274</ele>
        <time>2015-08-21T07:26:22Z</time>
      </trkpt>
      <trkpt lat="45.51793" lon="6.80627">
        <ele>1609.7815</ele>
        <time>2015-08-21T07:26:32Z</time>
      </trkpt>
      <trkpt lat="45.51791" lon="6.80632">
        <ele>1609.7815</ele>
        <time>2015-08-21T07:26:37Z</time>
      </trkpt>
      <trkpt lat="45.51787" lon="6.80642">
        <ele>1605.8779</ele>
        <time>2015-08-21T07:26:47Z</time>
      </trkpt>
      <trkpt lat="45.51785" lon="6.80649">
        <ele>1605.8779</ele>
        <time>2015-08-21T07:26:52Z</time>
      </trkpt>
      <trkpt lat="45.51782" lon="6.80662">
        <ele>1602.6499</ele>
        <time>2015-08-21T07:27:07Z</time>
      </trkpt>
      <trkpt lat="45.51781" lon="6.8067">
        <ele>1602.6499</ele>
        <time>2015-08-21T07:27:12Z</time>
      </trkpt>
      <trkpt lat="45.51782" lon="6.80678">
        <ele>1599.7888</ele>
        <time>2015-08-21T07:27:22Z</time>
      </trkpt>
      <trkpt lat="45.51782" lon="6.80681">
        <ele>1599.7888</ele>
        <time>2015-08-21T07:27:27Z</time>
      </trkpt>
      <trkpt lat="45.51776" lon="6.8069">
        <ele>1596.7821</ele>
        <time>2015-08-21T07:27:37Z</time>
      </trkpt>
      <trkpt lat="45.51775" lon="6.80695">
        <ele>1596.7821</ele>
        <time>2015-08-21T07:27:42Z</time>
      </trkpt>
      <trkpt lat="45.5177" lon="6.80705">
        <ele>1593.8314</ele>
        <time>2015-08-21T07:27:52Z</time>
      </trkpt>
      <trkpt lat="45.51767" lon="6.80712">
        <ele>1593.8314</ele>
        <time>2015-08-21T07:27:57Z</time>
      </trkpt>
      <trkpt lat="45.51765" lon="6.80722">
        <ele>1591.092</ele>
        <time>2015-08-21T07:28:07Z</time>
      </trkpt>
      <trkpt lat="45.51761" lon="6.80735">
        <ele>1588.6655</ele>
        <time>2015-08-21T07:28:12Z</time>
      </trkpt>
      <trkpt lat="45.51762" lon="6.80744">
        <ele>1588.6655</ele>
        <time>2015-08-21T07:28:22Z</time>
      </trkpt>
      <trkpt lat="45.51764" lon="6.80749">
        <ele>1586.7535</ele>
        <time>2015-08-21T07:28:27Z</time>
      </trkpt>
      <trkpt lat="45.51766" lon="6.80758">
        <ele>1586.7535</ele>
        <time>2015-08-21T07:28:37Z</time>
      </trkpt>
      <trkpt lat="45.51766" lon="6.80761">
        <ele>1586.7535</ele>
        <time>2015-08-21T07:28:42Z</time>
      </trkpt>
      <trkpt lat="45.51763" lon="6.80768">
        <ele>1585.3885</ele>
        <time>2015-08-21T07:28:57Z</time>
      </trkpt>
      <trkpt lat="45.51763" lon="6.80772">
        <ele>1585.3885</ele>
        <time>2015-08-21T07:29:02Z</time>
      </trkpt>
      <trkpt lat="45.51757" lon="6.80785">
        <ele>1584.4132</ele>
        <time>2015-08-21T07:29:12Z</time>
      </trkpt>
      <trkpt lat="45.51756" lon="6.80787">
        <ele>1584.4132</ele>
        <time>2015-08-21T07:29:17Z</time>
      </trkpt>
      <trkpt lat="45.51751" lon="6.80796">
        <ele>1583.8999</ele>
        <time>2015-08-21T07:29:27Z</time>
      </trkpt>
      <trkpt lat="45.5175" lon="6.80801">
        <ele>1583.8999</ele>
        <time>2015-08-21T07:29:32Z</time>
      </trkpt>
      <trkpt lat="45.51744" lon="6.80809">
        <ele>1583.536</ele>
        <time>2015-08-21T07:29:42Z</time>
      </trkpt>
      <trkpt lat="45.51742" lon="6.8081">
        <ele>1583.536</ele>
        <time>2015-08-21T07:29:47Z</time>
      </trkpt>
      <trkpt lat="45.51738" lon="6.80817">
        <ele>1583.536</ele>
        <time>2015-08-21T07:29:57Z</time>
      </trkpt>
      <trkpt lat="45.51735" lon="6.80826">
        <ele>1583.8766</ele>
        <time>2015-08-21T07:30:02Z</time>
      </trkpt>
      <trkpt lat="45.51725" lon="6.80843">
        <ele>1584.429</ele>
        <time>2015-08-21T07:30:17Z</time>
      </trkpt>
      <trkpt lat="45.51722" lon="6.8085">
        <ele>1584.429</ele>
        <time>2015-08-21T07:30:22Z</time>
      </trkpt>
      <trkpt lat="45.5172" lon="6.80865">
        <ele>1585.4088</ele>
        <time>2015-08-21T07:30:32Z</time>
      </trkpt>
      <trkpt lat="45.51716" lon="6.80869">
        <ele>1585.4088</ele>
        <time>2015-08-21T07:30:37Z</time>
      </trkpt>
      <trkpt lat="45.51711" lon="6.80873">
        <ele>1586.6144</ele>
        <time>2015-08-21T07:30:47Z</time>
      </trkpt>
      <trkpt lat="45.51711" lon="6.80875">
        <ele>1586.6144</ele>
        <time>2015-08-21T07:30:52Z</time>
      </trkpt>
      <trkpt lat="45.51707" lon="6.80886">
        <ele>1587.7618</ele>
        <time>2015-08-21T07:31:02Z</time>
      </trkpt>
      <trkpt lat="45.51703" lon="6.80893">
        <ele>1587.7618</ele>
        <time>2015-08-21T07:31:07Z</time>
      </trkpt>
      <trkpt lat="45.51697" lon="6.80905">
        <ele>1589.1155</ele>
        <time>2015-08-21T07:31:17Z</time>
      </trkpt>
      <trkpt lat="45.51695" lon="6.80909">
        <ele>1589.1155</ele>
        <time>2015-08-21T07:31:22Z</time>
      </trkpt>
      <trkpt lat="45.51695" lon="6.8092">
        <ele>1590.4617</ele>
        <time>2015-08-21T07:31:32Z</time>
      </trkpt>
      <trkpt lat="45.51693" lon="6.80924">
        <ele>1590.4617</ele>
        <time>2015-08-21T07:31:37Z</time>
      </trkpt>
      <trkpt lat="45.51686" lon="6.8093">
        <ele>1591.7253</ele>
        <time>2015-08-21T07:31:47Z</time>
      </trkpt>
      <trkpt lat="45.51686" lon="6.80934">
        <ele>1591.7253</ele>
        <time>2015-08-21T07:31:52Z</time>
      </trkpt>
      <trkpt lat="45.51684" lon="6.8094">
        <ele>1591.7253</ele>
        <time>2015-08-21T07:32:02Z</time>
      </trkpt>
      <trkpt lat="45.51682" lon="6.80944">
        <ele>1592.8784</ele>
        <time>2015-08-21T07:32:07Z</time>
      </trkpt>
      <trkpt lat="45.51676" lon="6.80954">
        <ele>1594.1512</ele>
        <time>2015-08-21T07:32:17Z</time>
      </trkpt>
      <trkpt lat="45.51673" lon="6.80958">
        <ele>1594.1512</ele>
        <time>2015-08-21T07:32:22Z</time>
      </trkpt>
      <trkpt lat="45.5167" lon="6.80965">
        <ele>1596.0789</ele>
        <time>2015-08-21T07:32:32Z</time>
      </trkpt>
      <trkpt lat="45.51669" lon="6.80969">
        <ele>1596.0789</ele>
        <time>2015-08-21T07:32:37Z</time>
      </trkpt>
      <trkpt lat="45.51668" lon="6.80978">
        <ele>1596.0789</ele>
        <time>2015-08-21T07:32:47Z</time>
      </trkpt>
      <trkpt lat="45.51665" lon="6.80981">
        <ele>1598.1981</ele>
        <time>2015-08-21T07:32:52Z</time>
      </trkpt>
      <trkpt lat="45.5166" lon="6.80991">
        <ele>1600.418</ele>
        <time>2015-08-21T07:33:07Z</time>
      </trkpt>
      <trkpt lat="45.51657" lon="6.80992">
        <ele>1600.418</ele>
        <time>2015-08-21T07:33:12Z</time>
      </trkpt>
      <trkpt lat="45.51654" lon="6.80998">
        <ele>1600.418</ele>
        <time>2015-08-21T07:33:22Z</time>
      </trkpt>
      <trkpt lat="45.51656" lon="6.81002">
        <ele>1602.7107</ele>
        <time>2015-08-21T07:33:27Z</time>
      </trkpt>
      <trkpt lat="45.51656" lon="6.81013">
        <ele>1602.7107</ele>
        <time>2015-08-21T07:33:37Z</time>
      </trkpt>
      <trkpt lat="45.51658" lon="6.81019">
        <ele>1605.0345</ele>
        <time>2015-08-21T07:33:42Z</time>
      </trkpt>
      <trkpt lat="45.51656" lon="6.81025">
        <ele>1605.0345</ele>
        <time>2015-08-21T07:33:52Z</time>
      </trkpt>
      <trkpt lat="45.51654" lon="6.81025">
        <ele>1605.0345</ele>
        <time>2015-08-21T07:33:57Z</time>
      </trkpt>
      <trkpt lat="45.51648" lon="6.8103">
        <ele>1607.3953</ele>
        <time>2015-08-21T07:34:07Z</time>
      </trkpt>
      <trkpt lat="45.51647" lon="6.81034">
        <ele>1607.3953</ele>
        <time>2015-08-21T07:34:12Z</time>
      </trkpt>
      <trkpt lat="45.51643" lon="6.8104">
        <ele>1607.3953</ele>
        <time>2015-08-21T07:34:22Z</time>
      </trkpt>
      <trkpt lat="45.51642" lon="6.81043">
        <ele>1609.9471</ele>
        <time>2015-08-21T07:34:27Z</time>
      </trkpt>
      <trkpt lat="45.51641" lon="6.8105">
        <ele>1609.9471</ele>
        <time>2015-08-21T07:34:37Z</time>
      </trkpt>
      <trkpt lat="45.51641" lon="6.81054">
        <ele>1609.9471</ele>
        <time>2015-08-21T07:34:42Z</time>
      </trkpt>
      <trkpt lat="45.51644" lon="6.8106">
        <ele>1612.4906</ele>
        <time>2015-08-21T07:34:52Z</time>
      </trkpt>
      <trkpt lat="45.51645" lon="6.81064">
        <ele>1612.4906</ele>
        <time>2015-08-21T07:34:57Z</time>
      </trkpt>
      <trkpt lat="45.51642" lon="6.81072">
        <ele>1614.9891</ele>
        <time>2015-08-21T07:35:07Z</time>
      </trkpt>
      <trkpt lat="45.51641" lon="6.81076">
        <ele>1614.9891</ele>
        <time>2015-08-21T07:35:12Z</time>
      </trkpt>
      <trkpt lat="45.51635" lon="6.81081">
        <ele>1617.334</ele>
        <time>2015-08-21T07:35:22Z</time>
      </trkpt>
      <trkpt lat="45.51633" lon="6.81085">
        <ele>1617.334</ele>
        <time>2015-08-21T07:35:27Z</time>
      </trkpt>
      <trkpt lat="45.51631" lon="6.81092">
        <ele>1617.334</ele>
        <time>2015-08-21T07:35:37Z</time>
      </trkpt>
      <trkpt lat="45.51631" lon="6.81095">
        <ele>1619.8021</ele>
        <time>2015-08-21T07:35:42Z</time>
      </trkpt>
      <trkpt lat="45.51628" lon="6.81099">
        <ele>1619.8021</ele>
        <time>2015-08-21T07:35:52Z</time>
      </trkpt>
      <trkpt lat="45.51626" lon="6.81101">
        <ele>1619.8021</ele>
        <time>2015-08-21T07:35:57Z</time>
      </trkpt>
      <trkpt lat="45.51626" lon="6.81111">
        <ele>1622.3944</ele>
        <time>2015-08-21T07:36:07Z</time>
      </trkpt>
      <trkpt lat="45.51625" lon="6.81116">
        <ele>1622.3944</ele>
        <time>2015-08-21T07:36:12Z</time>
      </trkpt>
      <trkpt lat="45.51625" lon="6.81118">
        <ele>1622.3944</ele>
        <time>2015-08-21T07:36:22Z</time>
      </trkpt>
      <trkpt lat="45.51627" lon="6.81118">
        <ele>1622.3944</ele>
        <time>2015-08-21T07:36:27Z</time>
      </trkpt>
      <trkpt lat="45.51624" lon="6.81118">
        <ele>1622.3944</ele>
        <time>2015-08-21T07:36:37Z</time>
      </trkpt>
      <trkpt lat="45.51623" lon="6.81119">
        <ele>1625.2618</ele>
        <time>2015-08-21T07:36:42Z</time>
      </trkpt>
      <trkpt lat="45.51623" lon="6.81128">
        <ele>1625.2618</ele>
        <time>2015-08-21T07:36:57Z</time>
      </trkpt>
      <trkpt lat="45.51622" lon="6.8113">
        <ele>1625.2618</ele>
        <time>2015-08-21T07:37:02Z</time>
      </trkpt>
      <trkpt lat="45.51621" lon="6.81134">
        <ele>1627.9548</ele>
        <time>2015-08-21T07:37:12Z</time>
      </trkpt>
      <trkpt lat="45.5162" lon="6.81139">
        <ele>1627.9548</ele>
        <time>2015-08-21T07:37:17Z</time>
      </trkpt>
      <trkpt lat="45.51618" lon="6.81145">
        <ele>1627.9548</ele>
        <time>2015-08-21T07:37:27Z</time>
      </trkpt>
      <trkpt lat="45.51616" lon="6.81148">
        <ele>1630.391</ele>
        <time>2015-08-21T07:37:32Z</time>
      </trkpt>
      <trkpt lat="45.51612" lon="6.81153">
        <ele>1630.391</ele>
        <time>2015-08-21T07:37:42Z</time>
      </trkpt>
      <trkpt lat="45.51611" lon="6.81157">
        <ele>1630.391</ele>
        <time>2015-08-21T07:37:47Z</time>
      </trkpt>
      <trkpt lat="45.51605" lon="6.81167">
        <ele>1632.8732</ele>
        <time>2015-08-21T07:37:57Z</time>
      </trkpt>
      <trkpt lat="45.51604" lon="6.81172">
        <ele>1632.8732</ele>
        <time>2015-08-21T07:38:02Z</time>
      </trkpt>
      <trkpt lat="45.516" lon="6.81178">
        <ele>1635.2736</ele>
        <time>2015-08-21T07:38:12Z</time>
      </trkpt>
      <trkpt lat="45.51599" lon="6.8118">
        <ele>1635.2736</ele>
        <time>2015-08-21T07:38:17Z</time>
      </trkpt>
      <trkpt lat="45.51603" lon="6.81191">
        <ele>1637.7909</ele>
        <time>2015-08-21T07:38:32Z</time>
      </trkpt>
      <trkpt lat="45.51604" lon="6.81196">
        <ele>1637.7909</ele>
        <time>2015-08-21T07:38:37Z</time>
      </trkpt>
      <trkpt lat="45.516" lon="6.81202">
        <ele>1640.3673</ele>
        <time>2015-08-21T07:38:47Z</time>
      </trkpt>
      <trkpt lat="45.51597" lon="6.81206">
        <ele>1640.3673</ele>
        <time>2015-08-21T07:38:52Z</time>
      </trkpt>
      <trkpt lat="45.51595" lon="6.81214">
        <ele>1642.7852</ele>
        <time>2015-08-21T07:39:02Z</time>
      </trkpt>
      <trkpt lat="45.51595" lon="6.81216">
        <ele>1642.7852</ele>
        <time>2015-08-21T07:39:07Z</time>
      </trkpt>
      <trkpt lat="45.51596" lon="6.81222">
        <ele>1642.7852</ele>
        <time>2015-08-21T07:39:17Z</time>
      </trkpt>
      <trkpt lat="45.51596" lon="6.81222">
        <ele>1642.7852</ele>
        <time>2015-08-21T07:39:22Z</time>
      </trkpt>
      <trkpt lat="45.51598" lon="6.81238">
        <ele>1645.2489</ele>
        <time>2015-08-21T07:39:32Z</time>
      </trkpt>
      <trkpt lat="45.51599" lon="6.81242">
        <ele>1645.2489</ele>
        <time>2015-08-21T07:39:37Z</time>
      </trkpt>
      <trkpt lat="45.51597" lon="6.81248">
        <ele>1645.2489</ele>
        <time>2015-08-21T07:39:47Z</time>
      </trkpt>
      <trkpt lat="45.51596" lon="6.8125">
        <ele>1647.5731</ele>
        <time>2015-08-21T07:39:52Z</time>
      </trkpt>
      <trkpt lat="45.51593" lon="6.81252">
        <ele>1647.5731</ele>
        <time>2015-08-21T07:40:02Z</time>
      </trkpt>
      <trkpt lat="45.51594" lon="6.81255">
        <ele>1647.5731</ele>
        <time>2015-08-21T07:40:07Z</time>
      </trkpt>
      <trkpt lat="45.51588" lon="6.81268">
        <ele>1649.8862</ele>
        <time>2015-08-21T07:40:22Z</time>
      </trkpt>
      <trkpt lat="45.51586" lon="6.8127">
        <ele>1649.8862</ele>
        <time>2015-08-21T07:40:27Z</time>
      </trkpt>
      <trkpt lat="45.51583" lon="6.81274">
        <ele>1649.8862</ele>
        <time>2015-08-21T07:40:37Z</time>
      </trkpt>
      <trkpt lat="45.51582" lon="6.81276">
        <ele>1649.8862</ele>
        <time>2015-08-21T07:40:42Z</time>
      </trkpt>
      <trkpt lat="45.51582" lon="6.81283">
        <ele>1652.3649</ele>
        <time>2015-08-21T07:40:52Z</time>
      </trkpt>
      <trkpt lat="45.51579" lon="6.81286">
        <ele>1652.3649</ele>
        <time>2015-08-21T07:40:57Z</time>
      </trkpt>
      <trkpt lat="45.51576" lon="6.8129">
        <ele>1652.3649</ele>
        <time>2015-08-21T07:41:07Z</time>
      </trkpt>
      <trkpt lat="45.51574" lon="6.81293">
        <ele>1654.6827</ele>
        <time>2015-08-21T07:41:12Z</time>
      </trkpt>
      <trkpt lat="45.51574" lon="6.81301">
        <ele>1654.6827</ele>
        <time>2015-08-21T07:41:22Z</time>
      </trkpt>
      <trkpt lat="45.51573" lon="6.81304">
        <ele>1654.6827</ele>
        <time>2015-08-21T07:41:27Z</time>
      </trkpt>
      <trkpt lat="45.5157" lon="6.81307">
        <ele>1657.1166</ele>
        <time>2015-08-21T07:41:37Z</time>
      </trkpt>
      <trkpt lat="45.5157" lon="6.81309">
        <ele>1657.1166</ele>
        <time>2015-08-21T07:41:42Z</time>
      </trkpt>
      <trkpt lat="45.51569" lon="6.81316">
        <ele>1657.1166</ele>
        <time>2015-08-21T07:41:52Z</time>
      </trkpt>
      <trkpt lat="45.51567" lon="6.81318">
        <ele>1657.1166</ele>
        <time>2015-08-21T07:41:57Z</time>
      </trkpt>
      <trkpt lat="45.51567" lon="6.81332">
        <ele>1659.8169</ele>
        <time>2015-08-21T07:42:12Z</time>
      </trkpt>
      <trkpt lat="45.51566" lon="6.81335">
        <ele>1659.8169</ele>
        <time>2015-08-21T07:42:17Z</time>
      </trkpt>
      <trkpt lat="45.51565" lon="6.81336">
        <ele>1659.8169</ele>
        <time>2015-08-21T07:42:27Z</time>
      </trkpt>
      <trkpt lat="45.51563" lon="6.81339">
        <ele>1659.8169</ele>
        <time>2015-08-21T07:42:32Z</time>
      </trkpt>
      <trkpt lat="45.5156" lon="6.81345">
        <ele>1662.5834</ele>
        <time>2015-08-21T07:42:42Z</time>
      </trkpt>
      <trkpt lat="45.51562" lon="6.81348">
        <ele>1662.5834</ele>
        <time>2015-08-21T07:42:47Z</time>
      </trkpt>
      <trkpt lat="45.51562" lon="6.81356">
        <ele>1662.5834</ele>
        <time>2015-08-21T07:42:57Z</time>
      </trkpt>
      <trkpt lat="45.51562" lon="6.81357">
        <ele>1665.2909</ele>
        <time>2015-08-21T07:43:02Z</time>
      </trkpt>
      <trkpt lat="45.51564" lon="6.81362">
        <ele>1665.2909</ele>
        <time>2015-08-21T07:43:12Z</time>
      </trkpt>
      <trkpt lat="45.51565" lon="6.81365">
        <ele>1665.2909</ele>
        <time>2015-08-21T07:43:17Z</time>
      </trkpt>
      <trkpt lat="45.5156" lon="6.8137">
        <ele>1668.059</ele>
        <time>2015-08-21T07:43:27Z</time>
      </trkpt>
      <trkpt lat="45.51558" lon="6.81371">
        <ele>1668.059</ele>
        <time>2015-08-21T07:43:32Z</time>
      </trkpt>
      <trkpt lat="45.51554" lon="6.81377">
        <ele>1668.059</ele>
        <time>2015-08-21T07:43:42Z</time>
      </trkpt>
      <trkpt lat="45.51552" lon="6.81379">
        <ele>1670.4424</ele>
        <time>2015-08-21T07:43:47Z</time>
      </trkpt>
      <trkpt lat="45.51554" lon="6.81387">
        <ele>1670.4424</ele>
        <time>2015-08-21T07:43:57Z</time>
      </trkpt>
      <trkpt lat="45.51556" lon="6.81392">
        <ele>1672.6743</ele>
        <time>2015-08-21T07:44:02Z</time>
      </trkpt>
      <trkpt lat="45.51555" lon="6.814">
        <ele>1672.6743</ele>
        <time>2015-08-21T07:44:17Z</time>
      </trkpt>
      <trkpt lat="45.51554" lon="6.81403">
        <ele>1672.6743</ele>
        <time>2015-08-21T07:44:22Z</time>
      </trkpt>
      <trkpt lat="45.51554" lon="6.81411">
        <ele>1675.0272</ele>
        <time>2015-08-21T07:44:32Z</time>
      </trkpt>
      <trkpt lat="45.51554" lon="6.81414">
        <ele>1675.0272</ele>
        <time>2015-08-21T07:44:37Z</time>
      </trkpt>
      <trkpt lat="45.51555" lon="6.81422">
        <ele>1675.0272</ele>
        <time>2015-08-21T07:44:47Z</time>
      </trkpt>
      <trkpt lat="45.51552" lon="6.81425">
        <ele>1677.4329</ele>
        <time>2015-08-21T07:44:52Z</time>
      </trkpt>
      <trkpt lat="45.51549" lon="6.81428">
        <ele>1677.4329</ele>
        <time>2015-08-21T07:45:02Z</time>
      </trkpt>
      <trkpt lat="45.5155" lon="6.81432">
        <ele>1677.4329</ele>
        <time>2015-08-21T07:45:07Z</time>
      </trkpt>
      <trkpt lat="45.51553" lon="6.81441">
        <ele>1679.8713</ele>
        <time>2015-08-21T07:45:17Z</time>
      </trkpt>
      <trkpt lat="45.51554" lon="6.81446">
        <ele>1679.8713</ele>
        <time>2015-08-21T07:45:22Z</time>
      </trkpt>
      <trkpt lat="45.51556" lon="6.81455">
        <ele>1682.1653</ele>
        <time>2015-08-21T07:45:32Z</time>
      </trkpt>
      <trkpt lat="45.51557" lon="6.81458">
        <ele>1682.1653</ele>
        <time>2015-08-21T07:45:37Z</time>
      </trkpt>
      <trkpt lat="45.51558" lon="6.81465">
        <ele>1682.1653</ele>
        <time>2015-08-21T07:45:47Z</time>
      </trkpt>
      <trkpt lat="45.51555" lon="6.81469">
        <ele>1684.3396</ele>
        <time>2015-08-21T07:45:52Z</time>
      </trkpt>
      <trkpt lat="45.51554" lon="6.81474">
        <ele>1684.3396</ele>
        <time>2015-08-21T07:46:02Z</time>
      </trkpt>
      <trkpt lat="45.51552" lon="6.81478">
        <ele>1684.3396</ele>
        <time>2015-08-21T07:46:07Z</time>
      </trkpt>
      <trkpt lat="45.51547" lon="6.8148">
        <ele>1686.4032</ele>
        <time>2015-08-21T07:46:17Z</time>
      </trkpt>
      <trkpt lat="45.51546" lon="6.81482">
        <ele>1686.4032</ele>
        <time>2015-08-21T07:46:22Z</time>
      </trkpt>
      <trkpt lat="45.5154" lon="6.81488">
        <ele>1688.249</ele>
        <time>2015-08-21T07:46:37Z</time>
      </trkpt>
      <trkpt lat="45.5154" lon="6.8149">
        <ele>1688.249</ele>
        <time>2015-08-21T07:46:42Z</time>
      </trkpt>
      <trkpt lat="45.51538" lon="6.81492">
        <ele>1688.249</ele>
        <time>2015-08-21T07:46:52Z</time>
      </trkpt>
      <trkpt lat="45.51536" lon="6.81491">
        <ele>1688.249</ele>
        <time>2015-08-21T07:46:57Z</time>
      </trkpt>
      <trkpt lat="45.51533" lon="6.81493">
        <ele>1690.1832</ele>
        <time>2015-08-21T07:47:07Z</time>
      </trkpt>
      <trkpt lat="45.51534" lon="6.81493">
        <ele>1690.1832</ele>
        <time>2015-08-21T07:47:12Z</time>
      </trkpt>
      <trkpt lat="45.51533" lon="6.81494">
        <ele>1690.1832</ele>
        <time>2015-08-21T07:47:22Z</time>
      </trkpt>
      <trkpt lat="45.51534" lon="6.81496">
        <ele>1690.1832</ele>
        <time>2015-08-21T07:47:27Z</time>
      </trkpt>
      <trkpt lat="45.51532" lon="6.81496">
        <ele>1690.1832</ele>
        <time>2015-08-21T07:47:37Z</time>
      </trkpt>
      <trkpt lat="45.51529" lon="6.81496">
        <ele>1690.1832</ele>
        <time>2015-08-21T07:47:42Z</time>
      </trkpt>
      <trkpt lat="45.51527" lon="6.81501">
        <ele>1692.1565</ele>
        <time>2015-08-21T07:47:52Z</time>
      </trkpt>
      <trkpt lat="45.51526" lon="6.81506">
        <ele>1692.1565</ele>
        <time>2015-08-21T07:47:57Z</time>
      </trkpt>
      <trkpt lat="45.51523" lon="6.81509">
        <ele>1692.1565</ele>
        <time>2015-08-21T07:48:07Z</time>
      </trkpt>
      <trkpt lat="45.51523" lon="6.8151">
        <ele>1692.1565</ele>
        <time>2015-08-21T07:48:12Z</time>
      </trkpt>
      <trkpt lat="45.51519" lon="6.81519">
        <ele>1694.2965</ele>
        <time>2015-08-21T07:48:27Z</time>
      </trkpt>
      <trkpt lat="45.51518" lon="6.81522">
        <ele>1694.2965</ele>
        <time>2015-08-21T07:48:32Z</time>
      </trkpt>
      <trkpt lat="45.51515" lon="6.81528">
        <ele>1694.2965</ele>
        <time>2015-08-21T07:48:42Z</time>
      </trkpt>
      <trkpt lat="45.51513" lon="6.81532">
        <ele>1696.4469</ele>
        <time>2015-08-21T07:48:47Z</time>
      </trkpt>
      <trkpt lat="45.51515" lon="6.81539">
        <ele>1696.4469</ele>
        <time>2015-08-21T07:48:57Z</time>
      </trkpt>
      <trkpt lat="45.51516" lon="6.81543">
        <ele>1696.4469</ele>
        <time>2015-08-21T07:49:02Z</time>
      </trkpt>
      <trkpt lat="45.51512" lon="6.81546">
        <ele>1698.6793</ele>
        <time>2015-08-21T07:49:12Z</time>
      </trkpt>
      <trkpt lat="45.51511" lon="6.81549">
        <ele>1698.6793</ele>
        <time>2015-08-21T07:49:17Z</time>
      </trkpt>
      <trkpt lat="45.51513" lon="6.81559">
        <ele>1700.7863</ele>
        <time>2015-08-21T07:49:27Z</time>
      </trkpt>
      <trkpt lat="45.51512" lon="6.81564">
        <ele>1700.7863</ele>
        <time>2015-08-21T07:49:32Z</time>
      </trkpt>
      <trkpt lat="45.5151" lon="6.81569">
        <ele>1700.7863</ele>
        <time>2015-08-21T07:49:42Z</time>
      </trkpt>
      <trkpt lat="45.51509" lon="6.81571">
        <ele>1703.0079</ele>
        <time>2015-08-21T07:49:47Z</time>
      </trkpt>
      <trkpt lat="45.51506" lon="6.81577">
        <ele>1703.0079</ele>
        <time>2015-08-21T07:49:57Z</time>
      </trkpt>
      <trkpt lat="45.51505" lon="6.8158">
        <ele>1703.0079</ele>
        <time>2015-08-21T07:50:02Z</time>
      </trkpt>
      <trkpt lat="45.51504" lon="6.81587">
        <ele>1705.1202</ele>
        <time>2015-08-21T07:50:12Z</time>
      </trkpt>
      <trkpt lat="45.51504" lon="6.81591">
        <ele>1705.1202</ele>
        <time>2015-08-21T07:50:17Z</time>
      </trkpt>
      <trkpt lat="45.51501" lon="6.81595">
        <ele>1705.1202</ele>
        <time>2015-08-21T07:50:27Z</time>
      </trkpt>
      <trkpt lat="45.51499" lon="6.816">
        <ele>1707.0452</ele>
        <time>2015-08-21T07:50:32Z</time>
      </trkpt>
      <trkpt lat="45.51494" lon="6.81606">
        <ele>1707.0452</ele>
        <time>2015-08-21T07:50:42Z</time>
      </trkpt>
      <trkpt lat="45.51494" lon="6.8161">
        <ele>1708.8268</ele>
        <time>2015-08-21T07:50:47Z</time>
      </trkpt>
      <trkpt lat="45.51492" lon="6.81616">
        <ele>1708.8268</ele>
        <time>2015-08-21T07:50:57Z</time>
      </trkpt>
      <trkpt lat="45.5149" lon="6.81619">
        <ele>1708.8268</ele>
        <time>2015-08-21T07:51:02Z</time>
      </trkpt>
      <trkpt lat="45.51484" lon="6.81626">
        <ele>1710.924</ele>
        <time>2015-08-21T07:51:17Z</time>
      </trkpt>
      <trkpt lat="45.51483" lon="6.81626">
        <ele>1710.924</ele>
        <time>2015-08-21T07:51:22Z</time>
      </trkpt>
      <trkpt lat="45.51483" lon="6.81626">
        <ele>1710.924</ele>
        <time>2015-08-21T07:51:32Z</time>
      </trkpt>
      <trkpt lat="45.51481" lon="6.81627">
        <ele>1710.924</ele>
        <time>2015-08-21T07:51:47Z</time>
      </trkpt>
      <trkpt lat="45.51477" lon="6.81631">
        <ele>1710.924</ele>
        <time>2015-08-21T07:51:52Z</time>
      </trkpt>
      <trkpt lat="45.51472" lon="6.81631">
        <ele>1713.3146</ele>
        <time>2015-08-21T07:52:02Z</time>
      </trkpt>
      <trkpt lat="45.51467" lon="6.81634">
        <ele>1713.3146</ele>
        <time>2015-08-21T07:52:07Z</time>
      </trkpt>
      <trkpt lat="45.5146" lon="6.81639">
        <ele>1715.6309</ele>
        <time>2015-08-21T07:52:17Z</time>
      </trkpt>
      <trkpt lat="45.51457" lon="6.81638">
        <ele>1715.6309</ele>
        <time>2015-08-21T07:52:22Z</time>
      </trkpt>
      <trkpt lat="45.51453" lon="6.81641">
        <ele>1715.6309</ele>
        <time>2015-08-21T07:52:32Z</time>
      </trkpt>
      <trkpt lat="45.51453" lon="6.81641">
        <ele>1715.6309</ele>
        <time>2015-08-21T07:52:37Z</time>
      </trkpt>
      <trkpt lat="45.5145" lon="6.81642">
        <ele>1718.2103</ele>
        <time>2015-08-21T07:52:47Z</time>
      </trkpt>
      <trkpt lat="45.51447" lon="6.81642">
        <ele>1718.2103</ele>
        <time>2015-08-21T07:52:52Z</time>
      </trkpt>
      <trkpt lat="45.51444" lon="6.81643">
        <ele>1718.2103</ele>
        <time>2015-08-21T07:53:02Z</time>
      </trkpt>
      <trkpt lat="45.51442" lon="6.81644">
        <ele>1718.2103</ele>
        <time>2015-08-21T07:53:07Z</time>
      </trkpt>
      <trkpt lat="45.51438" lon="6.8165">
        <ele>1720.9464</ele>
        <time>2015-08-21T07:53:22Z</time>
      </trkpt>
      <trkpt lat="45.51438" lon="6.81654">
        <ele>1720.9464</ele>
        <time>2015-08-21T07:53:27Z</time>
      </trkpt>
      <trkpt lat="45.51438" lon="6.81659">
        <ele>1720.9464</ele>
        <time>2015-08-21T07:53:37Z</time>
      </trkpt>
      <trkpt lat="45.51438" lon="6.81662">
        <ele>1720.9464</ele>
        <time>2015-08-21T07:53:42Z</time>
      </trkpt>
      <trkpt lat="45.51434" lon="6.81671">
        <ele>1723.7258</ele>
        <time>2015-08-21T07:53:52Z</time>
      </trkpt>
      <trkpt lat="45.51433" lon="6.81675">
        <ele>1723.7258</ele>
        <time>2015-08-21T07:53:57Z</time>
      </trkpt>
      <trkpt lat="45.51431" lon="6.8168">
        <ele>1723.7258</ele>
        <time>2015-08-21T07:54:07Z</time>
      </trkpt>
      <trkpt lat="45.51431" lon="6.81685">
        <ele>1726.3425</ele>
        <time>2015-08-21T07:54:12Z</time>
      </trkpt>
      <trkpt lat="45.51428" lon="6.81688">
        <ele>1726.3425</ele>
        <time>2015-08-21T07:54:22Z</time>
      </trkpt>
      <trkpt lat="45.51427" lon="6.81692">
        <ele>1726.3425</ele>
        <time>2015-08-21T07:54:27Z</time>
      </trkpt>
      <trkpt lat="45.51426" lon="6.81695">
        <ele>1726.3425</ele>
        <time>2015-08-21T07:54:37Z</time>
      </trkpt>
      <trkpt lat="45.51425" lon="6.81697">
        <ele>1729.1106</ele>
        <time>2015-08-21T07:54:42Z</time>
      </trkpt>
      <trkpt lat="45.51424" lon="6.81713">
        <ele>1731.7296</ele>
        <time>2015-08-21T07:54:57Z</time>
      </trkpt>
      <trkpt lat="45.51423" lon="6.81718">
        <ele>1731.7296</ele>
        <time>2015-08-21T07:55:02Z</time>
      </trkpt>
      <trkpt lat="45.51423" lon="6.81725">
        <ele>1731.7296</ele>
        <time>2015-08-21T07:55:12Z</time>
      </trkpt>
      <trkpt lat="45.51423" lon="6.81729">
        <ele>1734.3108</ele>
        <time>2015-08-21T07:55:17Z</time>
      </trkpt>
      <trkpt lat="45.5142" lon="6.81733">
        <ele>1734.3108</ele>
        <time>2015-08-21T07:55:27Z</time>
      </trkpt>
      <trkpt lat="45.51414" lon="6.81724">
        <ele>1736.8134</ele>
        <time>2015-08-21T07:55:42Z</time>
      </trkpt>
      <trkpt lat="45.51413" lon="6.81722">
        <ele>1736.8134</ele>
        <time>2015-08-21T07:55:47Z</time>
      </trkpt>
      <trkpt lat="45.51411" lon="6.81721">
        <ele>1736.8134</ele>
        <time>2015-08-21T07:55:57Z</time>
      </trkpt>
      <trkpt lat="45.51411" lon="6.81721">
        <ele>1736.8134</ele>
        <time>2015-08-21T07:56:02Z</time>
      </trkpt>
      <trkpt lat="45.51403" lon="6.81727">
        <ele>1739.3436</ele>
        <time>2015-08-21T07:56:12Z</time>
      </trkpt>
      <trkpt lat="45.51403" lon="6.81729">
        <ele>1739.3436</ele>
        <time>2015-08-21T07:56:17Z</time>
      </trkpt>
      <trkpt lat="45.514" lon="6.81736">
        <ele>1739.3436</ele>
        <time>2015-08-21T07:56:32Z</time>
      </trkpt>
      <trkpt lat="45.51397" lon="6.81737">
        <ele>1742.1016</ele>
        <time>2015-08-21T07:56:37Z</time>
      </trkpt>
      <trkpt lat="45.51396" lon="6.81742">
        <ele>1742.1016</ele>
        <time>2015-08-21T07:56:47Z</time>
      </trkpt>
      <trkpt lat="45.51395" lon="6.81746">
        <ele>1742.1016</ele>
        <time>2015-08-21T07:56:52Z</time>
      </trkpt>
      <trkpt lat="45.5139" lon="6.81756">
        <ele>1744.925</ele>
        <time>2015-08-21T07:57:02Z</time>
      </trkpt>
      <trkpt lat="45.5139" lon="6.81756">
        <ele>1744.925</ele>
        <time>2015-08-21T07:57:07Z</time>
      </trkpt>
      <trkpt lat="45.51386" lon="6.81768">
        <ele>1747.6208</ele>
        <time>2015-08-21T07:57:17Z</time>
      </trkpt>
      <trkpt lat="45.51385" lon="6.81772">
        <ele>1747.6208</ele>
        <time>2015-08-21T07:57:22Z</time>
      </trkpt>
      <trkpt lat="45.51381" lon="6.81779">
        <ele>1747.6208</ele>
        <time>2015-08-21T07:57:32Z</time>
      </trkpt>
      <trkpt lat="45.51379" lon="6.81785">
        <ele>1750.039</ele>
        <time>2015-08-21T07:57:37Z</time>
      </trkpt>
      <trkpt lat="45.51377" lon="6.81791">
        <ele>1750.039</ele>
        <time>2015-08-21T07:57:47Z</time>
      </trkpt>
      <trkpt lat="45.51377" lon="6.81794">
        <ele>1750.039</ele>
        <time>2015-08-21T07:57:52Z</time>
      </trkpt>
      <trkpt lat="45.51382" lon="6.8181">
        <ele>1752.2433</ele>
        <time>2015-08-21T07:58:07Z</time>
      </trkpt>
      <trkpt lat="45.51382" lon="6.81816">
        <ele>1752.2433</ele>
        <time>2015-08-21T07:58:12Z</time>
      </trkpt>
      <trkpt lat="45.51382" lon="6.81824">
        <ele>1754.2792</ele>
        <time>2015-08-21T07:58:22Z</time>
      </trkpt>
      <trkpt lat="45.51383" lon="6.81828">
        <ele>1754.2792</ele>
        <time>2015-08-21T07:58:27Z</time>
      </trkpt>
      <trkpt lat="45.51382" lon="6.81834">
        <ele>1754.2792</ele>
        <time>2015-08-21T07:58:37Z</time>
      </trkpt>
      <trkpt lat="45.5138" lon="6.81836">
        <ele>1756.1746</ele>
        <time>2015-08-21T07:58:42Z</time>
      </trkpt>
      <trkpt lat="45.51378" lon="6.81841">
        <ele>1756.1746</ele>
        <time>2015-08-21T07:58:52Z</time>
      </trkpt>
      <trkpt lat="45.51377" lon="6.81844">
        <ele>1756.1746</ele>
        <time>2015-08-21T07:58:57Z</time>
      </trkpt>
      <trkpt lat="45.5138" lon="6.81851">
        <ele>1757.8983</ele>
        <time>2015-08-21T07:59:07Z</time>
      </trkpt>
      <trkpt lat="45.51378" lon="6.81854">
        <ele>1757.8983</ele>
        <time>2015-08-21T07:59:12Z</time>
      </trkpt>
      <trkpt lat="45.51373" lon="6.81862">
        <ele>1759.5372</ele>
        <time>2015-08-21T07:59:22Z</time>
      </trkpt>
      <trkpt lat="45.51373" lon="6.81866">
        <ele>1759.5372</ele>
        <time>2015-08-21T07:59:27Z</time>
      </trkpt>
      <trkpt lat="45.51374" lon="6.81873">
        <ele>1759.5372</ele>
        <time>2015-08-21T07:59:37Z</time>
      </trkpt>
      <trkpt lat="45.51375" lon="6.81878">
        <ele>1761.2009</ele>
        <time>2015-08-21T07:59:42Z</time>
      </trkpt>
      <trkpt lat="45.51375" lon="6.81888">
        <ele>1761.2009</ele>
        <time>2015-08-21T07:59:52Z</time>
      </trkpt>
      <trkpt lat="45.51374" lon="6.81893">
        <ele>1762.7023</ele>
        <time>2015-08-21T07:59:57Z</time>
      </trkpt>
      <trkpt lat="45.51369" lon="6.81909">
        <ele>1764.128</ele>
        <time>2015-08-21T08:00:12Z</time>
      </trkpt>
      <trkpt lat="45.51368" lon="6.81912">
        <ele>1764.128</ele>
        <time>2015-08-21T08:00:17Z</time>
      </trkpt>
      <trkpt lat="45.51366" lon="6.8192">
        <ele>1764.128</ele>
        <time>2015-08-21T08:00:27Z</time>
      </trkpt>
      <trkpt lat="45.51366" lon="6.81923">
        <ele>1765.5012</ele>
        <time>2015-08-21T08:00:32Z</time>
      </trkpt>
      <trkpt lat="45.51364" lon="6.81929">
        <ele>1765.5012</ele>
        <time>2015-08-21T08:00:42Z</time>
      </trkpt>
      <trkpt lat="45.51365" lon="6.81933">
        <ele>1765.5012</ele>
        <time>2015-08-21T08:00:47Z</time>
      </trkpt>
      <trkpt lat="45.51369" lon="6.81943">
        <ele>1766.872</ele>
        <time>2015-08-21T08:00:57Z</time>
      </trkpt>
      <trkpt lat="45.5137" lon="6.81947">
        <ele>1766.872</ele>
        <time>2015-08-21T08:01:02Z</time>
      </trkpt>
      <trkpt lat="45.5137" lon="6.81962">
        <ele>1768.0846</ele>
        <time>2015-08-21T08:01:12Z</time>
      </trkpt>
      <trkpt lat="45.5137" lon="6.81966">
        <ele>1768.0846</ele>
        <time>2015-08-21T08:01:17Z</time>
      </trkpt>
      <trkpt lat="45.51373" lon="6.81973">
        <ele>1768.0846</ele>
        <time>2015-08-21T08:01:27Z</time>
      </trkpt>
      <trkpt lat="45.51373" lon="6.81977">
        <ele>1769.169</ele>
        <time>2015-08-21T08:01:32Z</time>
      </trkpt>
      <trkpt lat="45.51374" lon="6.81986">
        <ele>1769.169</ele>
        <time>2015-08-21T08:01:42Z</time>
      </trkpt>
      <trkpt lat="45.51373" lon="6.81991">
        <ele>1770.0802</ele>
        <time>2015-08-21T08:01:47Z</time>
      </trkpt>
      <trkpt lat="45.51375" lon="6.81997">
        <ele>1770.0802</ele>
        <time>2015-08-21T08:01:57Z</time>
      </trkpt>
      <trkpt lat="45.51376" lon="6.82">
        <ele>1770.0802</ele>
        <time>2015-08-21T08:02:02Z</time>
      </trkpt>
      <trkpt lat="45.51375" lon="6.82008">
        <ele>1770.9362</ele>
        <time>2015-08-21T08:02:17Z</time>
      </trkpt>
      <trkpt lat="45.51375" lon="6.82008">
        <ele>1770.9362</ele>
        <time>2015-08-21T08:02:22Z</time>
      </trkpt>
      <trkpt lat="45.51374" lon="6.82009">
        <ele>1770.9362</ele>
        <time>2015-08-21T08:02:32Z</time>
      </trkpt>
      <trkpt lat="45.51374" lon="6.82013">
        <ele>1770.9362</ele>
        <time>2015-08-21T08:02:37Z</time>
      </trkpt>
      <trkpt lat="45.51369" lon="6.82024">
        <ele>1772.1344</ele>
        <time>2015-08-21T08:02:47Z</time>
      </trkpt>
      <trkpt lat="45.51369" lon="6.82027">
        <ele>1772.1344</ele>
        <time>2015-08-21T08:02:52Z</time>
      </trkpt>
      <trkpt lat="45.5137" lon="6.82029">
        <ele>1772.1344</ele>
        <time>2015-08-21T08:03:02Z</time>
      </trkpt>
      <trkpt lat="45.51367" lon="6.82033">
        <ele>1772.1344</ele>
        <time>2015-08-21T08:03:07Z</time>
      </trkpt>
      <trkpt lat="45.51366" lon="6.82037">
        <ele>1774.1284</ele>
        <time>2015-08-21T08:03:17Z</time>
      </trkpt>
      <trkpt lat="45.51365" lon="6.82043">
        <ele>1774.1284</ele>
        <time>2015-08-21T08:03:22Z</time>
      </trkpt>
      <trkpt lat="45.51366" lon="6.82049">
        <ele>1774.1284</ele>
        <time>2015-08-21T08:03:32Z</time>
      </trkpt>
      <trkpt lat="45.51364" lon="6.82052">
        <ele>1775.967</ele>
        <time>2015-08-21T08:03:37Z</time>
      </trkpt>
      <trkpt lat="45.51365" lon="6.82056">
        <ele>1775.967</ele>
        <time>2015-08-21T08:03:47Z</time>
      </trkpt>
      <trkpt lat="45.51365" lon="6.82061">
        <ele>1775.967</ele>
        <time>2015-08-21T08:03:52Z</time>
      </trkpt>
      <trkpt lat="45.51364" lon="6.82065">
        <ele>1777.6919</ele>
        <time>2015-08-21T08:04:02Z</time>
      </trkpt>
      <trkpt lat="45.51364" lon="6.82065">
        <ele>1777.6919</ele>
        <time>2015-08-21T08:04:07Z</time>
      </trkpt>
      <trkpt lat="45.51363" lon="6.82067">
        <ele>1777.6919</ele>
        <time>2015-08-21T08:04:17Z</time>
      </trkpt>
      <trkpt lat="45.51362" lon="6.82071">
        <ele>1777.6919</ele>
        <time>2015-08-21T08:04:22Z</time>
      </trkpt>
      <trkpt lat="45.51362" lon="6.82071">
        <ele>1777.6919</ele>
        <time>2015-08-21T08:04:37Z</time>
      </trkpt>
      <trkpt lat="45.51359" lon="6.82075">
        <ele>1779.6873</ele>
        <time>2015-08-21T08:04:42Z</time>
      </trkpt>
      <trkpt lat="45.51357" lon="6.82077">
        <ele>1779.6873</ele>
        <time>2015-08-21T08:04:52Z</time>
      </trkpt>
      <trkpt lat="45.51357" lon="6.82085">
        <ele>1779.6873</ele>
        <time>2015-08-21T08:04:57Z</time>
      </trkpt>
      <trkpt lat="45.51357" lon="6.82102">
        <ele>1781.7611</ele>
        <time>2015-08-21T08:05:07Z</time>
      </trkpt>
      <trkpt lat="45.51356" lon="6.8211">
        <ele>1781.7611</ele>
        <time>2015-08-21T08:05:12Z</time>
      </trkpt>
      <trkpt lat="45.51357" lon="6.82117">
        <ele>1783.5623</ele>
        <time>2015-08-21T08:05:22Z</time>
      </trkpt>
      <trkpt lat="45.51359" lon="6.82122">
        <ele>1783.5623</ele>
        <time>2015-08-21T08:05:27Z</time>
      </trkpt>
      <trkpt lat="45.51359" lon="6.82122">
        <ele>1783.5623</ele>
        <time>2015-08-21T08:05:37Z</time>
      </trkpt>
      <trkpt lat="45.51359" lon="6.82124">
        <ele>1783.5623</ele>
        <time>2015-08-21T08:05:57Z</time>
      </trkpt>
      <trkpt lat="45.51356" lon="6.8213">
        <ele>1785.5153</ele>
        <time>2015-08-21T08:06:07Z</time>
      </trkpt>
      <trkpt lat="45.51355" lon="6.82134">
        <ele>1785.5153</ele>
        <time>2015-08-21T08:06:12Z</time>
      </trkpt>
      <trkpt lat="45.51355" lon="6.82136">
        <ele>1785.5153</ele>
        <time>2015-08-21T08:06:22Z</time>
      </trkpt>
      <trkpt lat="45.51353" lon="6.82137">
        <ele>1785.5153</ele>
        <time>2015-08-21T08:06:27Z</time>
      </trkpt>
      <trkpt lat="45.51353" lon="6.82138">
        <ele>1785.5153</ele>
        <time>2015-08-21T08:06:37Z</time>
      </trkpt>
      <trkpt lat="45.51353" lon="6.8214">
        <ele>1785.5153</ele>
        <time>2015-08-21T08:07:12Z</time>
      </trkpt>
      <trkpt lat="45.51353" lon="6.82147">
        <ele>1788.5896</ele>
        <time>2015-08-21T08:07:17Z</time>
      </trkpt>
      <trkpt lat="45.51354" lon="6.82159">
        <ele>1788.5896</ele>
        <time>2015-08-21T08:07:27Z</time>
      </trkpt>
      <trkpt lat="45.51354" lon="6.82159">
        <ele>1788.5896</ele>
        <time>2015-08-21T08:07:32Z</time>
      </trkpt>
      <trkpt lat="45.51354" lon="6.82163">
        <ele>1792.1381</ele>
        <time>2015-08-21T08:07:57Z</time>
      </trkpt>
      <trkpt lat="45.51354" lon="6.8217">
        <ele>1792.1381</ele>
        <time>2015-08-21T08:08:02Z</time>
      </trkpt>
      <trkpt lat="45.51355" lon="6.82171">
        <ele>1792.1381</ele>
        <time>2015-08-21T08:08:12Z</time>
      </trkpt>
      <trkpt lat="45.51356" lon="6.82174">
        <ele>1792.1381</ele>
        <time>2015-08-21T08:08:17Z</time>
      </trkpt>
      <trkpt lat="45.51356" lon="6.82175">
        <ele>1792.1381</ele>
        <time>2015-08-21T08:08:27Z</time>
      </trkpt>
      <trkpt lat="45.51356" lon="6.82175">
        <ele>1792.1381</ele>
        <time>2015-08-21T08:08:32Z</time>
      </trkpt>
      <trkpt lat="45.51355" lon="6.82185">
        <ele>1795.9923</ele>
        <time>2015-08-21T08:08:42Z</time>
      </trkpt>
      <trkpt lat="45.51355" lon="6.82185">
        <ele>1795.9923</ele>
        <time>2015-08-21T08:08:47Z</time>
      </trkpt>
      <trkpt lat="45.51361" lon="6.82211">
        <ele>1799.8511</ele>
        <time>2015-08-21T08:09:02Z</time>
      </trkpt>
      <trkpt lat="45.51362" lon="6.82222">
        <ele>1799.8511</ele>
        <time>2015-08-21T08:09:07Z</time>
      </trkpt>
      <trkpt lat="45.51362" lon="6.82223">
        <ele>1799.8511</ele>
        <time>2015-08-21T08:09:17Z</time>
      </trkpt>
      <trkpt lat="45.51362" lon="6.82229">
        <ele>1803.3634</ele>
        <time>2015-08-21T08:09:22Z</time>
      </trkpt>
      <trkpt lat="45.51362" lon="6.82233">
        <ele>1803.3634</ele>
        <time>2015-08-21T08:09:32Z</time>
      </trkpt>
      <trkpt lat="45.51361" lon="6.82238">
        <ele>1803.3634</ele>
        <time>2015-08-21T08:09:37Z</time>
      </trkpt>
      <trkpt lat="45.51361" lon="6.82238">
        <ele>1803.3634</ele>
        <time>2015-08-21T08:09:47Z</time>
      </trkpt>
      <trkpt lat="45.5136" lon="6.82244">
        <ele>1806.8821</ele>
        <time>2015-08-21T08:09:52Z</time>
      </trkpt>
      <trkpt lat="45.51358" lon="6.82271">
        <ele>1809.9994</ele>
        <time>2015-08-21T08:10:02Z</time>
      </trkpt>
      <trkpt lat="45.51356" lon="6.82275">
        <ele>1809.9994</ele>
        <time>2015-08-21T08:10:07Z</time>
      </trkpt>
      <trkpt lat="45.51358" lon="6.82277">
        <ele>1809.9994</ele>
        <time>2015-08-21T08:10:17Z</time>
      </trkpt>
      <trkpt lat="45.51358" lon="6.8228">
        <ele>1809.9994</ele>
        <time>2015-08-21T08:10:22Z</time>
      </trkpt>
      <trkpt lat="45.51359" lon="6.82286">
        <ele>1812.8428</ele>
        <time>2015-08-21T08:10:32Z</time>
      </trkpt>
      <trkpt lat="45.51359" lon="6.82289">
        <ele>1812.8428</ele>
        <time>2015-08-21T08:10:37Z</time>
      </trkpt>
      <trkpt lat="45.51363" lon="6.82294">
        <ele>1812.8428</ele>
        <time>2015-08-21T08:10:47Z</time>
      </trkpt>
      <trkpt lat="45.51364" lon="6.82296">
        <ele>1812.8428</ele>
        <time>2015-08-21T08:10:52Z</time>
      </trkpt>
      <trkpt lat="45.51364" lon="6.82299">
        <ele>1815.978</ele>
        <time>2015-08-21T08:11:02Z</time>
      </trkpt>
      <trkpt lat="45.51364" lon="6.82304">
        <ele>1815.978</ele>
        <time>2015-08-21T08:11:07Z</time>
      </trkpt>
      <trkpt lat="45.51365" lon="6.82309">
        <ele>1815.978</ele>
        <time>2015-08-21T08:11:17Z</time>
      </trkpt>
      <trkpt lat="45.51367" lon="6.82312">
        <ele>1819.0782</ele>
        <time>2015-08-21T08:11:22Z</time>
      </trkpt>
      <trkpt lat="45.51369" lon="6.82316">
        <ele>1819.0782</ele>
        <time>2015-08-21T08:11:32Z</time>
      </trkpt>
      <trkpt lat="45.5137" lon="6.82317">
        <ele>1819.0782</ele>
        <time>2015-08-21T08:11:37Z</time>
      </trkpt>
      <trkpt lat="45.51368" lon="6.82324">
        <ele>1822.2732</ele>
        <time>2015-08-21T08:11:52Z</time>
      </trkpt>
      <trkpt lat="45.51368" lon="6.82324">
        <ele>1822.2732</ele>
        <time>2015-08-21T08:11:57Z</time>
      </trkpt>
      <trkpt lat="45.51369" lon="6.82327">
        <ele>1822.2732</ele>
        <time>2015-08-21T08:12:22Z</time>
      </trkpt>
      <trkpt lat="45.51369" lon="6.82327">
        <ele>1822.2732</ele>
        <time>2015-08-21T08:12:27Z</time>
      </trkpt>
      <trkpt lat="45.51368" lon="6.82329">
        <ele>1822.2732</ele>
        <time>2015-08-21T08:12:37Z</time>
      </trkpt>
      <trkpt lat="45.51366" lon="6.82334">
        <ele>1822.2732</ele>
        <time>2015-08-21T08:12:42Z</time>
      </trkpt>
      <trkpt lat="45.51366" lon="6.82349">
        <ele>1825.9421</ele>
        <time>2015-08-21T08:12:52Z</time>
      </trkpt>
      <trkpt lat="45.51366" lon="6.8235">
        <ele>1825.9421</ele>
        <time>2015-08-21T08:12:57Z</time>
      </trkpt>
      <trkpt lat="45.51364" lon="6.82358">
        <ele>1825.9421</ele>
        <time>2015-08-21T08:13:07Z</time>
      </trkpt>
      <trkpt lat="45.51364" lon="6.82358">
        <ele>1825.9421</ele>
        <time>2015-08-21T08:13:12Z</time>
      </trkpt>
      <trkpt lat="45.51364" lon="6.82362">
        <ele>1829.585</ele>
        <time>2015-08-21T08:13:22Z</time>
      </trkpt>
      <trkpt lat="45.51364" lon="6.82365">
        <ele>1829.585</ele>
        <time>2015-08-21T08:13:42Z</time>
      </trkpt>
      <trkpt lat="45.51361" lon="6.82377">
        <ele>1833.0554</ele>
        <time>2015-08-21T08:13:52Z</time>
      </trkpt>
      <trkpt lat="45.51359" lon="6.82386">
        <ele>1833.0554</ele>
        <time>2015-08-21T08:13:57Z</time>
      </trkpt>
      <trkpt lat="45.51359" lon="6.82386">
        <ele>1833.0554</ele>
        <time>2015-08-21T08:14:07Z</time>
      </trkpt>
      <trkpt lat="45.5136" lon="6.82392">
        <ele>1836.5356</ele>
        <time>2015-08-21T08:14:12Z</time>
      </trkpt>
      <trkpt lat="45.51361" lon="6.82401">
        <ele>1836.5356</ele>
        <time>2015-08-21T08:14:22Z</time>
      </trkpt>
      <trkpt lat="45.51363" lon="6.82406">
        <ele>1839.791</ele>
        <time>2015-08-21T08:14:27Z</time>
      </trkpt>
      <trkpt lat="45.51365" lon="6.82423">
        <ele>1842.7632</ele>
        <time>2015-08-21T08:14:37Z</time>
      </trkpt>
      <trkpt lat="45.51363" lon="6.82432">
        <ele>1842.7632</ele>
        <time>2015-08-21T08:14:42Z</time>
      </trkpt>
      <trkpt lat="45.51362" lon="6.82444">
        <ele>1845.4857</ele>
        <time>2015-08-21T08:14:57Z</time>
      </trkpt>
      <trkpt lat="45.51363" lon="6.8245">
        <ele>1845.4857</ele>
        <time>2015-08-21T08:15:02Z</time>
      </trkpt>
      <trkpt lat="45.51364" lon="6.82459">
        <ele>1848.1199</ele>
        <time>2015-08-21T08:15:12Z</time>
      </trkpt>
      <trkpt lat="45.51365" lon="6.82466">
        <ele>1848.1199</ele>
        <time>2015-08-21T08:15:17Z</time>
      </trkpt>
      <trkpt lat="45.51367" lon="6.82475">
        <ele>1850.5273</ele>
        <time>2015-08-21T08:15:27Z</time>
      </trkpt>
      <trkpt lat="45.51367" lon="6.82477">
        <ele>1850.5273</ele>
        <time>2015-08-21T08:15:32Z</time>
      </trkpt>
      <trkpt lat="45.51365" lon="6.82479">
        <ele>1850.5273</ele>
        <time>2015-08-21T08:15:42Z</time>
      </trkpt>
      <trkpt lat="45.51365" lon="6.8248">
        <ele>1850.5273</ele>
        <time>2015-08-21T08:15:47Z</time>
      </trkpt>
      <trkpt lat="45.5136" lon="6.82488">
        <ele>1852.8544</ele>
        <time>2015-08-21T08:15:57Z</time>
      </trkpt>
      <trkpt lat="45.5136" lon="6.82492">
        <ele>1852.8544</ele>
        <time>2015-08-21T08:16:02Z</time>
      </trkpt>
      <trkpt lat="45.51361" lon="6.82499">
        <ele>1852.8544</ele>
        <time>2015-08-21T08:16:12Z</time>
      </trkpt>
      <trkpt lat="45.51361" lon="6.82499">
        <ele>1852.8544</ele>
        <time>2015-08-21T08:16:17Z</time>
      </trkpt>
      <trkpt lat="45.51364" lon="6.82502">
        <ele>1855.2947</ele>
        <time>2015-08-21T08:16:27Z</time>
      </trkpt>
      <trkpt lat="45.51365" lon="6.82505">
        <ele>1855.2947</ele>
        <time>2015-08-21T08:16:32Z</time>
      </trkpt>
      <trkpt lat="45.51367" lon="6.82508">
        <ele>1855.2947</ele>
        <time>2015-08-21T08:16:42Z</time>
      </trkpt>
      <trkpt lat="45.51369" lon="6.82511">
        <ele>1855.2947</ele>
        <time>2015-08-21T08:16:47Z</time>
      </trkpt>
      <trkpt lat="45.51373" lon="6.82526">
        <ele>1857.7533</ele>
        <time>2015-08-21T08:16:57Z</time>
      </trkpt>
      <trkpt lat="45.51372" lon="6.8253">
        <ele>1857.7533</ele>
        <time>2015-08-21T08:17:02Z</time>
      </trkpt>
      <trkpt lat="45.5137" lon="6.82532">
        <ele>1857.7533</ele>
        <time>2015-08-21T08:17:12Z</time>
      </trkpt>
      <trkpt lat="45.5137" lon="6.82534">
        <ele>1857.7533</ele>
        <time>2015-08-21T08:17:17Z</time>
      </trkpt>
      <trkpt lat="45.51369" lon="6.82545">
        <ele>1860.3154</ele>
        <time>2015-08-21T08:17:32Z</time>
      </trkpt>
      <trkpt lat="45.51369" lon="6.82546">
        <ele>1860.3154</ele>
        <time>2015-08-21T08:17:37Z</time>
      </trkpt>
      <trkpt lat="45.51371" lon="6.82551">
        <ele>1860.3154</ele>
        <time>2015-08-21T08:17:47Z</time>
      </trkpt>
      <trkpt lat="45.51372" lon="6.82558">
        <ele>1862.8292</ele>
        <time>2015-08-21T08:17:52Z</time>
      </trkpt>
      <trkpt lat="45.51371" lon="6.82569">
        <ele>1862.8292</ele>
        <time>2015-08-21T08:18:02Z</time>
      </trkpt>
      <trkpt lat="45.51371" lon="6.82569">
        <ele>1862.8292</ele>
        <time>2015-08-21T08:18:07Z</time>
      </trkpt>
      <trkpt lat="45.5137" lon="6.82582">
        <ele>1865.2694</ele>
        <time>2015-08-21T08:18:17Z</time>
      </trkpt>
      <trkpt lat="45.5137" lon="6.82582">
        <ele>1865.2694</ele>
        <time>2015-08-21T08:18:22Z</time>
      </trkpt>
      <trkpt lat="45.51368" lon="6.82588">
        <ele>1865.2694</ele>
        <time>2015-08-21T08:18:32Z</time>
      </trkpt>
      <trkpt lat="45.51365" lon="6.82594">
        <ele>1867.5837</ele>
        <time>2015-08-21T08:18:37Z</time>
      </trkpt>
      <trkpt lat="45.51366" lon="6.82598">
        <ele>1867.5837</ele>
        <time>2015-08-21T08:18:47Z</time>
      </trkpt>
      <trkpt lat="45.51366" lon="6.82601">
        <ele>1867.5837</ele>
        <time>2015-08-21T08:18:52Z</time>
      </trkpt>
      <trkpt lat="45.51365" lon="6.82603">
        <ele>1867.5837</ele>
        <time>2015-08-21T08:19:02Z</time>
      </trkpt>
      <trkpt lat="45.51365" lon="6.82606">
        <ele>1869.6382</ele>
        <time>2015-08-21T08:19:07Z</time>
      </trkpt>
      <trkpt lat="45.51364" lon="6.82611">
        <ele>1869.6382</ele>
        <time>2015-08-21T08:19:17Z</time>
      </trkpt>
      <trkpt lat="45.51363" lon="6.82617">
        <ele>1869.6382</ele>
        <time>2015-08-21T08:19:22Z</time>
      </trkpt>
      <trkpt lat="45.5136" lon="6.82621">
        <ele>1871.8422</ele>
        <time>2015-08-21T08:19:37Z</time>
      </trkpt>
      <trkpt lat="45.51361" lon="6.82623">
        <ele>1871.8422</ele>
        <time>2015-08-21T08:19:42Z</time>
      </trkpt>
      <trkpt lat="45.51361" lon="6.82625">
        <ele>1871.8422</ele>
        <time>2015-08-21T08:19:52Z</time>
      </trkpt>
      <trkpt lat="45.51361" lon="6.82627">
        <ele>1871.8422</ele>
        <time>2015-08-21T08:19:57Z</time>
      </trkpt>
      <trkpt lat="45.51361" lon="6.82631">
        <ele>1871.8422</ele>
        <time>2015-08-21T08:20:07Z</time>
      </trkpt>
      <trkpt lat="45.51361" lon="6.82634">
        <ele>1873.9408</ele>
        <time>2015-08-21T08:20:12Z</time>
      </trkpt>
      <trkpt lat="45.51362" lon="6.82637">
        <ele>1873.9408</ele>
        <time>2015-08-21T08:20:22Z</time>
      </trkpt>
      <trkpt lat="45.51362" lon="6.82641">
        <ele>1873.9408</ele>
        <time>2015-08-21T08:20:27Z</time>
      </trkpt>
      <trkpt lat="45.51359" lon="6.82653">
        <ele>1876.0728</ele>
        <time>2015-08-21T08:20:37Z</time>
      </trkpt>
      <trkpt lat="45.51358" lon="6.82655">
        <ele>1876.0728</ele>
        <time>2015-08-21T08:20:42Z</time>
      </trkpt>
      <trkpt lat="45.51372" lon="6.82658">
        <ele>1877.8188</ele>
        <time>2015-08-21T08:20:52Z</time>
      </trkpt>
      <trkpt lat="45.51373" lon="6.8266">
        <ele>1877.8188</ele>
        <time>2015-08-21T08:20:57Z</time>
      </trkpt>
      <trkpt lat="45.51377" lon="6.82664">
        <ele>1877.8188</ele>
        <time>2015-08-21T08:21:07Z</time>
      </trkpt>
      <trkpt lat="45.51377" lon="6.82665">
        <ele>1877.8188</ele>
        <time>2015-08-21T08:21:12Z</time>
      </trkpt>
      <trkpt lat="45.51375" lon="6.82667">
        <ele>1879.354</ele>
        <time>2015-08-21T08:21:27Z</time>
      </trkpt>
      <trkpt lat="45.51373" lon="6.82665">
        <ele>1879.354</ele>
        <time>2015-08-21T08:21:32Z</time>
      </trkpt>
      <trkpt lat="45.51374" lon="6.82662">
        <ele>1879.354</ele>
        <time>2015-08-21T08:21:42Z</time>
      </trkpt>
      <trkpt lat="45.51376" lon="6.82662">
        <ele>1879.354</ele>
        <time>2015-08-21T08:21:47Z</time>
      </trkpt>
      <trkpt lat="45.5138" lon="6.82667">
        <ele>1880.9415</ele>
        <time>2015-08-21T08:21:57Z</time>
      </trkpt>
      <trkpt lat="45.51382" lon="6.82672">
        <ele>1880.9415</ele>
        <time>2015-08-21T08:22:02Z</time>
      </trkpt>
      <trkpt lat="45.51385" lon="6.82677">
        <ele>1880.9415</ele>
        <time>2015-08-21T08:22:12Z</time>
      </trkpt>
      <trkpt lat="45.51384" lon="6.82677">
        <ele>1882.5515</ele>
        <time>2015-08-21T08:22:17Z</time>
      </trkpt>
      <trkpt lat="45.51387" lon="6.82678">
        <ele>1882.5515</ele>
        <time>2015-08-21T08:22:27Z</time>
      </trkpt>
      <trkpt lat="45.51387" lon="6.8268">
        <ele>1882.5515</ele>
        <time>2015-08-21T08:22:32Z</time>
      </trkpt>
      <trkpt lat="45.51388" lon="6.82682">
        <ele>1882.5515</ele>
        <time>2015-08-21T08:22:42Z</time>
      </trkpt>
      <trkpt lat="45.5139" lon="6.82686">
        <ele>1884.1274</ele>
        <time>2015-08-21T08:22:47Z</time>
      </trkpt>
      <trkpt lat="45.51391" lon="6.82688">
        <ele>1884.1274</ele>
        <time>2015-08-21T08:22:57Z</time>
      </trkpt>
      <trkpt lat="45.51391" lon="6.82688">
        <ele>1884.1274</ele>
        <time>2015-08-21T08:23:02Z</time>
      </trkpt>
      <trkpt lat="45.51395" lon="6.82688">
        <ele>1884.1274</ele>
        <time>2015-08-21T08:23:12Z</time>
      </trkpt>
      <trkpt lat="45.51395" lon="6.82688">
        <ele>1884.1274</ele>
        <time>2015-08-21T08:23:17Z</time>
      </trkpt>
      <trkpt lat="45.51398" lon="6.82691">
        <ele>1886.0348</ele>
        <time>2015-08-21T08:23:32Z</time>
      </trkpt>
      <trkpt lat="45.51401" lon="6.82694">
        <ele>1886.0348</ele>
        <time>2015-08-21T08:23:37Z</time>
      </trkpt>
      <trkpt lat="45.51404" lon="6.82698">
        <ele>1886.0348</ele>
        <time>2015-08-21T08:23:47Z</time>
      </trkpt>
      <trkpt lat="45.51405" lon="6.82699">
        <ele>1886.0348</ele>
        <time>2015-08-21T08:23:52Z</time>
      </trkpt>
      <trkpt lat="45.51409" lon="6.82701">
        <ele>1888.1934</ele>
        <time>2015-08-21T08:24:02Z</time>
      </trkpt>
      <trkpt lat="45.51409" lon="6.82701">
        <ele>1888.1934</ele>
        <time>2015-08-21T08:24:07Z</time>
      </trkpt>
      <trkpt lat="45.5141" lon="6.82704">
        <ele>1888.1934</ele>
        <time>2015-08-21T08:24:17Z</time>
      </trkpt>
      <trkpt lat="45.51413" lon="6.82708">
        <ele>1888.1934</ele>
        <time>2015-08-21T08:24:32Z</time>
      </trkpt>
      <trkpt lat="45.51414" lon="6.8271">
        <ele>1888.1934</ele>
        <time>2015-08-21T08:24:37Z</time>
      </trkpt>
      <trkpt lat="45.51418" lon="6.82722">
        <ele>1890.6724</ele>
        <time>2015-08-21T08:24:47Z</time>
      </trkpt>
      <trkpt lat="45.51418" lon="6.82722">
        <ele>1890.6724</ele>
        <time>2015-08-21T08:24:52Z</time>
      </trkpt>
      <trkpt lat="45.51421" lon="6.82727">
        <ele>1890.6724</ele>
        <time>2015-08-21T08:25:02Z</time>
      </trkpt>
      <trkpt lat="45.51421" lon="6.82727">
        <ele>1890.6724</ele>
        <time>2015-08-21T08:25:07Z</time>
      </trkpt>
      <trkpt lat="45.51423" lon="6.82728">
        <ele>1890.6724</ele>
        <time>2015-08-21T08:25:17Z</time>
      </trkpt>
      <trkpt lat="45.51425" lon="6.82734">
        <ele>1893.7653</ele>
        <time>2015-08-21T08:25:37Z</time>
      </trkpt>
      <trkpt lat="45.51427" lon="6.82735">
        <ele>1893.7653</ele>
        <time>2015-08-21T08:25:42Z</time>
      </trkpt>
      <trkpt lat="45.51427" lon="6.82735">
        <ele>1893.7653</ele>
        <time>2015-08-21T08:25:52Z</time>
      </trkpt>
      <trkpt lat="45.51426" lon="6.82736">
        <ele>1893.7653</ele>
        <time>2015-08-21T08:25:57Z</time>
      </trkpt>
      <trkpt lat="45.51425" lon="6.82737">
        <ele>1893.7653</ele>
        <time>2015-08-21T08:26:07Z</time>
      </trkpt>
      <trkpt lat="45.51424" lon="6.82738">
        <ele>1893.7653</ele>
        <time>2015-08-21T08:26:12Z</time>
      </trkpt>
      <trkpt lat="45.51426" lon="6.82744">
        <ele>1897.1661</ele>
        <time>2015-08-21T08:26:22Z</time>
      </trkpt>
      <trkpt lat="45.51425" lon="6.82747">
        <ele>1897.1661</ele>
        <time>2015-08-21T08:26:37Z</time>
      </trkpt>
      <trkpt lat="45.51426" lon="6.82752">
        <ele>1897.1661</ele>
        <time>2015-08-21T08:26:52Z</time>
      </trkpt>
      <trkpt lat="45.51425" lon="6.82761">
        <ele>1900.9939</ele>
        <time>2015-08-21T08:26:57Z</time>
      </trkpt>
      <trkpt lat="45.51425" lon="6.82768">
        <ele>1900.9939</ele>
        <time>2015-08-21T08:27:07Z</time>
      </trkpt>
      <trkpt lat="45.51425" lon="6.82768">
        <ele>1900.9939</ele>
        <time>2015-08-21T08:27:12Z</time>
      </trkpt>
      <trkpt lat="45.51428" lon="6.82779">
        <ele>1905.3434</ele>
        <time>2015-08-21T08:27:27Z</time>
      </trkpt>
      <trkpt lat="45.51429" lon="6.8278">
        <ele>1905.3434</ele>
        <time>2015-08-21T08:27:42Z</time>
      </trkpt>
      <trkpt lat="45.5143" lon="6.82784">
        <ele>1905.3434</ele>
        <time>2015-08-21T08:27:47Z</time>
      </trkpt>
      <trkpt lat="45.51431" lon="6.82793">
        <ele>1909.4791</ele>
        <time>2015-08-21T08:27:57Z</time>
      </trkpt>
      <trkpt lat="45.51432" lon="6.82796">
        <ele>1909.4791</ele>
        <time>2015-08-21T08:28:02Z</time>
      </trkpt>
      <trkpt lat="45.51432" lon="6.82803">
        <ele>1909.4791</ele>
        <time>2015-08-21T08:28:12Z</time>
      </trkpt>
      <trkpt lat="45.51433" lon="6.82811">
        <ele>1913.2395</ele>
        <time>2015-08-21T08:28:17Z</time>
      </trkpt>
      <trkpt lat="45.51432" lon="6.82827">
        <ele>1916.4613</ele>
        <time>2015-08-21T08:28:27Z</time>
      </trkpt>
      <trkpt lat="45.5143" lon="6.82838">
        <ele>1916.4613</ele>
        <time>2015-08-21T08:28:32Z</time>
      </trkpt>
      <trkpt lat="45.51428" lon="6.82844">
        <ele>1919.6577</ele>
        <time>2015-08-21T08:28:42Z</time>
      </trkpt>
      <trkpt lat="45.51428" lon="6.82844">
        <ele>1919.6577</ele>
        <time>2015-08-21T08:28:47Z</time>
      </trkpt>
      <trkpt lat="45.51427" lon="6.82849">
        <ele>1919.6577</ele>
        <time>2015-08-21T08:28:57Z</time>
      </trkpt>
      <trkpt lat="45.51427" lon="6.82851">
        <ele>1919.6577</ele>
        <time>2015-08-21T08:29:02Z</time>
      </trkpt>
      <trkpt lat="45.51428" lon="6.82855">
        <ele>1919.6577</ele>
        <time>2015-08-21T08:29:12Z</time>
      </trkpt>
      <trkpt lat="45.51427" lon="6.82861">
        <ele>1923.3044</ele>
        <time>2015-08-21T08:29:17Z</time>
      </trkpt>
      <trkpt lat="45.51417" lon="6.82881">
        <ele>1926.6158</ele>
        <time>2015-08-21T08:29:32Z</time>
      </trkpt>
      <trkpt lat="45.51415" lon="6.82886">
        <ele>1926.6158</ele>
        <time>2015-08-21T08:29:37Z</time>
      </trkpt>
      <trkpt lat="45.51409" lon="6.82895">
        <ele>1929.3408</ele>
        <time>2015-08-21T08:29:47Z</time>
      </trkpt>
      <trkpt lat="45.51404" lon="6.82905">
        <ele>1929.3408</ele>
        <time>2015-08-21T08:29:52Z</time>
      </trkpt>
      <trkpt lat="45.514" lon="6.82913">
        <ele>1931.7239</ele>
        <time>2015-08-21T08:30:02Z</time>
      </trkpt>
      <trkpt lat="45.51401" lon="6.82914">
        <ele>1931.7239</ele>
        <time>2015-08-21T08:30:07Z</time>
      </trkpt>
      <trkpt lat="45.51396" lon="6.82924">
        <ele>1931.7239</ele>
        <time>2015-08-21T08:30:17Z</time>
      </trkpt>
      <trkpt lat="45.51393" lon="6.82927">
        <ele>1934.1222</ele>
        <time>2015-08-21T08:30:22Z</time>
      </trkpt>
      <trkpt lat="45.51389" lon="6.82931">
        <ele>1934.1222</ele>
        <time>2015-08-21T08:30:32Z</time>
      </trkpt>
      <trkpt lat="45.51384" lon="6.82934">
        <ele>1936.3767</ele>
        <time>2015-08-21T08:30:37Z</time>
      </trkpt>
      <trkpt lat="45.51379" lon="6.82939">
        <ele>1936.3767</ele>
        <time>2015-08-21T08:30:47Z</time>
      </trkpt>
      <trkpt lat="45.51377" lon="6.82942">
        <ele>1938.6866</ele>
        <time>2015-08-21T08:30:52Z</time>
      </trkpt>
      <trkpt lat="45.51377" lon="6.82946">
        <ele>1938.6866</ele>
        <time>2015-08-21T08:31:02Z</time>
      </trkpt>
      <trkpt lat="45.51377" lon="6.82947">
        <ele>1938.6866</ele>
        <time>2015-08-21T08:31:07Z</time>
      </trkpt>
      <trkpt lat="45.51368" lon="6.82956">
        <ele>1940.5731</ele>
        <time>2015-08-21T08:31:22Z</time>
      </trkpt>
      <trkpt lat="45.51368" lon="6.82957">
        <ele>1940.5731</ele>
        <time>2015-08-21T08:31:27Z</time>
      </trkpt>
      <trkpt lat="45.51366" lon="6.8296">
        <ele>1940.5731</ele>
        <time>2015-08-21T08:31:37Z</time>
      </trkpt>
      <trkpt lat="45.51366" lon="6.82962">
        <ele>1940.5731</ele>
        <time>2015-08-21T08:31:42Z</time>
      </trkpt>
      <trkpt lat="45.51364" lon="6.82967">
        <ele>1942.0262</ele>
        <time>2015-08-21T08:31:52Z</time>
      </trkpt>
      <trkpt lat="45.51364" lon="6.82968">
        <ele>1942.0262</ele>
        <time>2015-08-21T08:31:57Z</time>
      </trkpt>
      <trkpt lat="45.51364" lon="6.82972">
        <ele>1942.0262</ele>
        <time>2015-08-21T08:32:07Z</time>
      </trkpt>
      <trkpt lat="45.51364" lon="6.82972">
        <ele>1942.0262</ele>
        <time>2015-08-21T08:32:12Z</time>
      </trkpt>
      <trkpt lat="45.51367" lon="6.82981">
        <ele>1942.9517</ele>
        <time>2015-08-21T08:32:22Z</time>
      </trkpt>
      <trkpt lat="45.51364" lon="6.82986">
        <ele>1942.9517</ele>
        <time>2015-08-21T08:32:27Z</time>
      </trkpt>
      <trkpt lat="45.51363" lon="6.8299">
        <ele>1942.9517</ele>
        <time>2015-08-21T08:32:37Z</time>
      </trkpt>
      <trkpt lat="45.51361" lon="6.82995">
        <ele>1943.4073</ele>
        <time>2015-08-21T08:32:42Z</time>
      </trkpt>
      <trkpt lat="45.5136" lon="6.82998">
        <ele>1943.4073</ele>
        <time>2015-08-21T08:32:52Z</time>
      </trkpt>
      <trkpt lat="45.51358" lon="6.83001">
        <ele>1943.4073</ele>
        <time>2015-08-21T08:32:57Z</time>
      </trkpt>
      <trkpt lat="45.51356" lon="6.83006">
        <ele>1943.3763</ele>
        <time>2015-08-21T08:33:07Z</time>
      </trkpt>
      <trkpt lat="45.51356" lon="6.83008">
        <ele>1943.3763</ele>
        <time>2015-08-21T08:33:12Z</time>
      </trkpt>
      <trkpt lat="45.51356" lon="6.83008">
        <ele>1943.3763</ele>
        <time>2015-08-21T08:33:22Z</time>
      </trkpt>
      <trkpt lat="45.51355" lon="6.83009">
        <ele>1943.3763</ele>
        <time>2015-08-21T08:36:32Z</time>
      </trkpt>
      <trkpt lat="45.51355" lon="6.83009">
        <ele>1943.3763</ele>
        <time>2015-08-21T08:36:42Z</time>
      </trkpt>
      <trkpt lat="45.51355" lon="6.83009">
        <ele>1943.3763</ele>
        <time>2015-08-21T08:36:47Z</time>
      </trkpt>
      <trkpt lat="45.51354" lon="6.83009">
        <ele>1943.3763</ele>
        <time>2015-08-21T08:36:57Z</time>
      </trkpt>
      <trkpt lat="45.51356" lon="6.8301">
        <ele>1943.3763</ele>
        <time>2015-08-21T08:37:02Z</time>
      </trkpt>
      <trkpt lat="45.51356" lon="6.8301">
        <ele>1943.3763</ele>
        <time>2015-08-21T08:37:17Z</time>
      </trkpt>
      <trkpt lat="45.51356" lon="6.83011">
        <ele>1943.3763</ele>
        <time>2015-08-21T08:37:32Z</time>
      </trkpt>
      <trkpt lat="45.51356" lon="6.83011">
        <ele>1943.3763</ele>
        <time>2015-08-21T08:37:37Z</time>
      </trkpt>
      <trkpt lat="45.51356" lon="6.83011">
        <ele>1943.3763</ele>
        <time>2015-08-21T08:38:17Z</time>
      </trkpt>
      <trkpt lat="45.51357" lon="6.83013">
        <ele>1943.3763</ele>
        <time>2015-08-21T08:38:52Z</time>
      </trkpt>
      <trkpt lat="45.51357" lon="6.83013">
        <ele>1943.3763</ele>
        <time>2015-08-21T08:39:07Z</time>
      </trkpt>
      <trkpt lat="45.51358" lon="6.83016">
        <ele>1943.4352</ele>
        <time>2015-08-21T08:39:22Z</time>
      </trkpt>
      <trkpt lat="45.51358" lon="6.83017">
        <ele>1943.4352</ele>
        <time>2015-08-21T08:39:27Z</time>
      </trkpt>
      <trkpt lat="45.51358" lon="6.83017">
        <ele>1943.4352</ele>
        <time>2015-08-21T08:39:37Z</time>
      </trkpt>
      <trkpt lat="45.51358" lon="6.83017">
        <ele>1943.4352</ele>
        <time>2015-08-21T08:40:37Z</time>
      </trkpt>
      <trkpt lat="45.51358" lon="6.83018">
        <ele>1943.4352</ele>
        <time>2015-08-21T08:40:52Z</time>
      </trkpt>
      <trkpt lat="45.51358" lon="6.83017">
        <ele>1943.4352</ele>
        <time>2015-08-21T08:40:57Z</time>
      </trkpt>
      <trkpt lat="45.51358" lon="6.83018">
        <ele>1943.4352</ele>
        <time>2015-08-21T08:41:07Z</time>
      </trkpt>
      <trkpt lat="45.51356" lon="6.83019">
        <ele>1943.4352</ele>
        <time>2015-08-21T08:41:27Z</time>
      </trkpt>
      <trkpt lat="45.51356" lon="6.83019">
        <ele>1943.4352</ele>
        <time>2015-08-21T08:41:37Z</time>
      </trkpt>
      <trkpt lat="45.51356" lon="6.8302">
        <ele>1943.4352</ele>
        <time>2015-08-21T08:41:57Z</time>
      </trkpt>
      <trkpt lat="45.51356" lon="6.8302">
        <ele>1943.4352</ele>
        <time>2015-08-21T08:42:02Z</time>
      </trkpt>
      <trkpt lat="45.51356" lon="6.83021">
        <ele>1943.4352</ele>
        <time>2015-08-21T08:42:12Z</time>
      </trkpt>
      <trkpt lat="45.51356" lon="6.83021">
        <ele>1943.4352</ele>
        <time>2015-08-21T08:42:17Z</time>
      </trkpt>
      <trkpt lat="45.51354" lon="6.83024">
        <ele>1943.4692</ele>
        <time>2015-08-21T08:42:27Z</time>
      </trkpt>
      <trkpt lat="45.51353" lon="6.8303">
        <ele>1943.4692</ele>
        <time>2015-08-21T08:42:47Z</time>
      </trkpt>
      <trkpt lat="45.51347" lon="6.83034">
        <ele>1943.6748</ele>
        <time>2015-08-21T08:42:57Z</time>
      </trkpt>
      <trkpt lat="45.51345" lon="6.83036">
        <ele>1943.6748</ele>
        <time>2015-08-21T08:43:02Z</time>
      </trkpt>
      <trkpt lat="45.51339" lon="6.83043">
        <ele>1943.7867</ele>
        <time>2015-08-21T08:43:12Z</time>
      </trkpt>
      <trkpt lat="45.51338" lon="6.83043">
        <ele>1943.7867</ele>
        <time>2015-08-21T08:43:17Z</time>
      </trkpt>
      <trkpt lat="45.51334" lon="6.83045">
        <ele>1943.7867</ele>
        <time>2015-08-21T08:43:27Z</time>
      </trkpt>
      <trkpt lat="45.51333" lon="6.83048">
        <ele>1943.7867</ele>
        <time>2015-08-21T08:43:32Z</time>
      </trkpt>
      <trkpt lat="45.51326" lon="6.83054">
        <ele>1943.6888</ele>
        <time>2015-08-21T08:43:42Z</time>
      </trkpt>
      <trkpt lat="45.5132" lon="6.83056">
        <ele>1943.6888</ele>
        <time>2015-08-21T08:43:47Z</time>
      </trkpt>
      <trkpt lat="45.51314" lon="6.8306">
        <ele>1943.7643</ele>
        <time>2015-08-21T08:44:02Z</time>
      </trkpt>
      <trkpt lat="45.51313" lon="6.83063">
        <ele>1943.7643</ele>
        <time>2015-08-21T08:44:07Z</time>
      </trkpt>
      <trkpt lat="45.51309" lon="6.83067">
        <ele>1943.7643</ele>
        <time>2015-08-21T08:44:17Z</time>
      </trkpt>
      <trkpt lat="45.51307" lon="6.8307">
        <ele>1943.9205</ele>
        <time>2015-08-21T08:44:22Z</time>
      </trkpt>
      <trkpt lat="45.51298" lon="6.83074">
        <ele>1943.985</ele>
        <time>2015-08-21T08:44:32Z</time>
      </trkpt>
      <trkpt lat="45.51292" lon="6.83077">
        <ele>1943.985</ele>
        <time>2015-08-21T08:44:37Z</time>
      </trkpt>
      <trkpt lat="45.51289" lon="6.83079">
        <ele>1944.0719</ele>
        <time>2015-08-21T08:44:47Z</time>
      </trkpt>
      <trkpt lat="45.51289" lon="6.8308">
        <ele>1944.0719</ele>
        <time>2015-08-21T08:44:52Z</time>
      </trkpt>
      <trkpt lat="45.51289" lon="6.8308">
        <ele>1944.0719</ele>
        <time>2015-08-21T08:45:02Z</time>
      </trkpt>
      <trkpt lat="45.51288" lon="6.83085">
        <ele>1944.0719</ele>
        <time>2015-08-21T08:45:07Z</time>
      </trkpt>
      <trkpt lat="45.51285" lon="6.83093">
        <ele>1944.1713</ele>
        <time>2015-08-21T08:45:17Z</time>
      </trkpt>
      <trkpt lat="45.51285" lon="6.83097">
        <ele>1944.1713</ele>
        <time>2015-08-21T08:45:22Z</time>
      </trkpt>
      <trkpt lat="45.51274" lon="6.83106">
        <ele>1943.683</ele>
        <time>2015-08-21T08:45:32Z</time>
      </trkpt>
      <trkpt lat="45.51271" lon="6.83106">
        <ele>1943.683</ele>
        <time>2015-08-21T08:45:37Z</time>
      </trkpt>
      <trkpt lat="45.51264" lon="6.83115">
        <ele>1943.1766</ele>
        <time>2015-08-21T08:45:52Z</time>
      </trkpt>
      <trkpt lat="45.51263" lon="6.83116">
        <ele>1943.1766</ele>
        <time>2015-08-21T08:45:57Z</time>
      </trkpt>
      <trkpt lat="45.51259" lon="6.83123">
        <ele>1943.1766</ele>
        <time>2015-08-21T08:46:07Z</time>
      </trkpt>
      <trkpt lat="45.51257" lon="6.83126">
        <ele>1942.4879</ele>
        <time>2015-08-21T08:46:12Z</time>
      </trkpt>
      <trkpt lat="45.51256" lon="6.83128">
        <ele>1942.4879</ele>
        <time>2015-08-21T08:46:22Z</time>
      </trkpt>
      <trkpt lat="45.51256" lon="6.83128">
        <ele>1942.4879</ele>
        <time>2015-08-21T08:46:27Z</time>
      </trkpt>
      <trkpt lat="45.51248" lon="6.83124">
        <ele>1942.2722</ele>
        <time>2015-08-21T08:46:52Z</time>
      </trkpt>
      <trkpt lat="45.51247" lon="6.83123">
        <ele>1942.2722</ele>
        <time>2015-08-21T08:46:57Z</time>
      </trkpt>
      <trkpt lat="45.51247" lon="6.83122">
        <ele>1942.2722</ele>
        <time>2015-08-21T08:47:07Z</time>
      </trkpt>
      <trkpt lat="45.51242" lon="6.83121">
        <ele>1942.2722</ele>
        <time>2015-08-21T08:47:22Z</time>
      </trkpt>
      <trkpt lat="45.51241" lon="6.83121">
        <ele>1942.2722</ele>
        <time>2015-08-21T08:47:27Z</time>
      </trkpt>
      <trkpt lat="45.5124" lon="6.83122">
        <ele>1942.2722</ele>
        <time>2015-08-21T08:47:37Z</time>
      </trkpt>
      <trkpt lat="45.51238" lon="6.83124">
        <ele>1942.4865</ele>
        <time>2015-08-21T08:47:42Z</time>
      </trkpt>
      <trkpt lat="45.51233" lon="6.83131">
        <ele>1942.4865</ele>
        <time>2015-08-21T08:47:52Z</time>
      </trkpt>
      <trkpt lat="45.51232" lon="6.8313">
        <ele>1942.4865</ele>
        <time>2015-08-21T08:47:57Z</time>
      </trkpt>
      <trkpt lat="45.51226" lon="6.83121">
        <ele>1942.9453</ele>
        <time>2015-08-21T08:48:07Z</time>
      </trkpt>
      <trkpt lat="45.51225" lon="6.8312">
        <ele>1942.9453</ele>
        <time>2015-08-21T08:48:12Z</time>
      </trkpt>
      <trkpt lat="45.51222" lon="6.83123">
        <ele>1942.9453</ele>
        <time>2015-08-21T08:48:22Z</time>
      </trkpt>
      <trkpt lat="45.5122" lon="6.83126">
        <ele>1942.9453</ele>
        <time>2015-08-21T08:48:27Z</time>
      </trkpt>
      <trkpt lat="45.51217" lon="6.83133">
        <ele>1943.7933</ele>
        <time>2015-08-21T08:48:37Z</time>
      </trkpt>
      <trkpt lat="45.51217" lon="6.83133">
        <ele>1943.7933</ele>
        <time>2015-08-21T08:48:42Z</time>
      </trkpt>
      <trkpt lat="45.51214" lon="6.83137">
        <ele>1943.7933</ele>
        <time>2015-08-21T08:48:57Z</time>
      </trkpt>
      <trkpt lat="45.51214" lon="6.83137">
        <ele>1943.7933</ele>
        <time>2015-08-21T08:49:02Z</time>
      </trkpt>
      <trkpt lat="45.51209" lon="6.83144">
        <ele>1944.8749</ele>
        <time>2015-08-21T08:49:12Z</time>
      </trkpt>
      <trkpt lat="45.51204" lon="6.83146">
        <ele>1944.8749</ele>
        <time>2015-08-21T08:49:17Z</time>
      </trkpt>
      <trkpt lat="45.51199" lon="6.83148">
        <ele>1946.0304</ele>
        <time>2015-08-21T08:49:27Z</time>
      </trkpt>
      <trkpt lat="45.51193" lon="6.8315">
        <ele>1946.0304</ele>
        <time>2015-08-21T08:49:32Z</time>
      </trkpt>
      <trkpt lat="45.51189" lon="6.83154">
        <ele>1947.1263</ele>
        <time>2015-08-21T08:49:42Z</time>
      </trkpt>
      <trkpt lat="45.51187" lon="6.83155">
        <ele>1947.1263</ele>
        <time>2015-08-21T08:49:47Z</time>
      </trkpt>
      <trkpt lat="45.51185" lon="6.83154">
        <ele>1947.1263</ele>
        <time>2015-08-21T08:49:57Z</time>
      </trkpt>
      <trkpt lat="45.51185" lon="6.83149">
        <ele>1947.1263</ele>
        <time>2015-08-21T08:50:02Z</time>
      </trkpt>
      <trkpt lat="45.51184" lon="6.83145">
        <ele>1948.8169</ele>
        <time>2015-08-21T08:50:12Z</time>
      </trkpt>
      <trkpt lat="45.51185" lon="6.8314">
        <ele>1948.8169</ele>
        <time>2015-08-21T08:50:17Z</time>
      </trkpt>
      <trkpt lat="45.51185" lon="6.83134">
        <ele>1948.8169</ele>
        <time>2015-08-21T08:50:27Z</time>
      </trkpt>
      <trkpt lat="45.51185" lon="6.83134">
        <ele>1948.8169</ele>
        <time>2015-08-21T08:50:32Z</time>
      </trkpt>
      <trkpt lat="45.51183" lon="6.8313">
        <ele>1950.9714</ele>
        <time>2015-08-21T08:50:42Z</time>
      </trkpt>
      <trkpt lat="45.51179" lon="6.83124">
        <ele>1950.9714</ele>
        <time>2015-08-21T08:51:02Z</time>
      </trkpt>
      <trkpt lat="45.51178" lon="6.83123">
        <ele>1950.9714</ele>
        <time>2015-08-21T08:51:07Z</time>
      </trkpt>
      <trkpt lat="45.51176" lon="6.83122">
        <ele>1950.9714</ele>
        <time>2015-08-21T08:51:17Z</time>
      </trkpt>
      <trkpt lat="45.51177" lon="6.83124">
        <ele>1953.1074</ele>
        <time>2015-08-21T08:51:22Z</time>
      </trkpt>
      <trkpt lat="45.51172" lon="6.83124">
        <ele>1953.1074</ele>
        <time>2015-08-21T08:51:32Z</time>
      </trkpt>
      <trkpt lat="45.51172" lon="6.83125">
        <ele>1953.1074</ele>
        <time>2015-08-21T08:51:47Z</time>
      </trkpt>
      <trkpt lat="45.51169" lon="6.83127">
        <ele>1953.1074</ele>
        <time>2015-08-21T08:51:52Z</time>
      </trkpt>
      <trkpt lat="45.51164" lon="6.83128">
        <ele>1955.4115</ele>
        <time>2015-08-21T08:52:02Z</time>
      </trkpt>
      <trkpt lat="45.51163" lon="6.83128">
        <ele>1955.4115</ele>
        <time>2015-08-21T08:52:07Z</time>
      </trkpt>
      <trkpt lat="45.51161" lon="6.8313">
        <ele>1955.4115</ele>
        <time>2015-08-21T08:52:17Z</time>
      </trkpt>
      <trkpt lat="45.51161" lon="6.83131">
        <ele>1955.4115</ele>
        <time>2015-08-21T08:52:22Z</time>
      </trkpt>
      <trkpt lat="45.51157" lon="6.83131">
        <ele>1955.4115</ele>
        <time>2015-08-21T08:52:37Z</time>
      </trkpt>
      <trkpt lat="45.51157" lon="6.8313">
        <ele>1955.4115</ele>
        <time>2015-08-21T08:52:42Z</time>
      </trkpt>
      <trkpt lat="45.51156" lon="6.83128">
        <ele>1957.7825</ele>
        <time>2015-08-21T08:52:52Z</time>
      </trkpt>
      <trkpt lat="45.51155" lon="6.83127">
        <ele>1957.7825</ele>
        <time>2015-08-21T08:52:57Z</time>
      </trkpt>
      <trkpt lat="45.51155" lon="6.83127">
        <ele>1957.7825</ele>
        <time>2015-08-21T08:53:07Z</time>
      </trkpt>
      <trkpt lat="45.51154" lon="6.83127">
        <ele>1957.7825</ele>
        <time>2015-08-21T08:53:22Z</time>
      </trkpt>
      <trkpt lat="45.5115" lon="6.83125">
        <ele>1957.7825</ele>
        <time>2015-08-21T08:53:27Z</time>
      </trkpt>
      <trkpt lat="45.51147" lon="6.83122">
        <ele>1960.4719</ele>
        <time>2015-08-21T08:53:37Z</time>
      </trkpt>
      <trkpt lat="45.51147" lon="6.83122">
        <ele>1960.4719</ele>
        <time>2015-08-21T08:53:42Z</time>
      </trkpt>
      <trkpt lat="45.51145" lon="6.83115">
        <ele>1960.4719</ele>
        <time>2015-08-21T08:53:52Z</time>
      </trkpt>
      <trkpt lat="45.51144" lon="6.83115">
        <ele>1960.4719</ele>
        <time>2015-08-21T08:53:57Z</time>
      </trkpt>
      <trkpt lat="45.51141" lon="6.83117">
        <ele>1963.64</ele>
        <time>2015-08-21T08:54:07Z</time>
      </trkpt>
      <trkpt lat="45.51138" lon="6.83115">
        <ele>1963.64</ele>
        <time>2015-08-21T08:54:12Z</time>
      </trkpt>
      <trkpt lat="45.51131" lon="6.83116">
        <ele>1967.0879</ele>
        <time>2015-08-21T08:54:27Z</time>
      </trkpt>
      <trkpt lat="45.51132" lon="6.83116">
        <ele>1967.0879</ele>
        <time>2015-08-21T08:54:32Z</time>
      </trkpt>
      <trkpt lat="45.5113" lon="6.83115">
        <ele>1967.0879</ele>
        <time>2015-08-21T08:54:42Z</time>
      </trkpt>
      <trkpt lat="45.5113" lon="6.83115">
        <ele>1967.0879</ele>
        <time>2015-08-21T08:54:47Z</time>
      </trkpt>
      <trkpt lat="45.51127" lon="6.83119">
        <ele>1967.0879</ele>
        <time>2015-08-21T08:54:57Z</time>
      </trkpt>
      <trkpt lat="45.51126" lon="6.83119">
        <ele>1967.0879</ele>
        <time>2015-08-21T08:55:02Z</time>
      </trkpt>
      <trkpt lat="45.51123" lon="6.8312">
        <ele>1970.4576</ele>
        <time>2015-08-21T08:55:12Z</time>
      </trkpt>
      <trkpt lat="45.5112" lon="6.83122">
        <ele>1970.4576</ele>
        <time>2015-08-21T08:55:17Z</time>
      </trkpt>
      <trkpt lat="45.51118" lon="6.8312">
        <ele>1970.4576</ele>
        <time>2015-08-21T08:55:27Z</time>
      </trkpt>
      <trkpt lat="45.51118" lon="6.8312">
        <ele>1970.4576</ele>
        <time>2015-08-21T08:55:32Z</time>
      </trkpt>
      <trkpt lat="45.51114" lon="6.83123">
        <ele>1974.0084</ele>
        <time>2015-08-21T08:55:42Z</time>
      </trkpt>
      <trkpt lat="45.51114" lon="6.83125">
        <ele>1974.0084</ele>
        <time>2015-08-21T08:55:47Z</time>
      </trkpt>
      <trkpt lat="45.51112" lon="6.83129">
        <ele>1974.0084</ele>
        <time>2015-08-21T08:55:57Z</time>
      </trkpt>
      <trkpt lat="45.51111" lon="6.83133">
        <ele>1974.0084</ele>
        <time>2015-08-21T08:56:02Z</time>
      </trkpt>
      <trkpt lat="45.51111" lon="6.83134">
        <ele>1974.0084</ele>
        <time>2015-08-21T08:56:12Z</time>
      </trkpt>
      <trkpt lat="45.5111" lon="6.83134">
        <ele>1977.6343</ele>
        <time>2015-08-21T08:56:17Z</time>
      </trkpt>
      <trkpt lat="45.51106" lon="6.83134">
        <ele>1977.6343</ele>
        <time>2015-08-21T08:56:32Z</time>
      </trkpt>
      <trkpt lat="45.51105" lon="6.83134">
        <ele>1977.6343</ele>
        <time>2015-08-21T08:56:37Z</time>
      </trkpt>
      <trkpt lat="45.51103" lon="6.83135">
        <ele>1977.6343</ele>
        <time>2015-08-21T08:56:47Z</time>
      </trkpt>
      <trkpt lat="45.51103" lon="6.83135">
        <ele>1977.6343</ele>
        <time>2015-08-21T08:56:52Z</time>
      </trkpt>
      <trkpt lat="45.511" lon="6.83134">
        <ele>1981.496</ele>
        <time>2015-08-21T08:57:02Z</time>
      </trkpt>
      <trkpt lat="45.51098" lon="6.83136">
        <ele>1981.496</ele>
        <time>2015-08-21T08:57:07Z</time>
      </trkpt>
      <trkpt lat="45.51096" lon="6.83137">
        <ele>1981.496</ele>
        <time>2015-08-21T08:57:17Z</time>
      </trkpt>
      <trkpt lat="45.51094" lon="6.83137">
        <ele>1981.496</ele>
        <time>2015-08-21T08:57:22Z</time>
      </trkpt>
      <trkpt lat="45.51092" lon="6.83138">
        <ele>1981.496</ele>
        <time>2015-08-21T08:57:32Z</time>
      </trkpt>
      <trkpt lat="45.51089" lon="6.83139">
        <ele>1985.2953</ele>
        <time>2015-08-21T08:57:37Z</time>
      </trkpt>
      <trkpt lat="45.51088" lon="6.83142">
        <ele>1985.2953</ele>
        <time>2015-08-21T08:57:47Z</time>
      </trkpt>
      <trkpt lat="45.51088" lon="6.83143">
        <ele>1985.2953</ele>
        <time>2015-08-21T08:57:52Z</time>
      </trkpt>
      <trkpt lat="45.51083" lon="6.83145">
        <ele>1985.2953</ele>
        <time>2015-08-21T08:58:02Z</time>
      </trkpt>
      <trkpt lat="45.51081" lon="6.83145">
        <ele>1989.0587</ele>
        <time>2015-08-21T08:58:07Z</time>
      </trkpt>
      <trkpt lat="45.5108" lon="6.83146">
        <ele>1989.0587</ele>
        <time>2015-08-21T08:58:17Z</time>
      </trkpt>
      <trkpt lat="45.51079" lon="6.83147">
        <ele>1989.0587</ele>
        <time>2015-08-21T08:58:22Z</time>
      </trkpt>
      <trkpt lat="45.51078" lon="6.8315">
        <ele>1989.0587</ele>
        <time>2015-08-21T08:58:32Z</time>
      </trkpt>
      <trkpt lat="45.51079" lon="6.83154">
        <ele>1989.0587</ele>
        <time>2015-08-21T08:58:37Z</time>
      </trkpt>
      <trkpt lat="45.51081" lon="6.83157">
        <ele>1993.0128</ele>
        <time>2015-08-21T08:58:47Z</time>
      </trkpt>
      <trkpt lat="45.51081" lon="6.83157">
        <ele>1993.0128</ele>
        <time>2015-08-21T08:58:52Z</time>
      </trkpt>
      <trkpt lat="45.51078" lon="6.83161">
        <ele>1993.0128</ele>
        <time>2015-08-21T08:59:22Z</time>
      </trkpt>
      <trkpt lat="45.51074" lon="6.83169">
        <ele>1997.1073</ele>
        <time>2015-08-21T08:59:42Z</time>
      </trkpt>
      <trkpt lat="45.51074" lon="6.83169">
        <ele>1997.1073</ele>
        <time>2015-08-21T08:59:52Z</time>
      </trkpt>
      <trkpt lat="45.51072" lon="6.83173">
        <ele>1997.1073</ele>
        <time>2015-08-21T09:00:07Z</time>
      </trkpt>
      <trkpt lat="45.51069" lon="6.83176">
        <ele>1997.1073</ele>
        <time>2015-08-21T09:00:12Z</time>
      </trkpt>
      <trkpt lat="45.51061" lon="6.83183">
        <ele>2001.7137</ele>
        <time>2015-08-21T09:00:22Z</time>
      </trkpt>
      <trkpt lat="45.51057" lon="6.83188">
        <ele>2001.7137</ele>
        <time>2015-08-21T09:00:27Z</time>
      </trkpt>
      <trkpt lat="45.51056" lon="6.83189">
        <ele>2001.7137</ele>
        <time>2015-08-21T09:00:37Z</time>
      </trkpt>
      <trkpt lat="45.51056" lon="6.83189">
        <ele>2001.7137</ele>
        <time>2015-08-21T09:00:42Z</time>
      </trkpt>
      <trkpt lat="45.51054" lon="6.83189">
        <ele>2001.7137</ele>
        <time>2015-08-21T09:00:57Z</time>
      </trkpt>
      <trkpt lat="45.51051" lon="6.83193">
        <ele>2006.4253</ele>
        <time>2015-08-21T09:01:02Z</time>
      </trkpt>
      <trkpt lat="45.51044" lon="6.83201">
        <ele>2010.7064</ele>
        <time>2015-08-21T09:01:12Z</time>
      </trkpt>
      <trkpt lat="45.51039" lon="6.83204">
        <ele>2010.7064</ele>
        <time>2015-08-21T09:01:17Z</time>
      </trkpt>
      <trkpt lat="45.51037" lon="6.83203">
        <ele>2010.7064</ele>
        <time>2015-08-21T09:01:27Z</time>
      </trkpt>
      <trkpt lat="45.51036" lon="6.83203">
        <ele>2010.7064</ele>
        <time>2015-08-21T09:02:12Z</time>
      </trkpt>
      <trkpt lat="45.51034" lon="6.83206">
        <ele>2015.0857</ele>
        <time>2015-08-21T09:02:17Z</time>
      </trkpt>
      <trkpt lat="45.51028" lon="6.83209">
        <ele>2015.0857</ele>
        <time>2015-08-21T09:02:27Z</time>
      </trkpt>
      <trkpt lat="45.51026" lon="6.83211">
        <ele>2015.0857</ele>
        <time>2015-08-21T09:02:32Z</time>
      </trkpt>
      <trkpt lat="45.51026" lon="6.83212">
        <ele>2015.0857</ele>
        <time>2015-08-21T09:02:42Z</time>
      </trkpt>
      <trkpt lat="45.51025" lon="6.83213">
        <ele>2019.2742</ele>
        <time>2015-08-21T09:03:12Z</time>
      </trkpt>
      <trkpt lat="45.51024" lon="6.83213">
        <ele>2019.2742</ele>
        <time>2015-08-21T09:03:17Z</time>
      </trkpt>
      <trkpt lat="45.5101" lon="6.83213">
        <ele>2023.1781</ele>
        <time>2015-08-21T09:03:27Z</time>
      </trkpt>
      <trkpt lat="45.51007" lon="6.83217">
        <ele>2023.1781</ele>
        <time>2015-08-21T09:03:32Z</time>
      </trkpt>
      <trkpt lat="45.51004" lon="6.83227">
        <ele>2026.6394</ele>
        <time>2015-08-21T09:03:47Z</time>
      </trkpt>
      <trkpt lat="45.51002" lon="6.83232">
        <ele>2026.6394</ele>
        <time>2015-08-21T09:03:52Z</time>
      </trkpt>
      <trkpt lat="45.51" lon="6.83236">
        <ele>2026.6394</ele>
        <time>2015-08-21T09:04:02Z</time>
      </trkpt>
      <trkpt lat="45.50997" lon="6.83238">
        <ele>2029.4985</ele>
        <time>2015-08-21T09:04:07Z</time>
      </trkpt>
      <trkpt lat="45.50994" lon="6.83238">
        <ele>2029.4985</ele>
        <time>2015-08-21T09:04:17Z</time>
      </trkpt>
      <trkpt lat="45.50991" lon="6.83238">
        <ele>2029.4985</ele>
        <time>2015-08-21T09:04:22Z</time>
      </trkpt>
      <trkpt lat="45.50985" lon="6.83241">
        <ele>2031.653</ele>
        <time>2015-08-21T09:04:32Z</time>
      </trkpt>
      <trkpt lat="45.50982" lon="6.83243">
        <ele>2031.653</ele>
        <time>2015-08-21T09:04:37Z</time>
      </trkpt>
      <trkpt lat="45.50978" lon="6.83246">
        <ele>2031.653</ele>
        <time>2015-08-21T09:04:47Z</time>
      </trkpt>
      <trkpt lat="45.50977" lon="6.83247">
        <ele>2033.7301</ele>
        <time>2015-08-21T09:04:52Z</time>
      </trkpt>
      <trkpt lat="45.50972" lon="6.83251">
        <ele>2033.7301</ele>
        <time>2015-08-21T09:05:02Z</time>
      </trkpt>
      <trkpt lat="45.50971" lon="6.83251">
        <ele>2033.7301</ele>
        <time>2015-08-21T09:05:07Z</time>
      </trkpt>
      <trkpt lat="45.50966" lon="6.83256">
        <ele>2035.7789</ele>
        <time>2015-08-21T09:05:17Z</time>
      </trkpt>
      <trkpt lat="45.50965" lon="6.83256">
        <ele>2035.7789</ele>
        <time>2015-08-21T09:05:22Z</time>
      </trkpt>
      <trkpt lat="45.50962" lon="6.83258">
        <ele>2035.7789</ele>
        <time>2015-08-21T09:05:37Z</time>
      </trkpt>
      <trkpt lat="45.50959" lon="6.83261">
        <ele>2035.7789</ele>
        <time>2015-08-21T09:05:42Z</time>
      </trkpt>
      <trkpt lat="45.50955" lon="6.83268">
        <ele>2038.2048</ele>
        <time>2015-08-21T09:05:52Z</time>
      </trkpt>
      <trkpt lat="45.50953" lon="6.83272">
        <ele>2038.2048</ele>
        <time>2015-08-21T09:05:57Z</time>
      </trkpt>
      <trkpt lat="45.50945" lon="6.83277">
        <ele>2040.3308</ele>
        <time>2015-08-21T09:06:07Z</time>
      </trkpt>
      <trkpt lat="45.50943" lon="6.83279">
        <ele>2040.3308</ele>
        <time>2015-08-21T09:06:12Z</time>
      </trkpt>
      <trkpt lat="45.50936" lon="6.83283">
        <ele>2042.1503</ele>
        <time>2015-08-21T09:06:22Z</time>
      </trkpt>
      <trkpt lat="45.50934" lon="6.83283">
        <ele>2042.1503</ele>
        <time>2015-08-21T09:06:27Z</time>
      </trkpt>
      <trkpt lat="45.50934" lon="6.83283">
        <ele>2042.1503</ele>
        <time>2015-08-21T09:06:37Z</time>
      </trkpt>
      <trkpt lat="45.50934" lon="6.83284">
        <ele>2042.1503</ele>
        <time>2015-08-21T09:06:42Z</time>
      </trkpt>
      <trkpt lat="45.50927" lon="6.83288">
        <ele>2043.9747</ele>
        <time>2015-08-21T09:06:52Z</time>
      </trkpt>
      <trkpt lat="45.50923" lon="6.83289">
        <ele>2043.9747</ele>
        <time>2015-08-21T09:06:57Z</time>
      </trkpt>
      <trkpt lat="45.50916" lon="6.83292">
        <ele>2045.7188</ele>
        <time>2015-08-21T09:07:07Z</time>
      </trkpt>
      <trkpt lat="45.50914" lon="6.83295">
        <ele>2045.7188</ele>
        <time>2015-08-21T09:07:12Z</time>
      </trkpt>
      <trkpt lat="45.50905" lon="6.83299">
        <ele>2047.4185</ele>
        <time>2015-08-21T09:07:22Z</time>
      </trkpt>
      <trkpt lat="45.50902" lon="6.83302">
        <ele>2047.4185</ele>
        <time>2015-08-21T09:07:27Z</time>
      </trkpt>
      <trkpt lat="45.5089" lon="6.83307">
        <ele>2049.151</ele>
        <time>2015-08-21T09:07:42Z</time>
      </trkpt>
      <trkpt lat="45.50888" lon="6.83311">
        <ele>2049.151</ele>
        <time>2015-08-21T09:07:47Z</time>
      </trkpt>
      <trkpt lat="45.50884" lon="6.83316">
        <ele>2049.151</ele>
        <time>2015-08-21T09:07:57Z</time>
      </trkpt>
      <trkpt lat="45.50883" lon="6.83317">
        <ele>2050.6416</ele>
        <time>2015-08-21T09:08:02Z</time>
      </trkpt>
      <trkpt lat="45.50877" lon="6.83323">
        <ele>2050.6416</ele>
        <time>2015-08-21T09:08:12Z</time>
      </trkpt>
      <trkpt lat="45.50874" lon="6.83324">
        <ele>2051.5215</ele>
        <time>2015-08-21T09:08:17Z</time>
      </trkpt>
      <trkpt lat="45.50873" lon="6.83324">
        <ele>2051.5215</ele>
        <time>2015-08-21T09:08:27Z</time>
      </trkpt>
      <trkpt lat="45.50873" lon="6.83325">
        <ele>2051.5215</ele>
        <time>2015-08-21T09:08:57Z</time>
      </trkpt>
      <trkpt lat="45.50872" lon="6.83325">
        <ele>2051.5215</ele>
        <time>2015-08-21T09:09:22Z</time>
      </trkpt>
      <trkpt lat="45.50872" lon="6.83327">
        <ele>2051.5215</ele>
        <time>2015-08-21T09:09:27Z</time>
      </trkpt>
      <trkpt lat="45.50871" lon="6.83327">
        <ele>2051.5215</ele>
        <time>2015-08-21T09:09:32Z</time>
      </trkpt>
      <trkpt lat="45.50871" lon="6.83327">
        <ele>2051.5215</ele>
        <time>2015-08-21T09:09:37Z</time>
      </trkpt>
      <trkpt lat="45.50871" lon="6.83327">
        <ele>2051.5215</ele>
        <time>2015-08-21T09:09:42Z</time>
      </trkpt>
      <trkpt lat="45.50872" lon="6.83328">
        <ele>2051.5215</ele>
        <time>2015-08-21T09:09:47Z</time>
      </trkpt>
      <trkpt lat="45.50872" lon="6.83328">
        <ele>2051.5215</ele>
        <time>2015-08-21T09:09:52Z</time>
      </trkpt>
      <trkpt lat="45.50874" lon="6.83327">
        <ele>2051.955</ele>
        <time>2015-08-21T09:10:12Z</time>
      </trkpt>
      <trkpt lat="45.50873" lon="6.83327">
        <ele>2051.955</ele>
        <time>2015-08-21T09:10:17Z</time>
      </trkpt>
      <trkpt lat="45.50871" lon="6.8333">
        <ele>2051.955</ele>
        <time>2015-08-21T09:10:27Z</time>
      </trkpt>
      <trkpt lat="45.50871" lon="6.8333">
        <ele>2051.955</ele>
        <time>2015-08-21T09:10:32Z</time>
      </trkpt>
      <trkpt lat="45.50864" lon="6.83335">
        <ele>2052.3264</ele>
        <time>2015-08-21T09:10:47Z</time>
      </trkpt>
      <trkpt lat="45.50861" lon="6.83338">
        <ele>2052.3264</ele>
        <time>2015-08-21T09:10:52Z</time>
      </trkpt>
      <trkpt lat="45.50854" lon="6.83341">
        <ele>2052.5017</ele>
        <time>2015-08-21T09:11:02Z</time>
      </trkpt>
      <trkpt lat="45.50852" lon="6.83342">
        <ele>2052.5017</ele>
        <time>2015-08-21T09:11:07Z</time>
      </trkpt>
      <trkpt lat="45.50849" lon="6.83346">
        <ele>2052.5017</ele>
        <time>2015-08-21T09:11:17Z</time>
      </trkpt>
      <trkpt lat="45.50846" lon="6.8335">
        <ele>2052.4006</ele>
        <time>2015-08-21T09:11:22Z</time>
      </trkpt>
      <trkpt lat="45.50842" lon="6.8335">
        <ele>2052.4006</ele>
        <time>2015-08-21T09:11:32Z</time>
      </trkpt>
      <trkpt lat="45.50842" lon="6.8335">
        <ele>2052.4006</ele>
        <time>2015-08-21T09:11:37Z</time>
      </trkpt>
      <trkpt lat="45.50837" lon="6.83352">
        <ele>2052.4006</ele>
        <time>2015-08-21T09:11:47Z</time>
      </trkpt>
      <trkpt lat="45.50835" lon="6.83353">
        <ele>2052.843</ele>
        <time>2015-08-21T09:11:52Z</time>
      </trkpt>
      <trkpt lat="45.50835" lon="6.83353">
        <ele>2052.843</ele>
        <time>2015-08-21T09:12:02Z</time>
      </trkpt>
      <trkpt lat="45.50832" lon="6.83355">
        <ele>2052.843</ele>
        <time>2015-08-21T09:12:07Z</time>
      </trkpt>
      <trkpt lat="45.50828" lon="6.83355">
        <ele>2052.843</ele>
        <time>2015-08-21T09:12:17Z</time>
      </trkpt>
      <trkpt lat="45.50828" lon="6.83355">
        <ele>2052.843</ele>
        <time>2015-08-21T09:12:22Z</time>
      </trkpt>
      <trkpt lat="45.50828" lon="6.83356">
        <ele>2052.843</ele>
        <time>2015-08-21T09:12:37Z</time>
      </trkpt>
      <trkpt lat="45.50829" lon="6.83355">
        <ele>2053.2754</ele>
        <time>2015-08-21T09:12:47Z</time>
      </trkpt>
      <trkpt lat="45.50831" lon="6.83353">
        <ele>2053.2754</ele>
        <time>2015-08-21T09:12:52Z</time>
      </trkpt>
      <trkpt lat="45.50836" lon="6.83353">
        <ele>2053.2754</ele>
        <time>2015-08-21T09:13:02Z</time>
      </trkpt>
      <trkpt lat="45.50838" lon="6.83353">
        <ele>2053.8196</ele>
        <time>2015-08-21T09:13:07Z</time>
      </trkpt>
      <trkpt lat="45.50847" lon="6.83353">
        <ele>2053.8196</ele>
        <time>2015-08-21T09:13:22Z</time>
      </trkpt>
      <trkpt lat="45.5085" lon="6.83353">
        <ele>2054.4001</ele>
        <time>2015-08-21T09:13:27Z</time>
      </trkpt>
      <trkpt lat="45.50856" lon="6.83345">
        <ele>2054.4001</ele>
        <time>2015-08-21T09:13:37Z</time>
      </trkpt>
      <trkpt lat="45.50862" lon="6.83343">
        <ele>2054.803</ele>
        <time>2015-08-21T09:13:42Z</time>
      </trkpt>
      <trkpt lat="45.50866" lon="6.83337">
        <ele>2054.803</ele>
        <time>2015-08-21T09:13:52Z</time>
      </trkpt>
      <trkpt lat="45.50868" lon="6.83334">
        <ele>2055.0322</ele>
        <time>2015-08-21T09:13:57Z</time>
      </trkpt>
      <trkpt lat="45.5087" lon="6.83332">
        <ele>2055.0322</ele>
        <time>2015-08-21T09:14:02Z</time>
      </trkpt>
      <trkpt lat="45.50873" lon="6.83329">
        <ele>2055.0322</ele>
        <time>2015-08-21T09:14:07Z</time>
      </trkpt>
      <trkpt lat="45.50881" lon="6.83325">
        <ele>2054.9907</ele>
        <time>2015-08-21T09:14:12Z</time>
      </trkpt>
      <trkpt lat="45.50887" lon="6.83323">
        <ele>2054.9907</ele>
        <time>2015-08-21T09:14:17Z</time>
      </trkpt>
      <trkpt lat="45.5089" lon="6.83321">
        <ele>2054.719</ele>
        <time>2015-08-21T09:14:22Z</time>
      </trkpt>
      <trkpt lat="45.50894" lon="6.83318">
        <ele>2054.719</ele>
        <time>2015-08-21T09:14:27Z</time>
      </trkpt>
      <trkpt lat="45.50895" lon="6.83315">
        <ele>2054.719</ele>
        <time>2015-08-21T09:14:32Z</time>
      </trkpt>
      <trkpt lat="45.509" lon="6.83314">
        <ele>2054.1545</ele>
        <time>2015-08-21T09:14:37Z</time>
      </trkpt>
      <trkpt lat="45.50905" lon="6.83312">
        <ele>2054.1545</ele>
        <time>2015-08-21T09:14:42Z</time>
      </trkpt>
      <trkpt lat="45.50908" lon="6.83308">
        <ele>2054.1545</ele>
        <time>2015-08-21T09:14:47Z</time>
      </trkpt>
      <trkpt lat="45.5091" lon="6.83304">
        <ele>2053.3696</ele>
        <time>2015-08-21T09:14:52Z</time>
      </trkpt>
      <trkpt lat="45.50913" lon="6.83302">
        <ele>2053.3696</ele>
        <time>2015-08-21T09:14:57Z</time>
      </trkpt>
      <trkpt lat="45.50917" lon="6.83299">
        <ele>2053.3696</ele>
        <time>2015-08-21T09:15:02Z</time>
      </trkpt>
      <trkpt lat="45.50921" lon="6.83295">
        <ele>2052.59</ele>
        <time>2015-08-21T09:15:07Z</time>
      </trkpt>
      <trkpt lat="45.50926" lon="6.8329">
        <ele>2052.59</ele>
        <time>2015-08-21T09:15:12Z</time>
      </trkpt>
      <trkpt lat="45.50926" lon="6.83289">
        <ele>2052.59</ele>
        <time>2015-08-21T09:15:17Z</time>
      </trkpt>
      <trkpt lat="45.50928" lon="6.83288">
        <ele>2052.59</ele>
        <time>2015-08-21T09:15:22Z</time>
      </trkpt>
      <trkpt lat="45.50932" lon="6.83289">
        <ele>2051.8665</ele>
        <time>2015-08-21T09:15:27Z</time>
      </trkpt>
      <trkpt lat="45.50934" lon="6.83292">
        <ele>2051.8665</ele>
        <time>2015-08-21T09:15:32Z</time>
      </trkpt>
      <trkpt lat="45.50937" lon="6.83293">
        <ele>2051.8665</ele>
        <time>2015-08-21T09:15:37Z</time>
      </trkpt>
      <trkpt lat="45.50939" lon="6.83291">
        <ele>2051.8665</ele>
        <time>2015-08-21T09:15:42Z</time>
      </trkpt>
      <trkpt lat="45.5094" lon="6.83286">
        <ele>2050.9573</ele>
        <time>2015-08-21T09:15:47Z</time>
      </trkpt>
      <trkpt lat="45.50939" lon="6.83279">
        <ele>2050.9573</ele>
        <time>2015-08-21T09:15:52Z</time>
      </trkpt>
      <trkpt lat="45.50937" lon="6.83273">
        <ele>2050.014</ele>
        <time>2015-08-21T09:15:57Z</time>
      </trkpt>
      <trkpt lat="45.50937" lon="6.83273">
        <ele>2050.014</ele>
        <time>2015-08-21T09:16:02Z</time>
      </trkpt>
      <trkpt lat="45.50938" lon="6.83276">
        <ele>2050.014</ele>
        <time>2015-08-21T09:16:07Z</time>
      </trkpt>
      <trkpt lat="45.50933" lon="6.83281">
        <ele>2050.014</ele>
        <time>2015-08-21T09:16:12Z</time>
      </trkpt>
      <trkpt lat="45.50931" lon="6.83286">
        <ele>2048.974</ele>
        <time>2015-08-21T09:16:17Z</time>
      </trkpt>
      <trkpt lat="45.50927" lon="6.8329">
        <ele>2048.974</ele>
        <time>2015-08-21T09:16:22Z</time>
      </trkpt>
      <trkpt lat="45.50926" lon="6.83292">
        <ele>2048.974</ele>
        <time>2015-08-21T09:16:27Z</time>
      </trkpt>
      <trkpt lat="45.50923" lon="6.83293">
        <ele>2047.9686</ele>
        <time>2015-08-21T09:16:32Z</time>
      </trkpt>
      <trkpt lat="45.50919" lon="6.83298">
        <ele>2047.9686</ele>
        <time>2015-08-21T09:16:37Z</time>
      </trkpt>
      <trkpt lat="45.50918" lon="6.83304">
        <ele>2047.2183</ele>
        <time>2015-08-21T09:16:42Z</time>
      </trkpt>
      <trkpt lat="45.50917" lon="6.8331">
        <ele>2047.2183</ele>
        <time>2015-08-21T09:16:47Z</time>
      </trkpt>
      <trkpt lat="45.50916" lon="6.83318">
        <ele>2046.7975</ele>
        <time>2015-08-21T09:16:52Z</time>
      </trkpt>
      <trkpt lat="45.50917" lon="6.83324">
        <ele>2046.7975</ele>
        <time>2015-08-21T09:16:57Z</time>
      </trkpt>
      <trkpt lat="45.50914" lon="6.83329">
        <ele>2046.7975</ele>
        <time>2015-08-21T09:17:02Z</time>
      </trkpt>
      <trkpt lat="45.50911" lon="6.83332">
        <ele>2046.6299</ele>
        <time>2015-08-21T09:17:07Z</time>
      </trkpt>
      <trkpt lat="45.50906" lon="6.83336">
        <ele>2046.6299</ele>
        <time>2015-08-21T09:17:12Z</time>
      </trkpt>
      <trkpt lat="45.50901" lon="6.83342">
        <ele>2046.2546</ele>
        <time>2015-08-21T09:17:17Z</time>
      </trkpt>
      <trkpt lat="45.50897" lon="6.83347">
        <ele>2046.2546</ele>
        <time>2015-08-21T09:17:22Z</time>
      </trkpt>
      <trkpt lat="45.50896" lon="6.8335">
        <ele>2046.2546</ele>
        <time>2015-08-21T09:17:27Z</time>
      </trkpt>
      <trkpt lat="45.509" lon="6.83353">
        <ele>2045.5479</ele>
        <time>2015-08-21T09:17:32Z</time>
      </trkpt>
      <trkpt lat="45.50904" lon="6.83354">
        <ele>2045.5479</ele>
        <time>2015-08-21T09:17:37Z</time>
      </trkpt>
      <trkpt lat="45.50904" lon="6.83357">
        <ele>2045.5479</ele>
        <time>2015-08-21T09:17:42Z</time>
      </trkpt>
      <trkpt lat="45.50903" lon="6.83361">
        <ele>2044.5828</ele>
        <time>2015-08-21T09:17:47Z</time>
      </trkpt>
      <trkpt lat="45.50902" lon="6.83363">
        <ele>2044.5828</ele>
        <time>2015-08-21T09:17:52Z</time>
      </trkpt>
      <trkpt lat="45.509" lon="6.83369">
        <ele>2044.5828</ele>
        <time>2015-08-21T09:17:57Z</time>
      </trkpt>
      <trkpt lat="45.50896" lon="6.83373">
        <ele>2043.2115</ele>
        <time>2015-08-21T09:18:02Z</time>
      </trkpt>
      <trkpt lat="45.50897" lon="6.83373">
        <ele>2043.2115</ele>
        <time>2015-08-21T09:18:07Z</time>
      </trkpt>
      <trkpt lat="45.50897" lon="6.83373">
        <ele>2043.2115</ele>
        <time>2015-08-21T09:18:12Z</time>
      </trkpt>
      <trkpt lat="45.50897" lon="6.83373">
        <ele>2043.2115</ele>
        <time>2015-08-21T09:18:17Z</time>
      </trkpt>
      <trkpt lat="45.50897" lon="6.83373">
        <ele>2043.2115</ele>
        <time>2015-08-21T09:18:22Z</time>
      </trkpt>
      <trkpt lat="45.50897" lon="6.83373">
        <ele>2043.2115</ele>
        <time>2015-08-21T09:18:27Z</time>
      </trkpt>
      <trkpt lat="45.50897" lon="6.83374">
        <ele>2043.2115</ele>
        <time>2015-08-21T09:18:32Z</time>
      </trkpt>
      <trkpt lat="45.50899" lon="6.83382">
        <ele>2041.0243</ele>
        <time>2015-08-21T09:18:37Z</time>
      </trkpt>
      <trkpt lat="45.50902" lon="6.83388">
        <ele>2041.0243</ele>
        <time>2015-08-21T09:18:42Z</time>
      </trkpt>
      <trkpt lat="45.50902" lon="6.83398">
        <ele>2038.5514</ele>
        <time>2015-08-21T09:18:52Z</time>
      </trkpt>
      <trkpt lat="45.50902" lon="6.83401">
        <ele>2038.5514</ele>
        <time>2015-08-21T09:18:57Z</time>
      </trkpt>
      <trkpt lat="45.50902" lon="6.83406">
        <ele>2038.5514</ele>
        <time>2015-08-21T09:19:07Z</time>
      </trkpt>
      <trkpt lat="45.50904" lon="6.83409">
        <ele>2038.5514</ele>
        <time>2015-08-21T09:19:12Z</time>
      </trkpt>
      <trkpt lat="45.50903" lon="6.83408">
        <ele>2036.4574</ele>
        <time>2015-08-21T09:19:22Z</time>
      </trkpt>
      <trkpt lat="45.50902" lon="6.83408">
        <ele>2036.4574</ele>
        <time>2015-08-21T09:19:27Z</time>
      </trkpt>
      <trkpt lat="45.50902" lon="6.83408">
        <ele>2036.4574</ele>
        <time>2015-08-21T09:19:37Z</time>
      </trkpt>
      <trkpt lat="45.50902" lon="6.83408">
        <ele>2036.4574</ele>
        <time>2015-08-21T09:19:57Z</time>
      </trkpt>
      <trkpt lat="45.50901" lon="6.83409">
        <ele>2036.4574</ele>
        <time>2015-08-21T09:20:02Z</time>
      </trkpt>
      <trkpt lat="45.50901" lon="6.83409">
        <ele>2036.4574</ele>
        <time>2015-08-21T09:20:07Z</time>
      </trkpt>
      <trkpt lat="45.50902" lon="6.83409">
        <ele>2036.4574</ele>
        <time>2015-08-21T09:20:12Z</time>
      </trkpt>
      <trkpt lat="45.50902" lon="6.83409">
        <ele>2036.4574</ele>
        <time>2015-08-21T09:20:17Z</time>
      </trkpt>
      <trkpt lat="45.50902" lon="6.83412">
        <ele>2036.4574</ele>
        <time>2015-08-21T09:20:27Z</time>
      </trkpt>
      <trkpt lat="45.50901" lon="6.83412">
        <ele>2036.4574</ele>
        <time>2015-08-21T09:20:32Z</time>
      </trkpt>
      <trkpt lat="45.50896" lon="6.83414">
        <ele>2032.9216</ele>
        <time>2015-08-21T09:20:47Z</time>
      </trkpt>
      <trkpt lat="45.50894" lon="6.83416">
        <ele>2032.9216</ele>
        <time>2015-08-21T09:20:52Z</time>
      </trkpt>
      <trkpt lat="45.50889" lon="6.83417">
        <ele>2032.9216</ele>
        <time>2015-08-21T09:21:02Z</time>
      </trkpt>
      <trkpt lat="45.50887" lon="6.83418">
        <ele>2029.8779</ele>
        <time>2015-08-21T09:21:07Z</time>
      </trkpt>
      <trkpt lat="45.50876" lon="6.83417">
        <ele>2027.4304</ele>
        <time>2015-08-21T09:21:17Z</time>
      </trkpt>
      <trkpt lat="45.50871" lon="6.83417">
        <ele>2027.4304</ele>
        <time>2015-08-21T09:21:22Z</time>
      </trkpt>
      <trkpt lat="45.50864" lon="6.83418">
        <ele>2025.7169</ele>
        <time>2015-08-21T09:21:32Z</time>
      </trkpt>
      <trkpt lat="45.50861" lon="6.83421">
        <ele>2025.7169</ele>
        <time>2015-08-21T09:21:37Z</time>
      </trkpt>
      <trkpt lat="45.50859" lon="6.83427">
        <ele>2025.7169</ele>
        <time>2015-08-21T09:21:47Z</time>
      </trkpt>
      <trkpt lat="45.50856" lon="6.83429">
        <ele>2024.6608</ele>
        <time>2015-08-21T09:21:52Z</time>
      </trkpt>
      <trkpt lat="45.50856" lon="6.83429">
        <ele>2024.6608</ele>
        <time>2015-08-21T09:22:02Z</time>
      </trkpt>
      <trkpt lat="45.50854" lon="6.83428">
        <ele>2024.6608</ele>
        <time>2015-08-21T09:22:07Z</time>
      </trkpt>
      <trkpt lat="45.50846" lon="6.83424">
        <ele>2023.7712</ele>
        <time>2015-08-21T09:22:22Z</time>
      </trkpt>
      <trkpt lat="45.50843" lon="6.83424">
        <ele>2023.7712</ele>
        <time>2015-08-21T09:22:27Z</time>
      </trkpt>
      <trkpt lat="45.5084" lon="6.83428">
        <ele>2023.7712</ele>
        <time>2015-08-21T09:22:37Z</time>
      </trkpt>
      <trkpt lat="45.50835" lon="6.83428">
        <ele>2023.1113</ele>
        <time>2015-08-21T09:22:52Z</time>
      </trkpt>
      <trkpt lat="45.50832" lon="6.83428">
        <ele>2023.1113</ele>
        <time>2015-08-21T09:22:57Z</time>
      </trkpt>
      <trkpt lat="45.50827" lon="6.83429">
        <ele>2023.1113</ele>
        <time>2015-08-21T09:23:07Z</time>
      </trkpt>
      <trkpt lat="45.50823" lon="6.8343">
        <ele>2022.7966</ele>
        <time>2015-08-21T09:23:12Z</time>
      </trkpt>
      <trkpt lat="45.50815" lon="6.83428">
        <ele>2022.7966</ele>
        <time>2015-08-21T09:23:22Z</time>
      </trkpt>
      <trkpt lat="45.50811" lon="6.83428">
        <ele>2022.7596</ele>
        <time>2015-08-21T09:23:27Z</time>
      </trkpt>
      <trkpt lat="45.50809" lon="6.83429">
        <ele>2022.7596</ele>
        <time>2015-08-21T09:23:37Z</time>
      </trkpt>
      <trkpt lat="45.50808" lon="6.83432">
        <ele>2022.7596</ele>
        <time>2015-08-21T09:23:42Z</time>
      </trkpt>
      <trkpt lat="45.50804" lon="6.83436">
        <ele>2023.0093</ele>
        <time>2015-08-21T09:23:52Z</time>
      </trkpt>
      <trkpt lat="45.50801" lon="6.83438">
        <ele>2023.0093</ele>
        <time>2015-08-21T09:23:57Z</time>
      </trkpt>
      <trkpt lat="45.50794" lon="6.83442">
        <ele>2023.437</ele>
        <time>2015-08-21T09:24:07Z</time>
      </trkpt>
      <trkpt lat="45.50793" lon="6.83446">
        <ele>2023.437</ele>
        <time>2015-08-21T09:24:12Z</time>
      </trkpt>
      <trkpt lat="45.50784" lon="6.83453">
        <ele>2023.8555</ele>
        <time>2015-08-21T09:24:27Z</time>
      </trkpt>
      <trkpt lat="45.50779" lon="6.83452">
        <ele>2023.8555</ele>
        <time>2015-08-21T09:24:32Z</time>
      </trkpt>
      <trkpt lat="45.50773" lon="6.83449">
        <ele>2024.4368</ele>
        <time>2015-08-21T09:24:42Z</time>
      </trkpt>
      <trkpt lat="45.50769" lon="6.83449">
        <ele>2024.4368</ele>
        <time>2015-08-21T09:24:47Z</time>
      </trkpt>
      <trkpt lat="45.50764" lon="6.83454">
        <ele>2025.1522</ele>
        <time>2015-08-21T09:24:57Z</time>
      </trkpt>
      <trkpt lat="45.50761" lon="6.83453">
        <ele>2025.1522</ele>
        <time>2015-08-21T09:25:02Z</time>
      </trkpt>
      <trkpt lat="45.50754" lon="6.83454">
        <ele>2025.9749</ele>
        <time>2015-08-21T09:25:12Z</time>
      </trkpt>
      <trkpt lat="45.5075" lon="6.83453">
        <ele>2025.9749</ele>
        <time>2015-08-21T09:25:17Z</time>
      </trkpt>
      <trkpt lat="45.50745" lon="6.83455">
        <ele>2025.9749</ele>
        <time>2015-08-21T09:25:27Z</time>
      </trkpt>
      <trkpt lat="45.50743" lon="6.83457">
        <ele>2027.1819</ele>
        <time>2015-08-21T09:25:32Z</time>
      </trkpt>
      <trkpt lat="45.50739" lon="6.83457">
        <ele>2027.1819</ele>
        <time>2015-08-21T09:25:42Z</time>
      </trkpt>
      <trkpt lat="45.50737" lon="6.83458">
        <ele>2027.1819</ele>
        <time>2015-08-21T09:25:47Z</time>
      </trkpt>
      <trkpt lat="45.50729" lon="6.83457">
        <ele>2028.7552</ele>
        <time>2015-08-21T09:26:02Z</time>
      </trkpt>
      <trkpt lat="45.50727" lon="6.83458">
        <ele>2028.7552</ele>
        <time>2015-08-21T09:26:07Z</time>
      </trkpt>
      <trkpt lat="45.50723" lon="6.83459">
        <ele>2028.7552</ele>
        <time>2015-08-21T09:26:17Z</time>
      </trkpt>
      <trkpt lat="45.5072" lon="6.83459">
        <ele>2029.9418</ele>
        <time>2015-08-21T09:26:22Z</time>
      </trkpt>
      <trkpt lat="45.50718" lon="6.8346">
        <ele>2029.9418</ele>
        <time>2015-08-21T09:26:32Z</time>
      </trkpt>
      <trkpt lat="45.50717" lon="6.8346">
        <ele>2029.9418</ele>
        <time>2015-08-21T09:26:37Z</time>
      </trkpt>
      <trkpt lat="45.50717" lon="6.8346">
        <ele>2029.9418</ele>
        <time>2015-08-21T09:26:47Z</time>
      </trkpt>
      <trkpt lat="45.50715" lon="6.83461">
        <ele>2029.9418</ele>
        <time>2015-08-21T09:27:22Z</time>
      </trkpt>
      <trkpt lat="45.50714" lon="6.83461">
        <ele>2029.9418</ele>
        <time>2015-08-21T09:27:27Z</time>
      </trkpt>
      <trkpt lat="45.50714" lon="6.83461">
        <ele>2029.9418</ele>
        <time>2015-08-21T09:27:32Z</time>
      </trkpt>
      <trkpt lat="45.50707" lon="6.83461">
        <ele>2031.4142</ele>
        <time>2015-08-21T09:27:47Z</time>
      </trkpt>
      <trkpt lat="45.50704" lon="6.83459">
        <ele>2031.4142</ele>
        <time>2015-08-21T09:27:52Z</time>
      </trkpt>
      <trkpt lat="45.507" lon="6.83458">
        <ele>2031.4142</ele>
        <time>2015-08-21T09:28:02Z</time>
      </trkpt>
      <trkpt lat="45.50696" lon="6.8346">
        <ele>2033.002</ele>
        <time>2015-08-21T09:28:07Z</time>
      </trkpt>
      <trkpt lat="45.5069" lon="6.8346">
        <ele>2033.002</ele>
        <time>2015-08-21T09:28:17Z</time>
      </trkpt>
      <trkpt lat="45.50688" lon="6.83458">
        <ele>2033.002</ele>
        <time>2015-08-21T09:28:22Z</time>
      </trkpt>
      <trkpt lat="45.50685" lon="6.83455">
        <ele>2034.965</ele>
        <time>2015-08-21T09:28:32Z</time>
      </trkpt>
      <trkpt lat="45.50684" lon="6.83456">
        <ele>2034.965</ele>
        <time>2015-08-21T09:28:37Z</time>
      </trkpt>
      <trkpt lat="45.50677" lon="6.83451">
        <ele>2037.0095</ele>
        <time>2015-08-21T09:28:47Z</time>
      </trkpt>
      <trkpt lat="45.50676" lon="6.83452">
        <ele>2037.0095</ele>
        <time>2015-08-21T09:28:52Z</time>
      </trkpt>
      <trkpt lat="45.50672" lon="6.8345">
        <ele>2037.0095</ele>
        <time>2015-08-21T09:29:02Z</time>
      </trkpt>
      <trkpt lat="45.50672" lon="6.8345">
        <ele>2037.0095</ele>
        <time>2015-08-21T09:29:07Z</time>
      </trkpt>
      <trkpt lat="45.50669" lon="6.83451">
        <ele>2037.0095</ele>
        <time>2015-08-21T09:29:22Z</time>
      </trkpt>
      <trkpt lat="45.50658" lon="6.83451">
        <ele>2039.238</ele>
        <time>2015-08-21T09:29:37Z</time>
      </trkpt>
      <trkpt lat="45.50653" lon="6.83454">
        <ele>2039.238</ele>
        <time>2015-08-21T09:29:42Z</time>
      </trkpt>
      <trkpt lat="45.50649" lon="6.83462">
        <ele>2041.7162</ele>
        <time>2015-08-21T09:29:52Z</time>
      </trkpt>
      <trkpt lat="45.50649" lon="6.83465">
        <ele>2041.7162</ele>
        <time>2015-08-21T09:29:57Z</time>
      </trkpt>
      <trkpt lat="45.50642" lon="6.83476">
        <ele>2044.3599</ele>
        <time>2015-08-21T09:30:07Z</time>
      </trkpt>
      <trkpt lat="45.50641" lon="6.83479">
        <ele>2044.3599</ele>
        <time>2015-08-21T09:30:12Z</time>
      </trkpt>
      <trkpt lat="45.5064" lon="6.83479">
        <ele>2044.3599</ele>
        <time>2015-08-21T09:30:22Z</time>
      </trkpt>
      <trkpt lat="45.50637" lon="6.83481">
        <ele>2044.3599</ele>
        <time>2015-08-21T09:30:27Z</time>
      </trkpt>
      <trkpt lat="45.50633" lon="6.83484">
        <ele>2046.9901</ele>
        <time>2015-08-21T09:30:37Z</time>
      </trkpt>
      <trkpt lat="45.50632" lon="6.83485">
        <ele>2046.9901</ele>
        <time>2015-08-21T09:30:42Z</time>
      </trkpt>
      <trkpt lat="45.50628" lon="6.83487">
        <ele>2046.9901</ele>
        <time>2015-08-21T09:30:52Z</time>
      </trkpt>
      <trkpt lat="45.50623" lon="6.83488">
        <ele>2049.3833</ele>
        <time>2015-08-21T09:30:57Z</time>
      </trkpt>
      <trkpt lat="45.50617" lon="6.8349">
        <ele>2049.3833</ele>
        <time>2015-08-21T09:31:07Z</time>
      </trkpt>
      <trkpt lat="45.50615" lon="6.83491">
        <ele>2049.3833</ele>
        <time>2015-08-21T09:31:12Z</time>
      </trkpt>
      <trkpt lat="45.50607" lon="6.83489">
        <ele>2052.1982</ele>
        <time>2015-08-21T09:31:22Z</time>
      </trkpt>
      <trkpt lat="45.50605" lon="6.83491">
        <ele>2052.1982</ele>
        <time>2015-08-21T09:31:27Z</time>
      </trkpt>
      <trkpt lat="45.50602" lon="6.83499">
        <ele>2052.1982</ele>
        <time>2015-08-21T09:31:42Z</time>
      </trkpt>
      <trkpt lat="45.50603" lon="6.83501">
        <ele>2055.7698</ele>
        <time>2015-08-21T09:31:47Z</time>
      </trkpt>
      <trkpt lat="45.50601" lon="6.83509">
        <ele>2055.7698</ele>
        <time>2015-08-21T09:31:57Z</time>
      </trkpt>
      <trkpt lat="45.506" lon="6.83512">
        <ele>2055.7698</ele>
        <time>2015-08-21T09:32:02Z</time>
      </trkpt>
      <trkpt lat="45.506" lon="6.83512">
        <ele>2055.7698</ele>
        <time>2015-08-21T09:32:12Z</time>
      </trkpt>
      <trkpt lat="45.50602" lon="6.83517">
        <ele>2059.6716</ele>
        <time>2015-08-21T09:33:32Z</time>
      </trkpt>
      <trkpt lat="45.506" lon="6.83522">
        <ele>2059.6716</ele>
        <time>2015-08-21T09:33:37Z</time>
      </trkpt>
      <trkpt lat="45.50599" lon="6.83528">
        <ele>2059.6716</ele>
        <time>2015-08-21T09:33:47Z</time>
      </trkpt>
      <trkpt lat="45.506" lon="6.83531">
        <ele>2063.364</ele>
        <time>2015-08-21T09:33:52Z</time>
      </trkpt>
      <trkpt lat="45.50598" lon="6.83541">
        <ele>2063.364</ele>
        <time>2015-08-21T09:34:02Z</time>
      </trkpt>
      <trkpt lat="45.50599" lon="6.83545">
        <ele>2066.7795</ele>
        <time>2015-08-21T09:34:07Z</time>
      </trkpt>
      <trkpt lat="45.50599" lon="6.83546">
        <ele>2066.7795</ele>
        <time>2015-08-21T09:34:17Z</time>
      </trkpt>
      <trkpt lat="45.50597" lon="6.83549">
        <ele>2066.7795</ele>
        <time>2015-08-21T09:34:32Z</time>
      </trkpt>
      <trkpt lat="45.50595" lon="6.83551">
        <ele>2066.7795</ele>
        <time>2015-08-21T09:34:37Z</time>
      </trkpt>
      <trkpt lat="45.50592" lon="6.83557">
        <ele>2069.6409</ele>
        <time>2015-08-21T09:34:42Z</time>
      </trkpt>
      <trkpt lat="45.50592" lon="6.83559">
        <ele>2069.6409</ele>
        <time>2015-08-21T09:34:47Z</time>
      </trkpt>
      <trkpt lat="45.50591" lon="6.83562">
        <ele>2069.6409</ele>
        <time>2015-08-21T09:34:52Z</time>
      </trkpt>
      <trkpt lat="45.50589" lon="6.83566">
        <ele>2069.6409</ele>
        <time>2015-08-21T09:34:57Z</time>
      </trkpt>
      <trkpt lat="45.50587" lon="6.83568">
        <ele>2072.3125</ele>
        <time>2015-08-21T09:35:02Z</time>
      </trkpt>
      <trkpt lat="45.50583" lon="6.83571">
        <ele>2072.3125</ele>
        <time>2015-08-21T09:35:07Z</time>
      </trkpt>
      <trkpt lat="45.50579" lon="6.83573">
        <ele>2072.3125</ele>
        <time>2015-08-21T09:35:12Z</time>
      </trkpt>
      <trkpt lat="45.50578" lon="6.83574">
        <ele>2075.0176</ele>
        <time>2015-08-21T09:35:17Z</time>
      </trkpt>
      <trkpt lat="45.50575" lon="6.83578">
        <ele>2075.0176</ele>
        <time>2015-08-21T09:35:22Z</time>
      </trkpt>
      <trkpt lat="45.50574" lon="6.83584">
        <ele>2075.0176</ele>
        <time>2015-08-21T09:35:27Z</time>
      </trkpt>
      <trkpt lat="45.50574" lon="6.8359">
        <ele>2077.8042</ele>
        <time>2015-08-21T09:35:32Z</time>
      </trkpt>
      <trkpt lat="45.50574" lon="6.83593">
        <ele>2077.8042</ele>
        <time>2015-08-21T09:35:37Z</time>
      </trkpt>
      <trkpt lat="45.50575" lon="6.83596">
        <ele>2077.8042</ele>
        <time>2015-08-21T09:35:42Z</time>
      </trkpt>
      <trkpt lat="45.50577" lon="6.836">
        <ele>2077.8042</ele>
        <time>2015-08-21T09:35:47Z</time>
      </trkpt>
      <trkpt lat="45.50577" lon="6.836">
        <ele>2077.8042</ele>
        <time>2015-08-21T09:35:52Z</time>
      </trkpt>
      <trkpt lat="45.50576" lon="6.83601">
        <ele>2077.8042</ele>
        <time>2015-08-21T09:36:02Z</time>
      </trkpt>
      <trkpt lat="45.50577" lon="6.83604">
        <ele>2080.1553</ele>
        <time>2015-08-21T09:36:07Z</time>
      </trkpt>
      <trkpt lat="45.50579" lon="6.83613">
        <ele>2080.1553</ele>
        <time>2015-08-21T09:36:12Z</time>
      </trkpt>
      <trkpt lat="45.50579" lon="6.83614">
        <ele>2080.1553</ele>
        <time>2015-08-21T09:36:17Z</time>
      </trkpt>
      <trkpt lat="45.5058" lon="6.83616">
        <ele>2081.867</ele>
        <time>2015-08-21T09:36:22Z</time>
      </trkpt>
      <trkpt lat="45.50582" lon="6.83622">
        <ele>2081.867</ele>
        <time>2015-08-21T09:36:27Z</time>
      </trkpt>
      <trkpt lat="45.50583" lon="6.83625">
        <ele>2081.867</ele>
        <time>2015-08-21T09:36:32Z</time>
      </trkpt>
      <trkpt lat="45.50585" lon="6.8363">
        <ele>2083.4292</ele>
        <time>2015-08-21T09:36:37Z</time>
      </trkpt>
      <trkpt lat="45.50585" lon="6.83637">
        <ele>2083.4292</ele>
        <time>2015-08-21T09:36:42Z</time>
      </trkpt>
      <trkpt lat="45.50588" lon="6.83642">
        <ele>2084.6199</ele>
        <time>2015-08-21T09:36:47Z</time>
      </trkpt>
      <trkpt lat="45.5059" lon="6.83648">
        <ele>2084.6199</ele>
        <time>2015-08-21T09:36:52Z</time>
      </trkpt>
      <trkpt lat="45.5059" lon="6.83653">
        <ele>2084.6199</ele>
        <time>2015-08-21T09:36:57Z</time>
      </trkpt>
      <trkpt lat="45.5059" lon="6.83655">
        <ele>2085.6812</ele>
        <time>2015-08-21T09:37:02Z</time>
      </trkpt>
      <trkpt lat="45.50589" lon="6.83661">
        <ele>2085.6812</ele>
        <time>2015-08-21T09:37:07Z</time>
      </trkpt>
      <trkpt lat="45.50589" lon="6.83664">
        <ele>2085.6812</ele>
        <time>2015-08-21T09:37:12Z</time>
      </trkpt>
      <trkpt lat="45.50589" lon="6.83667">
        <ele>2085.6812</ele>
        <time>2015-08-21T09:37:17Z</time>
      </trkpt>
      <trkpt lat="45.50589" lon="6.83668">
        <ele>2085.6812</ele>
        <time>2015-08-21T09:37:22Z</time>
      </trkpt>
      <trkpt lat="45.5059" lon="6.8367">
        <ele>2086.4482</ele>
        <time>2015-08-21T09:37:27Z</time>
      </trkpt>
      <trkpt lat="45.50592" lon="6.83674">
        <ele>2086.4482</ele>
        <time>2015-08-21T09:37:32Z</time>
      </trkpt>
      <trkpt lat="45.50592" lon="6.83681">
        <ele>2086.4482</ele>
        <time>2015-08-21T09:37:37Z</time>
      </trkpt>
      <trkpt lat="45.50592" lon="6.83681">
        <ele>2086.4482</ele>
        <time>2015-08-21T09:37:42Z</time>
      </trkpt>
      <trkpt lat="45.50592" lon="6.83682">
        <ele>2086.4482</ele>
        <time>2015-08-21T09:38:02Z</time>
      </trkpt>
      <trkpt lat="45.5059" lon="6.83682">
        <ele>2087.4763</ele>
        <time>2015-08-21T09:38:07Z</time>
      </trkpt>
      <trkpt lat="45.50589" lon="6.83682">
        <ele>2087.4763</ele>
        <time>2015-08-21T09:38:12Z</time>
      </trkpt>
      <trkpt lat="45.50588" lon="6.83681">
        <ele>2087.4763</ele>
        <time>2015-08-21T09:38:17Z</time>
      </trkpt>
      <trkpt lat="45.50586" lon="6.83683">
        <ele>2087.4763</ele>
        <time>2015-08-21T09:38:22Z</time>
      </trkpt>
      <trkpt lat="45.50586" lon="6.83683">
        <ele>2087.4763</ele>
        <time>2015-08-21T09:38:27Z</time>
      </trkpt>
      <trkpt lat="45.50584" lon="6.83683">
        <ele>2087.4763</ele>
        <time>2015-08-21T09:39:12Z</time>
      </trkpt>
      <trkpt lat="45.50581" lon="6.83684">
        <ele>2088.4575</ele>
        <time>2015-08-21T09:39:17Z</time>
      </trkpt>
      <trkpt lat="45.50579" lon="6.83687">
        <ele>2088.4575</ele>
        <time>2015-08-21T09:39:22Z</time>
      </trkpt>
      <trkpt lat="45.50579" lon="6.83689">
        <ele>2088.4575</ele>
        <time>2015-08-21T09:39:27Z</time>
      </trkpt>
      <trkpt lat="45.50577" lon="6.83691">
        <ele>2088.4575</ele>
        <time>2015-08-21T09:39:32Z</time>
      </trkpt>
      <trkpt lat="45.50576" lon="6.83693">
        <ele>2088.4575</ele>
        <time>2015-08-21T09:39:37Z</time>
      </trkpt>
      <trkpt lat="45.50576" lon="6.83693">
        <ele>2088.4575</ele>
        <time>2015-08-21T09:39:42Z</time>
      </trkpt>
      <trkpt lat="45.50575" lon="6.83694">
        <ele>2090.0579</ele>
        <time>2015-08-21T09:39:47Z</time>
      </trkpt>
      <trkpt lat="45.50571" lon="6.83697">
        <ele>2090.0579</ele>
        <time>2015-08-21T09:39:52Z</time>
      </trkpt>
      <trkpt lat="45.5057" lon="6.83697">
        <ele>2090.0579</ele>
        <time>2015-08-21T09:39:57Z</time>
      </trkpt>
      <trkpt lat="45.50568" lon="6.83698">
        <ele>2090.0579</ele>
        <time>2015-08-21T09:40:02Z</time>
      </trkpt>
      <trkpt lat="45.50567" lon="6.83701">
        <ele>2091.9565</ele>
        <time>2015-08-21T09:40:07Z</time>
      </trkpt>
      <trkpt lat="45.50565" lon="6.83706">
        <ele>2091.9565</ele>
        <time>2015-08-21T09:40:12Z</time>
      </trkpt>
      <trkpt lat="45.50565" lon="6.83706">
        <ele>2091.9565</ele>
        <time>2015-08-21T09:40:17Z</time>
      </trkpt>
      <trkpt lat="45.50561" lon="6.83706">
        <ele>2091.9565</ele>
        <time>2015-08-21T09:40:22Z</time>
      </trkpt>
      <trkpt lat="45.50556" lon="6.83706">
        <ele>2094.0427</ele>
        <time>2015-08-21T09:40:27Z</time>
      </trkpt>
      <trkpt lat="45.50553" lon="6.83706">
        <ele>2094.0427</ele>
        <time>2015-08-21T09:40:32Z</time>
      </trkpt>
      <trkpt lat="45.50548" lon="6.83705">
        <ele>2094.0427</ele>
        <time>2015-08-21T09:40:37Z</time>
      </trkpt>
      <trkpt lat="45.50544" lon="6.83707">
        <ele>2096.2852</ele>
        <time>2015-08-21T09:40:42Z</time>
      </trkpt>
      <trkpt lat="45.50543" lon="6.83709">
        <ele>2096.2852</ele>
        <time>2015-08-21T09:40:47Z</time>
      </trkpt>
      <trkpt lat="45.5054" lon="6.8371">
        <ele>2096.2852</ele>
        <time>2015-08-21T09:40:52Z</time>
      </trkpt>
      <trkpt lat="45.50536" lon="6.83712">
        <ele>2098.5398</ele>
        <time>2015-08-21T09:40:57Z</time>
      </trkpt>
      <trkpt lat="45.5053" lon="6.83714">
        <ele>2098.5398</ele>
        <time>2015-08-21T09:41:02Z</time>
      </trkpt>
      <trkpt lat="45.50529" lon="6.83712">
        <ele>2098.5398</ele>
        <time>2015-08-21T09:41:07Z</time>
      </trkpt>
      <trkpt lat="45.50529" lon="6.83711">
        <ele>2098.5398</ele>
        <time>2015-08-21T09:41:12Z</time>
      </trkpt>
      <trkpt lat="45.50528" lon="6.8371">
        <ele>2100.6008</ele>
        <time>2015-08-21T09:41:17Z</time>
      </trkpt>
      <trkpt lat="45.50528" lon="6.83709">
        <ele>2100.6008</ele>
        <time>2015-08-21T09:41:22Z</time>
      </trkpt>
      <trkpt lat="45.50526" lon="6.8371">
        <ele>2100.6008</ele>
        <time>2015-08-21T09:41:27Z</time>
      </trkpt>
      <trkpt lat="45.50525" lon="6.8371">
        <ele>2100.6008</ele>
        <time>2015-08-21T09:41:32Z</time>
      </trkpt>
      <trkpt lat="45.5052" lon="6.83708">
        <ele>2102.1057</ele>
        <time>2015-08-21T09:41:37Z</time>
      </trkpt>
      <trkpt lat="45.50518" lon="6.83708">
        <ele>2102.1057</ele>
        <time>2015-08-21T09:41:42Z</time>
      </trkpt>
      <trkpt lat="45.50514" lon="6.83705">
        <ele>2102.1057</ele>
        <time>2015-08-21T09:41:47Z</time>
      </trkpt>
      <trkpt lat="45.50513" lon="6.83702">
        <ele>2102.1057</ele>
        <time>2015-08-21T09:41:52Z</time>
      </trkpt>
      <trkpt lat="45.50511" lon="6.83701">
        <ele>2103.5554</ele>
        <time>2015-08-21T09:41:57Z</time>
      </trkpt>
      <trkpt lat="45.50509" lon="6.83699">
        <ele>2103.5554</ele>
        <time>2015-08-21T09:42:02Z</time>
      </trkpt>
      <trkpt lat="45.50508" lon="6.83699">
        <ele>2103.5554</ele>
        <time>2015-08-21T09:42:07Z</time>
      </trkpt>
      <trkpt lat="45.50504" lon="6.83697">
        <ele>2103.5554</ele>
        <time>2015-08-21T09:42:12Z</time>
      </trkpt>
      <trkpt lat="45.50503" lon="6.83696">
        <ele>2103.5554</ele>
        <time>2015-08-21T09:42:17Z</time>
      </trkpt>
      <trkpt lat="45.50498" lon="6.83696">
        <ele>2104.983</ele>
        <time>2015-08-21T09:42:22Z</time>
      </trkpt>
      <trkpt lat="45.50495" lon="6.83696">
        <ele>2104.983</ele>
        <time>2015-08-21T09:42:27Z</time>
      </trkpt>
      <trkpt lat="45.50493" lon="6.83696">
        <ele>2104.983</ele>
        <time>2015-08-21T09:42:32Z</time>
      </trkpt>
      <trkpt lat="45.50493" lon="6.83696">
        <ele>2104.983</ele>
        <time>2015-08-21T09:42:37Z</time>
      </trkpt>
      <trkpt lat="45.50492" lon="6.83697">
        <ele>2104.983</ele>
        <time>2015-08-21T09:43:27Z</time>
      </trkpt>
      <trkpt lat="45.50489" lon="6.83695">
        <ele>2105.7551</ele>
        <time>2015-08-21T09:43:32Z</time>
      </trkpt>
      <trkpt lat="45.50486" lon="6.83694">
        <ele>2105.7551</ele>
        <time>2015-08-21T09:43:37Z</time>
      </trkpt>
      <trkpt lat="45.50481" lon="6.83692">
        <ele>2105.7551</ele>
        <time>2015-08-21T09:43:42Z</time>
      </trkpt>
      <trkpt lat="45.50476" lon="6.83691">
        <ele>2106.3545</ele>
        <time>2015-08-21T09:43:47Z</time>
      </trkpt>
      <trkpt lat="45.50474" lon="6.83691">
        <ele>2106.3545</ele>
        <time>2015-08-21T09:43:52Z</time>
      </trkpt>
      <trkpt lat="45.5047" lon="6.8369">
        <ele>2106.3545</ele>
        <time>2015-08-21T09:43:57Z</time>
      </trkpt>
      <trkpt lat="45.50464" lon="6.8369">
        <ele>2107.243</ele>
        <time>2015-08-21T09:44:02Z</time>
      </trkpt>
      <trkpt lat="45.50462" lon="6.8369">
        <ele>2107.243</ele>
        <time>2015-08-21T09:44:07Z</time>
      </trkpt>
      <trkpt lat="45.50459" lon="6.8369">
        <ele>2107.243</ele>
        <time>2015-08-21T09:44:12Z</time>
      </trkpt>
      <trkpt lat="45.50454" lon="6.8369">
        <ele>2108.1987</ele>
        <time>2015-08-21T09:44:17Z</time>
      </trkpt>
      <trkpt lat="45.50451" lon="6.83692">
        <ele>2108.1987</ele>
        <time>2015-08-21T09:44:22Z</time>
      </trkpt>
      <trkpt lat="45.50447" lon="6.83694">
        <ele>2108.1987</ele>
        <time>2015-08-21T09:44:27Z</time>
      </trkpt>
      <trkpt lat="45.50444" lon="6.83695">
        <ele>2109.1611</ele>
        <time>2015-08-21T09:44:32Z</time>
      </trkpt>
      <trkpt lat="45.50442" lon="6.83695">
        <ele>2109.1611</ele>
        <time>2015-08-21T09:44:37Z</time>
      </trkpt>
      <trkpt lat="45.50437" lon="6.83695">
        <ele>2109.1611</ele>
        <time>2015-08-21T09:44:42Z</time>
      </trkpt>
      <trkpt lat="45.50434" lon="6.83699">
        <ele>2109.9292</ele>
        <time>2015-08-21T09:44:47Z</time>
      </trkpt>
      <trkpt lat="45.5043" lon="6.837">
        <ele>2109.9292</ele>
        <time>2015-08-21T09:44:52Z</time>
      </trkpt>
      <trkpt lat="45.50426" lon="6.83705">
        <ele>2110.2312</ele>
        <time>2015-08-21T09:44:57Z</time>
      </trkpt>
      <trkpt lat="45.50423" lon="6.83705">
        <ele>2110.2312</ele>
        <time>2015-08-21T09:45:02Z</time>
      </trkpt>
      <trkpt lat="45.5042" lon="6.83702">
        <ele>2110.2312</ele>
        <time>2015-08-21T09:45:07Z</time>
      </trkpt>
      <trkpt lat="45.50419" lon="6.83702">
        <ele>2110.2312</ele>
        <time>2015-08-21T09:45:12Z</time>
      </trkpt>
      <trkpt lat="45.50414" lon="6.83701">
        <ele>2110.1191</ele>
        <time>2015-08-21T09:45:17Z</time>
      </trkpt>
      <trkpt lat="45.5041" lon="6.83703">
        <ele>2110.1191</ele>
        <time>2015-08-21T09:45:22Z</time>
      </trkpt>
      <trkpt lat="45.50406" lon="6.83701">
        <ele>2109.859</ele>
        <time>2015-08-21T09:45:27Z</time>
      </trkpt>
      <trkpt lat="45.50401" lon="6.83699">
        <ele>2109.859</ele>
        <time>2015-08-21T09:45:32Z</time>
      </trkpt>
      <trkpt lat="45.50396" lon="6.83701">
        <ele>2109.4807</ele>
        <time>2015-08-21T09:45:37Z</time>
      </trkpt>
      <trkpt lat="45.50393" lon="6.83703">
        <ele>2109.4807</ele>
        <time>2015-08-21T09:45:42Z</time>
      </trkpt>
      <trkpt lat="45.50391" lon="6.83703">
        <ele>2109.4807</ele>
        <time>2015-08-21T09:45:47Z</time>
      </trkpt>
      <trkpt lat="45.50387" lon="6.83704">
        <ele>2109.4807</ele>
        <time>2015-08-21T09:45:52Z</time>
      </trkpt>
      <trkpt lat="45.50382" lon="6.83703">
        <ele>2108.9988</ele>
        <time>2015-08-21T09:45:57Z</time>
      </trkpt>
      <trkpt lat="45.5038" lon="6.83704">
        <ele>2108.9988</ele>
        <time>2015-08-21T09:46:02Z</time>
      </trkpt>
      <trkpt lat="45.50376" lon="6.83704">
        <ele>2108.9988</ele>
        <time>2015-08-21T09:46:07Z</time>
      </trkpt>
      <trkpt lat="45.50373" lon="6.83703">
        <ele>2108.4407</ele>
        <time>2015-08-21T09:46:12Z</time>
      </trkpt>
      <trkpt lat="45.50372" lon="6.83704">
        <ele>2108.4407</ele>
        <time>2015-08-21T09:46:17Z</time>
      </trkpt>
      <trkpt lat="45.50368" lon="6.83703">
        <ele>2108.4407</ele>
        <time>2015-08-21T09:46:22Z</time>
      </trkpt>
      <trkpt lat="45.50365" lon="6.83704">
        <ele>2108.4407</ele>
        <time>2015-08-21T09:46:27Z</time>
      </trkpt>
      <trkpt lat="45.50359" lon="6.83705">
        <ele>2107.7603</ele>
        <time>2015-08-21T09:46:32Z</time>
      </trkpt>
      <trkpt lat="45.50358" lon="6.83706">
        <ele>2107.7603</ele>
        <time>2015-08-21T09:46:37Z</time>
      </trkpt>
      <trkpt lat="45.50356" lon="6.83708">
        <ele>2107.7603</ele>
        <time>2015-08-21T09:46:42Z</time>
      </trkpt>
      <trkpt lat="45.50353" lon="6.83708">
        <ele>2107.7603</ele>
        <time>2015-08-21T09:46:47Z</time>
      </trkpt>
      <trkpt lat="45.50351" lon="6.83708">
        <ele>2107.7603</ele>
        <time>2015-08-21T09:46:52Z</time>
      </trkpt>
      <trkpt lat="45.50346" lon="6.83705">
        <ele>2107.3618</ele>
        <time>2015-08-21T09:46:57Z</time>
      </trkpt>
      <trkpt lat="45.50343" lon="6.83705">
        <ele>2107.3618</ele>
        <time>2015-08-21T09:47:02Z</time>
      </trkpt>
      <trkpt lat="45.50339" lon="6.83704">
        <ele>2107.3618</ele>
        <time>2015-08-21T09:47:07Z</time>
      </trkpt>
      <trkpt lat="45.50335" lon="6.83703">
        <ele>2107.0857</ele>
        <time>2015-08-21T09:47:12Z</time>
      </trkpt>
      <trkpt lat="45.50332" lon="6.83703">
        <ele>2107.0857</ele>
        <time>2015-08-21T09:47:17Z</time>
      </trkpt>
      <trkpt lat="45.50327" lon="6.83702">
        <ele>2107.0857</ele>
        <time>2015-08-21T09:47:22Z</time>
      </trkpt>
      <trkpt lat="45.50325" lon="6.83703">
        <ele>2106.9856</ele>
        <time>2015-08-21T09:47:27Z</time>
      </trkpt>
      <trkpt lat="45.50323" lon="6.83701">
        <ele>2106.9856</ele>
        <time>2015-08-21T09:47:32Z</time>
      </trkpt>
      <trkpt lat="45.50319" lon="6.83698">
        <ele>2106.9856</ele>
        <time>2015-08-21T09:47:37Z</time>
      </trkpt>
      <trkpt lat="45.50316" lon="6.83698">
        <ele>2107.0527</ele>
        <time>2015-08-21T09:47:42Z</time>
      </trkpt>
      <trkpt lat="45.50314" lon="6.837">
        <ele>2107.0527</ele>
        <time>2015-08-21T09:47:47Z</time>
      </trkpt>
      <trkpt lat="45.50311" lon="6.83699">
        <ele>2107.0527</ele>
        <time>2015-08-21T09:47:52Z</time>
      </trkpt>
      <trkpt lat="45.5031" lon="6.83699">
        <ele>2107.0527</ele>
        <time>2015-08-21T09:47:57Z</time>
      </trkpt>
      <trkpt lat="45.50308" lon="6.83698">
        <ele>2107.0527</ele>
        <time>2015-08-21T09:48:02Z</time>
      </trkpt>
      <trkpt lat="45.50306" lon="6.83697">
        <ele>2107.5525</ele>
        <time>2015-08-21T09:48:07Z</time>
      </trkpt>
      <trkpt lat="45.50304" lon="6.83696">
        <ele>2107.5525</ele>
        <time>2015-08-21T09:48:12Z</time>
      </trkpt>
      <trkpt lat="45.50299" lon="6.83697">
        <ele>2107.5525</ele>
        <time>2015-08-21T09:48:17Z</time>
      </trkpt>
      <trkpt lat="45.50296" lon="6.83698">
        <ele>2107.9365</ele>
        <time>2015-08-21T09:48:22Z</time>
      </trkpt>
      <trkpt lat="45.50293" lon="6.83697">
        <ele>2107.9365</ele>
        <time>2015-08-21T09:48:27Z</time>
      </trkpt>
      <trkpt lat="45.50292" lon="6.83697">
        <ele>2107.9365</ele>
        <time>2015-08-21T09:48:32Z</time>
      </trkpt>
      <trkpt lat="45.50292" lon="6.83697">
        <ele>2107.9365</ele>
        <time>2015-08-21T09:48:37Z</time>
      </trkpt>
      <trkpt lat="45.50292" lon="6.83698">
        <ele>2107.9365</ele>
        <time>2015-08-21T09:48:52Z</time>
      </trkpt>
      <trkpt lat="45.50292" lon="6.83698">
        <ele>2107.9365</ele>
        <time>2015-08-21T09:48:57Z</time>
      </trkpt>
      <trkpt lat="45.5029" lon="6.83704">
        <ele>2107.8127</ele>
        <time>2015-08-21T09:49:22Z</time>
      </trkpt>
      <trkpt lat="45.50285" lon="6.83706">
        <ele>2107.8127</ele>
        <time>2015-08-21T09:49:27Z</time>
      </trkpt>
      <trkpt lat="45.50282" lon="6.83705">
        <ele>2107.8127</ele>
        <time>2015-08-21T09:49:32Z</time>
      </trkpt>
      <trkpt lat="45.50281" lon="6.83707">
        <ele>2107.3953</ele>
        <time>2015-08-21T09:49:37Z</time>
      </trkpt>
      <trkpt lat="45.50278" lon="6.83709">
        <ele>2107.3953</ele>
        <time>2015-08-21T09:49:42Z</time>
      </trkpt>
      <trkpt lat="45.50276" lon="6.8371">
        <ele>2107.3953</ele>
        <time>2015-08-21T09:49:47Z</time>
      </trkpt>
      <trkpt lat="45.50274" lon="6.83713">
        <ele>2107.3953</ele>
        <time>2015-08-21T09:49:52Z</time>
      </trkpt>
      <trkpt lat="45.50272" lon="6.83716">
        <ele>2107.0562</ele>
        <time>2015-08-21T09:49:57Z</time>
      </trkpt>
      <trkpt lat="45.50267" lon="6.8372">
        <ele>2107.0562</ele>
        <time>2015-08-21T09:50:02Z</time>
      </trkpt>
      <trkpt lat="45.50265" lon="6.83722">
        <ele>2107.0562</ele>
        <time>2015-08-21T09:50:07Z</time>
      </trkpt>
      <trkpt lat="45.50264" lon="6.83724">
        <ele>2106.6787</ele>
        <time>2015-08-21T09:50:12Z</time>
      </trkpt>
      <trkpt lat="45.50263" lon="6.8373">
        <ele>2106.6787</ele>
        <time>2015-08-21T09:50:17Z</time>
      </trkpt>
      <trkpt lat="45.50262" lon="6.83733">
        <ele>2106.6787</ele>
        <time>2015-08-21T09:50:22Z</time>
      </trkpt>
      <trkpt lat="45.50262" lon="6.83734">
        <ele>2106.6787</ele>
        <time>2015-08-21T09:50:27Z</time>
      </trkpt>
      <trkpt lat="45.5026" lon="6.83735">
        <ele>2106.6787</ele>
        <time>2015-08-21T09:50:32Z</time>
      </trkpt>
      <trkpt lat="45.50256" lon="6.83737">
        <ele>2106.3855</ele>
        <time>2015-08-21T09:50:37Z</time>
      </trkpt>
      <trkpt lat="45.50252" lon="6.83739">
        <ele>2106.3855</ele>
        <time>2015-08-21T09:50:42Z</time>
      </trkpt>
      <trkpt lat="45.50249" lon="6.8374">
        <ele>2106.3855</ele>
        <time>2015-08-21T09:50:47Z</time>
      </trkpt>
      <trkpt lat="45.50247" lon="6.83742">
        <ele>2106.1743</ele>
        <time>2015-08-21T09:50:52Z</time>
      </trkpt>
      <trkpt lat="45.50246" lon="6.83744">
        <ele>2106.1743</ele>
        <time>2015-08-21T09:50:57Z</time>
      </trkpt>
      <trkpt lat="45.50244" lon="6.83746">
        <ele>2106.1743</ele>
        <time>2015-08-21T09:51:02Z</time>
      </trkpt>
      <trkpt lat="45.50241" lon="6.83747">
        <ele>2106.1743</ele>
        <time>2015-08-21T09:51:07Z</time>
      </trkpt>
      <trkpt lat="45.50239" lon="6.83748">
        <ele>2105.769</ele>
        <time>2015-08-21T09:51:12Z</time>
      </trkpt>
      <trkpt lat="45.50236" lon="6.83752">
        <ele>2105.769</ele>
        <time>2015-08-21T09:51:17Z</time>
      </trkpt>
      <trkpt lat="45.50236" lon="6.83752">
        <ele>2105.769</ele>
        <time>2015-08-21T09:51:22Z</time>
      </trkpt>
      <trkpt lat="45.50233" lon="6.83758">
        <ele>2105.26</ele>
        <time>2015-08-21T09:51:27Z</time>
      </trkpt>
      <trkpt lat="45.5023" lon="6.83763">
        <ele>2105.26</ele>
        <time>2015-08-21T09:51:32Z</time>
      </trkpt>
      <trkpt lat="45.50227" lon="6.83769">
        <ele>2104.659</ele>
        <time>2015-08-21T09:51:37Z</time>
      </trkpt>
      <trkpt lat="45.50224" lon="6.83772">
        <ele>2104.659</ele>
        <time>2015-08-21T09:51:42Z</time>
      </trkpt>
      <trkpt lat="45.50222" lon="6.83776">
        <ele>2104.659</ele>
        <time>2015-08-21T09:51:47Z</time>
      </trkpt>
      <trkpt lat="45.50221" lon="6.83777">
        <ele>2104.659</ele>
        <time>2015-08-21T09:51:52Z</time>
      </trkpt>
      <trkpt lat="45.50219" lon="6.83778">
        <ele>2104.1792</ele>
        <time>2015-08-21T09:51:57Z</time>
      </trkpt>
      <trkpt lat="45.50217" lon="6.83781">
        <ele>2104.1792</ele>
        <time>2015-08-21T09:52:02Z</time>
      </trkpt>
      <trkpt lat="45.50212" lon="6.83786">
        <ele>2104.1792</ele>
        <time>2015-08-21T09:52:07Z</time>
      </trkpt>
      <trkpt lat="45.5021" lon="6.83791">
        <ele>2103.8152</ele>
        <time>2015-08-21T09:52:12Z</time>
      </trkpt>
      <trkpt lat="45.50208" lon="6.83793">
        <ele>2103.8152</ele>
        <time>2015-08-21T09:52:17Z</time>
      </trkpt>
      <trkpt lat="45.50203" lon="6.83796">
        <ele>2103.8152</ele>
        <time>2015-08-21T09:52:22Z</time>
      </trkpt>
      <trkpt lat="45.50199" lon="6.83802">
        <ele>2103.346</ele>
        <time>2015-08-21T09:52:27Z</time>
      </trkpt>
      <trkpt lat="45.50196" lon="6.83804">
        <ele>2103.346</ele>
        <time>2015-08-21T09:52:32Z</time>
      </trkpt>
      <trkpt lat="45.50194" lon="6.83804">
        <ele>2103.346</ele>
        <time>2015-08-21T09:52:37Z</time>
      </trkpt>
      <trkpt lat="45.5019" lon="6.83807">
        <ele>2102.7397</ele>
        <time>2015-08-21T09:52:42Z</time>
      </trkpt>
      <trkpt lat="45.50188" lon="6.83812">
        <ele>2102.7397</ele>
        <time>2015-08-21T09:52:47Z</time>
      </trkpt>
      <trkpt lat="45.50185" lon="6.83815">
        <ele>2102.7397</ele>
        <time>2015-08-21T09:52:52Z</time>
      </trkpt>
      <trkpt lat="45.50182" lon="6.83821">
        <ele>2102.1687</ele>
        <time>2015-08-21T09:52:57Z</time>
      </trkpt>
      <trkpt lat="45.50178" lon="6.83825">
        <ele>2102.1687</ele>
        <time>2015-08-21T09:53:02Z</time>
      </trkpt>
      <trkpt lat="45.50172" lon="6.83826">
        <ele>2101.7063</ele>
        <time>2015-08-21T09:53:07Z</time>
      </trkpt>
      <trkpt lat="45.50166" lon="6.83827">
        <ele>2101.7063</ele>
        <time>2015-08-21T09:53:12Z</time>
      </trkpt>
      <trkpt lat="45.50162" lon="6.83828">
        <ele>2101.3474</ele>
        <time>2015-08-21T09:53:17Z</time>
      </trkpt>
      <trkpt lat="45.50156" lon="6.83828">
        <ele>2101.3474</ele>
        <time>2015-08-21T09:53:22Z</time>
      </trkpt>
      <trkpt lat="45.50154" lon="6.83831">
        <ele>2101.3474</ele>
        <time>2015-08-21T09:53:27Z</time>
      </trkpt>
      <trkpt lat="45.50151" lon="6.83832">
        <ele>2101.0151</ele>
        <time>2015-08-21T09:53:32Z</time>
      </trkpt>
      <trkpt lat="45.50151" lon="6.83832">
        <ele>2101.0151</ele>
        <time>2015-08-21T09:53:37Z</time>
      </trkpt>
      <trkpt lat="45.50151" lon="6.83833">
        <ele>2101.0151</ele>
        <time>2015-08-21T09:53:47Z</time>
      </trkpt>
      <trkpt lat="45.50147" lon="6.8384">
        <ele>2101.0151</ele>
        <time>2015-08-21T09:53:52Z</time>
      </trkpt>
      <trkpt lat="45.50142" lon="6.83844">
        <ele>2100.465</ele>
        <time>2015-08-21T09:53:57Z</time>
      </trkpt>
      <trkpt lat="45.50136" lon="6.83846">
        <ele>2100.465</ele>
        <time>2015-08-21T09:54:02Z</time>
      </trkpt>
      <trkpt lat="45.50132" lon="6.83849">
        <ele>2099.9902</ele>
        <time>2015-08-21T09:54:07Z</time>
      </trkpt>
      <trkpt lat="45.50132" lon="6.83849">
        <ele>2099.9902</ele>
        <time>2015-08-21T09:54:12Z</time>
      </trkpt>
      <trkpt lat="45.50132" lon="6.83848">
        <ele>2099.9902</ele>
        <time>2015-08-21T09:54:42Z</time>
      </trkpt>
      <trkpt lat="45.50135" lon="6.83848">
        <ele>2099.9902</ele>
        <time>2015-08-21T09:54:47Z</time>
      </trkpt>
      <trkpt lat="45.50135" lon="6.83848">
        <ele>2099.9902</ele>
        <time>2015-08-21T09:54:52Z</time>
      </trkpt>
      <trkpt lat="45.50135" lon="6.83849">
        <ele>2099.9902</ele>
        <time>2015-08-21T09:57:27Z</time>
      </trkpt>
      <trkpt lat="45.50135" lon="6.8385">
        <ele>2099.9902</ele>
        <time>2015-08-21T09:57:32Z</time>
      </trkpt>
      <trkpt lat="45.50135" lon="6.8385">
        <ele>2099.9902</ele>
        <time>2015-08-21T09:57:37Z</time>
      </trkpt>
      <trkpt lat="45.50135" lon="6.83851">
        <ele>2099.9902</ele>
        <time>2015-08-21T09:57:57Z</time>
      </trkpt>
      <trkpt lat="45.50135" lon="6.83851">
        <ele>2099.9902</ele>
        <time>2015-08-21T09:58:02Z</time>
      </trkpt>
      <trkpt lat="45.50134" lon="6.83851">
        <ele>2099.9902</ele>
        <time>2015-08-21T09:58:17Z</time>
      </trkpt>
      <trkpt lat="45.50132" lon="6.8385">
        <ele>2099.9902</ele>
        <time>2015-08-21T09:58:22Z</time>
      </trkpt>
      <trkpt lat="45.50126" lon="6.8385">
        <ele>2098.4492</ele>
        <time>2015-08-21T09:58:27Z</time>
      </trkpt>
      <trkpt lat="45.50126" lon="6.83854">
        <ele>2098.4492</ele>
        <time>2015-08-21T09:58:32Z</time>
      </trkpt>
      <trkpt lat="45.50126" lon="6.83853">
        <ele>2098.4492</ele>
        <time>2015-08-21T09:58:37Z</time>
      </trkpt>
      <trkpt lat="45.50127" lon="6.83854">
        <ele>2098.4492</ele>
        <time>2015-08-21T09:58:42Z</time>
      </trkpt>
      <trkpt lat="45.50127" lon="6.83854">
        <ele>2098.4492</ele>
        <time>2015-08-21T09:58:52Z</time>
      </trkpt>
      <trkpt lat="45.50127" lon="6.83854">
        <ele>2098.4492</ele>
        <time>2015-08-21T09:58:57Z</time>
      </trkpt>
      <trkpt lat="45.50123" lon="6.83853">
        <ele>2098.4492</ele>
        <time>2015-08-21T09:59:07Z</time>
      </trkpt>
      <trkpt lat="45.5012" lon="6.83851">
        <ele>2096.805</ele>
        <time>2015-08-21T09:59:12Z</time>
      </trkpt>
      <trkpt lat="45.50117" lon="6.8385">
        <ele>2096.805</ele>
        <time>2015-08-21T09:59:17Z</time>
      </trkpt>
      <trkpt lat="45.50114" lon="6.83849">
        <ele>2096.805</ele>
        <time>2015-08-21T09:59:22Z</time>
      </trkpt>
      <trkpt lat="45.50106" lon="6.83846">
        <ele>2095.503</ele>
        <time>2015-08-21T09:59:27Z</time>
      </trkpt>
      <trkpt lat="45.501" lon="6.83844">
        <ele>2095.503</ele>
        <time>2015-08-21T09:59:32Z</time>
      </trkpt>
      <trkpt lat="45.50097" lon="6.83844">
        <ele>2095.503</ele>
        <time>2015-08-21T09:59:37Z</time>
      </trkpt>
      <trkpt lat="45.50091" lon="6.83843">
        <ele>2094.5083</ele>
        <time>2015-08-21T09:59:42Z</time>
      </trkpt>
      <trkpt lat="45.50086" lon="6.83843">
        <ele>2094.5083</ele>
        <time>2015-08-21T09:59:47Z</time>
      </trkpt>
      <trkpt lat="45.50081" lon="6.8384">
        <ele>2093.8167</ele>
        <time>2015-08-21T09:59:52Z</time>
      </trkpt>
      <trkpt lat="45.50077" lon="6.83841">
        <ele>2093.8167</ele>
        <time>2015-08-21T09:59:57Z</time>
      </trkpt>
      <trkpt lat="45.50071" lon="6.8384">
        <ele>2093.336</ele>
        <time>2015-08-21T10:00:02Z</time>
      </trkpt>
      <trkpt lat="45.50066" lon="6.83837">
        <ele>2093.336</ele>
        <time>2015-08-21T10:00:07Z</time>
      </trkpt>
      <trkpt lat="45.50063" lon="6.83837">
        <ele>2093.336</ele>
        <time>2015-08-21T10:00:12Z</time>
      </trkpt>
      <trkpt lat="45.50057" lon="6.83835">
        <ele>2093.1533</ele>
        <time>2015-08-21T10:00:17Z</time>
      </trkpt>
      <trkpt lat="45.50052" lon="6.8383">
        <ele>2093.1533</ele>
        <time>2015-08-21T10:00:22Z</time>
      </trkpt>
      <trkpt lat="45.50047" lon="6.83829">
        <ele>2093.378</ele>
        <time>2015-08-21T10:00:27Z</time>
      </trkpt>
      <trkpt lat="45.50043" lon="6.8383">
        <ele>2093.378</ele>
        <time>2015-08-21T10:00:32Z</time>
      </trkpt>
      <trkpt lat="45.50038" lon="6.83831">
        <ele>2093.662</ele>
        <time>2015-08-21T10:00:37Z</time>
      </trkpt>
      <trkpt lat="45.50035" lon="6.83829">
        <ele>2093.662</ele>
        <time>2015-08-21T10:00:42Z</time>
      </trkpt>
      <trkpt lat="45.50031" lon="6.83824">
        <ele>2094.0154</ele>
        <time>2015-08-21T10:00:47Z</time>
      </trkpt>
      <trkpt lat="45.50025" lon="6.83819">
        <ele>2094.0154</ele>
        <time>2015-08-21T10:00:52Z</time>
      </trkpt>
      <trkpt lat="45.50021" lon="6.83816">
        <ele>2094.4316</ele>
        <time>2015-08-21T10:00:57Z</time>
      </trkpt>
      <trkpt lat="45.50016" lon="6.83816">
        <ele>2094.4316</ele>
        <time>2015-08-21T10:01:02Z</time>
      </trkpt>
      <trkpt lat="45.50013" lon="6.83817">
        <ele>2094.4316</ele>
        <time>2015-08-21T10:01:07Z</time>
      </trkpt>
      <trkpt lat="45.50009" lon="6.83818">
        <ele>2094.8616</ele>
        <time>2015-08-21T10:01:12Z</time>
      </trkpt>
      <trkpt lat="45.50001" lon="6.83816">
        <ele>2094.8616</ele>
        <time>2015-08-21T10:01:17Z</time>
      </trkpt>
      <trkpt lat="45.49995" lon="6.83812">
        <ele>2095.3032</ele>
        <time>2015-08-21T10:01:22Z</time>
      </trkpt>
      <trkpt lat="45.4999" lon="6.8381">
        <ele>2095.3032</ele>
        <time>2015-08-21T10:01:27Z</time>
      </trkpt>
      <trkpt lat="45.49985" lon="6.83808">
        <ele>2095.7397</ele>
        <time>2015-08-21T10:01:32Z</time>
      </trkpt>
      <trkpt lat="45.49979" lon="6.83807">
        <ele>2095.7397</ele>
        <time>2015-08-21T10:01:37Z</time>
      </trkpt>
      <trkpt lat="45.49975" lon="6.83809">
        <ele>2096.112</ele>
        <time>2015-08-21T10:01:42Z</time>
      </trkpt>
      <trkpt lat="45.4997" lon="6.83809">
        <ele>2096.112</ele>
        <time>2015-08-21T10:01:47Z</time>
      </trkpt>
      <trkpt lat="45.49966" lon="6.83809">
        <ele>2096.51</ele>
        <time>2015-08-21T10:01:52Z</time>
      </trkpt>
      <trkpt lat="45.49962" lon="6.83809">
        <ele>2096.51</ele>
        <time>2015-08-21T10:01:57Z</time>
      </trkpt>
      <trkpt lat="45.49958" lon="6.8381">
        <ele>2096.51</ele>
        <time>2015-08-21T10:02:02Z</time>
      </trkpt>
      <trkpt lat="45.49953" lon="6.83813">
        <ele>2096.7288</ele>
        <time>2015-08-21T10:02:07Z</time>
      </trkpt>
      <trkpt lat="45.49947" lon="6.83814">
        <ele>2096.7288</ele>
        <time>2015-08-21T10:02:12Z</time>
      </trkpt>
      <trkpt lat="45.49943" lon="6.83813">
        <ele>2096.7515</ele>
        <time>2015-08-21T10:02:17Z</time>
      </trkpt>
      <trkpt lat="45.49936" lon="6.83816">
        <ele>2096.7515</ele>
        <time>2015-08-21T10:02:22Z</time>
      </trkpt>
      <trkpt lat="45.49931" lon="6.83817">
        <ele>2096.6494</ele>
        <time>2015-08-21T10:02:27Z</time>
      </trkpt>
      <trkpt lat="45.49927" lon="6.83817">
        <ele>2096.6494</ele>
        <time>2015-08-21T10:02:32Z</time>
      </trkpt>
      <trkpt lat="45.49923" lon="6.83819">
        <ele>2096.6494</ele>
        <time>2015-08-21T10:02:37Z</time>
      </trkpt>
      <trkpt lat="45.49918" lon="6.8382">
        <ele>2096.504</ele>
        <time>2015-08-21T10:02:42Z</time>
      </trkpt>
      <trkpt lat="45.49915" lon="6.83821">
        <ele>2096.504</ele>
        <time>2015-08-21T10:02:47Z</time>
      </trkpt>
      <trkpt lat="45.49911" lon="6.83824">
        <ele>2096.504</ele>
        <time>2015-08-21T10:02:52Z</time>
      </trkpt>
      <trkpt lat="45.49906" lon="6.83829">
        <ele>2096.2747</ele>
        <time>2015-08-21T10:02:57Z</time>
      </trkpt>
      <trkpt lat="45.499" lon="6.83831">
        <ele>2096.2747</ele>
        <time>2015-08-21T10:03:02Z</time>
      </trkpt>
      <trkpt lat="45.49894" lon="6.83832">
        <ele>2096.0398</ele>
        <time>2015-08-21T10:03:07Z</time>
      </trkpt>
      <trkpt lat="45.49891" lon="6.83834">
        <ele>2096.0398</ele>
        <time>2015-08-21T10:03:12Z</time>
      </trkpt>
      <trkpt lat="45.49887" lon="6.83834">
        <ele>2096.0398</ele>
        <time>2015-08-21T10:03:17Z</time>
      </trkpt>
      <trkpt lat="45.49882" lon="6.83836">
        <ele>2095.8289</ele>
        <time>2015-08-21T10:03:22Z</time>
      </trkpt>
      <trkpt lat="45.4988" lon="6.83839">
        <ele>2095.8289</ele>
        <time>2015-08-21T10:03:27Z</time>
      </trkpt>
      <trkpt lat="45.49876" lon="6.8384">
        <ele>2095.8289</ele>
        <time>2015-08-21T10:03:32Z</time>
      </trkpt>
      <trkpt lat="45.49872" lon="6.83841">
        <ele>2095.9429</ele>
        <time>2015-08-21T10:03:37Z</time>
      </trkpt>
      <trkpt lat="45.49868" lon="6.83843">
        <ele>2095.9429</ele>
        <time>2015-08-21T10:03:42Z</time>
      </trkpt>
      <trkpt lat="45.4986" lon="6.83848">
        <ele>2096.2268</ele>
        <time>2015-08-21T10:03:47Z</time>
      </trkpt>
      <trkpt lat="45.49856" lon="6.83855">
        <ele>2096.2268</ele>
        <time>2015-08-21T10:03:52Z</time>
      </trkpt>
      <trkpt lat="45.49854" lon="6.83858">
        <ele>2096.2783</ele>
        <time>2015-08-21T10:03:57Z</time>
      </trkpt>
      <trkpt lat="45.49849" lon="6.83863">
        <ele>2096.2783</ele>
        <time>2015-08-21T10:04:02Z</time>
      </trkpt>
      <trkpt lat="45.49847" lon="6.83865">
        <ele>2096.2783</ele>
        <time>2015-08-21T10:04:07Z</time>
      </trkpt>
      <trkpt lat="45.49842" lon="6.83869">
        <ele>2095.9834</ele>
        <time>2015-08-21T10:04:12Z</time>
      </trkpt>
      <trkpt lat="45.49838" lon="6.83872">
        <ele>2095.9834</ele>
        <time>2015-08-21T10:04:17Z</time>
      </trkpt>
      <trkpt lat="45.49835" lon="6.83874">
        <ele>2095.9834</ele>
        <time>2015-08-21T10:04:22Z</time>
      </trkpt>
      <trkpt lat="45.49833" lon="6.83874">
        <ele>2095.671</ele>
        <time>2015-08-21T10:04:27Z</time>
      </trkpt>
      <trkpt lat="45.49833" lon="6.83874">
        <ele>2095.671</ele>
        <time>2015-08-21T10:04:32Z</time>
      </trkpt>
      <trkpt lat="45.49831" lon="6.83878">
        <ele>2095.671</ele>
        <time>2015-08-21T10:05:07Z</time>
      </trkpt>
      <trkpt lat="45.49826" lon="6.83882">
        <ele>2095.2842</ele>
        <time>2015-08-21T10:05:12Z</time>
      </trkpt>
      <trkpt lat="45.49823" lon="6.83887">
        <ele>2095.2842</ele>
        <time>2015-08-21T10:05:17Z</time>
      </trkpt>
      <trkpt lat="45.49821" lon="6.83889">
        <ele>2095.2842</ele>
        <time>2015-08-21T10:05:22Z</time>
      </trkpt>
      <trkpt lat="45.49818" lon="6.83891">
        <ele>2094.743</ele>
        <time>2015-08-21T10:05:27Z</time>
      </trkpt>
      <trkpt lat="45.49814" lon="6.83897">
        <ele>2094.743</ele>
        <time>2015-08-21T10:05:32Z</time>
      </trkpt>
      <trkpt lat="45.49811" lon="6.83903">
        <ele>2094.2466</ele>
        <time>2015-08-21T10:05:37Z</time>
      </trkpt>
      <trkpt lat="45.49806" lon="6.83906">
        <ele>2094.2466</ele>
        <time>2015-08-21T10:05:42Z</time>
      </trkpt>
      <trkpt lat="45.49804" lon="6.83908">
        <ele>2094.2466</ele>
        <time>2015-08-21T10:05:47Z</time>
      </trkpt>
      <trkpt lat="45.49802" lon="6.83911">
        <ele>2093.9656</ele>
        <time>2015-08-21T10:05:52Z</time>
      </trkpt>
      <trkpt lat="45.49798" lon="6.83909">
        <ele>2093.9656</ele>
        <time>2015-08-21T10:05:57Z</time>
      </trkpt>
      <trkpt lat="45.49793" lon="6.83911">
        <ele>2093.9995</ele>
        <time>2015-08-21T10:06:02Z</time>
      </trkpt>
      <trkpt lat="45.49785" lon="6.83911">
        <ele>2093.9995</ele>
        <time>2015-08-21T10:06:07Z</time>
      </trkpt>
      <trkpt lat="45.49781" lon="6.83914">
        <ele>2094.1226</ele>
        <time>2015-08-21T10:06:12Z</time>
      </trkpt>
      <trkpt lat="45.49776" lon="6.83916">
        <ele>2094.1226</ele>
        <time>2015-08-21T10:06:17Z</time>
      </trkpt>
      <trkpt lat="45.49772" lon="6.83922">
        <ele>2093.9958</ele>
        <time>2015-08-21T10:06:22Z</time>
      </trkpt>
      <trkpt lat="45.49769" lon="6.83929">
        <ele>2093.9958</ele>
        <time>2015-08-21T10:06:27Z</time>
      </trkpt>
      <trkpt lat="45.49764" lon="6.83937">
        <ele>2093.5366</ele>
        <time>2015-08-21T10:06:32Z</time>
      </trkpt>
      <trkpt lat="45.49761" lon="6.83941">
        <ele>2093.5366</ele>
        <time>2015-08-21T10:06:37Z</time>
      </trkpt>
      <trkpt lat="45.49759" lon="6.83947">
        <ele>2093.0432</ele>
        <time>2015-08-21T10:06:42Z</time>
      </trkpt>
      <trkpt lat="45.49753" lon="6.83951">
        <ele>2093.0432</ele>
        <time>2015-08-21T10:06:47Z</time>
      </trkpt>
      <trkpt lat="45.49749" lon="6.83956">
        <ele>2092.5913</ele>
        <time>2015-08-21T10:06:52Z</time>
      </trkpt>
      <trkpt lat="45.49746" lon="6.83961">
        <ele>2092.5913</ele>
        <time>2015-08-21T10:06:57Z</time>
      </trkpt>
      <trkpt lat="45.49744" lon="6.83962">
        <ele>2092.5913</ele>
        <time>2015-08-21T10:07:02Z</time>
      </trkpt>
      <trkpt lat="45.49741" lon="6.83966">
        <ele>2092.2217</ele>
        <time>2015-08-21T10:07:07Z</time>
      </trkpt>
      <trkpt lat="45.49736" lon="6.83966">
        <ele>2092.2217</ele>
        <time>2015-08-21T10:07:12Z</time>
      </trkpt>
      <trkpt lat="45.49732" lon="6.83968">
        <ele>2091.9858</ele>
        <time>2015-08-21T10:07:17Z</time>
      </trkpt>
      <trkpt lat="45.49726" lon="6.83969">
        <ele>2091.9858</ele>
        <time>2015-08-21T10:07:22Z</time>
      </trkpt>
      <trkpt lat="45.49724" lon="6.83973">
        <ele>2091.9858</ele>
        <time>2015-08-21T10:07:27Z</time>
      </trkpt>
      <trkpt lat="45.49723" lon="6.83975">
        <ele>2091.7158</ele>
        <time>2015-08-21T10:07:32Z</time>
      </trkpt>
      <trkpt lat="45.49721" lon="6.83977">
        <ele>2091.7158</ele>
        <time>2015-08-21T10:07:37Z</time>
      </trkpt>
      <trkpt lat="45.49715" lon="6.83979">
        <ele>2091.7158</ele>
        <time>2015-08-21T10:07:42Z</time>
      </trkpt>
      <trkpt lat="45.4971" lon="6.8398">
        <ele>2091.8606</ele>
        <time>2015-08-21T10:07:47Z</time>
      </trkpt>
      <trkpt lat="45.49708" lon="6.83981">
        <ele>2091.8606</ele>
        <time>2015-08-21T10:07:52Z</time>
      </trkpt>
      <trkpt lat="45.49705" lon="6.83986">
        <ele>2091.8606</ele>
        <time>2015-08-21T10:07:57Z</time>
      </trkpt>
      <trkpt lat="45.49701" lon="6.83989">
        <ele>2092.2302</ele>
        <time>2015-08-21T10:08:02Z</time>
      </trkpt>
      <trkpt lat="45.49701" lon="6.8399">
        <ele>2092.2302</ele>
        <time>2015-08-21T10:08:07Z</time>
      </trkpt>
      <trkpt lat="45.49699" lon="6.83991">
        <ele>2092.2302</ele>
        <time>2015-08-21T10:08:12Z</time>
      </trkpt>
      <trkpt lat="45.49697" lon="6.83992">
        <ele>2092.2302</ele>
        <time>2015-08-21T10:08:17Z</time>
      </trkpt>
      <trkpt lat="45.49696" lon="6.83993">
        <ele>2092.2302</ele>
        <time>2015-08-21T10:08:22Z</time>
      </trkpt>
      <trkpt lat="45.49692" lon="6.83993">
        <ele>2093.08</ele>
        <time>2015-08-21T10:08:27Z</time>
      </trkpt>
      <trkpt lat="45.49689" lon="6.83995">
        <ele>2093.08</ele>
        <time>2015-08-21T10:08:32Z</time>
      </trkpt>
      <trkpt lat="45.49688" lon="6.83996">
        <ele>2093.08</ele>
        <time>2015-08-21T10:08:37Z</time>
      </trkpt>
      <trkpt lat="45.49685" lon="6.83998">
        <ele>2093.08</ele>
        <time>2015-08-21T10:08:42Z</time>
      </trkpt>
      <trkpt lat="45.49684" lon="6.83998">
        <ele>2094.2566</ele>
        <time>2015-08-21T10:08:47Z</time>
      </trkpt>
      <trkpt lat="45.4968" lon="6.83998">
        <ele>2094.2566</ele>
        <time>2015-08-21T10:08:52Z</time>
      </trkpt>
      <trkpt lat="45.49675" lon="6.83999">
        <ele>2095.7605</ele>
        <time>2015-08-21T10:08:57Z</time>
      </trkpt>
      <trkpt lat="45.49671" lon="6.84">
        <ele>2095.7605</ele>
        <time>2015-08-21T10:09:02Z</time>
      </trkpt>
      <trkpt lat="45.49666" lon="6.84002">
        <ele>2097.4478</ele>
        <time>2015-08-21T10:09:07Z</time>
      </trkpt>
      <trkpt lat="45.49662" lon="6.84004">
        <ele>2097.4478</ele>
        <time>2015-08-21T10:09:12Z</time>
      </trkpt>
      <trkpt lat="45.49658" lon="6.84006">
        <ele>2097.4478</ele>
        <time>2015-08-21T10:09:17Z</time>
      </trkpt>
      <trkpt lat="45.49655" lon="6.84006">
        <ele>2099.0254</ele>
        <time>2015-08-21T10:09:22Z</time>
      </trkpt>
      <trkpt lat="45.49652" lon="6.84007">
        <ele>2099.0254</ele>
        <time>2015-08-21T10:09:27Z</time>
      </trkpt>
      <trkpt lat="45.49647" lon="6.84007">
        <ele>2099.0254</ele>
        <time>2015-08-21T10:09:32Z</time>
      </trkpt>
      <trkpt lat="45.49642" lon="6.84009">
        <ele>2100.5398</ele>
        <time>2015-08-21T10:09:37Z</time>
      </trkpt>
      <trkpt lat="45.49639" lon="6.84011">
        <ele>2100.5398</ele>
        <time>2015-08-21T10:09:42Z</time>
      </trkpt>
      <trkpt lat="45.49635" lon="6.84015">
        <ele>2100.5398</ele>
        <time>2015-08-21T10:09:47Z</time>
      </trkpt>
      <trkpt lat="45.49632" lon="6.84016">
        <ele>2101.9766</ele>
        <time>2015-08-21T10:09:52Z</time>
      </trkpt>
      <trkpt lat="45.49628" lon="6.84016">
        <ele>2101.9766</ele>
        <time>2015-08-21T10:09:57Z</time>
      </trkpt>
      <trkpt lat="45.49624" lon="6.84017">
        <ele>2101.9766</ele>
        <time>2015-08-21T10:10:02Z</time>
      </trkpt>
      <trkpt lat="45.49622" lon="6.84019">
        <ele>2103.3943</ele>
        <time>2015-08-21T10:10:07Z</time>
      </trkpt>
      <trkpt lat="45.49617" lon="6.84024">
        <ele>2103.3943</ele>
        <time>2015-08-21T10:10:12Z</time>
      </trkpt>
      <trkpt lat="45.49615" lon="6.84029">
        <ele>2104.5884</ele>
        <time>2015-08-21T10:10:17Z</time>
      </trkpt>
      <trkpt lat="45.49612" lon="6.84037">
        <ele>2104.5884</ele>
        <time>2015-08-21T10:10:22Z</time>
      </trkpt>
      <trkpt lat="45.49607" lon="6.84039">
        <ele>2105.4707</ele>
        <time>2015-08-21T10:10:27Z</time>
      </trkpt>
      <trkpt lat="45.49601" lon="6.8404">
        <ele>2105.4707</ele>
        <time>2015-08-21T10:10:32Z</time>
      </trkpt>
      <trkpt lat="45.49597" lon="6.84044">
        <ele>2105.9895</ele>
        <time>2015-08-21T10:10:37Z</time>
      </trkpt>
      <trkpt lat="45.49592" lon="6.84046">
        <ele>2105.9895</ele>
        <time>2015-08-21T10:10:42Z</time>
      </trkpt>
      <trkpt lat="45.49586" lon="6.84047">
        <ele>2106.3716</ele>
        <time>2015-08-21T10:10:47Z</time>
      </trkpt>
      <trkpt lat="45.49581" lon="6.84048">
        <ele>2106.3716</ele>
        <time>2015-08-21T10:10:52Z</time>
      </trkpt>
      <trkpt lat="45.49577" lon="6.84051">
        <ele>2106.6401</ele>
        <time>2015-08-21T10:10:57Z</time>
      </trkpt>
      <trkpt lat="45.49575" lon="6.84051">
        <ele>2106.6401</ele>
        <time>2015-08-21T10:11:02Z</time>
      </trkpt>
      <trkpt lat="45.4957" lon="6.84052">
        <ele>2106.6401</ele>
        <time>2015-08-21T10:11:07Z</time>
      </trkpt>
      <trkpt lat="45.49565" lon="6.84054">
        <ele>2106.947</ele>
        <time>2015-08-21T10:11:12Z</time>
      </trkpt>
      <trkpt lat="45.49562" lon="6.84056">
        <ele>2106.947</ele>
        <time>2015-08-21T10:11:17Z</time>
      </trkpt>
      <trkpt lat="45.49558" lon="6.84058">
        <ele>2106.947</ele>
        <time>2015-08-21T10:11:22Z</time>
      </trkpt>
      <trkpt lat="45.49553" lon="6.84062">
        <ele>2107.1016</ele>
        <time>2015-08-21T10:11:27Z</time>
      </trkpt>
      <trkpt lat="45.49549" lon="6.84068">
        <ele>2107.1016</ele>
        <time>2015-08-21T10:11:32Z</time>
      </trkpt>
      <trkpt lat="45.49543" lon="6.84069">
        <ele>2107.0713</ele>
        <time>2015-08-21T10:11:37Z</time>
      </trkpt>
      <trkpt lat="45.49538" lon="6.84072">
        <ele>2107.0713</ele>
        <time>2015-08-21T10:11:42Z</time>
      </trkpt>
      <trkpt lat="45.49535" lon="6.84073">
        <ele>2107.0718</ele>
        <time>2015-08-21T10:11:47Z</time>
      </trkpt>
      <trkpt lat="45.49528" lon="6.84079">
        <ele>2107.0718</ele>
        <time>2015-08-21T10:11:52Z</time>
      </trkpt>
      <trkpt lat="45.49523" lon="6.84081">
        <ele>2107.015</ele>
        <time>2015-08-21T10:11:57Z</time>
      </trkpt>
      <trkpt lat="45.49521" lon="6.84084">
        <ele>2107.015</ele>
        <time>2015-08-21T10:12:02Z</time>
      </trkpt>
      <trkpt lat="45.49516" lon="6.84086">
        <ele>2107.015</ele>
        <time>2015-08-21T10:12:07Z</time>
      </trkpt>
      <trkpt lat="45.49512" lon="6.8409">
        <ele>2107.1072</ele>
        <time>2015-08-21T10:12:12Z</time>
      </trkpt>
      <trkpt lat="45.49508" lon="6.84093">
        <ele>2107.1072</ele>
        <time>2015-08-21T10:12:17Z</time>
      </trkpt>
      <trkpt lat="45.49502" lon="6.84094">
        <ele>2107.1646</ele>
        <time>2015-08-21T10:12:22Z</time>
      </trkpt>
      <trkpt lat="45.495" lon="6.84097">
        <ele>2107.1646</ele>
        <time>2015-08-21T10:12:27Z</time>
      </trkpt>
      <trkpt lat="45.49496" lon="6.84099">
        <ele>2107.1646</ele>
        <time>2015-08-21T10:12:32Z</time>
      </trkpt>
      <trkpt lat="45.49492" lon="6.84102">
        <ele>2106.9885</ele>
        <time>2015-08-21T10:12:37Z</time>
      </trkpt>
      <trkpt lat="45.49492" lon="6.84102">
        <ele>2106.9885</ele>
        <time>2015-08-21T10:12:42Z</time>
      </trkpt>
      <trkpt lat="45.4949" lon="6.84103">
        <ele>2106.9885</ele>
        <time>2015-08-21T10:14:02Z</time>
      </trkpt>
      <trkpt lat="45.49487" lon="6.84107">
        <ele>2106.9885</ele>
        <time>2015-08-21T10:14:07Z</time>
      </trkpt>
      <trkpt lat="45.49482" lon="6.8411">
        <ele>2107.1738</ele>
        <time>2015-08-21T10:14:12Z</time>
      </trkpt>
      <trkpt lat="45.49478" lon="6.84115">
        <ele>2107.1738</ele>
        <time>2015-08-21T10:14:17Z</time>
      </trkpt>
      <trkpt lat="45.49475" lon="6.84115">
        <ele>2107.1738</ele>
        <time>2015-08-21T10:14:22Z</time>
      </trkpt>
      <trkpt lat="45.4947" lon="6.84116">
        <ele>2107.564</ele>
        <time>2015-08-21T10:14:27Z</time>
      </trkpt>
      <trkpt lat="45.49467" lon="6.84117">
        <ele>2107.564</ele>
        <time>2015-08-21T10:14:32Z</time>
      </trkpt>
      <trkpt lat="45.49462" lon="6.84116">
        <ele>2108.1292</ele>
        <time>2015-08-21T10:14:37Z</time>
      </trkpt>
      <trkpt lat="45.49458" lon="6.84113">
        <ele>2108.1292</ele>
        <time>2015-08-21T10:14:42Z</time>
      </trkpt>
      <trkpt lat="45.49457" lon="6.84109">
        <ele>2108.1292</ele>
        <time>2015-08-21T10:14:47Z</time>
      </trkpt>
      <trkpt lat="45.49456" lon="6.84108">
        <ele>2108.1292</ele>
        <time>2015-08-21T10:14:52Z</time>
      </trkpt>
      <trkpt lat="45.49455" lon="6.84107">
        <ele>2108.1292</ele>
        <time>2015-08-21T10:14:57Z</time>
      </trkpt>
      <trkpt lat="45.49455" lon="6.84107">
        <ele>2108.1292</ele>
        <time>2015-08-21T10:15:02Z</time>
      </trkpt>
      <trkpt lat="45.49454" lon="6.84109">
        <ele>2108.971</ele>
        <time>2015-08-21T10:15:07Z</time>
      </trkpt>
      <trkpt lat="45.49453" lon="6.8411">
        <ele>2108.971</ele>
        <time>2015-08-21T10:15:12Z</time>
      </trkpt>
      <trkpt lat="45.49452" lon="6.84109">
        <ele>2108.971</ele>
        <time>2015-08-21T10:15:32Z</time>
      </trkpt>
      <trkpt lat="45.49452" lon="6.84108">
        <ele>2108.971</ele>
        <time>2015-08-21T10:15:37Z</time>
      </trkpt>
      <trkpt lat="45.49452" lon="6.84108">
        <ele>2108.971</ele>
        <time>2015-08-21T10:15:42Z</time>
      </trkpt>
      <trkpt lat="45.4945" lon="6.84109">
        <ele>2108.971</ele>
        <time>2015-08-21T10:16:12Z</time>
      </trkpt>
      <trkpt lat="45.49447" lon="6.84112">
        <ele>2108.971</ele>
        <time>2015-08-21T10:16:17Z</time>
      </trkpt>
      <trkpt lat="45.49444" lon="6.84118">
        <ele>2109.851</ele>
        <time>2015-08-21T10:16:22Z</time>
      </trkpt>
      <trkpt lat="45.49442" lon="6.84122">
        <ele>2109.851</ele>
        <time>2015-08-21T10:16:27Z</time>
      </trkpt>
      <trkpt lat="45.49437" lon="6.84123">
        <ele>2109.851</ele>
        <time>2015-08-21T10:16:32Z</time>
      </trkpt>
      <trkpt lat="45.49431" lon="6.84123">
        <ele>2110.7363</ele>
        <time>2015-08-21T10:16:37Z</time>
      </trkpt>
      <trkpt lat="45.49427" lon="6.84123">
        <ele>2110.7363</ele>
        <time>2015-08-21T10:16:42Z</time>
      </trkpt>
      <trkpt lat="45.4942" lon="6.84122">
        <ele>2111.711</ele>
        <time>2015-08-21T10:16:47Z</time>
      </trkpt>
      <trkpt lat="45.49417" lon="6.84122">
        <ele>2111.711</ele>
        <time>2015-08-21T10:16:52Z</time>
      </trkpt>
      <trkpt lat="45.49413" lon="6.8412">
        <ele>2111.711</ele>
        <time>2015-08-21T10:16:57Z</time>
      </trkpt>
      <trkpt lat="45.49408" lon="6.8412">
        <ele>2112.8386</ele>
        <time>2015-08-21T10:17:02Z</time>
      </trkpt>
      <trkpt lat="45.49404" lon="6.84122">
        <ele>2112.8386</ele>
        <time>2015-08-21T10:17:07Z</time>
      </trkpt>
      <trkpt lat="45.49401" lon="6.84125">
        <ele>2112.8386</ele>
        <time>2015-08-21T10:17:12Z</time>
      </trkpt>
      <trkpt lat="45.49399" lon="6.84123">
        <ele>2114.0625</ele>
        <time>2015-08-21T10:17:17Z</time>
      </trkpt>
      <trkpt lat="45.49395" lon="6.84127">
        <ele>2114.0625</ele>
        <time>2015-08-21T10:17:22Z</time>
      </trkpt>
      <trkpt lat="45.49391" lon="6.84133">
        <ele>2115.2866</ele>
        <time>2015-08-21T10:17:27Z</time>
      </trkpt>
      <trkpt lat="45.49386" lon="6.84135">
        <ele>2115.2866</ele>
        <time>2015-08-21T10:17:32Z</time>
      </trkpt>
      <trkpt lat="45.49378" lon="6.84134">
        <ele>2116.3928</ele>
        <time>2015-08-21T10:17:37Z</time>
      </trkpt>
      <trkpt lat="45.49371" lon="6.84133">
        <ele>2116.3928</ele>
        <time>2015-08-21T10:17:42Z</time>
      </trkpt>
      <trkpt lat="45.49366" lon="6.84135">
        <ele>2117.4746</ele>
        <time>2015-08-21T10:17:47Z</time>
      </trkpt>
      <trkpt lat="45.49364" lon="6.84139">
        <ele>2117.4746</ele>
        <time>2015-08-21T10:17:52Z</time>
      </trkpt>
      <trkpt lat="45.49359" lon="6.84139">
        <ele>2117.4746</ele>
        <time>2015-08-21T10:17:57Z</time>
      </trkpt>
      <trkpt lat="45.49354" lon="6.84135">
        <ele>2118.3445</ele>
        <time>2015-08-21T10:18:02Z</time>
      </trkpt>
      <trkpt lat="45.4935" lon="6.84137">
        <ele>2118.3445</ele>
        <time>2015-08-21T10:18:07Z</time>
      </trkpt>
      <trkpt lat="45.49345" lon="6.84138">
        <ele>2119.146</ele>
        <time>2015-08-21T10:18:12Z</time>
      </trkpt>
      <trkpt lat="45.49341" lon="6.84141">
        <ele>2119.146</ele>
        <time>2015-08-21T10:18:17Z</time>
      </trkpt>
      <trkpt lat="45.49339" lon="6.84144">
        <ele>2119.146</ele>
        <time>2015-08-21T10:18:22Z</time>
      </trkpt>
      <trkpt lat="45.49335" lon="6.84145">
        <ele>2119.7104</ele>
        <time>2015-08-21T10:18:27Z</time>
      </trkpt>
      <trkpt lat="45.49334" lon="6.84145">
        <ele>2119.7104</ele>
        <time>2015-08-21T10:18:32Z</time>
      </trkpt>
      <trkpt lat="45.49328" lon="6.84143">
        <ele>2119.7104</ele>
        <time>2015-08-21T10:18:37Z</time>
      </trkpt>
      <trkpt lat="45.49321" lon="6.84144">
        <ele>2120.1987</ele>
        <time>2015-08-21T10:18:42Z</time>
      </trkpt>
      <trkpt lat="45.49316" lon="6.84146">
        <ele>2120.1987</ele>
        <time>2015-08-21T10:18:47Z</time>
      </trkpt>
      <trkpt lat="45.49314" lon="6.84147">
        <ele>2120.1987</ele>
        <time>2015-08-21T10:18:52Z</time>
      </trkpt>
      <trkpt lat="45.49313" lon="6.84148">
        <ele>2120.4727</ele>
        <time>2015-08-21T10:18:57Z</time>
      </trkpt>
      <trkpt lat="45.49312" lon="6.84148">
        <ele>2120.4727</ele>
        <time>2015-08-21T10:19:02Z</time>
      </trkpt>
      <trkpt lat="45.49311" lon="6.84148">
        <ele>2120.4727</ele>
        <time>2015-08-21T10:19:07Z</time>
      </trkpt>
      <trkpt lat="45.49311" lon="6.84148">
        <ele>2120.4727</ele>
        <time>2015-08-21T10:19:12Z</time>
      </trkpt>
      <trkpt lat="45.49307" lon="6.84145">
        <ele>2120.4727</ele>
        <time>2015-08-21T10:19:17Z</time>
      </trkpt>
      <trkpt lat="45.49307" lon="6.84145">
        <ele>2120.4727</ele>
        <time>2015-08-21T10:19:22Z</time>
      </trkpt>
      <trkpt lat="45.49304" lon="6.84143">
        <ele>2121.024</ele>
        <time>2015-08-21T10:19:27Z</time>
      </trkpt>
      <trkpt lat="45.49304" lon="6.84143">
        <ele>2121.024</ele>
        <time>2015-08-21T10:19:32Z</time>
      </trkpt>
      <trkpt lat="45.49301" lon="6.84141">
        <ele>2121.024</ele>
        <time>2015-08-21T10:19:37Z</time>
      </trkpt>
      <trkpt lat="45.493" lon="6.8414">
        <ele>2121.024</ele>
        <time>2015-08-21T10:19:42Z</time>
      </trkpt>
      <trkpt lat="45.493" lon="6.8414">
        <ele>2121.024</ele>
        <time>2015-08-21T10:19:47Z</time>
      </trkpt>
      <trkpt lat="45.49299" lon="6.84137">
        <ele>2121.024</ele>
        <time>2015-08-21T10:19:52Z</time>
      </trkpt>
      <trkpt lat="45.49299" lon="6.84137">
        <ele>2121.024</ele>
        <time>2015-08-21T10:19:57Z</time>
      </trkpt>
      <trkpt lat="45.49298" lon="6.84134">
        <ele>2121.9329</ele>
        <time>2015-08-21T10:20:07Z</time>
      </trkpt>
      <trkpt lat="45.49297" lon="6.84132">
        <ele>2121.9329</ele>
        <time>2015-08-21T10:20:12Z</time>
      </trkpt>
      <trkpt lat="45.49297" lon="6.84132">
        <ele>2121.9329</ele>
        <time>2015-08-21T10:20:17Z</time>
      </trkpt>
      <trkpt lat="45.49296" lon="6.84129">
        <ele>2121.9329</ele>
        <time>2015-08-21T10:20:42Z</time>
      </trkpt>
      <trkpt lat="45.49295" lon="6.84128">
        <ele>2121.9329</ele>
        <time>2015-08-21T10:20:47Z</time>
      </trkpt>
      <trkpt lat="45.49295" lon="6.84128">
        <ele>2121.9329</ele>
        <time>2015-08-21T10:20:52Z</time>
      </trkpt>
      <trkpt lat="45.49295" lon="6.84128">
        <ele>2121.9329</ele>
        <time>2015-08-21T10:20:57Z</time>
      </trkpt>
      <trkpt lat="45.49293" lon="6.84128">
        <ele>2121.9329</ele>
        <time>2015-08-21T10:21:02Z</time>
      </trkpt>
      <trkpt lat="45.49293" lon="6.84128">
        <ele>2121.9329</ele>
        <time>2015-08-21T10:21:07Z</time>
      </trkpt>
      <trkpt lat="45.49287" lon="6.84132">
        <ele>2123.057</ele>
        <time>2015-08-21T10:21:27Z</time>
      </trkpt>
      <trkpt lat="45.49285" lon="6.84133">
        <ele>2123.057</ele>
        <time>2015-08-21T10:21:32Z</time>
      </trkpt>
      <trkpt lat="45.49284" lon="6.84135">
        <ele>2123.057</ele>
        <time>2015-08-21T10:21:37Z</time>
      </trkpt>
      <trkpt lat="45.49284" lon="6.84135">
        <ele>2123.057</ele>
        <time>2015-08-21T10:21:42Z</time>
      </trkpt>
      <trkpt lat="45.49284" lon="6.84138">
        <ele>2123.057</ele>
        <time>2015-08-21T10:21:47Z</time>
      </trkpt>
      <trkpt lat="45.49284" lon="6.84141">
        <ele>2123.057</ele>
        <time>2015-08-21T10:21:52Z</time>
      </trkpt>
      <trkpt lat="45.49282" lon="6.8415">
        <ele>2124.1765</ele>
        <time>2015-08-21T10:21:57Z</time>
      </trkpt>
      <trkpt lat="45.49282" lon="6.84152">
        <ele>2124.1765</ele>
        <time>2015-08-21T10:22:02Z</time>
      </trkpt>
      <trkpt lat="45.49282" lon="6.84152">
        <ele>2124.1765</ele>
        <time>2015-08-21T10:22:07Z</time>
      </trkpt>
      <trkpt lat="45.49281" lon="6.84156">
        <ele>2124.1765</ele>
        <time>2015-08-21T10:22:12Z</time>
      </trkpt>
      <trkpt lat="45.49281" lon="6.84157">
        <ele>2124.1765</ele>
        <time>2015-08-21T10:22:17Z</time>
      </trkpt>
      <trkpt lat="45.4928" lon="6.8416">
        <ele>2124.1765</ele>
        <time>2015-08-21T10:22:22Z</time>
      </trkpt>
      <trkpt lat="45.4928" lon="6.84162">
        <ele>2124.1765</ele>
        <time>2015-08-21T10:22:27Z</time>
      </trkpt>
      <trkpt lat="45.4928" lon="6.84162">
        <ele>2124.1765</ele>
        <time>2015-08-21T10:22:32Z</time>
      </trkpt>
      <trkpt lat="45.49281" lon="6.84171">
        <ele>2125.8093</ele>
        <time>2015-08-21T10:22:52Z</time>
      </trkpt>
      <trkpt lat="45.49282" lon="6.84182">
        <ele>2125.8093</ele>
        <time>2015-08-21T10:22:57Z</time>
      </trkpt>
      <trkpt lat="45.49282" lon="6.84186">
        <ele>2127.1943</ele>
        <time>2015-08-21T10:23:02Z</time>
      </trkpt>
      <trkpt lat="45.4928" lon="6.84195">
        <ele>2127.1943</ele>
        <time>2015-08-21T10:23:07Z</time>
      </trkpt>
      <trkpt lat="45.49279" lon="6.84197">
        <ele>2127.1943</ele>
        <time>2015-08-21T10:23:12Z</time>
      </trkpt>
      <trkpt lat="45.49278" lon="6.84204">
        <ele>2128.03</ele>
        <time>2015-08-21T10:23:17Z</time>
      </trkpt>
      <trkpt lat="45.49277" lon="6.84208">
        <ele>2128.03</ele>
        <time>2015-08-21T10:23:22Z</time>
      </trkpt>
      <trkpt lat="45.49275" lon="6.84215">
        <ele>2128.03</ele>
        <time>2015-08-21T10:23:27Z</time>
      </trkpt>
      <trkpt lat="45.49272" lon="6.8422">
        <ele>2128.3997</ele>
        <time>2015-08-21T10:23:32Z</time>
      </trkpt>
      <trkpt lat="45.49272" lon="6.84225">
        <ele>2128.3997</ele>
        <time>2015-08-21T10:23:37Z</time>
      </trkpt>
      <trkpt lat="45.49269" lon="6.84228">
        <ele>2128.3997</ele>
        <time>2015-08-21T10:23:42Z</time>
      </trkpt>
      <trkpt lat="45.49267" lon="6.84229">
        <ele>2128.3997</ele>
        <time>2015-08-21T10:23:47Z</time>
      </trkpt>
      <trkpt lat="45.49267" lon="6.84232">
        <ele>2128.727</ele>
        <time>2015-08-21T10:23:52Z</time>
      </trkpt>
      <trkpt lat="45.49266" lon="6.84235">
        <ele>2128.727</ele>
        <time>2015-08-21T10:23:57Z</time>
      </trkpt>
      <trkpt lat="45.49266" lon="6.84235">
        <ele>2128.727</ele>
        <time>2015-08-21T10:24:02Z</time>
      </trkpt>
      <trkpt lat="45.49264" lon="6.84239">
        <ele>2128.727</ele>
        <time>2015-08-21T10:24:07Z</time>
      </trkpt>
      <trkpt lat="45.49264" lon="6.84239">
        <ele>2128.727</ele>
        <time>2015-08-21T10:24:12Z</time>
      </trkpt>
      <trkpt lat="45.49262" lon="6.84241">
        <ele>2128.727</ele>
        <time>2015-08-21T10:24:17Z</time>
      </trkpt>
      <trkpt lat="45.4926" lon="6.84241">
        <ele>2129.7366</ele>
        <time>2015-08-21T10:24:22Z</time>
      </trkpt>
      <trkpt lat="45.49258" lon="6.8424">
        <ele>2129.7366</ele>
        <time>2015-08-21T10:24:27Z</time>
      </trkpt>
      <trkpt lat="45.49256" lon="6.84239">
        <ele>2129.7366</ele>
        <time>2015-08-21T10:24:32Z</time>
      </trkpt>
      <trkpt lat="45.49251" lon="6.84241">
        <ele>2129.7366</ele>
        <time>2015-08-21T10:24:37Z</time>
      </trkpt>
      <trkpt lat="45.4925" lon="6.84242">
        <ele>2131.1326</ele>
        <time>2015-08-21T10:24:42Z</time>
      </trkpt>
      <trkpt lat="45.49249" lon="6.84245">
        <ele>2131.1326</ele>
        <time>2015-08-21T10:24:47Z</time>
      </trkpt>
      <trkpt lat="45.49246" lon="6.84253">
        <ele>2131.1326</ele>
        <time>2015-08-21T10:24:52Z</time>
      </trkpt>
      <trkpt lat="45.49244" lon="6.84259">
        <ele>2132.0337</ele>
        <time>2015-08-21T10:24:57Z</time>
      </trkpt>
      <trkpt lat="45.49243" lon="6.84263">
        <ele>2132.0337</ele>
        <time>2015-08-21T10:25:02Z</time>
      </trkpt>
      <trkpt lat="45.49241" lon="6.84267">
        <ele>2132.0337</ele>
        <time>2015-08-21T10:25:07Z</time>
      </trkpt>
      <trkpt lat="45.49237" lon="6.84272">
        <ele>2132.8076</ele>
        <time>2015-08-21T10:25:12Z</time>
      </trkpt>
      <trkpt lat="45.49233" lon="6.84276">
        <ele>2132.8076</ele>
        <time>2015-08-21T10:25:17Z</time>
      </trkpt>
      <trkpt lat="45.49232" lon="6.84282">
        <ele>2132.8076</ele>
        <time>2015-08-21T10:25:22Z</time>
      </trkpt>
      <trkpt lat="45.4923" lon="6.84288">
        <ele>2133.5352</ele>
        <time>2015-08-21T10:25:27Z</time>
      </trkpt>
      <trkpt lat="45.49229" lon="6.84293">
        <ele>2133.5352</ele>
        <time>2015-08-21T10:25:32Z</time>
      </trkpt>
      <trkpt lat="45.49226" lon="6.84298">
        <ele>2133.5352</ele>
        <time>2015-08-21T10:25:37Z</time>
      </trkpt>
      <trkpt lat="45.49224" lon="6.84302">
        <ele>2134.0469</ele>
        <time>2015-08-21T10:25:42Z</time>
      </trkpt>
      <trkpt lat="45.49222" lon="6.84305">
        <ele>2134.0469</ele>
        <time>2015-08-21T10:25:47Z</time>
      </trkpt>
      <trkpt lat="45.49221" lon="6.84307">
        <ele>2134.0469</ele>
        <time>2015-08-21T10:25:52Z</time>
      </trkpt>
      <trkpt lat="45.49219" lon="6.8431">
        <ele>2134.0469</ele>
        <time>2015-08-21T10:25:57Z</time>
      </trkpt>
      <trkpt lat="45.49218" lon="6.84311">
        <ele>2134.9934</ele>
        <time>2015-08-21T10:26:02Z</time>
      </trkpt>
      <trkpt lat="45.49216" lon="6.84313">
        <ele>2134.9934</ele>
        <time>2015-08-21T10:26:07Z</time>
      </trkpt>
      <trkpt lat="45.49215" lon="6.84313">
        <ele>2134.9934</ele>
        <time>2015-08-21T10:26:12Z</time>
      </trkpt>
      <trkpt lat="45.49212" lon="6.84314">
        <ele>2134.9934</ele>
        <time>2015-08-21T10:26:17Z</time>
      </trkpt>
      <trkpt lat="45.49207" lon="6.84316">
        <ele>2136.2554</ele>
        <time>2015-08-21T10:26:22Z</time>
      </trkpt>
      <trkpt lat="45.49203" lon="6.84318">
        <ele>2136.2554</ele>
        <time>2015-08-21T10:26:27Z</time>
      </trkpt>
      <trkpt lat="45.49198" lon="6.8432">
        <ele>2137.6355</ele>
        <time>2015-08-21T10:26:32Z</time>
      </trkpt>
      <trkpt lat="45.49194" lon="6.8432">
        <ele>2137.6355</ele>
        <time>2015-08-21T10:26:37Z</time>
      </trkpt>
      <trkpt lat="45.49192" lon="6.8432">
        <ele>2137.6355</ele>
        <time>2015-08-21T10:26:42Z</time>
      </trkpt>
      <trkpt lat="45.49189" lon="6.84322">
        <ele>2138.8782</ele>
        <time>2015-08-21T10:26:47Z</time>
      </trkpt>
      <trkpt lat="45.49187" lon="6.84325">
        <ele>2138.8782</ele>
        <time>2015-08-21T10:26:52Z</time>
      </trkpt>
      <trkpt lat="45.49185" lon="6.84328">
        <ele>2138.8782</ele>
        <time>2015-08-21T10:26:57Z</time>
      </trkpt>
      <trkpt lat="45.49183" lon="6.84328">
        <ele>2138.8782</ele>
        <time>2015-08-21T10:27:02Z</time>
      </trkpt>
      <trkpt lat="45.4918" lon="6.84331">
        <ele>2139.8481</ele>
        <time>2015-08-21T10:27:07Z</time>
      </trkpt>
      <trkpt lat="45.49179" lon="6.84334">
        <ele>2139.8481</ele>
        <time>2015-08-21T10:27:12Z</time>
      </trkpt>
      <trkpt lat="45.49176" lon="6.84336">
        <ele>2139.8481</ele>
        <time>2015-08-21T10:27:17Z</time>
      </trkpt>
      <trkpt lat="45.49174" lon="6.84337">
        <ele>2139.8481</ele>
        <time>2015-08-21T10:27:22Z</time>
      </trkpt>
      <trkpt lat="45.49171" lon="6.8434">
        <ele>2140.7234</ele>
        <time>2015-08-21T10:27:27Z</time>
      </trkpt>
      <trkpt lat="45.49166" lon="6.84343">
        <ele>2140.7234</ele>
        <time>2015-08-21T10:27:32Z</time>
      </trkpt>
      <trkpt lat="45.49162" lon="6.84345">
        <ele>2141.453</ele>
        <time>2015-08-21T10:27:37Z</time>
      </trkpt>
      <trkpt lat="45.49157" lon="6.84346">
        <ele>2141.453</ele>
        <time>2015-08-21T10:27:42Z</time>
      </trkpt>
      <trkpt lat="45.49154" lon="6.84346">
        <ele>2141.453</ele>
        <time>2015-08-21T10:27:47Z</time>
      </trkpt>
      <trkpt lat="45.49153" lon="6.84347">
        <ele>2142.0332</ele>
        <time>2015-08-21T10:27:52Z</time>
      </trkpt>
      <trkpt lat="45.49148" lon="6.84349">
        <ele>2142.0332</ele>
        <time>2015-08-21T10:27:57Z</time>
      </trkpt>
      <trkpt lat="45.49144" lon="6.84349">
        <ele>2142.0332</ele>
        <time>2015-08-21T10:28:02Z</time>
      </trkpt>
      <trkpt lat="45.49142" lon="6.8435">
        <ele>2142.7498</ele>
        <time>2015-08-21T10:28:07Z</time>
      </trkpt>
      <trkpt lat="45.49139" lon="6.84353">
        <ele>2142.7498</ele>
        <time>2015-08-21T10:28:12Z</time>
      </trkpt>
      <trkpt lat="45.49137" lon="6.84356">
        <ele>2142.7498</ele>
        <time>2015-08-21T10:28:17Z</time>
      </trkpt>
      <trkpt lat="45.49136" lon="6.84361">
        <ele>2143.492</ele>
        <time>2015-08-21T10:28:22Z</time>
      </trkpt>
      <trkpt lat="45.49135" lon="6.84365">
        <ele>2143.492</ele>
        <time>2015-08-21T10:28:27Z</time>
      </trkpt>
      <trkpt lat="45.49132" lon="6.84368">
        <ele>2143.492</ele>
        <time>2015-08-21T10:28:32Z</time>
      </trkpt>
      <trkpt lat="45.49127" lon="6.84364">
        <ele>2144.6472</ele>
        <time>2015-08-21T10:28:37Z</time>
      </trkpt>
      <trkpt lat="45.49125" lon="6.84363">
        <ele>2144.6472</ele>
        <time>2015-08-21T10:28:42Z</time>
      </trkpt>
      <trkpt lat="45.49124" lon="6.84362">
        <ele>2144.6472</ele>
        <time>2015-08-21T10:28:47Z</time>
      </trkpt>
      <trkpt lat="45.49124" lon="6.84362">
        <ele>2144.6472</ele>
        <time>2015-08-21T10:28:52Z</time>
      </trkpt>
      <trkpt lat="45.49119" lon="6.84359">
        <ele>2144.6472</ele>
        <time>2015-08-21T10:28:57Z</time>
      </trkpt>
      <trkpt lat="45.49115" lon="6.84359">
        <ele>2146.141</ele>
        <time>2015-08-21T10:29:02Z</time>
      </trkpt>
      <trkpt lat="45.49112" lon="6.84359">
        <ele>2146.141</ele>
        <time>2015-08-21T10:29:07Z</time>
      </trkpt>
      <trkpt lat="45.49108" lon="6.84358">
        <ele>2146.141</ele>
        <time>2015-08-21T10:29:12Z</time>
      </trkpt>
      <trkpt lat="45.49102" lon="6.84357">
        <ele>2147.5288</ele>
        <time>2015-08-21T10:29:17Z</time>
      </trkpt>
      <trkpt lat="45.491" lon="6.8436">
        <ele>2147.5288</ele>
        <time>2015-08-21T10:29:22Z</time>
      </trkpt>
      <trkpt lat="45.49099" lon="6.84362">
        <ele>2147.5288</ele>
        <time>2015-08-21T10:29:27Z</time>
      </trkpt>
      <trkpt lat="45.49096" lon="6.84362">
        <ele>2147.5288</ele>
        <time>2015-08-21T10:29:32Z</time>
      </trkpt>
      <trkpt lat="45.49092" lon="6.84362">
        <ele>2148.9036</ele>
        <time>2015-08-21T10:29:37Z</time>
      </trkpt>
      <trkpt lat="45.4909" lon="6.84362">
        <ele>2148.9036</ele>
        <time>2015-08-21T10:29:42Z</time>
      </trkpt>
      <trkpt lat="45.49086" lon="6.8436">
        <ele>2148.9036</ele>
        <time>2015-08-21T10:29:47Z</time>
      </trkpt>
      <trkpt lat="45.49084" lon="6.84361">
        <ele>2148.9036</ele>
        <time>2015-08-21T10:29:52Z</time>
      </trkpt>
      <trkpt lat="45.49082" lon="6.84365">
        <ele>2150.3796</ele>
        <time>2015-08-21T10:29:57Z</time>
      </trkpt>
      <trkpt lat="45.49078" lon="6.84364">
        <ele>2150.3796</ele>
        <time>2015-08-21T10:30:02Z</time>
      </trkpt>
      <trkpt lat="45.49075" lon="6.84362">
        <ele>2150.3796</ele>
        <time>2015-08-21T10:30:07Z</time>
      </trkpt>
      <trkpt lat="45.49074" lon="6.84361">
        <ele>2150.3796</ele>
        <time>2015-08-21T10:30:12Z</time>
      </trkpt>
      <trkpt lat="45.49071" lon="6.84361">
        <ele>2152.0925</ele>
        <time>2015-08-21T10:30:17Z</time>
      </trkpt>
      <trkpt lat="45.49067" lon="6.84358">
        <ele>2152.0925</ele>
        <time>2015-08-21T10:30:22Z</time>
      </trkpt>
      <trkpt lat="45.49059" lon="6.84354">
        <ele>2153.8923</ele>
        <time>2015-08-21T10:30:27Z</time>
      </trkpt>
      <trkpt lat="45.49056" lon="6.84353">
        <ele>2153.8923</ele>
        <time>2015-08-21T10:30:32Z</time>
      </trkpt>
      <trkpt lat="45.49053" lon="6.84353">
        <ele>2153.8923</ele>
        <time>2015-08-21T10:30:42Z</time>
      </trkpt>
      <trkpt lat="45.4905" lon="6.84354">
        <ele>2155.9148</ele>
        <time>2015-08-21T10:30:47Z</time>
      </trkpt>
      <trkpt lat="45.49042" lon="6.8435">
        <ele>2155.9148</ele>
        <time>2015-08-21T10:30:57Z</time>
      </trkpt>
      <trkpt lat="45.49039" lon="6.84349">
        <ele>2158.111</ele>
        <time>2015-08-21T10:31:02Z</time>
      </trkpt>
      <trkpt lat="45.49034" lon="6.84342">
        <ele>2158.111</ele>
        <time>2015-08-21T10:31:12Z</time>
      </trkpt>
      <trkpt lat="45.49033" lon="6.84339">
        <ele>2160.4077</ele>
        <time>2015-08-21T10:31:17Z</time>
      </trkpt>
      <trkpt lat="45.49029" lon="6.84331">
        <ele>2160.4077</ele>
        <time>2015-08-21T10:31:27Z</time>
      </trkpt>
      <trkpt lat="45.49028" lon="6.84322">
        <ele>2162.6348</ele>
        <time>2015-08-21T10:31:32Z</time>
      </trkpt>
      <trkpt lat="45.49024" lon="6.84312">
        <ele>2162.6348</ele>
        <time>2015-08-21T10:31:42Z</time>
      </trkpt>
      <trkpt lat="45.49022" lon="6.84309">
        <ele>2164.6064</ele>
        <time>2015-08-21T10:31:47Z</time>
      </trkpt>
      <trkpt lat="45.49019" lon="6.84304">
        <ele>2164.6064</ele>
        <time>2015-08-21T10:31:57Z</time>
      </trkpt>
      <trkpt lat="45.49017" lon="6.84304">
        <ele>2164.6064</ele>
        <time>2015-08-21T10:32:02Z</time>
      </trkpt>
      <trkpt lat="45.49008" lon="6.84297">
        <ele>2166.7715</ele>
        <time>2015-08-21T10:32:12Z</time>
      </trkpt>
      <trkpt lat="45.49005" lon="6.84294">
        <ele>2166.7715</ele>
        <time>2015-08-21T10:32:17Z</time>
      </trkpt>
      <trkpt lat="45.49001" lon="6.84289">
        <ele>2166.7715</ele>
        <time>2015-08-21T10:32:27Z</time>
      </trkpt>
      <trkpt lat="45.49002" lon="6.84287">
        <ele>2168.9824</ele>
        <time>2015-08-21T10:32:32Z</time>
      </trkpt>
      <trkpt lat="45.49001" lon="6.8429">
        <ele>2168.9824</ele>
        <time>2015-08-21T10:32:42Z</time>
      </trkpt>
      <trkpt lat="45.49002" lon="6.84291">
        <ele>2168.9824</ele>
        <time>2015-08-21T10:32:47Z</time>
      </trkpt>
      <trkpt lat="45.49" lon="6.84289">
        <ele>2168.9824</ele>
        <time>2015-08-21T10:32:52Z</time>
      </trkpt>
      <trkpt lat="45.49001" lon="6.84287">
        <ele>2168.9824</ele>
        <time>2015-08-21T10:32:57Z</time>
      </trkpt>
      <trkpt lat="45.49001" lon="6.84287">
        <ele>2168.9824</ele>
        <time>2015-08-21T10:33:02Z</time>
      </trkpt>
      <trkpt lat="45.49001" lon="6.84287">
        <ele>2168.9824</ele>
        <time>2015-08-21T10:33:07Z</time>
      </trkpt>
      <trkpt lat="45.49001" lon="6.84287">
        <ele>2168.9824</ele>
        <time>2015-08-21T10:33:12Z</time>
      </trkpt>
      <trkpt lat="45.49" lon="6.84286">
        <ele>2171.4343</ele>
        <time>2015-08-21T10:34:07Z</time>
      </trkpt>
      <trkpt lat="45.49001" lon="6.84285">
        <ele>2171.4343</ele>
        <time>2015-08-21T10:34:12Z</time>
      </trkpt>
      <trkpt lat="45.49001" lon="6.84286">
        <ele>2171.4343</ele>
        <time>2015-08-21T10:34:37Z</time>
      </trkpt>
      <trkpt lat="45.49001" lon="6.84286">
        <ele>2171.4343</ele>
        <time>2015-08-21T10:34:42Z</time>
      </trkpt>
      <trkpt lat="45.49002" lon="6.84287">
        <ele>2171.4343</ele>
        <time>2015-08-21T10:34:57Z</time>
      </trkpt>
      <trkpt lat="45.49002" lon="6.84286">
        <ele>2171.4343</ele>
        <time>2015-08-21T10:35:17Z</time>
      </trkpt>
      <trkpt lat="45.49003" lon="6.84287">
        <ele>2171.4343</ele>
        <time>2015-08-21T10:35:22Z</time>
      </trkpt>
      <trkpt lat="45.49003" lon="6.84287">
        <ele>2171.4343</ele>
        <time>2015-08-21T10:35:32Z</time>
      </trkpt>
      <trkpt lat="45.49002" lon="6.84289">
        <ele>2171.4343</ele>
        <time>2015-08-21T10:37:27Z</time>
      </trkpt>
      <trkpt lat="45.49002" lon="6.84289">
        <ele>2171.4343</ele>
        <time>2015-08-21T10:37:32Z</time>
      </trkpt>
      <trkpt lat="45.49002" lon="6.84288">
        <ele>2171.4343</ele>
        <time>2015-08-21T10:37:37Z</time>
      </trkpt>
      <trkpt lat="45.49002" lon="6.84288">
        <ele>2171.4343</ele>
        <time>2015-08-21T10:37:47Z</time>
      </trkpt>
      <trkpt lat="45.49002" lon="6.84287">
        <ele>2171.4343</ele>
        <time>2015-08-21T10:38:02Z</time>
      </trkpt>
      <trkpt lat="45.49001" lon="6.84286">
        <ele>2171.4343</ele>
        <time>2015-08-21T10:38:07Z</time>
      </trkpt>
      <trkpt lat="45.49" lon="6.84284">
        <ele>2173.4866</ele>
        <time>2015-08-21T10:38:17Z</time>
      </trkpt>
      <trkpt lat="45.49" lon="6.84283">
        <ele>2173.4866</ele>
        <time>2015-08-21T10:38:22Z</time>
      </trkpt>
      <trkpt lat="45.48997" lon="6.84276">
        <ele>2173.4866</ele>
        <time>2015-08-21T10:38:32Z</time>
      </trkpt>
      <trkpt lat="45.48995" lon="6.84274">
        <ele>2175.4966</ele>
        <time>2015-08-21T10:38:37Z</time>
      </trkpt>
      <trkpt lat="45.48987" lon="6.84268">
        <ele>2175.4966</ele>
        <time>2015-08-21T10:38:47Z</time>
      </trkpt>
      <trkpt lat="45.48984" lon="6.84268">
        <ele>2177.4224</ele>
        <time>2015-08-21T10:38:52Z</time>
      </trkpt>
      <trkpt lat="45.48979" lon="6.84269">
        <ele>2177.4224</ele>
        <time>2015-08-21T10:39:02Z</time>
      </trkpt>
      <trkpt lat="45.48976" lon="6.8427">
        <ele>2177.4224</ele>
        <time>2015-08-21T10:39:07Z</time>
      </trkpt>
      <trkpt lat="45.4897" lon="6.84269">
        <ele>2179.1094</ele>
        <time>2015-08-21T10:39:22Z</time>
      </trkpt>
      <trkpt lat="45.48967" lon="6.84271">
        <ele>2179.1094</ele>
        <time>2015-08-21T10:39:27Z</time>
      </trkpt>
      <trkpt lat="45.48961" lon="6.84276">
        <ele>2180.6743</ele>
        <time>2015-08-21T10:39:37Z</time>
      </trkpt>
      <trkpt lat="45.48959" lon="6.84276">
        <ele>2180.6743</ele>
        <time>2015-08-21T10:39:42Z</time>
      </trkpt>
      <trkpt lat="45.48955" lon="6.8428">
        <ele>2180.6743</ele>
        <time>2015-08-21T10:39:52Z</time>
      </trkpt>
      <trkpt lat="45.48953" lon="6.8428">
        <ele>2180.6743</ele>
        <time>2015-08-21T10:39:57Z</time>
      </trkpt>
      <trkpt lat="45.48951" lon="6.84279">
        <ele>2182.0825</ele>
        <time>2015-08-21T10:40:07Z</time>
      </trkpt>
      <trkpt lat="45.48949" lon="6.84281">
        <ele>2182.0825</ele>
        <time>2015-08-21T10:40:12Z</time>
      </trkpt>
      <trkpt lat="45.48945" lon="6.84285">
        <ele>2182.0825</ele>
        <time>2015-08-21T10:40:22Z</time>
      </trkpt>
      <trkpt lat="45.48941" lon="6.84285">
        <ele>2183.532</ele>
        <time>2015-08-21T10:40:27Z</time>
      </trkpt>
      <trkpt lat="45.48936" lon="6.84293">
        <ele>2183.532</ele>
        <time>2015-08-21T10:40:37Z</time>
      </trkpt>
      <trkpt lat="45.48935" lon="6.84295">
        <ele>2185.0483</ele>
        <time>2015-08-21T10:40:42Z</time>
      </trkpt>
      <trkpt lat="45.48931" lon="6.84294">
        <ele>2185.0483</ele>
        <time>2015-08-21T10:40:52Z</time>
      </trkpt>
      <trkpt lat="45.48929" lon="6.84294">
        <ele>2185.0483</ele>
        <time>2015-08-21T10:40:57Z</time>
      </trkpt>
      <trkpt lat="45.48928" lon="6.8429">
        <ele>2186.2803</ele>
        <time>2015-08-21T10:41:07Z</time>
      </trkpt>
      <trkpt lat="45.48928" lon="6.84289">
        <ele>2186.2803</ele>
        <time>2015-08-21T10:41:12Z</time>
      </trkpt>
      <trkpt lat="45.48921" lon="6.84291">
        <ele>2186.2803</ele>
        <time>2015-08-21T10:41:22Z</time>
      </trkpt>
      <trkpt lat="45.48918" lon="6.84292">
        <ele>2187.6377</ele>
        <time>2015-08-21T10:41:27Z</time>
      </trkpt>
      <trkpt lat="45.48913" lon="6.84294">
        <ele>2187.6377</ele>
        <time>2015-08-21T10:41:37Z</time>
      </trkpt>
      <trkpt lat="45.4891" lon="6.84295">
        <ele>2187.6377</ele>
        <time>2015-08-21T10:41:42Z</time>
      </trkpt>
      <trkpt lat="45.48903" lon="6.84298">
        <ele>2189.2417</ele>
        <time>2015-08-21T10:41:52Z</time>
      </trkpt>
      <trkpt lat="45.48899" lon="6.84299">
        <ele>2189.2417</ele>
        <time>2015-08-21T10:41:57Z</time>
      </trkpt>
      <trkpt lat="45.48894" lon="6.843">
        <ele>2189.2417</ele>
        <time>2015-08-21T10:42:07Z</time>
      </trkpt>
      <trkpt lat="45.48892" lon="6.84301">
        <ele>2190.7847</ele>
        <time>2015-08-21T10:42:12Z</time>
      </trkpt>
      <trkpt lat="45.48888" lon="6.84303">
        <ele>2190.7847</ele>
        <time>2015-08-21T10:42:22Z</time>
      </trkpt>
      <trkpt lat="45.48887" lon="6.84304">
        <ele>2190.7847</ele>
        <time>2015-08-21T10:42:27Z</time>
      </trkpt>
      <trkpt lat="45.4888" lon="6.84309">
        <ele>2192.5596</ele>
        <time>2015-08-21T10:42:42Z</time>
      </trkpt>
      <trkpt lat="45.48877" lon="6.84312">
        <ele>2192.5596</ele>
        <time>2015-08-21T10:42:47Z</time>
      </trkpt>
      <trkpt lat="45.48872" lon="6.84318">
        <ele>2194.1155</ele>
        <time>2015-08-21T10:42:57Z</time>
      </trkpt>
      <trkpt lat="45.48872" lon="6.84319">
        <ele>2194.1155</ele>
        <time>2015-08-21T10:43:02Z</time>
      </trkpt>
      <trkpt lat="45.48867" lon="6.84325">
        <ele>2194.1155</ele>
        <time>2015-08-21T10:43:12Z</time>
      </trkpt>
      <trkpt lat="45.48862" lon="6.8433">
        <ele>2195.6704</ele>
        <time>2015-08-21T10:43:17Z</time>
      </trkpt>
      <trkpt lat="45.4886" lon="6.84332">
        <ele>2195.6704</ele>
        <time>2015-08-21T10:43:27Z</time>
      </trkpt>
      <trkpt lat="45.48859" lon="6.84335">
        <ele>2195.6704</ele>
        <time>2015-08-21T10:43:32Z</time>
      </trkpt>
      <trkpt lat="45.48858" lon="6.84338">
        <ele>2195.6704</ele>
        <time>2015-08-21T10:43:42Z</time>
      </trkpt>
      <trkpt lat="45.48858" lon="6.84341">
        <ele>2195.6704</ele>
        <time>2015-08-21T10:43:47Z</time>
      </trkpt>
      <trkpt lat="45.48852" lon="6.84341">
        <ele>2197.7424</ele>
        <time>2015-08-21T10:43:57Z</time>
      </trkpt>
      <trkpt lat="45.48849" lon="6.84341">
        <ele>2197.7424</ele>
        <time>2015-08-21T10:44:02Z</time>
      </trkpt>
      <trkpt lat="45.48845" lon="6.84345">
        <ele>2197.7424</ele>
        <time>2015-08-21T10:44:12Z</time>
      </trkpt>
      <trkpt lat="45.48845" lon="6.84344">
        <ele>2199.7305</ele>
        <time>2015-08-21T10:44:17Z</time>
      </trkpt>
      <trkpt lat="45.48842" lon="6.84345">
        <ele>2199.7305</ele>
        <time>2015-08-21T10:44:27Z</time>
      </trkpt>
      <trkpt lat="45.4884" lon="6.84347">
        <ele>2199.7305</ele>
        <time>2015-08-21T10:44:32Z</time>
      </trkpt>
      <trkpt lat="45.4883" lon="6.84352">
        <ele>2201.6675</ele>
        <time>2015-08-21T10:44:42Z</time>
      </trkpt>
      <trkpt lat="45.48826" lon="6.8435">
        <ele>2201.6675</ele>
        <time>2015-08-21T10:44:47Z</time>
      </trkpt>
      <trkpt lat="45.48822" lon="6.84353">
        <ele>2201.6675</ele>
        <time>2015-08-21T10:44:57Z</time>
      </trkpt>
      <trkpt lat="45.48821" lon="6.84356">
        <ele>2203.715</ele>
        <time>2015-08-21T10:45:02Z</time>
      </trkpt>
      <trkpt lat="45.48812" lon="6.84359">
        <ele>2205.7334</ele>
        <time>2015-08-21T10:45:17Z</time>
      </trkpt>
      <trkpt lat="45.4881" lon="6.84359">
        <ele>2205.7334</ele>
        <time>2015-08-21T10:45:22Z</time>
      </trkpt>
      <trkpt lat="45.48807" lon="6.8436">
        <ele>2205.7334</ele>
        <time>2015-08-21T10:45:32Z</time>
      </trkpt>
      <trkpt lat="45.48804" lon="6.8436">
        <ele>2205.7334</ele>
        <time>2015-08-21T10:45:37Z</time>
      </trkpt>
      <trkpt lat="45.48799" lon="6.84362">
        <ele>2207.6375</ele>
        <time>2015-08-21T10:45:47Z</time>
      </trkpt>
      <trkpt lat="45.48794" lon="6.84365">
        <ele>2207.6375</ele>
        <time>2015-08-21T10:45:52Z</time>
      </trkpt>
      <trkpt lat="45.48786" lon="6.84369">
        <ele>2209.3909</ele>
        <time>2015-08-21T10:46:02Z</time>
      </trkpt>
      <trkpt lat="45.4878" lon="6.8437">
        <ele>2209.3909</ele>
        <time>2015-08-21T10:46:07Z</time>
      </trkpt>
      <trkpt lat="45.48774" lon="6.84373">
        <ele>2211.062</ele>
        <time>2015-08-21T10:46:17Z</time>
      </trkpt>
      <trkpt lat="45.48773" lon="6.84372">
        <ele>2211.062</ele>
        <time>2015-08-21T10:46:22Z</time>
      </trkpt>
      <trkpt lat="45.48763" lon="6.84372">
        <ele>2212.5273</ele>
        <time>2015-08-21T10:46:32Z</time>
      </trkpt>
      <trkpt lat="45.48756" lon="6.84373">
        <ele>2212.5273</ele>
        <time>2015-08-21T10:46:37Z</time>
      </trkpt>
      <trkpt lat="45.48753" lon="6.84376">
        <ele>2213.9893</ele>
        <time>2015-08-21T10:46:47Z</time>
      </trkpt>
      <trkpt lat="45.48751" lon="6.84378">
        <ele>2213.9893</ele>
        <time>2015-08-21T10:46:52Z</time>
      </trkpt>
      <trkpt lat="45.48744" lon="6.84379">
        <ele>2215.3909</ele>
        <time>2015-08-21T10:47:02Z</time>
      </trkpt>
      <trkpt lat="45.48742" lon="6.84378">
        <ele>2215.3909</ele>
        <time>2015-08-21T10:47:07Z</time>
      </trkpt>
      <trkpt lat="45.4874" lon="6.84379">
        <ele>2215.3909</ele>
        <time>2015-08-21T10:47:22Z</time>
      </trkpt>
      <trkpt lat="45.48733" lon="6.8438">
        <ele>2216.5215</ele>
        <time>2015-08-21T10:47:27Z</time>
      </trkpt>
      <trkpt lat="45.48723" lon="6.84384">
        <ele>2217.575</ele>
        <time>2015-08-21T10:47:37Z</time>
      </trkpt>
      <trkpt lat="45.48718" lon="6.84386">
        <ele>2217.575</ele>
        <time>2015-08-21T10:47:42Z</time>
      </trkpt>
      <trkpt lat="45.48706" lon="6.84393">
        <ele>2218.4146</ele>
        <time>2015-08-21T10:47:52Z</time>
      </trkpt>
      <trkpt lat="45.48707" lon="6.84395">
        <ele>2218.4146</ele>
        <time>2015-08-21T10:47:57Z</time>
      </trkpt>
      <trkpt lat="45.48702" lon="6.844">
        <ele>2218.4146</ele>
        <time>2015-08-21T10:48:07Z</time>
      </trkpt>
      <trkpt lat="45.487" lon="6.84402">
        <ele>2219.2747</ele>
        <time>2015-08-21T10:48:12Z</time>
      </trkpt>
      <trkpt lat="45.48692" lon="6.844">
        <ele>2219.2747</ele>
        <time>2015-08-21T10:48:22Z</time>
      </trkpt>
      <trkpt lat="45.48689" lon="6.84399">
        <ele>2220.055</ele>
        <time>2015-08-21T10:48:27Z</time>
      </trkpt>
      <trkpt lat="45.48683" lon="6.84394">
        <ele>2220.055</ele>
        <time>2015-08-21T10:48:37Z</time>
      </trkpt>
      <trkpt lat="45.48674" lon="6.84394">
        <ele>2220.8215</ele>
        <time>2015-08-21T10:48:42Z</time>
      </trkpt>
      <trkpt lat="45.48666" lon="6.84395">
        <ele>2220.8215</ele>
        <time>2015-08-21T10:48:52Z</time>
      </trkpt>
      <trkpt lat="45.48664" lon="6.84396">
        <ele>2221.7793</ele>
        <time>2015-08-21T10:48:57Z</time>
      </trkpt>
      <trkpt lat="45.48662" lon="6.844">
        <ele>2221.7793</ele>
        <time>2015-08-21T10:49:07Z</time>
      </trkpt>
      <trkpt lat="45.48661" lon="6.84401">
        <ele>2221.7793</ele>
        <time>2015-08-21T10:49:12Z</time>
      </trkpt>
      <trkpt lat="45.48661" lon="6.84406">
        <ele>2221.7793</ele>
        <time>2015-08-21T10:49:22Z</time>
      </trkpt>
      <trkpt lat="45.48661" lon="6.84409">
        <ele>2222.9167</ele>
        <time>2015-08-21T10:49:27Z</time>
      </trkpt>
      <trkpt lat="45.48659" lon="6.84413">
        <ele>2222.9167</ele>
        <time>2015-08-21T10:49:42Z</time>
      </trkpt>
      <trkpt lat="45.48659" lon="6.84415">
        <ele>2222.9167</ele>
        <time>2015-08-21T10:49:47Z</time>
      </trkpt>
      <trkpt lat="45.48652" lon="6.84416">
        <ele>2224.1064</ele>
        <time>2015-08-21T10:49:57Z</time>
      </trkpt>
      <trkpt lat="45.48647" lon="6.84418">
        <ele>2224.1064</ele>
        <time>2015-08-21T10:50:02Z</time>
      </trkpt>
      <trkpt lat="45.48641" lon="6.84422">
        <ele>2225.288</ele>
        <time>2015-08-21T10:50:12Z</time>
      </trkpt>
      <trkpt lat="45.48639" lon="6.84424">
        <ele>2225.288</ele>
        <time>2015-08-21T10:50:17Z</time>
      </trkpt>
      <trkpt lat="45.48634" lon="6.84431">
        <ele>2226.3916</ele>
        <time>2015-08-21T10:50:27Z</time>
      </trkpt>
      <trkpt lat="45.4863" lon="6.84432">
        <ele>2226.3916</ele>
        <time>2015-08-21T10:50:32Z</time>
      </trkpt>
      <trkpt lat="45.48625" lon="6.8443">
        <ele>2226.3916</ele>
        <time>2015-08-21T10:50:42Z</time>
      </trkpt>
      <trkpt lat="45.48623" lon="6.84428">
        <ele>2227.7124</ele>
        <time>2015-08-21T10:50:47Z</time>
      </trkpt>
      <trkpt lat="45.48618" lon="6.84424">
        <ele>2227.7124</ele>
        <time>2015-08-21T10:50:57Z</time>
      </trkpt>
      <trkpt lat="45.48614" lon="6.84426">
        <ele>2229.048</ele>
        <time>2015-08-21T10:51:02Z</time>
      </trkpt>
      <trkpt lat="45.48609" lon="6.84432">
        <ele>2229.048</ele>
        <time>2015-08-21T10:51:12Z</time>
      </trkpt>
      <trkpt lat="45.48607" lon="6.84436">
        <ele>2230.2107</ele>
        <time>2015-08-21T10:51:17Z</time>
      </trkpt>
      <trkpt lat="45.48601" lon="6.84434">
        <ele>2230.2107</ele>
        <time>2015-08-21T10:51:27Z</time>
      </trkpt>
      <trkpt lat="45.48601" lon="6.8443">
        <ele>2230.2107</ele>
        <time>2015-08-21T10:51:32Z</time>
      </trkpt>
      <trkpt lat="45.48602" lon="6.8443">
        <ele>2231.2288</ele>
        <time>2015-08-21T10:51:42Z</time>
      </trkpt>
      <trkpt lat="45.48605" lon="6.84445">
        <ele>2232.5178</ele>
        <time>2015-08-21T10:53:02Z</time>
      </trkpt>
      <trkpt lat="45.48605" lon="6.84446">
        <ele>2232.5178</ele>
        <time>2015-08-21T10:53:07Z</time>
      </trkpt>
      <trkpt lat="45.48607" lon="6.84447">
        <ele>2232.5178</ele>
        <time>2015-08-21T10:53:17Z</time>
      </trkpt>
      <trkpt lat="45.48607" lon="6.84447">
        <ele>2232.5178</ele>
        <time>2015-08-21T10:53:22Z</time>
      </trkpt>
      <trkpt lat="45.4861" lon="6.84448">
        <ele>2232.5178</ele>
        <time>2015-08-21T10:53:32Z</time>
      </trkpt>
      <trkpt lat="45.48611" lon="6.84449">
        <ele>2232.5178</ele>
        <time>2015-08-21T10:53:37Z</time>
      </trkpt>
      <trkpt lat="45.4862" lon="6.84457">
        <ele>2233.6123</ele>
        <time>2015-08-21T10:53:47Z</time>
      </trkpt>
      <trkpt lat="45.48622" lon="6.8446">
        <ele>2233.6123</ele>
        <time>2015-08-21T10:53:52Z</time>
      </trkpt>
      <trkpt lat="45.48627" lon="6.8447">
        <ele>2234.5852</ele>
        <time>2015-08-21T10:54:02Z</time>
      </trkpt>
      <trkpt lat="45.48627" lon="6.84475">
        <ele>2234.5852</ele>
        <time>2015-08-21T10:54:07Z</time>
      </trkpt>
      <trkpt lat="45.48629" lon="6.84482">
        <ele>2234.5852</ele>
        <time>2015-08-21T10:54:17Z</time>
      </trkpt>
      <trkpt lat="45.4863" lon="6.84486">
        <ele>2235.13</ele>
        <time>2015-08-21T10:54:22Z</time>
      </trkpt>
      <trkpt lat="45.48632" lon="6.84498">
        <ele>2235.13</ele>
        <time>2015-08-21T10:54:32Z</time>
      </trkpt>
      <trkpt lat="45.48631" lon="6.84503">
        <ele>2235.4683</ele>
        <time>2015-08-21T10:54:37Z</time>
      </trkpt>
      <trkpt lat="45.48627" lon="6.84515">
        <ele>2235.6619</ele>
        <time>2015-08-21T10:54:52Z</time>
      </trkpt>
      <trkpt lat="45.48626" lon="6.84515">
        <ele>2235.6619</ele>
        <time>2015-08-21T10:54:57Z</time>
      </trkpt>
      <trkpt lat="45.48625" lon="6.84512">
        <ele>2235.6619</ele>
        <time>2015-08-21T10:55:07Z</time>
      </trkpt>
      <trkpt lat="45.48627" lon="6.84513">
        <ele>2235.6619</ele>
        <time>2015-08-21T10:55:12Z</time>
      </trkpt>
      <trkpt lat="45.48626" lon="6.84514">
        <ele>2235.6619</ele>
        <time>2015-08-21T10:55:22Z</time>
      </trkpt>
      <trkpt lat="45.48624" lon="6.84518">
        <ele>2235.8833</ele>
        <time>2015-08-21T10:55:27Z</time>
      </trkpt>
      <trkpt lat="45.4862" lon="6.84527">
        <ele>2235.8833</ele>
        <time>2015-08-21T10:55:37Z</time>
      </trkpt>
      <trkpt lat="45.48616" lon="6.84532">
        <ele>2236.0767</ele>
        <time>2015-08-21T10:55:42Z</time>
      </trkpt>
      <trkpt lat="45.48609" lon="6.84536">
        <ele>2236.0767</ele>
        <time>2015-08-21T10:55:52Z</time>
      </trkpt>
      <trkpt lat="45.48606" lon="6.84538">
        <ele>2236.0024</ele>
        <time>2015-08-21T10:55:57Z</time>
      </trkpt>
      <trkpt lat="45.486" lon="6.84547">
        <ele>2236.0024</ele>
        <time>2015-08-21T10:56:07Z</time>
      </trkpt>
      <trkpt lat="45.48597" lon="6.84549">
        <ele>2235.6848</ele>
        <time>2015-08-21T10:56:12Z</time>
      </trkpt>
      <trkpt lat="45.4859" lon="6.84558">
        <ele>2235.3477</ele>
        <time>2015-08-21T10:56:22Z</time>
      </trkpt>
      <trkpt lat="45.48586" lon="6.84563">
        <ele>2235.3477</ele>
        <time>2015-08-21T10:56:27Z</time>
      </trkpt>
      <trkpt lat="45.48578" lon="6.84567">
        <ele>2234.9976</ele>
        <time>2015-08-21T10:56:37Z</time>
      </trkpt>
      <trkpt lat="45.48574" lon="6.84571">
        <ele>2234.9976</ele>
        <time>2015-08-21T10:56:42Z</time>
      </trkpt>
      <trkpt lat="45.48567" lon="6.84578">
        <ele>2234.6548</ele>
        <time>2015-08-21T10:56:52Z</time>
      </trkpt>
      <trkpt lat="45.48565" lon="6.8458">
        <ele>2234.6548</ele>
        <time>2015-08-21T10:56:57Z</time>
      </trkpt>
      <trkpt lat="45.48558" lon="6.84585">
        <ele>2234.1646</ele>
        <time>2015-08-21T10:57:12Z</time>
      </trkpt>
      <trkpt lat="45.48554" lon="6.84586">
        <ele>2234.1646</ele>
        <time>2015-08-21T10:57:17Z</time>
      </trkpt>
      <trkpt lat="45.48551" lon="6.84593">
        <ele>2233.7732</ele>
        <time>2015-08-21T10:57:27Z</time>
      </trkpt>
      <trkpt lat="45.48548" lon="6.84596">
        <ele>2233.7732</ele>
        <time>2015-08-21T10:57:32Z</time>
      </trkpt>
      <trkpt lat="45.48542" lon="6.84601">
        <ele>2233.4927</ele>
        <time>2015-08-21T10:57:42Z</time>
      </trkpt>
      <trkpt lat="45.48539" lon="6.84602">
        <ele>2233.4927</ele>
        <time>2015-08-21T10:57:47Z</time>
      </trkpt>
      <trkpt lat="45.4853" lon="6.84607">
        <ele>2233.0884</ele>
        <time>2015-08-21T10:57:57Z</time>
      </trkpt>
      <trkpt lat="45.48527" lon="6.84611">
        <ele>2233.0884</ele>
        <time>2015-08-21T10:58:02Z</time>
      </trkpt>
      <trkpt lat="45.48522" lon="6.84619">
        <ele>2232.7463</ele>
        <time>2015-08-21T10:58:12Z</time>
      </trkpt>
      <trkpt lat="45.48522" lon="6.84619">
        <ele>2232.7463</ele>
        <time>2015-08-21T10:58:17Z</time>
      </trkpt>
      <trkpt lat="45.48515" lon="6.84623">
        <ele>2232.7463</ele>
        <time>2015-08-21T10:58:27Z</time>
      </trkpt>
      <trkpt lat="45.48513" lon="6.84625">
        <ele>2232.6536</ele>
        <time>2015-08-21T10:58:32Z</time>
      </trkpt>
      <trkpt lat="45.4851" lon="6.84625">
        <ele>2232.6536</ele>
        <time>2015-08-21T10:58:42Z</time>
      </trkpt>
      <trkpt lat="45.48507" lon="6.84623">
        <ele>2232.6536</ele>
        <time>2015-08-21T10:58:47Z</time>
      </trkpt>
      <trkpt lat="45.48502" lon="6.84619">
        <ele>2232.8381</ele>
        <time>2015-08-21T10:58:57Z</time>
      </trkpt>
      <trkpt lat="45.485" lon="6.84619">
        <ele>2232.8381</ele>
        <time>2015-08-21T10:59:02Z</time>
      </trkpt>
      <trkpt lat="45.48493" lon="6.84619">
        <ele>2233.239</ele>
        <time>2015-08-21T10:59:12Z</time>
      </trkpt>
      <trkpt lat="45.4849" lon="6.84619">
        <ele>2233.239</ele>
        <time>2015-08-21T10:59:17Z</time>
      </trkpt>
      <trkpt lat="45.48488" lon="6.84627">
        <ele>2233.239</ele>
        <time>2015-08-21T10:59:32Z</time>
      </trkpt>
      <trkpt lat="45.48487" lon="6.84629">
        <ele>2233.784</ele>
        <time>2015-08-21T10:59:37Z</time>
      </trkpt>
      <trkpt lat="45.48481" lon="6.84631">
        <ele>2233.784</ele>
        <time>2015-08-21T10:59:47Z</time>
      </trkpt>
      <trkpt lat="45.48476" lon="6.84632">
        <ele>2234.5786</ele>
        <time>2015-08-21T10:59:52Z</time>
      </trkpt>
      <trkpt lat="45.4847" lon="6.84633">
        <ele>2234.5786</ele>
        <time>2015-08-21T11:00:02Z</time>
      </trkpt>
      <trkpt lat="45.48469" lon="6.84635">
        <ele>2234.5786</ele>
        <time>2015-08-21T11:00:07Z</time>
      </trkpt>
      <trkpt lat="45.48467" lon="6.84637">
        <ele>2235.4753</ele>
        <time>2015-08-21T11:00:17Z</time>
      </trkpt>
      <trkpt lat="45.48464" lon="6.84635">
        <ele>2235.4753</ele>
        <time>2015-08-21T11:00:22Z</time>
      </trkpt>
      <trkpt lat="45.48461" lon="6.84641">
        <ele>2235.4753</ele>
        <time>2015-08-21T11:00:32Z</time>
      </trkpt>
      <trkpt lat="45.48458" lon="6.84643">
        <ele>2236.4956</ele>
        <time>2015-08-21T11:00:37Z</time>
      </trkpt>
      <trkpt lat="45.48451" lon="6.84643">
        <ele>2236.4956</ele>
        <time>2015-08-21T11:00:47Z</time>
      </trkpt>
      <trkpt lat="45.48448" lon="6.84646">
        <ele>2237.514</ele>
        <time>2015-08-21T11:00:52Z</time>
      </trkpt>
      <trkpt lat="45.48442" lon="6.84653">
        <ele>2237.514</ele>
        <time>2015-08-21T11:01:02Z</time>
      </trkpt>
      <trkpt lat="45.48441" lon="6.84652">
        <ele>2237.514</ele>
        <time>2015-08-21T11:01:07Z</time>
      </trkpt>
      <trkpt lat="45.4844" lon="6.84653">
        <ele>2238.6597</ele>
        <time>2015-08-21T11:01:17Z</time>
      </trkpt>
      <trkpt lat="45.48437" lon="6.84654">
        <ele>2238.6597</ele>
        <time>2015-08-21T11:01:22Z</time>
      </trkpt>
      <trkpt lat="45.48431" lon="6.84658">
        <ele>2239.836</ele>
        <time>2015-08-21T11:01:32Z</time>
      </trkpt>
      <trkpt lat="45.48429" lon="6.84659">
        <ele>2239.836</ele>
        <time>2015-08-21T11:01:37Z</time>
      </trkpt>
      <trkpt lat="45.48421" lon="6.84656">
        <ele>2240.9385</ele>
        <time>2015-08-21T11:01:47Z</time>
      </trkpt>
      <trkpt lat="45.48419" lon="6.84656">
        <ele>2240.9385</ele>
        <time>2015-08-21T11:01:52Z</time>
      </trkpt>
      <trkpt lat="45.48415" lon="6.84658">
        <ele>2240.9385</ele>
        <time>2015-08-21T11:02:02Z</time>
      </trkpt>
      <trkpt lat="45.48413" lon="6.8466">
        <ele>2242.1875</ele>
        <time>2015-08-21T11:02:07Z</time>
      </trkpt>
      <trkpt lat="45.48406" lon="6.84664">
        <ele>2242.1875</ele>
        <time>2015-08-21T11:02:22Z</time>
      </trkpt>
      <trkpt lat="45.48402" lon="6.84665">
        <ele>2243.8013</ele>
        <time>2015-08-21T11:02:27Z</time>
      </trkpt>
      <trkpt lat="45.48397" lon="6.84665">
        <ele>2243.8013</ele>
        <time>2015-08-21T11:02:37Z</time>
      </trkpt>
      <trkpt lat="45.48393" lon="6.84666">
        <ele>2243.8013</ele>
        <time>2015-08-21T11:02:42Z</time>
      </trkpt>
      <trkpt lat="45.48386" lon="6.84667">
        <ele>2245.6785</ele>
        <time>2015-08-21T11:02:52Z</time>
      </trkpt>
      <trkpt lat="45.48382" lon="6.84667">
        <ele>2245.6785</ele>
        <time>2015-08-21T11:02:57Z</time>
      </trkpt>
      <trkpt lat="45.4838" lon="6.84668">
        <ele>2245.6785</ele>
        <time>2015-08-21T11:03:07Z</time>
      </trkpt>
      <trkpt lat="45.48379" lon="6.84667">
        <ele>2245.6785</ele>
        <time>2015-08-21T11:03:12Z</time>
      </trkpt>
      <trkpt lat="45.48371" lon="6.84669">
        <ele>2247.5222</ele>
        <time>2015-08-21T11:03:22Z</time>
      </trkpt>
      <trkpt lat="45.48369" lon="6.8467">
        <ele>2247.5222</ele>
        <time>2015-08-21T11:03:27Z</time>
      </trkpt>
      <trkpt lat="45.48371" lon="6.84669">
        <ele>2247.5222</ele>
        <time>2015-08-21T11:03:37Z</time>
      </trkpt>
      <trkpt lat="45.48371" lon="6.84672">
        <ele>2247.5222</ele>
        <time>2015-08-21T11:03:42Z</time>
      </trkpt>
      <trkpt lat="45.48371" lon="6.8467">
        <ele>2247.5222</ele>
        <time>2015-08-21T11:03:52Z</time>
      </trkpt>
      <trkpt lat="45.48371" lon="6.84667">
        <ele>2249.2021</ele>
        <time>2015-08-21T11:03:57Z</time>
      </trkpt>
      <trkpt lat="45.4837" lon="6.84666">
        <ele>2249.2021</ele>
        <time>2015-08-21T11:04:07Z</time>
      </trkpt>
      <trkpt lat="45.48371" lon="6.84668">
        <ele>2249.2021</ele>
        <time>2015-08-21T11:04:12Z</time>
      </trkpt>
      <trkpt lat="45.48366" lon="6.84674">
        <ele>2250.929</ele>
        <time>2015-08-21T11:04:27Z</time>
      </trkpt>
      <trkpt lat="45.48363" lon="6.84676">
        <ele>2250.929</ele>
        <time>2015-08-21T11:04:32Z</time>
      </trkpt>
      <trkpt lat="45.48358" lon="6.84681">
        <ele>2252.5667</ele>
        <time>2015-08-21T11:04:42Z</time>
      </trkpt>
      <trkpt lat="45.48356" lon="6.84683">
        <ele>2252.5667</ele>
        <time>2015-08-21T11:04:47Z</time>
      </trkpt>
      <trkpt lat="45.48352" lon="6.84687">
        <ele>2252.5667</ele>
        <time>2015-08-21T11:04:57Z</time>
      </trkpt>
      <trkpt lat="45.48347" lon="6.84688">
        <ele>2254.162</ele>
        <time>2015-08-21T11:05:02Z</time>
      </trkpt>
      <trkpt lat="45.48345" lon="6.84689">
        <ele>2254.162</ele>
        <time>2015-08-21T11:05:12Z</time>
      </trkpt>
      <trkpt lat="45.48345" lon="6.84689">
        <ele>2254.162</ele>
        <time>2015-08-21T11:05:17Z</time>
      </trkpt>
      <trkpt lat="45.48348" lon="6.8469">
        <ele>2254.162</ele>
        <time>2015-08-21T11:05:27Z</time>
      </trkpt>
      <trkpt lat="45.48347" lon="6.8469">
        <ele>2254.162</ele>
        <time>2015-08-21T11:05:32Z</time>
      </trkpt>
      <trkpt lat="45.48344" lon="6.8469">
        <ele>2255.7158</ele>
        <time>2015-08-21T11:05:42Z</time>
      </trkpt>
      <trkpt lat="45.48345" lon="6.84689">
        <ele>2255.7158</ele>
        <time>2015-08-21T11:05:47Z</time>
      </trkpt>
      <trkpt lat="45.48342" lon="6.84686">
        <ele>2255.7158</ele>
        <time>2015-08-21T11:06:02Z</time>
      </trkpt>
      <trkpt lat="45.4834" lon="6.84687">
        <ele>2255.7158</ele>
        <time>2015-08-21T11:06:07Z</time>
      </trkpt>
      <trkpt lat="45.4834" lon="6.84687">
        <ele>2255.7158</ele>
        <time>2015-08-21T11:06:17Z</time>
      </trkpt>
      <trkpt lat="45.48339" lon="6.84688">
        <ele>2255.7158</ele>
        <time>2015-08-21T11:06:22Z</time>
      </trkpt>
      <trkpt lat="45.48338" lon="6.84689">
        <ele>2257.243</ele>
        <time>2015-08-21T11:06:32Z</time>
      </trkpt>
      <trkpt lat="45.48336" lon="6.8469">
        <ele>2257.243</ele>
        <time>2015-08-21T11:06:37Z</time>
      </trkpt>
      <trkpt lat="45.48332" lon="6.84696">
        <ele>2257.243</ele>
        <time>2015-08-21T11:06:47Z</time>
      </trkpt>
      <trkpt lat="45.48329" lon="6.84697">
        <ele>2258.6707</ele>
        <time>2015-08-21T11:06:52Z</time>
      </trkpt>
      <trkpt lat="45.48325" lon="6.84701">
        <ele>2258.6707</ele>
        <time>2015-08-21T11:07:02Z</time>
      </trkpt>
      <trkpt lat="45.48323" lon="6.84702">
        <ele>2258.6707</ele>
        <time>2015-08-21T11:07:07Z</time>
      </trkpt>
      <trkpt lat="45.48318" lon="6.84706">
        <ele>2260.0188</ele>
        <time>2015-08-21T11:07:17Z</time>
      </trkpt>
      <trkpt lat="45.48316" lon="6.84708">
        <ele>2260.0188</ele>
        <time>2015-08-21T11:07:22Z</time>
      </trkpt>
      <trkpt lat="45.48309" lon="6.8471">
        <ele>2261.4355</ele>
        <time>2015-08-21T11:07:32Z</time>
      </trkpt>
      <trkpt lat="45.48306" lon="6.8471">
        <ele>2261.4355</ele>
        <time>2015-08-21T11:07:37Z</time>
      </trkpt>
      <trkpt lat="45.48302" lon="6.84711">
        <ele>2261.4355</ele>
        <time>2015-08-21T11:07:47Z</time>
      </trkpt>
      <trkpt lat="45.483" lon="6.84714">
        <ele>2262.7842</ele>
        <time>2015-08-21T11:07:52Z</time>
      </trkpt>
      <trkpt lat="45.48291" lon="6.84716">
        <ele>2264.0964</ele>
        <time>2015-08-21T11:08:07Z</time>
      </trkpt>
      <trkpt lat="45.48288" lon="6.84718">
        <ele>2264.0964</ele>
        <time>2015-08-21T11:08:12Z</time>
      </trkpt>
      <trkpt lat="45.48284" lon="6.84721">
        <ele>2264.0964</ele>
        <time>2015-08-21T11:08:22Z</time>
      </trkpt>
      <trkpt lat="45.48281" lon="6.84722">
        <ele>2265.5325</ele>
        <time>2015-08-21T11:08:27Z</time>
      </trkpt>
      <trkpt lat="45.48276" lon="6.84722">
        <ele>2265.5325</ele>
        <time>2015-08-21T11:08:37Z</time>
      </trkpt>
      <trkpt lat="45.48274" lon="6.84724">
        <ele>2265.5325</ele>
        <time>2015-08-21T11:08:42Z</time>
      </trkpt>
      <trkpt lat="45.48269" lon="6.84727">
        <ele>2267.0088</ele>
        <time>2015-08-21T11:08:52Z</time>
      </trkpt>
      <trkpt lat="45.48267" lon="6.84727">
        <ele>2267.0088</ele>
        <time>2015-08-21T11:08:57Z</time>
      </trkpt>
      <trkpt lat="45.48262" lon="6.8473">
        <ele>2267.0088</ele>
        <time>2015-08-21T11:09:07Z</time>
      </trkpt>
      <trkpt lat="45.48259" lon="6.84732">
        <ele>2268.5496</ele>
        <time>2015-08-21T11:09:12Z</time>
      </trkpt>
      <trkpt lat="45.48254" lon="6.84736">
        <ele>2268.5496</ele>
        <time>2015-08-21T11:09:27Z</time>
      </trkpt>
      <trkpt lat="45.48251" lon="6.84738">
        <ele>2269.9895</ele>
        <time>2015-08-21T11:09:32Z</time>
      </trkpt>
      <trkpt lat="45.48243" lon="6.84743">
        <ele>2269.9895</ele>
        <time>2015-08-21T11:09:42Z</time>
      </trkpt>
      <trkpt lat="45.4824" lon="6.84744">
        <ele>2271.4783</ele>
        <time>2015-08-21T11:09:47Z</time>
      </trkpt>
      <trkpt lat="45.48233" lon="6.84748">
        <ele>2271.4783</ele>
        <time>2015-08-21T11:09:57Z</time>
      </trkpt>
      <trkpt lat="45.48232" lon="6.84752">
        <ele>2273.0535</ele>
        <time>2015-08-21T11:10:02Z</time>
      </trkpt>
      <trkpt lat="45.4823" lon="6.84755">
        <ele>2273.0535</ele>
        <time>2015-08-21T11:10:12Z</time>
      </trkpt>
      <trkpt lat="45.48227" lon="6.84758">
        <ele>2273.0535</ele>
        <time>2015-08-21T11:10:17Z</time>
      </trkpt>
      <trkpt lat="45.48222" lon="6.8476">
        <ele>2274.808</ele>
        <time>2015-08-21T11:10:27Z</time>
      </trkpt>
      <trkpt lat="45.48219" lon="6.8476">
        <ele>2274.808</ele>
        <time>2015-08-21T11:10:32Z</time>
      </trkpt>
      <trkpt lat="45.48214" lon="6.84762">
        <ele>2274.808</ele>
        <time>2015-08-21T11:10:42Z</time>
      </trkpt>
      <trkpt lat="45.48212" lon="6.84764">
        <ele>2276.5244</ele>
        <time>2015-08-21T11:10:47Z</time>
      </trkpt>
      <trkpt lat="45.48203" lon="6.84765">
        <ele>2276.5244</ele>
        <time>2015-08-21T11:11:02Z</time>
      </trkpt>
      <trkpt lat="45.48201" lon="6.84766">
        <ele>2278.2317</ele>
        <time>2015-08-21T11:11:07Z</time>
      </trkpt>
      <trkpt lat="45.48197" lon="6.84768">
        <ele>2278.2317</ele>
        <time>2015-08-21T11:11:17Z</time>
      </trkpt>
      <trkpt lat="45.48194" lon="6.84767">
        <ele>2278.2317</ele>
        <time>2015-08-21T11:11:22Z</time>
      </trkpt>
      <trkpt lat="45.48189" lon="6.84769">
        <ele>2279.9575</ele>
        <time>2015-08-21T11:11:32Z</time>
      </trkpt>
      <trkpt lat="45.48186" lon="6.84772">
        <ele>2279.9575</ele>
        <time>2015-08-21T11:11:37Z</time>
      </trkpt>
      <trkpt lat="45.48183" lon="6.84772">
        <ele>2279.9575</ele>
        <time>2015-08-21T11:11:47Z</time>
      </trkpt>
      <trkpt lat="45.48181" lon="6.84771">
        <ele>2279.9575</ele>
        <time>2015-08-21T11:11:52Z</time>
      </trkpt>
      <trkpt lat="45.48176" lon="6.84771">
        <ele>2281.871</ele>
        <time>2015-08-21T11:12:02Z</time>
      </trkpt>
      <trkpt lat="45.48173" lon="6.84771">
        <ele>2281.871</ele>
        <time>2015-08-21T11:12:07Z</time>
      </trkpt>
      <trkpt lat="45.48169" lon="6.8477">
        <ele>2281.871</ele>
        <time>2015-08-21T11:12:17Z</time>
      </trkpt>
      <trkpt lat="45.48165" lon="6.8477">
        <ele>2283.7544</ele>
        <time>2015-08-21T11:12:22Z</time>
      </trkpt>
      <trkpt lat="45.48159" lon="6.84769">
        <ele>2283.7544</ele>
        <time>2015-08-21T11:12:32Z</time>
      </trkpt>
      <trkpt lat="45.48156" lon="6.84771">
        <ele>2285.6213</ele>
        <time>2015-08-21T11:12:37Z</time>
      </trkpt>
      <trkpt lat="45.4815" lon="6.84773">
        <ele>2285.6213</ele>
        <time>2015-08-21T11:12:47Z</time>
      </trkpt>
      <trkpt lat="45.48149" lon="6.84775">
        <ele>2285.6213</ele>
        <time>2015-08-21T11:12:52Z</time>
      </trkpt>
      <trkpt lat="45.4814" lon="6.84775">
        <ele>2287.6006</ele>
        <time>2015-08-21T11:13:07Z</time>
      </trkpt>
      <trkpt lat="45.48139" lon="6.84776">
        <ele>2287.6006</ele>
        <time>2015-08-21T11:13:12Z</time>
      </trkpt>
      <trkpt lat="45.48134" lon="6.84779">
        <ele>2287.6006</ele>
        <time>2015-08-21T11:13:22Z</time>
      </trkpt>
      <trkpt lat="45.4813" lon="6.84779">
        <ele>2289.523</ele>
        <time>2015-08-21T11:13:27Z</time>
      </trkpt>
      <trkpt lat="45.48124" lon="6.8478">
        <ele>2289.523</ele>
        <time>2015-08-21T11:13:37Z</time>
      </trkpt>
      <trkpt lat="45.48124" lon="6.84782">
        <ele>2289.523</ele>
        <time>2015-08-21T11:13:42Z</time>
      </trkpt>
      <trkpt lat="45.48119" lon="6.84785">
        <ele>2291.678</ele>
        <time>2015-08-21T11:13:52Z</time>
      </trkpt>
      <trkpt lat="45.48116" lon="6.84786">
        <ele>2291.678</ele>
        <time>2015-08-21T11:13:57Z</time>
      </trkpt>
      <trkpt lat="45.48112" lon="6.84789">
        <ele>2291.678</ele>
        <time>2015-08-21T11:14:07Z</time>
      </trkpt>
      <trkpt lat="45.4811" lon="6.84789">
        <ele>2293.7722</ele>
        <time>2015-08-21T11:14:12Z</time>
      </trkpt>
      <trkpt lat="45.48108" lon="6.84793">
        <ele>2293.7722</ele>
        <time>2015-08-21T11:14:22Z</time>
      </trkpt>
      <trkpt lat="45.48105" lon="6.84796">
        <ele>2293.7722</ele>
        <time>2015-08-21T11:14:27Z</time>
      </trkpt>
      <trkpt lat="45.48099" lon="6.84797">
        <ele>2295.908</ele>
        <time>2015-08-21T11:14:37Z</time>
      </trkpt>
      <trkpt lat="45.48095" lon="6.84798">
        <ele>2295.908</ele>
        <time>2015-08-21T11:14:42Z</time>
      </trkpt>
      <trkpt lat="45.48091" lon="6.848">
        <ele>2295.908</ele>
        <time>2015-08-21T11:14:52Z</time>
      </trkpt>
      <trkpt lat="45.4809" lon="6.848">
        <ele>2298.0654</ele>
        <time>2015-08-21T11:14:57Z</time>
      </trkpt>
      <trkpt lat="45.48083" lon="6.84806">
        <ele>2298.0654</ele>
        <time>2015-08-21T11:15:12Z</time>
      </trkpt>
      <trkpt lat="45.4808" lon="6.84809">
        <ele>2300.2112</ele>
        <time>2015-08-21T11:15:17Z</time>
      </trkpt>
      <trkpt lat="45.48076" lon="6.84816">
        <ele>2300.2112</ele>
        <time>2015-08-21T11:15:27Z</time>
      </trkpt>
      <trkpt lat="45.48074" lon="6.84817">
        <ele>2300.2112</ele>
        <time>2015-08-21T11:15:32Z</time>
      </trkpt>
      <trkpt lat="45.48072" lon="6.84822">
        <ele>2302.5886</ele>
        <time>2015-08-21T11:15:42Z</time>
      </trkpt>
      <trkpt lat="45.48071" lon="6.84824">
        <ele>2302.5886</ele>
        <time>2015-08-21T11:15:47Z</time>
      </trkpt>
      <trkpt lat="45.48067" lon="6.84827">
        <ele>2302.5886</ele>
        <time>2015-08-21T11:15:57Z</time>
      </trkpt>
      <trkpt lat="45.48066" lon="6.84832">
        <ele>2305.0623</ele>
        <time>2015-08-21T11:16:02Z</time>
      </trkpt>
      <trkpt lat="45.48062" lon="6.84838">
        <ele>2305.0623</ele>
        <time>2015-08-21T11:16:12Z</time>
      </trkpt>
      <trkpt lat="45.48061" lon="6.84841">
        <ele>2305.0623</ele>
        <time>2015-08-21T11:16:17Z</time>
      </trkpt>
      <trkpt lat="45.48059" lon="6.84845">
        <ele>2307.5352</ele>
        <time>2015-08-21T11:16:27Z</time>
      </trkpt>
      <trkpt lat="45.48056" lon="6.84848">
        <ele>2307.5352</ele>
        <time>2015-08-21T11:16:32Z</time>
      </trkpt>
      <trkpt lat="45.48052" lon="6.84854">
        <ele>2309.7737</ele>
        <time>2015-08-21T11:16:42Z</time>
      </trkpt>
      <trkpt lat="45.4805" lon="6.84858">
        <ele>2309.7737</ele>
        <time>2015-08-21T11:16:47Z</time>
      </trkpt>
      <trkpt lat="45.48048" lon="6.84867">
        <ele>2311.908</ele>
        <time>2015-08-21T11:16:57Z</time>
      </trkpt>
      <trkpt lat="45.48046" lon="6.84873">
        <ele>2311.908</ele>
        <time>2015-08-21T11:17:02Z</time>
      </trkpt>
      <trkpt lat="45.4804" lon="6.84885">
        <ele>2314.0583</ele>
        <time>2015-08-21T11:17:17Z</time>
      </trkpt>
      <trkpt lat="45.48038" lon="6.84888">
        <ele>2314.0583</ele>
        <time>2015-08-21T11:17:22Z</time>
      </trkpt>
      <trkpt lat="45.48033" lon="6.84893">
        <ele>2316.0493</ele>
        <time>2015-08-21T11:17:32Z</time>
      </trkpt>
      <trkpt lat="45.48029" lon="6.84898">
        <ele>2316.0493</ele>
        <time>2015-08-21T11:17:37Z</time>
      </trkpt>
      <trkpt lat="45.48024" lon="6.84907">
        <ele>2317.9482</ele>
        <time>2015-08-21T11:17:47Z</time>
      </trkpt>
      <trkpt lat="45.48022" lon="6.84911">
        <ele>2317.9482</ele>
        <time>2015-08-21T11:17:52Z</time>
      </trkpt>
      <trkpt lat="45.48017" lon="6.84916">
        <ele>2317.9482</ele>
        <time>2015-08-21T11:18:02Z</time>
      </trkpt>
      <trkpt lat="45.48014" lon="6.84921">
        <ele>2319.732</ele>
        <time>2015-08-21T11:18:07Z</time>
      </trkpt>
      <trkpt lat="45.48007" lon="6.84927">
        <ele>2319.732</ele>
        <time>2015-08-21T11:18:17Z</time>
      </trkpt>
      <trkpt lat="45.48004" lon="6.84931">
        <ele>2321.3074</ele>
        <time>2015-08-21T11:18:22Z</time>
      </trkpt>
      <trkpt lat="45.47998" lon="6.84936">
        <ele>2321.3074</ele>
        <time>2015-08-21T11:18:32Z</time>
      </trkpt>
      <trkpt lat="45.47995" lon="6.84938">
        <ele>2322.6467</ele>
        <time>2015-08-21T11:18:37Z</time>
      </trkpt>
      <trkpt lat="45.47986" lon="6.84943">
        <ele>2323.7966</ele>
        <time>2015-08-21T11:18:47Z</time>
      </trkpt>
      <trkpt lat="45.47983" lon="6.84945">
        <ele>2323.7966</ele>
        <time>2015-08-21T11:18:52Z</time>
      </trkpt>
      <trkpt lat="45.47976" lon="6.84951">
        <ele>2324.8008</ele>
        <time>2015-08-21T11:19:02Z</time>
      </trkpt>
      <trkpt lat="45.47975" lon="6.84952">
        <ele>2324.8008</ele>
        <time>2015-08-21T11:19:07Z</time>
      </trkpt>
      <trkpt lat="45.4797" lon="6.84954">
        <ele>2324.8008</ele>
        <time>2015-08-21T11:19:17Z</time>
      </trkpt>
      <trkpt lat="45.47968" lon="6.84959">
        <ele>2325.672</ele>
        <time>2015-08-21T11:19:22Z</time>
      </trkpt>
      <trkpt lat="45.4796" lon="6.84966">
        <ele>2326.5952</ele>
        <time>2015-08-21T11:19:37Z</time>
      </trkpt>
      <trkpt lat="45.47958" lon="6.84966">
        <ele>2326.5952</ele>
        <time>2015-08-21T11:19:42Z</time>
      </trkpt>
      <trkpt lat="45.47954" lon="6.84973">
        <ele>2326.5952</ele>
        <time>2015-08-21T11:19:52Z</time>
      </trkpt>
      <trkpt lat="45.47952" lon="6.84974">
        <ele>2327.4387</ele>
        <time>2015-08-21T11:19:57Z</time>
      </trkpt>
      <trkpt lat="45.47945" lon="6.84979">
        <ele>2327.4387</ele>
        <time>2015-08-21T11:20:07Z</time>
      </trkpt>
      <trkpt lat="45.47941" lon="6.84984">
        <ele>2328.2395</ele>
        <time>2015-08-21T11:20:12Z</time>
      </trkpt>
      <trkpt lat="45.47935" lon="6.84986">
        <ele>2328.2395</ele>
        <time>2015-08-21T11:20:22Z</time>
      </trkpt>
      <trkpt lat="45.47931" lon="6.84985">
        <ele>2328.96</ele>
        <time>2015-08-21T11:20:27Z</time>
      </trkpt>
      <trkpt lat="45.47925" lon="6.84991">
        <ele>2328.96</ele>
        <time>2015-08-21T11:20:37Z</time>
      </trkpt>
      <trkpt lat="45.47921" lon="6.84991">
        <ele>2329.5654</ele>
        <time>2015-08-21T11:20:42Z</time>
      </trkpt>
      <trkpt lat="45.47913" lon="6.84992">
        <ele>2329.5654</ele>
        <time>2015-08-21T11:20:52Z</time>
      </trkpt>
      <trkpt lat="45.4791" lon="6.84992">
        <ele>2330.1826</ele>
        <time>2015-08-21T11:20:57Z</time>
      </trkpt>
      <trkpt lat="45.47903" lon="6.84994">
        <ele>2330.1826</ele>
        <time>2015-08-21T11:21:07Z</time>
      </trkpt>
      <trkpt lat="45.47899" lon="6.84997">
        <ele>2330.6838</ele>
        <time>2015-08-21T11:21:12Z</time>
      </trkpt>
      <trkpt lat="45.47891" lon="6.85001">
        <ele>2330.6838</ele>
        <time>2015-08-21T11:21:22Z</time>
      </trkpt>
      <trkpt lat="45.47885" lon="6.85">
        <ele>2331.182</ele>
        <time>2015-08-21T11:21:27Z</time>
      </trkpt>
      <trkpt lat="45.47878" lon="6.85003">
        <ele>2331.182</ele>
        <time>2015-08-21T11:21:37Z</time>
      </trkpt>
      <trkpt lat="45.47875" lon="6.85003">
        <ele>2331.594</ele>
        <time>2015-08-21T11:21:42Z</time>
      </trkpt>
      <trkpt lat="45.4786" lon="6.85003">
        <ele>2331.9873</ele>
        <time>2015-08-21T11:21:57Z</time>
      </trkpt>
      <trkpt lat="45.47858" lon="6.85004">
        <ele>2331.9873</ele>
        <time>2015-08-21T11:22:02Z</time>
      </trkpt>
      <trkpt lat="45.47858" lon="6.85005">
        <ele>2331.9873</ele>
        <time>2015-08-21T11:22:12Z</time>
      </trkpt>
      <trkpt lat="45.47858" lon="6.85004">
        <ele>2331.9873</ele>
        <time>2015-08-21T11:22:17Z</time>
      </trkpt>
      <trkpt lat="45.47857" lon="6.85004">
        <ele>2331.9873</ele>
        <time>2015-08-21T11:22:27Z</time>
      </trkpt>
      <trkpt lat="45.47857" lon="6.85004">
        <ele>2331.9873</ele>
        <time>2015-08-21T11:22:32Z</time>
      </trkpt>
      <trkpt lat="45.47856" lon="6.85004">
        <ele>2331.9873</ele>
        <time>2015-08-21T11:23:17Z</time>
      </trkpt>
      <trkpt lat="45.47847" lon="6.85002">
        <ele>2332.4963</ele>
        <time>2015-08-21T11:23:27Z</time>
      </trkpt>
      <trkpt lat="45.47843" lon="6.85001">
        <ele>2332.4963</ele>
        <time>2015-08-21T11:23:32Z</time>
      </trkpt>
      <trkpt lat="45.47834" lon="6.85003">
        <ele>2332.972</ele>
        <time>2015-08-21T11:23:42Z</time>
      </trkpt>
      <trkpt lat="45.4783" lon="6.85003">
        <ele>2332.972</ele>
        <time>2015-08-21T11:23:47Z</time>
      </trkpt>
      <trkpt lat="45.47823" lon="6.85007">
        <ele>2333.3906</ele>
        <time>2015-08-21T11:23:57Z</time>
      </trkpt>
      <trkpt lat="45.47817" lon="6.85008">
        <ele>2333.3906</ele>
        <time>2015-08-21T11:24:02Z</time>
      </trkpt>
      <trkpt lat="45.47805" lon="6.85008">
        <ele>2333.6301</ele>
        <time>2015-08-21T11:24:17Z</time>
      </trkpt>
      <trkpt lat="45.47801" lon="6.8501">
        <ele>2333.6301</ele>
        <time>2015-08-21T11:24:22Z</time>
      </trkpt>
      <trkpt lat="45.47794" lon="6.85016">
        <ele>2333.8225</ele>
        <time>2015-08-21T11:24:32Z</time>
      </trkpt>
      <trkpt lat="45.47791" lon="6.85019">
        <ele>2333.8225</ele>
        <time>2015-08-21T11:24:37Z</time>
      </trkpt>
      <trkpt lat="45.47783" lon="6.8502">
        <ele>2333.8025</ele>
        <time>2015-08-21T11:24:47Z</time>
      </trkpt>
      <trkpt lat="45.47779" lon="6.85023">
        <ele>2333.8025</ele>
        <time>2015-08-21T11:24:52Z</time>
      </trkpt>
      <trkpt lat="45.47773" lon="6.85031">
        <ele>2333.647</ele>
        <time>2015-08-21T11:25:02Z</time>
      </trkpt>
      <trkpt lat="45.47769" lon="6.85035">
        <ele>2333.647</ele>
        <time>2015-08-21T11:25:07Z</time>
      </trkpt>
      <trkpt lat="45.47761" lon="6.85041">
        <ele>2333.4</ele>
        <time>2015-08-21T11:25:17Z</time>
      </trkpt>
      <trkpt lat="45.47757" lon="6.8504">
        <ele>2333.4</ele>
        <time>2015-08-21T11:25:22Z</time>
      </trkpt>
      <trkpt lat="45.47747" lon="6.85041">
        <ele>2333.087</ele>
        <time>2015-08-21T11:25:32Z</time>
      </trkpt>
      <trkpt lat="45.47742" lon="6.85043">
        <ele>2333.087</ele>
        <time>2015-08-21T11:25:37Z</time>
      </trkpt>
      <trkpt lat="45.47733" lon="6.85045">
        <ele>2332.7175</ele>
        <time>2015-08-21T11:25:47Z</time>
      </trkpt>
      <trkpt lat="45.47729" lon="6.85049">
        <ele>2332.7175</ele>
        <time>2015-08-21T11:25:52Z</time>
      </trkpt>
      <trkpt lat="45.47721" lon="6.85048">
        <ele>2332.3152</ele>
        <time>2015-08-21T11:26:02Z</time>
      </trkpt>
      <trkpt lat="45.47715" lon="6.85046">
        <ele>2332.3152</ele>
        <time>2015-08-21T11:26:07Z</time>
      </trkpt>
      <trkpt lat="45.47706" lon="6.85045">
        <ele>2331.8586</ele>
        <time>2015-08-21T11:26:17Z</time>
      </trkpt>
      <trkpt lat="45.47702" lon="6.85046">
        <ele>2331.8586</ele>
        <time>2015-08-21T11:26:22Z</time>
      </trkpt>
      <trkpt lat="45.47692" lon="6.85048">
        <ele>2331.443</ele>
        <time>2015-08-21T11:26:32Z</time>
      </trkpt>
      <trkpt lat="45.47688" lon="6.85049">
        <ele>2331.443</ele>
        <time>2015-08-21T11:26:37Z</time>
      </trkpt>
      <trkpt lat="45.47677" lon="6.85042">
        <ele>2331.0413</ele>
        <time>2015-08-21T11:26:47Z</time>
      </trkpt>
      <trkpt lat="45.47674" lon="6.85043">
        <ele>2331.0413</ele>
        <time>2015-08-21T11:26:52Z</time>
      </trkpt>
      <trkpt lat="45.4766" lon="6.8505">
        <ele>2330.426</ele>
        <time>2015-08-21T11:27:07Z</time>
      </trkpt>
      <trkpt lat="45.47657" lon="6.85052">
        <ele>2330.426</ele>
        <time>2015-08-21T11:27:12Z</time>
      </trkpt>
      <trkpt lat="45.47647" lon="6.85051">
        <ele>2329.8774</ele>
        <time>2015-08-21T11:27:22Z</time>
      </trkpt>
      <trkpt lat="45.47642" lon="6.85051">
        <ele>2329.8774</ele>
        <time>2015-08-21T11:27:27Z</time>
      </trkpt>
      <trkpt lat="45.47633" lon="6.85051">
        <ele>2329.4675</ele>
        <time>2015-08-21T11:27:37Z</time>
      </trkpt>
      <trkpt lat="45.47629" lon="6.85053">
        <ele>2329.4675</ele>
        <time>2015-08-21T11:27:42Z</time>
      </trkpt>
      <trkpt lat="45.47623" lon="6.85052">
        <ele>2329.0603</ele>
        <time>2015-08-21T11:27:52Z</time>
      </trkpt>
      <trkpt lat="45.47622" lon="6.85053">
        <ele>2329.0603</ele>
        <time>2015-08-21T11:27:57Z</time>
      </trkpt>
      <trkpt lat="45.47622" lon="6.85052">
        <ele>2329.0603</ele>
        <time>2015-08-21T11:28:07Z</time>
      </trkpt>
      <trkpt lat="45.47622" lon="6.85052">
        <ele>2329.0603</ele>
        <time>2015-08-21T11:29:07Z</time>
      </trkpt>
      <trkpt lat="45.47622" lon="6.85052">
        <ele>2329.0603</ele>
        <time>2015-08-21T11:29:12Z</time>
      </trkpt>
      <trkpt lat="45.47622" lon="6.85053">
        <ele>2329.0603</ele>
        <time>2015-08-21T11:29:37Z</time>
      </trkpt>
      <trkpt lat="45.47621" lon="6.85051">
        <ele>2329.0603</ele>
        <time>2015-08-21T11:29:42Z</time>
      </trkpt>
      <trkpt lat="45.47623" lon="6.8505">
        <ele>2329.0603</ele>
        <time>2015-08-21T11:30:02Z</time>
      </trkpt>
      <trkpt lat="45.47623" lon="6.8505">
        <ele>2329.0603</ele>
        <time>2015-08-21T11:30:42Z</time>
      </trkpt>
      <trkpt lat="45.47623" lon="6.8505">
        <ele>2329.0603</ele>
        <time>2015-08-21T11:30:47Z</time>
      </trkpt>
      <trkpt lat="45.47622" lon="6.8505">
        <ele>2329.0603</ele>
        <time>2015-08-21T11:31:37Z</time>
      </trkpt>
      <trkpt lat="45.47615" lon="6.85051">
        <ele>2328.775</ele>
        <time>2015-08-21T11:31:47Z</time>
      </trkpt>
      <trkpt lat="45.47609" lon="6.85049">
        <ele>2328.775</ele>
        <time>2015-08-21T11:31:52Z</time>
      </trkpt>
      <trkpt lat="45.476" lon="6.85044">
        <ele>2328.5623</ele>
        <time>2015-08-21T11:32:02Z</time>
      </trkpt>
      <trkpt lat="45.47597" lon="6.85043">
        <ele>2328.5623</ele>
        <time>2015-08-21T11:32:07Z</time>
      </trkpt>
      <trkpt lat="45.47589" lon="6.85042">
        <ele>2328.1902</ele>
        <time>2015-08-21T11:32:17Z</time>
      </trkpt>
      <trkpt lat="45.47584" lon="6.85044">
        <ele>2328.1902</ele>
        <time>2015-08-21T11:32:22Z</time>
      </trkpt>
      <trkpt lat="45.47574" lon="6.85041">
        <ele>2327.6157</ele>
        <time>2015-08-21T11:32:32Z</time>
      </trkpt>
      <trkpt lat="45.4757" lon="6.85035">
        <ele>2327.6157</ele>
        <time>2015-08-21T11:32:37Z</time>
      </trkpt>
      <trkpt lat="45.47566" lon="6.8504">
        <ele>2326.6125</ele>
        <time>2015-08-21T11:32:47Z</time>
      </trkpt>
      <trkpt lat="45.47561" lon="6.85043">
        <ele>2326.6125</ele>
        <time>2015-08-21T11:32:52Z</time>
      </trkpt>
      <trkpt lat="45.47553" lon="6.85046">
        <ele>2325.6208</ele>
        <time>2015-08-21T11:33:02Z</time>
      </trkpt>
      <trkpt lat="45.47547" lon="6.85048">
        <ele>2325.6208</ele>
        <time>2015-08-21T11:33:07Z</time>
      </trkpt>
      <trkpt lat="45.47531" lon="6.85052">
        <ele>2324.8752</ele>
        <time>2015-08-21T11:33:22Z</time>
      </trkpt>
      <trkpt lat="45.47527" lon="6.85055">
        <ele>2324.8752</ele>
        <time>2015-08-21T11:33:27Z</time>
      </trkpt>
      <trkpt lat="45.47518" lon="6.85058">
        <ele>2324.3467</ele>
        <time>2015-08-21T11:33:37Z</time>
      </trkpt>
      <trkpt lat="45.47513" lon="6.8506">
        <ele>2324.3467</ele>
        <time>2015-08-21T11:33:42Z</time>
      </trkpt>
      <trkpt lat="45.47506" lon="6.85059">
        <ele>2324.0513</ele>
        <time>2015-08-21T11:33:52Z</time>
      </trkpt>
      <trkpt lat="45.47501" lon="6.85061">
        <ele>2324.0513</ele>
        <time>2015-08-21T11:33:57Z</time>
      </trkpt>
      <trkpt lat="45.47496" lon="6.85062">
        <ele>2323.8303</ele>
        <time>2015-08-21T11:34:07Z</time>
      </trkpt>
      <trkpt lat="45.4749" lon="6.85062">
        <ele>2323.8303</ele>
        <time>2015-08-21T11:34:12Z</time>
      </trkpt>
      <trkpt lat="45.47484" lon="6.85066">
        <ele>2323.709</ele>
        <time>2015-08-21T11:34:22Z</time>
      </trkpt>
      <trkpt lat="45.47481" lon="6.85068">
        <ele>2323.709</ele>
        <time>2015-08-21T11:34:27Z</time>
      </trkpt>
      <trkpt lat="45.47474" lon="6.85073">
        <ele>2323.5232</ele>
        <time>2015-08-21T11:34:37Z</time>
      </trkpt>
      <trkpt lat="45.47469" lon="6.85073">
        <ele>2323.5232</ele>
        <time>2015-08-21T11:34:42Z</time>
      </trkpt>
      <trkpt lat="45.47464" lon="6.85076">
        <ele>2323.4521</ele>
        <time>2015-08-21T11:34:52Z</time>
      </trkpt>
      <trkpt lat="45.4746" lon="6.85077">
        <ele>2323.4521</ele>
        <time>2015-08-21T11:34:57Z</time>
      </trkpt>
      <trkpt lat="45.47449" lon="6.8508">
        <ele>2323.3298</ele>
        <time>2015-08-21T11:35:12Z</time>
      </trkpt>
      <trkpt lat="45.47447" lon="6.85079">
        <ele>2323.3298</ele>
        <time>2015-08-21T11:35:17Z</time>
      </trkpt>
      <trkpt lat="45.4744" lon="6.85078">
        <ele>2323.248</ele>
        <time>2015-08-21T11:35:27Z</time>
      </trkpt>
      <trkpt lat="45.47435" lon="6.85077">
        <ele>2323.248</ele>
        <time>2015-08-21T11:35:32Z</time>
      </trkpt>
      <trkpt lat="45.47428" lon="6.85077">
        <ele>2323.1035</ele>
        <time>2015-08-21T11:35:42Z</time>
      </trkpt>
      <trkpt lat="45.47424" lon="6.85077">
        <ele>2323.1035</ele>
        <time>2015-08-21T11:35:47Z</time>
      </trkpt>
      <trkpt lat="45.47416" lon="6.85078">
        <ele>2323.0752</ele>
        <time>2015-08-21T11:35:57Z</time>
      </trkpt>
      <trkpt lat="45.47412" lon="6.85078">
        <ele>2323.0752</ele>
        <time>2015-08-21T11:36:02Z</time>
      </trkpt>
      <trkpt lat="45.47403" lon="6.8509">
        <ele>2323.2268</ele>
        <time>2015-08-21T11:36:12Z</time>
      </trkpt>
      <trkpt lat="45.47399" lon="6.85093">
        <ele>2323.2268</ele>
        <time>2015-08-21T11:36:17Z</time>
      </trkpt>
      <trkpt lat="45.47391" lon="6.85103">
        <ele>2323.2285</ele>
        <time>2015-08-21T11:36:27Z</time>
      </trkpt>
      <trkpt lat="45.47388" lon="6.85105">
        <ele>2323.2285</ele>
        <time>2015-08-21T11:36:32Z</time>
      </trkpt>
      <trkpt lat="45.47377" lon="6.85105">
        <ele>2323.5957</ele>
        <time>2015-08-21T11:36:47Z</time>
      </trkpt>
      <trkpt lat="45.4737" lon="6.85105">
        <ele>2323.5957</ele>
        <time>2015-08-21T11:36:52Z</time>
      </trkpt>
      <trkpt lat="45.4736" lon="6.85108">
        <ele>2324.618</ele>
        <time>2015-08-21T11:37:02Z</time>
      </trkpt>
      <trkpt lat="45.47355" lon="6.85109">
        <ele>2324.618</ele>
        <time>2015-08-21T11:37:07Z</time>
      </trkpt>
      <trkpt lat="45.47343" lon="6.85114">
        <ele>2326.129</ele>
        <time>2015-08-21T11:37:17Z</time>
      </trkpt>
      <trkpt lat="45.47339" lon="6.85117">
        <ele>2326.129</ele>
        <time>2015-08-21T11:37:22Z</time>
      </trkpt>
      <trkpt lat="45.47333" lon="6.85122">
        <ele>2327.815</ele>
        <time>2015-08-21T11:37:32Z</time>
      </trkpt>
      <trkpt lat="45.47332" lon="6.85124">
        <ele>2327.815</ele>
        <time>2015-08-21T11:37:37Z</time>
      </trkpt>
      <trkpt lat="45.47325" lon="6.85126">
        <ele>2327.815</ele>
        <time>2015-08-21T11:37:47Z</time>
      </trkpt>
      <trkpt lat="45.4732" lon="6.85126">
        <ele>2329.039</ele>
        <time>2015-08-21T11:37:52Z</time>
      </trkpt>
      <trkpt lat="45.47313" lon="6.8513">
        <ele>2329.039</ele>
        <time>2015-08-21T11:38:02Z</time>
      </trkpt>
      <trkpt lat="45.4731" lon="6.85131">
        <ele>2330.062</ele>
        <time>2015-08-21T11:38:07Z</time>
      </trkpt>
      <trkpt lat="45.47306" lon="6.85135">
        <ele>2330.062</ele>
        <time>2015-08-21T11:38:17Z</time>
      </trkpt>
      <trkpt lat="45.47303" lon="6.85139">
        <ele>2330.062</ele>
        <time>2015-08-21T11:38:22Z</time>
      </trkpt>
      <trkpt lat="45.47296" lon="6.85146">
        <ele>2330.6653</ele>
        <time>2015-08-21T11:38:32Z</time>
      </trkpt>
      <trkpt lat="45.47293" lon="6.85152">
        <ele>2330.6653</ele>
        <time>2015-08-21T11:38:37Z</time>
      </trkpt>
      <trkpt lat="45.47286" lon="6.85159">
        <ele>2331.0796</ele>
        <time>2015-08-21T11:38:47Z</time>
      </trkpt>
      <trkpt lat="45.47282" lon="6.85162">
        <ele>2331.0796</ele>
        <time>2015-08-21T11:38:52Z</time>
      </trkpt>
      <trkpt lat="45.47277" lon="6.85173">
        <ele>2331.1885</ele>
        <time>2015-08-21T11:39:02Z</time>
      </trkpt>
      <trkpt lat="45.47273" lon="6.85176">
        <ele>2331.1885</ele>
        <time>2015-08-21T11:39:07Z</time>
      </trkpt>
      <trkpt lat="45.47265" lon="6.85183">
        <ele>2330.9558</ele>
        <time>2015-08-21T11:39:17Z</time>
      </trkpt>
      <trkpt lat="45.47261" lon="6.8519">
        <ele>2330.9558</ele>
        <time>2015-08-21T11:39:22Z</time>
      </trkpt>
      <trkpt lat="45.47253" lon="6.85198">
        <ele>2330.5952</ele>
        <time>2015-08-21T11:39:37Z</time>
      </trkpt>
      <trkpt lat="45.4725" lon="6.85204">
        <ele>2330.5952</ele>
        <time>2015-08-21T11:39:42Z</time>
      </trkpt>
      <trkpt lat="45.47245" lon="6.85212">
        <ele>2330.2034</ele>
        <time>2015-08-21T11:39:52Z</time>
      </trkpt>
      <trkpt lat="45.47241" lon="6.85215">
        <ele>2330.2034</ele>
        <time>2015-08-21T11:39:57Z</time>
      </trkpt>
      <trkpt lat="45.47234" lon="6.85221">
        <ele>2329.9277</ele>
        <time>2015-08-21T11:40:07Z</time>
      </trkpt>
      <trkpt lat="45.47231" lon="6.85222">
        <ele>2329.9277</ele>
        <time>2015-08-21T11:40:12Z</time>
      </trkpt>
      <trkpt lat="45.47222" lon="6.85227">
        <ele>2329.8472</ele>
        <time>2015-08-21T11:40:22Z</time>
      </trkpt>
      <trkpt lat="45.47219" lon="6.85229">
        <ele>2329.8472</ele>
        <time>2015-08-21T11:40:27Z</time>
      </trkpt>
      <trkpt lat="45.47211" lon="6.85233">
        <ele>2329.9763</ele>
        <time>2015-08-21T11:40:37Z</time>
      </trkpt>
      <trkpt lat="45.47208" lon="6.85236">
        <ele>2329.9763</ele>
        <time>2015-08-21T11:40:42Z</time>
      </trkpt>
      <trkpt lat="45.47202" lon="6.8524">
        <ele>2330.2273</ele>
        <time>2015-08-21T11:40:52Z</time>
      </trkpt>
      <trkpt lat="45.47199" lon="6.85243">
        <ele>2330.2273</ele>
        <time>2015-08-21T11:40:57Z</time>
      </trkpt>
      <trkpt lat="45.47195" lon="6.8525">
        <ele>2330.6335</ele>
        <time>2015-08-21T11:41:07Z</time>
      </trkpt>
      <trkpt lat="45.47193" lon="6.85252">
        <ele>2330.6335</ele>
        <time>2015-08-21T11:41:12Z</time>
      </trkpt>
      <trkpt lat="45.47189" lon="6.85257">
        <ele>2330.6335</ele>
        <time>2015-08-21T11:41:22Z</time>
      </trkpt>
      <trkpt lat="45.47186" lon="6.85261">
        <ele>2331.1975</ele>
        <time>2015-08-21T11:41:27Z</time>
      </trkpt>
      <trkpt lat="45.47182" lon="6.85269">
        <ele>2331.1975</ele>
        <time>2015-08-21T11:41:42Z</time>
      </trkpt>
      <trkpt lat="45.47179" lon="6.85271">
        <ele>2332.136</ele>
        <time>2015-08-21T11:41:47Z</time>
      </trkpt>
      <trkpt lat="45.47176" lon="6.85274">
        <ele>2332.136</ele>
        <time>2015-08-21T11:41:57Z</time>
      </trkpt>
      <trkpt lat="45.47175" lon="6.85276">
        <ele>2332.136</ele>
        <time>2015-08-21T11:42:02Z</time>
      </trkpt>
      <trkpt lat="45.47174" lon="6.85285">
        <ele>2333.2173</ele>
        <time>2015-08-21T11:42:12Z</time>
      </trkpt>
      <trkpt lat="45.47173" lon="6.85288">
        <ele>2333.2173</ele>
        <time>2015-08-21T11:42:17Z</time>
      </trkpt>
      <trkpt lat="45.47167" lon="6.85295">
        <ele>2334.5144</ele>
        <time>2015-08-21T11:42:27Z</time>
      </trkpt>
      <trkpt lat="45.47165" lon="6.85294">
        <ele>2334.5144</ele>
        <time>2015-08-21T11:42:32Z</time>
      </trkpt>
      <trkpt lat="45.47161" lon="6.85298">
        <ele>2334.5144</ele>
        <time>2015-08-21T11:42:42Z</time>
      </trkpt>
      <trkpt lat="45.47159" lon="6.853">
        <ele>2335.8926</ele>
        <time>2015-08-21T11:42:47Z</time>
      </trkpt>
      <trkpt lat="45.47156" lon="6.85306">
        <ele>2335.8926</ele>
        <time>2015-08-21T11:42:57Z</time>
      </trkpt>
      <trkpt lat="45.47152" lon="6.85308">
        <ele>2335.8926</ele>
        <time>2015-08-21T11:43:02Z</time>
      </trkpt>
      <trkpt lat="45.47145" lon="6.85315">
        <ele>2337.198</ele>
        <time>2015-08-21T11:43:12Z</time>
      </trkpt>
      <trkpt lat="45.47142" lon="6.85316">
        <ele>2337.198</ele>
        <time>2015-08-21T11:43:17Z</time>
      </trkpt>
      <trkpt lat="45.47135" lon="6.85319">
        <ele>2338.4614</ele>
        <time>2015-08-21T11:43:27Z</time>
      </trkpt>
      <trkpt lat="45.47131" lon="6.85321">
        <ele>2338.4614</ele>
        <time>2015-08-21T11:43:32Z</time>
      </trkpt>
      <trkpt lat="45.47125" lon="6.85324">
        <ele>2340.0137</ele>
        <time>2015-08-21T11:43:42Z</time>
      </trkpt>
      <trkpt lat="45.47124" lon="6.85332">
        <ele>2340.0137</ele>
        <time>2015-08-21T11:43:47Z</time>
      </trkpt>
      <trkpt lat="45.47129" lon="6.85327">
        <ele>2341.671</ele>
        <time>2015-08-21T11:44:02Z</time>
      </trkpt>
      <trkpt lat="45.47123" lon="6.85328">
        <ele>2341.671</ele>
        <time>2015-08-21T11:44:07Z</time>
      </trkpt>
      <trkpt lat="45.47115" lon="6.85336">
        <ele>2343.1763</ele>
        <time>2015-08-21T11:44:17Z</time>
      </trkpt>
      <trkpt lat="45.47112" lon="6.85339">
        <ele>2343.1763</ele>
        <time>2015-08-21T11:44:22Z</time>
      </trkpt>
      <trkpt lat="45.47105" lon="6.85344">
        <ele>2344.364</ele>
        <time>2015-08-21T11:44:32Z</time>
      </trkpt>
      <trkpt lat="45.47099" lon="6.85345">
        <ele>2344.364</ele>
        <time>2015-08-21T11:44:37Z</time>
      </trkpt>
      <trkpt lat="45.47094" lon="6.8535">
        <ele>2345.4995</ele>
        <time>2015-08-21T11:44:47Z</time>
      </trkpt>
      <trkpt lat="45.47091" lon="6.85353">
        <ele>2345.4995</ele>
        <time>2015-08-21T11:44:52Z</time>
      </trkpt>
      <trkpt lat="45.47086" lon="6.85357">
        <ele>2346.7568</ele>
        <time>2015-08-21T11:45:02Z</time>
      </trkpt>
      <trkpt lat="45.47083" lon="6.85361">
        <ele>2346.7568</ele>
        <time>2015-08-21T11:45:07Z</time>
      </trkpt>
      <trkpt lat="45.47076" lon="6.85362">
        <ele>2348.0955</ele>
        <time>2015-08-21T11:45:17Z</time>
      </trkpt>
      <trkpt lat="45.47074" lon="6.85364">
        <ele>2348.0955</ele>
        <time>2015-08-21T11:45:22Z</time>
      </trkpt>
      <trkpt lat="45.47065" lon="6.85373">
        <ele>2349.3765</ele>
        <time>2015-08-21T11:45:37Z</time>
      </trkpt>
      <trkpt lat="45.47063" lon="6.85374">
        <ele>2349.3765</ele>
        <time>2015-08-21T11:45:42Z</time>
      </trkpt>
      <trkpt lat="45.47056" lon="6.85382">
        <ele>2350.558</ele>
        <time>2015-08-21T11:45:52Z</time>
      </trkpt>
      <trkpt lat="45.47054" lon="6.85387">
        <ele>2350.558</ele>
        <time>2015-08-21T11:45:57Z</time>
      </trkpt>
      <trkpt lat="45.4705" lon="6.85394">
        <ele>2351.6162</ele>
        <time>2015-08-21T11:46:07Z</time>
      </trkpt>
      <trkpt lat="45.47046" lon="6.85397">
        <ele>2351.6162</ele>
        <time>2015-08-21T11:46:12Z</time>
      </trkpt>
      <trkpt lat="45.47038" lon="6.85404">
        <ele>2353.0334</ele>
        <time>2015-08-21T11:46:22Z</time>
      </trkpt>
      <trkpt lat="45.47036" lon="6.85409">
        <ele>2353.0334</ele>
        <time>2015-08-21T11:46:27Z</time>
      </trkpt>
      <trkpt lat="45.47033" lon="6.85412">
        <ele>2353.0334</ele>
        <time>2015-08-21T11:46:37Z</time>
      </trkpt>
      <trkpt lat="45.47031" lon="6.85414">
        <ele>2354.5933</ele>
        <time>2015-08-21T11:46:42Z</time>
      </trkpt>
      <trkpt lat="45.47025" lon="6.85426">
        <ele>2356.1233</ele>
        <time>2015-08-21T11:46:57Z</time>
      </trkpt>
      <trkpt lat="45.47024" lon="6.85432">
        <ele>2356.1233</ele>
        <time>2015-08-21T11:47:02Z</time>
      </trkpt>
      <trkpt lat="45.47018" lon="6.85448">
        <ele>2357.5217</ele>
        <time>2015-08-21T11:47:12Z</time>
      </trkpt>
      <trkpt lat="45.47016" lon="6.85447">
        <ele>2357.5217</ele>
        <time>2015-08-21T11:47:17Z</time>
      </trkpt>
      <trkpt lat="45.4701" lon="6.85448">
        <ele>2357.5217</ele>
        <time>2015-08-21T11:47:27Z</time>
      </trkpt>
      <trkpt lat="45.47008" lon="6.85454">
        <ele>2358.8967</ele>
        <time>2015-08-21T11:47:32Z</time>
      </trkpt>
      <trkpt lat="45.47002" lon="6.85458">
        <ele>2358.8967</ele>
        <time>2015-08-21T11:47:42Z</time>
      </trkpt>
      <trkpt lat="45.46999" lon="6.85459">
        <ele>2360.0889</ele>
        <time>2015-08-21T11:47:47Z</time>
      </trkpt>
      <trkpt lat="45.4699" lon="6.85463">
        <ele>2361.1672</ele>
        <time>2015-08-21T11:47:57Z</time>
      </trkpt>
      <trkpt lat="45.46986" lon="6.85464">
        <ele>2361.1672</ele>
        <time>2015-08-21T11:48:02Z</time>
      </trkpt>
      <trkpt lat="45.46979" lon="6.85466">
        <ele>2362.2832</ele>
        <time>2015-08-21T11:48:12Z</time>
      </trkpt>
      <trkpt lat="45.46978" lon="6.85467">
        <ele>2362.2832</ele>
        <time>2015-08-21T11:48:17Z</time>
      </trkpt>
      <trkpt lat="45.46973" lon="6.85468">
        <ele>2362.2832</ele>
        <time>2015-08-21T11:48:27Z</time>
      </trkpt>
      <trkpt lat="45.4697" lon="6.8547">
        <ele>2363.49</ele>
        <time>2015-08-21T11:48:32Z</time>
      </trkpt>
      <trkpt lat="45.46965" lon="6.85469">
        <ele>2363.49</ele>
        <time>2015-08-21T11:48:42Z</time>
      </trkpt>
      <trkpt lat="45.46963" lon="6.85468">
        <ele>2363.49</ele>
        <time>2015-08-21T11:48:47Z</time>
      </trkpt>
      <trkpt lat="45.46952" lon="6.85473">
        <ele>2364.7363</ele>
        <time>2015-08-21T11:49:02Z</time>
      </trkpt>
      <trkpt lat="45.46949" lon="6.85475">
        <ele>2364.7363</ele>
        <time>2015-08-21T11:49:07Z</time>
      </trkpt>
      <trkpt lat="45.46948" lon="6.85476">
        <ele>2364.7363</ele>
        <time>2015-08-21T11:49:17Z</time>
      </trkpt>
      <trkpt lat="45.46947" lon="6.85478">
        <ele>2364.7363</ele>
        <time>2015-08-21T11:49:22Z</time>
      </trkpt>
      <trkpt lat="45.4694" lon="6.85482">
        <ele>2366.2046</ele>
        <time>2015-08-21T11:49:32Z</time>
      </trkpt>
      <trkpt lat="45.46939" lon="6.85483">
        <ele>2366.2046</ele>
        <time>2015-08-21T11:49:37Z</time>
      </trkpt>
      <trkpt lat="45.46934" lon="6.8548">
        <ele>2366.2046</ele>
        <time>2015-08-21T11:49:47Z</time>
      </trkpt>
      <trkpt lat="45.46929" lon="6.85481">
        <ele>2367.9343</ele>
        <time>2015-08-21T11:49:52Z</time>
      </trkpt>
      <trkpt lat="45.46927" lon="6.85483">
        <ele>2367.9343</ele>
        <time>2015-08-21T11:50:02Z</time>
      </trkpt>
      <trkpt lat="45.46925" lon="6.85481">
        <ele>2367.9343</ele>
        <time>2015-08-21T11:50:07Z</time>
      </trkpt>
      <trkpt lat="45.4692" lon="6.85479">
        <ele>2369.6294</ele>
        <time>2015-08-21T11:50:17Z</time>
      </trkpt>
      <trkpt lat="45.46918" lon="6.8548">
        <ele>2369.6294</ele>
        <time>2015-08-21T11:50:22Z</time>
      </trkpt>
      <trkpt lat="45.46915" lon="6.85483">
        <ele>2369.6294</ele>
        <time>2015-08-21T11:50:32Z</time>
      </trkpt>
      <trkpt lat="45.46914" lon="6.85481">
        <ele>2369.6294</ele>
        <time>2015-08-21T11:50:37Z</time>
      </trkpt>
      <trkpt lat="45.46909" lon="6.85482">
        <ele>2371.7224</ele>
        <time>2015-08-21T11:50:52Z</time>
      </trkpt>
      <trkpt lat="45.46907" lon="6.85483">
        <ele>2371.7224</ele>
        <time>2015-08-21T11:50:57Z</time>
      </trkpt>
      <trkpt lat="45.46905" lon="6.8549">
        <ele>2371.7224</ele>
        <time>2015-08-21T11:51:07Z</time>
      </trkpt>
      <trkpt lat="45.46903" lon="6.85494">
        <ele>2374.0361</ele>
        <time>2015-08-21T11:51:12Z</time>
      </trkpt>
      <trkpt lat="45.46898" lon="6.85495">
        <ele>2374.0361</ele>
        <time>2015-08-21T11:51:22Z</time>
      </trkpt>
      <trkpt lat="45.46899" lon="6.85496">
        <ele>2374.0361</ele>
        <time>2015-08-21T11:51:27Z</time>
      </trkpt>
      <trkpt lat="45.46899" lon="6.85501">
        <ele>2376.2043</ele>
        <time>2015-08-21T11:51:37Z</time>
      </trkpt>
      <trkpt lat="45.46898" lon="6.85502">
        <ele>2376.2043</ele>
        <time>2015-08-21T11:51:42Z</time>
      </trkpt>
      <trkpt lat="45.46893" lon="6.85504">
        <ele>2376.2043</ele>
        <time>2015-08-21T11:51:52Z</time>
      </trkpt>
      <trkpt lat="45.46891" lon="6.85505">
        <ele>2376.2043</ele>
        <time>2015-08-21T11:51:57Z</time>
      </trkpt>
      <trkpt lat="45.46889" lon="6.85507">
        <ele>2378.5225</ele>
        <time>2015-08-21T11:52:07Z</time>
      </trkpt>
      <trkpt lat="45.46889" lon="6.85508">
        <ele>2378.5225</ele>
        <time>2015-08-21T11:52:12Z</time>
      </trkpt>
      <trkpt lat="45.46885" lon="6.85513">
        <ele>2378.5225</ele>
        <time>2015-08-21T11:52:22Z</time>
      </trkpt>
      <trkpt lat="45.46884" lon="6.85516">
        <ele>2378.5225</ele>
        <time>2015-08-21T11:52:27Z</time>
      </trkpt>
      <trkpt lat="45.46877" lon="6.8552">
        <ele>2380.86</ele>
        <time>2015-08-21T11:52:42Z</time>
      </trkpt>
      <trkpt lat="45.46876" lon="6.85521">
        <ele>2380.86</ele>
        <time>2015-08-21T11:52:47Z</time>
      </trkpt>
      <trkpt lat="45.4687" lon="6.85525">
        <ele>2380.86</ele>
        <time>2015-08-21T11:52:57Z</time>
      </trkpt>
      <trkpt lat="45.4687" lon="6.85525">
        <ele>2380.86</ele>
        <time>2015-08-21T11:53:02Z</time>
      </trkpt>
      <trkpt lat="45.4687" lon="6.85526">
        <ele>2380.86</ele>
        <time>2015-08-21T11:53:12Z</time>
      </trkpt>
      <trkpt lat="45.46866" lon="6.85533">
        <ele>2383.4856</ele>
        <time>2015-08-21T11:53:17Z</time>
      </trkpt>
      <trkpt lat="45.46863" lon="6.85534">
        <ele>2383.4856</ele>
        <time>2015-08-21T11:53:27Z</time>
      </trkpt>
      <trkpt lat="45.46863" lon="6.85534">
        <ele>2383.4856</ele>
        <time>2015-08-21T11:53:32Z</time>
      </trkpt>
      <trkpt lat="45.46861" lon="6.85527">
        <ele>2386.2722</ele>
        <time>2015-08-21T11:53:42Z</time>
      </trkpt>
      <trkpt lat="45.46859" lon="6.85527">
        <ele>2386.2722</ele>
        <time>2015-08-21T11:53:47Z</time>
      </trkpt>
      <trkpt lat="45.46856" lon="6.85523">
        <ele>2386.2722</ele>
        <time>2015-08-21T11:53:57Z</time>
      </trkpt>
      <trkpt lat="45.46857" lon="6.8552">
        <ele>2386.2722</ele>
        <time>2015-08-21T11:54:02Z</time>
      </trkpt>
      <trkpt lat="45.46854" lon="6.85516">
        <ele>2388.9873</ele>
        <time>2015-08-21T11:54:12Z</time>
      </trkpt>
      <trkpt lat="45.46853" lon="6.85517">
        <ele>2388.9873</ele>
        <time>2015-08-21T11:54:17Z</time>
      </trkpt>
      <trkpt lat="45.46852" lon="6.85511">
        <ele>2388.9873</ele>
        <time>2015-08-21T11:54:27Z</time>
      </trkpt>
      <trkpt lat="45.4685" lon="6.85507">
        <ele>2388.9873</ele>
        <time>2015-08-21T11:54:32Z</time>
      </trkpt>
      <trkpt lat="45.4685" lon="6.85507">
        <ele>2388.9873</ele>
        <time>2015-08-21T11:54:47Z</time>
      </trkpt>
      <trkpt lat="45.46856" lon="6.85516">
        <ele>2391.66</ele>
        <time>2015-08-21T11:54:52Z</time>
      </trkpt>
      <trkpt lat="45.46855" lon="6.85514">
        <ele>2391.66</ele>
        <time>2015-08-21T11:55:02Z</time>
      </trkpt>
      <trkpt lat="45.46852" lon="6.85509">
        <ele>2391.66</ele>
        <time>2015-08-21T11:55:07Z</time>
      </trkpt>
      <trkpt lat="45.46846" lon="6.85496">
        <ele>2394.2603</ele>
        <time>2015-08-21T11:55:17Z</time>
      </trkpt>
      <trkpt lat="45.46844" lon="6.85496">
        <ele>2394.2603</ele>
        <time>2015-08-21T11:55:22Z</time>
      </trkpt>
      <trkpt lat="45.46841" lon="6.85494">
        <ele>2394.2603</ele>
        <time>2015-08-21T11:55:32Z</time>
      </trkpt>
      <trkpt lat="45.46838" lon="6.85495">
        <ele>2394.2603</ele>
        <time>2015-08-21T11:55:37Z</time>
      </trkpt>
      <trkpt lat="45.46834" lon="6.85496">
        <ele>2397.2075</ele>
        <time>2015-08-21T11:55:47Z</time>
      </trkpt>
      <trkpt lat="45.46832" lon="6.85495">
        <ele>2397.2075</ele>
        <time>2015-08-21T11:55:52Z</time>
      </trkpt>
      <trkpt lat="45.46828" lon="6.85489">
        <ele>2397.2075</ele>
        <time>2015-08-21T11:56:02Z</time>
      </trkpt>
      <trkpt lat="45.46823" lon="6.85486">
        <ele>2399.9956</ele>
        <time>2015-08-21T11:56:07Z</time>
      </trkpt>
      <trkpt lat="45.4682" lon="6.85484">
        <ele>2399.9956</ele>
        <time>2015-08-21T11:56:17Z</time>
      </trkpt>
      <trkpt lat="45.46818" lon="6.85484">
        <ele>2399.9956</ele>
        <time>2015-08-21T11:56:22Z</time>
      </trkpt>
      <trkpt lat="45.46802" lon="6.85489">
        <ele>2402.358</ele>
        <time>2015-08-21T11:56:37Z</time>
      </trkpt>
      <trkpt lat="45.46797" lon="6.8549">
        <ele>2402.358</ele>
        <time>2015-08-21T11:56:42Z</time>
      </trkpt>
      <trkpt lat="45.4679" lon="6.8549">
        <ele>2404.424</ele>
        <time>2015-08-21T11:56:52Z</time>
      </trkpt>
      <trkpt lat="45.46785" lon="6.8549">
        <ele>2404.424</ele>
        <time>2015-08-21T11:56:57Z</time>
      </trkpt>
      <trkpt lat="45.46777" lon="6.85499">
        <ele>2406.2998</ele>
        <time>2015-08-21T11:57:07Z</time>
      </trkpt>
      <trkpt lat="45.46781" lon="6.85499">
        <ele>2406.2998</ele>
        <time>2015-08-21T11:57:12Z</time>
      </trkpt>
      <trkpt lat="45.4678" lon="6.85503">
        <ele>2406.2998</ele>
        <time>2015-08-21T11:57:22Z</time>
      </trkpt>
      <trkpt lat="45.46775" lon="6.85509">
        <ele>2408.3005</ele>
        <time>2015-08-21T11:57:27Z</time>
      </trkpt>
      <trkpt lat="45.4677" lon="6.85514">
        <ele>2408.3005</ele>
        <time>2015-08-21T11:57:37Z</time>
      </trkpt>
      <trkpt lat="45.46761" lon="6.8552">
        <ele>2409.9546</ele>
        <time>2015-08-21T11:57:42Z</time>
      </trkpt>
      <trkpt lat="45.4675" lon="6.85523">
        <ele>2411.128</ele>
        <time>2015-08-21T11:57:52Z</time>
      </trkpt>
      <trkpt lat="45.46746" lon="6.85525">
        <ele>2411.128</ele>
        <time>2015-08-21T11:57:57Z</time>
      </trkpt>
      <trkpt lat="45.46742" lon="6.85533">
        <ele>2411.6702</ele>
        <time>2015-08-21T11:58:07Z</time>
      </trkpt>
      <trkpt lat="45.46741" lon="6.85538">
        <ele>2411.6702</ele>
        <time>2015-08-21T11:58:12Z</time>
      </trkpt>
      <trkpt lat="45.46733" lon="6.85552">
        <ele>2411.7595</ele>
        <time>2015-08-21T11:58:22Z</time>
      </trkpt>
      <trkpt lat="45.46728" lon="6.85551">
        <ele>2411.7595</ele>
        <time>2015-08-21T11:58:27Z</time>
      </trkpt>
      <trkpt lat="45.46719" lon="6.85556">
        <ele>2411.3042</ele>
        <time>2015-08-21T11:58:37Z</time>
      </trkpt>
      <trkpt lat="45.46715" lon="6.8556">
        <ele>2411.3042</ele>
        <time>2015-08-21T11:58:42Z</time>
      </trkpt>
      <trkpt lat="45.46702" lon="6.85568">
        <ele>2410.537</ele>
        <time>2015-08-21T11:58:57Z</time>
      </trkpt>
      <trkpt lat="45.467" lon="6.85569">
        <ele>2410.537</ele>
        <time>2015-08-21T11:59:02Z</time>
      </trkpt>
      <trkpt lat="45.46693" lon="6.85576">
        <ele>2409.906</ele>
        <time>2015-08-21T11:59:12Z</time>
      </trkpt>
      <trkpt lat="45.46689" lon="6.85578">
        <ele>2409.906</ele>
        <time>2015-08-21T11:59:17Z</time>
      </trkpt>
      <trkpt lat="45.46683" lon="6.85584">
        <ele>2409.5225</ele>
        <time>2015-08-21T11:59:27Z</time>
      </trkpt>
      <trkpt lat="45.46677" lon="6.85586">
        <ele>2409.5225</ele>
        <time>2015-08-21T11:59:32Z</time>
      </trkpt>
      <trkpt lat="45.46674" lon="6.85589">
        <ele>2409.273</ele>
        <time>2015-08-21T11:59:42Z</time>
      </trkpt>
      <trkpt lat="45.46671" lon="6.8559">
        <ele>2409.273</ele>
        <time>2015-08-21T11:59:47Z</time>
      </trkpt>
      <trkpt lat="45.46664" lon="6.85592">
        <ele>2409.1387</ele>
        <time>2015-08-21T11:59:57Z</time>
      </trkpt>
      <trkpt lat="45.46661" lon="6.85593">
        <ele>2409.1387</ele>
        <time>2015-08-21T12:00:02Z</time>
      </trkpt>
      <trkpt lat="45.46655" lon="6.85593">
        <ele>2409.2021</ele>
        <time>2015-08-21T12:00:12Z</time>
      </trkpt>
      <trkpt lat="45.46652" lon="6.85592">
        <ele>2409.2021</ele>
        <time>2015-08-21T12:00:17Z</time>
      </trkpt>
      <trkpt lat="45.46642" lon="6.85591">
        <ele>2409.7996</ele>
        <time>2015-08-21T12:00:32Z</time>
      </trkpt>
      <trkpt lat="45.46641" lon="6.85589">
        <ele>2409.7996</ele>
        <time>2015-08-21T12:00:37Z</time>
      </trkpt>
      <trkpt lat="45.46634" lon="6.85589">
        <ele>2409.7996</ele>
        <time>2015-08-21T12:00:47Z</time>
      </trkpt>
      <trkpt lat="45.46631" lon="6.85588">
        <ele>2411.0815</ele>
        <time>2015-08-21T12:00:52Z</time>
      </trkpt>
      <trkpt lat="45.46628" lon="6.85592">
        <ele>2411.0815</ele>
        <time>2015-08-21T12:01:02Z</time>
      </trkpt>
      <trkpt lat="45.46627" lon="6.85593">
        <ele>2411.0815</ele>
        <time>2015-08-21T12:01:07Z</time>
      </trkpt>
      <trkpt lat="45.46623" lon="6.85591">
        <ele>2412.1052</ele>
        <time>2015-08-21T12:01:17Z</time>
      </trkpt>
      <trkpt lat="45.4662" lon="6.8559">
        <ele>2412.1052</ele>
        <time>2015-08-21T12:01:22Z</time>
      </trkpt>
      <trkpt lat="45.46614" lon="6.85587">
        <ele>2412.1052</ele>
        <time>2015-08-21T12:01:32Z</time>
      </trkpt>
      <trkpt lat="45.4661" lon="6.85585">
        <ele>2413.2224</ele>
        <time>2015-08-21T12:01:37Z</time>
      </trkpt>
      <trkpt lat="45.46605" lon="6.85586">
        <ele>2413.2224</ele>
        <time>2015-08-21T12:01:47Z</time>
      </trkpt>
      <trkpt lat="45.46604" lon="6.85586">
        <ele>2413.2224</ele>
        <time>2015-08-21T12:01:52Z</time>
      </trkpt>
      <trkpt lat="45.46599" lon="6.85585">
        <ele>2414.8164</ele>
        <time>2015-08-21T12:02:02Z</time>
      </trkpt>
      <trkpt lat="45.46597" lon="6.85582">
        <ele>2414.8164</ele>
        <time>2015-08-21T12:02:07Z</time>
      </trkpt>
      <trkpt lat="45.46593" lon="6.85583">
        <ele>2414.8164</ele>
        <time>2015-08-21T12:02:17Z</time>
      </trkpt>
      <trkpt lat="45.46593" lon="6.85584">
        <ele>2414.8164</ele>
        <time>2015-08-21T12:02:22Z</time>
      </trkpt>
      <trkpt lat="45.46588" lon="6.85587">
        <ele>2416.8088</ele>
        <time>2015-08-21T12:02:32Z</time>
      </trkpt>
      <trkpt lat="45.46587" lon="6.85587">
        <ele>2416.8088</ele>
        <time>2015-08-21T12:02:37Z</time>
      </trkpt>
      <trkpt lat="45.46578" lon="6.85582">
        <ele>2419.3853</ele>
        <time>2015-08-21T12:02:52Z</time>
      </trkpt>
      <trkpt lat="45.46577" lon="6.85581">
        <ele>2419.3853</ele>
        <time>2015-08-21T12:02:57Z</time>
      </trkpt>
      <trkpt lat="45.46575" lon="6.8558">
        <ele>2419.3853</ele>
        <time>2015-08-21T12:03:07Z</time>
      </trkpt>
      <trkpt lat="45.46573" lon="6.85578">
        <ele>2419.3853</ele>
        <time>2015-08-21T12:03:12Z</time>
      </trkpt>
      <trkpt lat="45.46565" lon="6.85578">
        <ele>2422.1392</ele>
        <time>2015-08-21T12:03:22Z</time>
      </trkpt>
      <trkpt lat="45.46564" lon="6.85578">
        <ele>2422.1392</ele>
        <time>2015-08-21T12:03:27Z</time>
      </trkpt>
      <trkpt lat="45.46561" lon="6.85577">
        <ele>2422.1392</ele>
        <time>2015-08-21T12:03:37Z</time>
      </trkpt>
      <trkpt lat="45.46561" lon="6.85576">
        <ele>2422.1392</ele>
        <time>2015-08-21T12:03:42Z</time>
      </trkpt>
      <trkpt lat="45.46554" lon="6.85577">
        <ele>2424.737</ele>
        <time>2015-08-21T12:03:52Z</time>
      </trkpt>
      <trkpt lat="45.46552" lon="6.85577">
        <ele>2424.737</ele>
        <time>2015-08-21T12:03:57Z</time>
      </trkpt>
      <trkpt lat="45.46551" lon="6.85577">
        <ele>2424.737</ele>
        <time>2015-08-21T12:04:07Z</time>
      </trkpt>
      <trkpt lat="45.4655" lon="6.85578">
        <ele>2424.737</ele>
        <time>2015-08-21T12:04:12Z</time>
      </trkpt>
      <trkpt lat="45.46546" lon="6.85579">
        <ele>2427.3457</ele>
        <time>2015-08-21T12:04:22Z</time>
      </trkpt>
      <trkpt lat="45.46543" lon="6.85576">
        <ele>2427.3457</ele>
        <time>2015-08-21T12:04:27Z</time>
      </trkpt>
      <trkpt lat="45.46542" lon="6.85574">
        <ele>2427.3457</ele>
        <time>2015-08-21T12:04:37Z</time>
      </trkpt>
      <trkpt lat="45.46539" lon="6.85575">
        <ele>2427.3457</ele>
        <time>2015-08-21T12:04:42Z</time>
      </trkpt>
      <trkpt lat="45.46531" lon="6.85581">
        <ele>2429.8025</ele>
        <time>2015-08-21T12:04:57Z</time>
      </trkpt>
      <trkpt lat="45.4653" lon="6.85581">
        <ele>2429.8025</ele>
        <time>2015-08-21T12:05:02Z</time>
      </trkpt>
      <trkpt lat="45.46527" lon="6.8558">
        <ele>2429.8025</ele>
        <time>2015-08-21T12:05:12Z</time>
      </trkpt>
      <trkpt lat="45.46525" lon="6.85579">
        <ele>2429.8025</ele>
        <time>2015-08-21T12:05:17Z</time>
      </trkpt>
      <trkpt lat="45.46522" lon="6.85578">
        <ele>2432.39</ele>
        <time>2015-08-21T12:05:27Z</time>
      </trkpt>
      <trkpt lat="45.46522" lon="6.85581">
        <ele>2432.39</ele>
        <time>2015-08-21T12:05:32Z</time>
      </trkpt>
      <trkpt lat="45.46517" lon="6.85584">
        <ele>2432.39</ele>
        <time>2015-08-21T12:05:42Z</time>
      </trkpt>
      <trkpt lat="45.46516" lon="6.85585">
        <ele>2434.72</ele>
        <time>2015-08-21T12:05:47Z</time>
      </trkpt>
      <trkpt lat="45.4651" lon="6.8559">
        <ele>2434.72</ele>
        <time>2015-08-21T12:05:57Z</time>
      </trkpt>
      <trkpt lat="45.46509" lon="6.85591">
        <ele>2434.72</ele>
        <time>2015-08-21T12:06:02Z</time>
      </trkpt>
      <trkpt lat="45.46505" lon="6.8559">
        <ele>2436.8672</ele>
        <time>2015-08-21T12:06:12Z</time>
      </trkpt>
      <trkpt lat="45.46502" lon="6.8559">
        <ele>2436.8672</ele>
        <time>2015-08-21T12:06:17Z</time>
      </trkpt>
      <trkpt lat="45.46497" lon="6.8559">
        <ele>2436.8672</ele>
        <time>2015-08-21T12:06:27Z</time>
      </trkpt>
      <trkpt lat="45.46493" lon="6.85587">
        <ele>2439.0015</ele>
        <time>2015-08-21T12:06:32Z</time>
      </trkpt>
      <trkpt lat="45.46487" lon="6.85588">
        <ele>2439.0015</ele>
        <time>2015-08-21T12:06:42Z</time>
      </trkpt>
      <trkpt lat="45.46486" lon="6.85589">
        <ele>2439.0015</ele>
        <time>2015-08-21T12:06:47Z</time>
      </trkpt>
      <trkpt lat="45.46483" lon="6.8559">
        <ele>2441.5688</ele>
        <time>2015-08-21T12:06:57Z</time>
      </trkpt>
      <trkpt lat="45.46482" lon="6.85588">
        <ele>2441.5688</ele>
        <time>2015-08-21T12:07:02Z</time>
      </trkpt>
      <trkpt lat="45.46477" lon="6.85591">
        <ele>2441.5688</ele>
        <time>2015-08-21T12:07:12Z</time>
      </trkpt>
      <trkpt lat="45.46476" lon="6.85592">
        <ele>2444.246</ele>
        <time>2015-08-21T12:07:17Z</time>
      </trkpt>
      <trkpt lat="45.46472" lon="6.85592">
        <ele>2444.246</ele>
        <time>2015-08-21T12:07:27Z</time>
      </trkpt>
      <trkpt lat="45.4647" lon="6.85589">
        <ele>2444.246</ele>
        <time>2015-08-21T12:07:32Z</time>
      </trkpt>
      <trkpt lat="45.46472" lon="6.85591">
        <ele>2446.8923</ele>
        <time>2015-08-21T12:07:47Z</time>
      </trkpt>
      <trkpt lat="45.46472" lon="6.85595">
        <ele>2446.8923</ele>
        <time>2015-08-21T12:07:52Z</time>
      </trkpt>
      <trkpt lat="45.46466" lon="6.85596">
        <ele>2446.8923</ele>
        <time>2015-08-21T12:08:02Z</time>
      </trkpt>
      <trkpt lat="45.46463" lon="6.85595">
        <ele>2449.6655</ele>
        <time>2015-08-21T12:08:07Z</time>
      </trkpt>
      <trkpt lat="45.46457" lon="6.85594">
        <ele>2449.6655</ele>
        <time>2015-08-21T12:08:17Z</time>
      </trkpt>
      <trkpt lat="45.46453" lon="6.85595">
        <ele>2452.5378</ele>
        <time>2015-08-21T12:08:22Z</time>
      </trkpt>
      <trkpt lat="45.46447" lon="6.85595">
        <ele>2452.5378</ele>
        <time>2015-08-21T12:08:32Z</time>
      </trkpt>
      <trkpt lat="45.46446" lon="6.85593">
        <ele>2452.5378</ele>
        <time>2015-08-21T12:08:37Z</time>
      </trkpt>
      <trkpt lat="45.46444" lon="6.8559">
        <ele>2455.4846</ele>
        <time>2015-08-21T12:08:47Z</time>
      </trkpt>
      <trkpt lat="45.4644" lon="6.85591">
        <ele>2455.4846</ele>
        <time>2015-08-21T12:08:52Z</time>
      </trkpt>
      <trkpt lat="45.46437" lon="6.85592">
        <ele>2455.4846</ele>
        <time>2015-08-21T12:09:02Z</time>
      </trkpt>
      <trkpt lat="45.46434" lon="6.85591">
        <ele>2458.208</ele>
        <time>2015-08-21T12:09:07Z</time>
      </trkpt>
      <trkpt lat="45.46431" lon="6.85591">
        <ele>2458.208</ele>
        <time>2015-08-21T12:09:17Z</time>
      </trkpt>
      <trkpt lat="45.46429" lon="6.85593">
        <ele>2458.208</ele>
        <time>2015-08-21T12:09:22Z</time>
      </trkpt>
      <trkpt lat="45.46424" lon="6.85593">
        <ele>2460.88</ele>
        <time>2015-08-21T12:09:32Z</time>
      </trkpt>
      <trkpt lat="45.46422" lon="6.85593">
        <ele>2460.88</ele>
        <time>2015-08-21T12:09:37Z</time>
      </trkpt>
      <trkpt lat="45.4642" lon="6.85593">
        <ele>2460.88</ele>
        <time>2015-08-21T12:09:47Z</time>
      </trkpt>
      <trkpt lat="45.46419" lon="6.85592">
        <ele>2460.88</ele>
        <time>2015-08-21T12:09:52Z</time>
      </trkpt>
      <trkpt lat="45.46413" lon="6.85594">
        <ele>2463.2708</ele>
        <time>2015-08-21T12:10:02Z</time>
      </trkpt>
      <trkpt lat="45.4641" lon="6.85592">
        <ele>2463.2708</ele>
        <time>2015-08-21T12:10:07Z</time>
      </trkpt>
      <trkpt lat="45.46405" lon="6.85591">
        <ele>2463.2708</ele>
        <time>2015-08-21T12:10:17Z</time>
      </trkpt>
      <trkpt lat="45.46404" lon="6.85591">
        <ele>2465.8313</ele>
        <time>2015-08-21T12:10:22Z</time>
      </trkpt>
      <trkpt lat="45.46405" lon="6.8559">
        <ele>2465.8313</ele>
        <time>2015-08-21T12:10:32Z</time>
      </trkpt>
      <trkpt lat="45.46403" lon="6.85589">
        <ele>2465.8313</ele>
        <time>2015-08-21T12:10:37Z</time>
      </trkpt>
      <trkpt lat="45.46394" lon="6.85583">
        <ele>2468.4893</ele>
        <time>2015-08-21T12:10:52Z</time>
      </trkpt>
      <trkpt lat="45.46391" lon="6.8558">
        <ele>2468.4893</ele>
        <time>2015-08-21T12:10:57Z</time>
      </trkpt>
      <trkpt lat="45.46386" lon="6.85576">
        <ele>2468.4893</ele>
        <time>2015-08-21T12:11:07Z</time>
      </trkpt>
      <trkpt lat="45.46385" lon="6.85572">
        <ele>2471.0764</ele>
        <time>2015-08-21T12:11:12Z</time>
      </trkpt>
      <trkpt lat="45.46378" lon="6.85571">
        <ele>2471.0764</ele>
        <time>2015-08-21T12:11:22Z</time>
      </trkpt>
      <trkpt lat="45.46377" lon="6.85567">
        <ele>2473.725</ele>
        <time>2015-08-21T12:11:27Z</time>
      </trkpt>
      <trkpt lat="45.46374" lon="6.85564">
        <ele>2473.725</ele>
        <time>2015-08-21T12:11:37Z</time>
      </trkpt>
      <trkpt lat="45.4637" lon="6.85562">
        <ele>2473.725</ele>
        <time>2015-08-21T12:11:42Z</time>
      </trkpt>
      <trkpt lat="45.46365" lon="6.85559">
        <ele>2476.2847</ele>
        <time>2015-08-21T12:11:52Z</time>
      </trkpt>
      <trkpt lat="45.46364" lon="6.85558">
        <ele>2476.2847</ele>
        <time>2015-08-21T12:11:57Z</time>
      </trkpt>
      <trkpt lat="45.46359" lon="6.85553">
        <ele>2476.2847</ele>
        <time>2015-08-21T12:12:07Z</time>
      </trkpt>
      <trkpt lat="45.46356" lon="6.85552">
        <ele>2478.3123</ele>
        <time>2015-08-21T12:12:12Z</time>
      </trkpt>
      <trkpt lat="45.4635" lon="6.85548">
        <ele>2478.3123</ele>
        <time>2015-08-21T12:12:22Z</time>
      </trkpt>
      <trkpt lat="45.46347" lon="6.85546">
        <ele>2480.265</ele>
        <time>2015-08-21T12:12:27Z</time>
      </trkpt>
      <trkpt lat="45.4634" lon="6.85546">
        <ele>2480.265</ele>
        <time>2015-08-21T12:12:37Z</time>
      </trkpt>
      <trkpt lat="45.46339" lon="6.85545">
        <ele>2480.265</ele>
        <time>2015-08-21T12:12:42Z</time>
      </trkpt>
      <trkpt lat="45.46331" lon="6.85543">
        <ele>2482.4648</ele>
        <time>2015-08-21T12:12:52Z</time>
      </trkpt>
      <trkpt lat="45.4633" lon="6.85543">
        <ele>2482.4648</ele>
        <time>2015-08-21T12:12:57Z</time>
      </trkpt>
      <trkpt lat="45.46324" lon="6.85542">
        <ele>2482.4648</ele>
        <time>2015-08-21T12:13:07Z</time>
      </trkpt>
      <trkpt lat="45.46323" lon="6.8554">
        <ele>2484.6335</ele>
        <time>2015-08-21T12:13:12Z</time>
      </trkpt>
      <trkpt lat="45.46317" lon="6.8554">
        <ele>2484.6335</ele>
        <time>2015-08-21T12:13:27Z</time>
      </trkpt>
      <trkpt lat="45.46314" lon="6.8554">
        <ele>2484.6335</ele>
        <time>2015-08-21T12:13:32Z</time>
      </trkpt>
      <trkpt lat="45.46311" lon="6.85542">
        <ele>2486.9888</ele>
        <time>2015-08-21T12:13:42Z</time>
      </trkpt>
      <trkpt lat="45.4631" lon="6.85542">
        <ele>2486.9888</ele>
        <time>2015-08-21T12:13:47Z</time>
      </trkpt>
      <trkpt lat="45.46302" lon="6.85543">
        <ele>2489.17</ele>
        <time>2015-08-21T12:13:57Z</time>
      </trkpt>
      <trkpt lat="45.46299" lon="6.85542">
        <ele>2489.17</ele>
        <time>2015-08-21T12:14:02Z</time>
      </trkpt>
      <trkpt lat="45.46296" lon="6.85547">
        <ele>2489.17</ele>
        <time>2015-08-21T12:14:12Z</time>
      </trkpt>
      <trkpt lat="45.46291" lon="6.85545">
        <ele>2491.5208</ele>
        <time>2015-08-21T12:14:17Z</time>
      </trkpt>
      <trkpt lat="45.46286" lon="6.85546">
        <ele>2491.5208</ele>
        <time>2015-08-21T12:14:27Z</time>
      </trkpt>
      <trkpt lat="45.46286" lon="6.85547">
        <ele>2491.5208</ele>
        <time>2015-08-21T12:14:32Z</time>
      </trkpt>
      <trkpt lat="45.46282" lon="6.85546">
        <ele>2493.826</ele>
        <time>2015-08-21T12:14:42Z</time>
      </trkpt>
      <trkpt lat="45.46281" lon="6.85545">
        <ele>2493.826</ele>
        <time>2015-08-21T12:14:47Z</time>
      </trkpt>
      <trkpt lat="45.46278" lon="6.85544">
        <ele>2493.826</ele>
        <time>2015-08-21T12:14:57Z</time>
      </trkpt>
      <trkpt lat="45.46273" lon="6.85544">
        <ele>2495.7422</ele>
        <time>2015-08-21T12:15:02Z</time>
      </trkpt>
      <trkpt lat="45.46266" lon="6.85543">
        <ele>2495.7422</ele>
        <time>2015-08-21T12:15:17Z</time>
      </trkpt>
      <trkpt lat="45.46261" lon="6.85544">
        <ele>2497.3418</ele>
        <time>2015-08-21T12:15:22Z</time>
      </trkpt>
      <trkpt lat="45.46253" lon="6.85546">
        <ele>2497.3418</ele>
        <time>2015-08-21T12:15:32Z</time>
      </trkpt>
      <trkpt lat="45.4625" lon="6.85547">
        <ele>2498.6924</ele>
        <time>2015-08-21T12:15:37Z</time>
      </trkpt>
      <trkpt lat="45.46242" lon="6.85547">
        <ele>2498.6924</ele>
        <time>2015-08-21T12:15:47Z</time>
      </trkpt>
      <trkpt lat="45.46238" lon="6.85545">
        <ele>2500.0735</ele>
        <time>2015-08-21T12:15:52Z</time>
      </trkpt>
      <trkpt lat="45.46235" lon="6.85544">
        <ele>2500.0735</ele>
        <time>2015-08-21T12:16:02Z</time>
      </trkpt>
      <trkpt lat="45.46231" lon="6.85546">
        <ele>2500.0735</ele>
        <time>2015-08-21T12:16:07Z</time>
      </trkpt>
      <trkpt lat="45.46226" lon="6.85548">
        <ele>2501.4565</ele>
        <time>2015-08-21T12:16:17Z</time>
      </trkpt>
      <trkpt lat="45.46222" lon="6.85549">
        <ele>2501.4565</ele>
        <time>2015-08-21T12:16:22Z</time>
      </trkpt>
      <trkpt lat="45.46217" lon="6.85552">
        <ele>2501.4565</ele>
        <time>2015-08-21T12:16:32Z</time>
      </trkpt>
      <trkpt lat="45.46213" lon="6.85553">
        <ele>2502.2808</ele>
        <time>2015-08-21T12:16:37Z</time>
      </trkpt>
      <trkpt lat="45.46208" lon="6.85558">
        <ele>2502.2808</ele>
        <time>2015-08-21T12:16:47Z</time>
      </trkpt>
      <trkpt lat="45.46208" lon="6.85561">
        <ele>2502.2808</ele>
        <time>2015-08-21T12:16:52Z</time>
      </trkpt>
      <trkpt lat="45.46198" lon="6.85566">
        <ele>2502.9517</ele>
        <time>2015-08-21T12:17:02Z</time>
      </trkpt>
      <trkpt lat="45.46192" lon="6.85567">
        <ele>2502.9517</ele>
        <time>2015-08-21T12:17:07Z</time>
      </trkpt>
      <trkpt lat="45.46184" lon="6.85572">
        <ele>2503.8586</ele>
        <time>2015-08-21T12:17:17Z</time>
      </trkpt>
      <trkpt lat="45.46182" lon="6.85575">
        <ele>2503.8586</ele>
        <time>2015-08-21T12:17:22Z</time>
      </trkpt>
      <trkpt lat="45.46177" lon="6.85579">
        <ele>2503.8586</ele>
        <time>2015-08-21T12:17:32Z</time>
      </trkpt>
      <trkpt lat="45.46174" lon="6.85581">
        <ele>2505.2043</ele>
        <time>2015-08-21T12:17:37Z</time>
      </trkpt>
      <trkpt lat="45.46167" lon="6.85588">
        <ele>2506.5837</ele>
        <time>2015-08-21T12:17:47Z</time>
      </trkpt>
      <trkpt lat="45.46163" lon="6.8559">
        <ele>2506.5837</ele>
        <time>2015-08-21T12:17:52Z</time>
      </trkpt>
      <trkpt lat="45.46159" lon="6.85596">
        <ele>2507.838</ele>
        <time>2015-08-21T12:18:07Z</time>
      </trkpt>
      <trkpt lat="45.46158" lon="6.85593">
        <ele>2507.838</ele>
        <time>2015-08-21T12:18:12Z</time>
      </trkpt>
      <trkpt lat="45.46158" lon="6.8559">
        <ele>2507.838</ele>
        <time>2015-08-21T12:18:22Z</time>
      </trkpt>
      <trkpt lat="45.46158" lon="6.85592">
        <ele>2507.838</ele>
        <time>2015-08-21T12:18:27Z</time>
      </trkpt>
      <trkpt lat="45.46157" lon="6.85593">
        <ele>2507.838</ele>
        <time>2015-08-21T12:18:37Z</time>
      </trkpt>
      <trkpt lat="45.46155" lon="6.85597">
        <ele>2509.4248</ele>
        <time>2015-08-21T12:18:52Z</time>
      </trkpt>
      <trkpt lat="45.46153" lon="6.856">
        <ele>2509.4248</ele>
        <time>2015-08-21T12:18:57Z</time>
      </trkpt>
      <trkpt lat="45.46151" lon="6.85609">
        <ele>2511.3508</ele>
        <time>2015-08-21T12:19:07Z</time>
      </trkpt>
      <trkpt lat="45.46151" lon="6.8561">
        <ele>2511.3508</ele>
        <time>2015-08-21T12:19:12Z</time>
      </trkpt>
      <trkpt lat="45.46148" lon="6.85618">
        <ele>2511.3508</ele>
        <time>2015-08-21T12:19:22Z</time>
      </trkpt>
      <trkpt lat="45.46146" lon="6.8562">
        <ele>2513.4177</ele>
        <time>2015-08-21T12:19:27Z</time>
      </trkpt>
      <trkpt lat="45.46143" lon="6.85624">
        <ele>2513.4177</ele>
        <time>2015-08-21T12:19:37Z</time>
      </trkpt>
      <trkpt lat="45.46139" lon="6.85633">
        <ele>2515.7886</ele>
        <time>2015-08-21T12:19:42Z</time>
      </trkpt>
      <trkpt lat="45.46135" lon="6.85641">
        <ele>2515.7886</ele>
        <time>2015-08-21T12:19:52Z</time>
      </trkpt>
      <trkpt lat="45.46134" lon="6.85648">
        <ele>2518.0364</ele>
        <time>2015-08-21T12:19:57Z</time>
      </trkpt>
      <trkpt lat="45.46131" lon="6.85653">
        <ele>2518.0364</ele>
        <time>2015-08-21T12:20:12Z</time>
      </trkpt>
      <trkpt lat="45.46127" lon="6.85659">
        <ele>2520.1697</ele>
        <time>2015-08-21T12:20:17Z</time>
      </trkpt>
      <trkpt lat="45.46122" lon="6.85665">
        <ele>2520.1697</ele>
        <time>2015-08-21T12:20:27Z</time>
      </trkpt>
      <trkpt lat="45.46118" lon="6.85666">
        <ele>2521.8218</ele>
        <time>2015-08-21T12:20:32Z</time>
      </trkpt>
      <trkpt lat="45.46112" lon="6.85663">
        <ele>2521.8218</ele>
        <time>2015-08-21T12:20:42Z</time>
      </trkpt>
      <trkpt lat="45.46111" lon="6.85667">
        <ele>2522.885</ele>
        <time>2015-08-21T12:20:47Z</time>
      </trkpt>
      <trkpt lat="45.46108" lon="6.85667">
        <ele>2522.885</ele>
        <time>2015-08-21T12:20:57Z</time>
      </trkpt>
      <trkpt lat="45.46103" lon="6.85667">
        <ele>2522.885</ele>
        <time>2015-08-21T12:21:02Z</time>
      </trkpt>
      <trkpt lat="45.46095" lon="6.85661">
        <ele>2523.218</ele>
        <time>2015-08-21T12:21:12Z</time>
      </trkpt>
      <trkpt lat="45.46092" lon="6.85662">
        <ele>2523.218</ele>
        <time>2015-08-21T12:21:17Z</time>
      </trkpt>
      <trkpt lat="45.46087" lon="6.85664">
        <ele>2523.218</ele>
        <time>2015-08-21T12:21:27Z</time>
      </trkpt>
      <trkpt lat="45.46085" lon="6.85665">
        <ele>2523.1816</ele>
        <time>2015-08-21T12:21:32Z</time>
      </trkpt>
      <trkpt lat="45.46079" lon="6.85665">
        <ele>2523.1816</ele>
        <time>2015-08-21T12:21:42Z</time>
      </trkpt>
      <trkpt lat="45.4608" lon="6.85665">
        <ele>2523.1816</ele>
        <time>2015-08-21T12:21:47Z</time>
      </trkpt>
      <trkpt lat="45.46079" lon="6.85669">
        <ele>2523.1816</ele>
        <time>2015-08-21T12:22:47Z</time>
      </trkpt>
      <trkpt lat="45.46077" lon="6.85669">
        <ele>2523.1833</ele>
        <time>2015-08-21T12:22:52Z</time>
      </trkpt>
      <trkpt lat="45.46069" lon="6.85675">
        <ele>2522.707</ele>
        <time>2015-08-21T12:23:02Z</time>
      </trkpt>
      <trkpt lat="45.46062" lon="6.85673">
        <ele>2522.707</ele>
        <time>2015-08-21T12:23:07Z</time>
      </trkpt>
      <trkpt lat="45.46055" lon="6.85675">
        <ele>2521.8955</ele>
        <time>2015-08-21T12:23:17Z</time>
      </trkpt>
      <trkpt lat="45.46053" lon="6.85675">
        <ele>2521.8955</ele>
        <time>2015-08-21T12:23:22Z</time>
      </trkpt>
      <trkpt lat="45.46043" lon="6.85681">
        <ele>2521.2131</ele>
        <time>2015-08-21T12:23:32Z</time>
      </trkpt>
      <trkpt lat="45.46039" lon="6.85683">
        <ele>2521.2131</ele>
        <time>2015-08-21T12:23:37Z</time>
      </trkpt>
      <trkpt lat="45.46035" lon="6.85685">
        <ele>2521.2131</ele>
        <time>2015-08-21T12:23:47Z</time>
      </trkpt>
      <trkpt lat="45.46032" lon="6.85691">
        <ele>2520.1826</ele>
        <time>2015-08-21T12:23:52Z</time>
      </trkpt>
      <trkpt lat="45.46026" lon="6.85692">
        <ele>2520.1826</ele>
        <time>2015-08-21T12:24:02Z</time>
      </trkpt>
      <trkpt lat="45.46025" lon="6.85693">
        <ele>2520.1826</ele>
        <time>2015-08-21T12:24:07Z</time>
      </trkpt>
      <trkpt lat="45.46014" lon="6.85691">
        <ele>2519.2405</ele>
        <time>2015-08-21T12:24:17Z</time>
      </trkpt>
      <trkpt lat="45.46008" lon="6.85688">
        <ele>2519.2405</ele>
        <time>2015-08-21T12:24:22Z</time>
      </trkpt>
      <trkpt lat="45.45997" lon="6.85692">
        <ele>2518.4026</ele>
        <time>2015-08-21T12:24:32Z</time>
      </trkpt>
      <trkpt lat="45.45994" lon="6.85692">
        <ele>2518.4026</ele>
        <time>2015-08-21T12:24:37Z</time>
      </trkpt>
      <trkpt lat="45.45988" lon="6.85696">
        <ele>2518.4026</ele>
        <time>2015-08-21T12:24:47Z</time>
      </trkpt>
      <trkpt lat="45.45985" lon="6.85696">
        <ele>2517.5388</ele>
        <time>2015-08-21T12:24:52Z</time>
      </trkpt>
      <trkpt lat="45.45972" lon="6.85696">
        <ele>2516.759</ele>
        <time>2015-08-21T12:25:07Z</time>
      </trkpt>
      <trkpt lat="45.45967" lon="6.85698">
        <ele>2516.759</ele>
        <time>2015-08-21T12:25:12Z</time>
      </trkpt>
      <trkpt lat="45.45963" lon="6.85699">
        <ele>2516.759</ele>
        <time>2015-08-21T12:25:22Z</time>
      </trkpt>
      <trkpt lat="45.45961" lon="6.85702">
        <ele>2516.107</ele>
        <time>2015-08-21T12:25:27Z</time>
      </trkpt>
      <trkpt lat="45.45956" lon="6.85706">
        <ele>2516.107</ele>
        <time>2015-08-21T12:25:37Z</time>
      </trkpt>
      <trkpt lat="45.45953" lon="6.85715">
        <ele>2515.45</ele>
        <time>2015-08-21T12:25:42Z</time>
      </trkpt>
      <trkpt lat="45.45953" lon="6.85724">
        <ele>2515.45</ele>
        <time>2015-08-21T12:25:52Z</time>
      </trkpt>
      <trkpt lat="45.45953" lon="6.85728">
        <ele>2515.1836</ele>
        <time>2015-08-21T12:25:57Z</time>
      </trkpt>
      <trkpt lat="45.45952" lon="6.85733">
        <ele>2515.1836</ele>
        <time>2015-08-21T12:26:07Z</time>
      </trkpt>
      <trkpt lat="45.4595" lon="6.85734">
        <ele>2515.1836</ele>
        <time>2015-08-21T12:26:12Z</time>
      </trkpt>
      <trkpt lat="45.45948" lon="6.8574">
        <ele>2515.5576</ele>
        <time>2015-08-21T12:26:22Z</time>
      </trkpt>
      <trkpt lat="45.45947" lon="6.85745">
        <ele>2515.5576</ele>
        <time>2015-08-21T12:26:27Z</time>
      </trkpt>
      <trkpt lat="45.45944" lon="6.85748">
        <ele>2515.5576</ele>
        <time>2015-08-21T12:26:42Z</time>
      </trkpt>
      <trkpt lat="45.45945" lon="6.85749">
        <ele>2515.5576</ele>
        <time>2015-08-21T12:26:47Z</time>
      </trkpt>
      <trkpt lat="45.45942" lon="6.85756">
        <ele>2516.744</ele>
        <time>2015-08-21T12:26:57Z</time>
      </trkpt>
      <trkpt lat="45.4594" lon="6.85766">
        <ele>2516.744</ele>
        <time>2015-08-21T12:27:02Z</time>
      </trkpt>
      <trkpt lat="45.45936" lon="6.85779">
        <ele>2517.963</ele>
        <time>2015-08-21T12:27:12Z</time>
      </trkpt>
      <trkpt lat="45.45935" lon="6.85783">
        <ele>2517.963</ele>
        <time>2015-08-21T12:27:17Z</time>
      </trkpt>
      <trkpt lat="45.45934" lon="6.85783">
        <ele>2517.963</ele>
        <time>2015-08-21T12:27:27Z</time>
      </trkpt>
      <trkpt lat="45.45932" lon="6.85786">
        <ele>2517.963</ele>
        <time>2015-08-21T12:27:32Z</time>
      </trkpt>
      <trkpt lat="45.45928" lon="6.85792">
        <ele>2518.9958</ele>
        <time>2015-08-21T12:27:42Z</time>
      </trkpt>
      <trkpt lat="45.45928" lon="6.85793">
        <ele>2518.9958</ele>
        <time>2015-08-21T12:27:47Z</time>
      </trkpt>
      <trkpt lat="45.45928" lon="6.85802">
        <ele>2518.9958</ele>
        <time>2015-08-21T12:27:57Z</time>
      </trkpt>
      <trkpt lat="45.45928" lon="6.85806">
        <ele>2519.8713</ele>
        <time>2015-08-21T12:28:02Z</time>
      </trkpt>
      <trkpt lat="45.45923" lon="6.85814">
        <ele>2519.8713</ele>
        <time>2015-08-21T12:28:17Z</time>
      </trkpt>
      <trkpt lat="45.45923" lon="6.85817">
        <ele>2520.8757</ele>
        <time>2015-08-21T12:28:22Z</time>
      </trkpt>
      <trkpt lat="45.4592" lon="6.85819">
        <ele>2520.8757</ele>
        <time>2015-08-21T12:28:32Z</time>
      </trkpt>
      <trkpt lat="45.4592" lon="6.85821">
        <ele>2520.8757</ele>
        <time>2015-08-21T12:28:37Z</time>
      </trkpt>
      <trkpt lat="45.45918" lon="6.85826">
        <ele>2520.8757</ele>
        <time>2015-08-21T12:28:47Z</time>
      </trkpt>
      <trkpt lat="45.45918" lon="6.85831">
        <ele>2522.2593</ele>
        <time>2015-08-21T12:28:52Z</time>
      </trkpt>
      <trkpt lat="45.45915" lon="6.85836">
        <ele>2522.2593</ele>
        <time>2015-08-21T12:29:02Z</time>
      </trkpt>
      <trkpt lat="45.45915" lon="6.85838">
        <ele>2522.2593</ele>
        <time>2015-08-21T12:29:07Z</time>
      </trkpt>
      <trkpt lat="45.45913" lon="6.85848">
        <ele>2523.7478</ele>
        <time>2015-08-21T12:29:17Z</time>
      </trkpt>
      <trkpt lat="45.45915" lon="6.85848">
        <ele>2523.7478</ele>
        <time>2015-08-21T12:29:22Z</time>
      </trkpt>
      <trkpt lat="45.45909" lon="6.85851">
        <ele>2523.7478</ele>
        <time>2015-08-21T12:29:32Z</time>
      </trkpt>
      <trkpt lat="45.45912" lon="6.8585">
        <ele>2525.4482</ele>
        <time>2015-08-21T12:29:37Z</time>
      </trkpt>
      <trkpt lat="45.45914" lon="6.85853">
        <ele>2525.4482</ele>
        <time>2015-08-21T12:29:47Z</time>
      </trkpt>
      <trkpt lat="45.45911" lon="6.85853">
        <ele>2525.4482</ele>
        <time>2015-08-21T12:29:52Z</time>
      </trkpt>
      <trkpt lat="45.45905" lon="6.85856">
        <ele>2527.2273</ele>
        <time>2015-08-21T12:30:02Z</time>
      </trkpt>
      <trkpt lat="45.45904" lon="6.85859">
        <ele>2527.2273</ele>
        <time>2015-08-21T12:30:07Z</time>
      </trkpt>
      <trkpt lat="45.45894" lon="6.85866">
        <ele>2528.6733</ele>
        <time>2015-08-21T12:30:22Z</time>
      </trkpt>
      <trkpt lat="45.45893" lon="6.85869">
        <ele>2528.6733</ele>
        <time>2015-08-21T12:30:27Z</time>
      </trkpt>
      <trkpt lat="45.45899" lon="6.85877">
        <ele>2530.1267</ele>
        <time>2015-08-21T12:30:37Z</time>
      </trkpt>
      <trkpt lat="45.45901" lon="6.85877">
        <ele>2530.1267</ele>
        <time>2015-08-21T12:30:42Z</time>
      </trkpt>
      <trkpt lat="45.459" lon="6.85882">
        <ele>2530.1267</ele>
        <time>2015-08-21T12:30:52Z</time>
      </trkpt>
      <trkpt lat="45.459" lon="6.8588">
        <ele>2530.1267</ele>
        <time>2015-08-21T12:30:57Z</time>
      </trkpt>
      <trkpt lat="45.45898" lon="6.85877">
        <ele>2531.614</ele>
        <time>2015-08-21T12:31:07Z</time>
      </trkpt>
      <trkpt lat="45.45899" lon="6.85879">
        <ele>2531.614</ele>
        <time>2015-08-21T12:31:12Z</time>
      </trkpt>
      <trkpt lat="45.45898" lon="6.8588">
        <ele>2531.614</ele>
        <time>2015-08-21T12:31:22Z</time>
      </trkpt>
      <trkpt lat="45.45895" lon="6.85884">
        <ele>2531.614</ele>
        <time>2015-08-21T12:31:27Z</time>
      </trkpt>
      <trkpt lat="45.45895" lon="6.85884">
        <ele>2531.614</ele>
        <time>2015-08-21T12:31:37Z</time>
      </trkpt>
      <trkpt lat="45.45893" lon="6.85887">
        <ele>2532.886</ele>
        <time>2015-08-21T12:31:42Z</time>
      </trkpt>
      <trkpt lat="45.4589" lon="6.8589">
        <ele>2532.886</ele>
        <time>2015-08-21T12:31:52Z</time>
      </trkpt>
      <trkpt lat="45.4589" lon="6.8589">
        <ele>2532.886</ele>
        <time>2015-08-21T12:31:57Z</time>
      </trkpt>
      <trkpt lat="45.45885" lon="6.85893">
        <ele>2534.2026</ele>
        <time>2015-08-21T12:32:12Z</time>
      </trkpt>
      <trkpt lat="45.45883" lon="6.85894">
        <ele>2534.2026</ele>
        <time>2015-08-21T12:32:17Z</time>
      </trkpt>
      <trkpt lat="45.45876" lon="6.85897">
        <ele>2535.8474</ele>
        <time>2015-08-21T12:32:27Z</time>
      </trkpt>
      <trkpt lat="45.45874" lon="6.859">
        <ele>2535.8474</ele>
        <time>2015-08-21T12:32:32Z</time>
      </trkpt>
      <trkpt lat="45.45873" lon="6.85906">
        <ele>2535.8474</ele>
        <time>2015-08-21T12:32:42Z</time>
      </trkpt>
      <trkpt lat="45.4587" lon="6.85907">
        <ele>2538.0247</ele>
        <time>2015-08-21T12:32:47Z</time>
      </trkpt>
      <trkpt lat="45.45869" lon="6.85911">
        <ele>2538.0247</ele>
        <time>2015-08-21T12:32:57Z</time>
      </trkpt>
      <trkpt lat="45.4587" lon="6.85915">
        <ele>2538.0247</ele>
        <time>2015-08-21T12:33:02Z</time>
      </trkpt>
      <trkpt lat="45.45871" lon="6.85921">
        <ele>2540.432</ele>
        <time>2015-08-21T12:33:12Z</time>
      </trkpt>
      <trkpt lat="45.45871" lon="6.85924">
        <ele>2540.432</ele>
        <time>2015-08-21T12:33:17Z</time>
      </trkpt>
      <trkpt lat="45.45868" lon="6.85927">
        <ele>2540.432</ele>
        <time>2015-08-21T12:33:27Z</time>
      </trkpt>
      <trkpt lat="45.45866" lon="6.85926">
        <ele>2540.432</ele>
        <time>2015-08-21T12:33:32Z</time>
      </trkpt>
      <trkpt lat="45.45858" lon="6.8593">
        <ele>2543.005</ele>
        <time>2015-08-21T12:33:42Z</time>
      </trkpt>
      <trkpt lat="45.45856" lon="6.85934">
        <ele>2543.005</ele>
        <time>2015-08-21T12:33:47Z</time>
      </trkpt>
      <trkpt lat="45.45854" lon="6.8594">
        <ele>2543.005</ele>
        <time>2015-08-21T12:33:57Z</time>
      </trkpt>
      <trkpt lat="45.45854" lon="6.85943">
        <ele>2545.6687</ele>
        <time>2015-08-21T12:34:02Z</time>
      </trkpt>
      <trkpt lat="45.45852" lon="6.85947">
        <ele>2545.6687</ele>
        <time>2015-08-21T12:34:12Z</time>
      </trkpt>
      <trkpt lat="45.4585" lon="6.85948">
        <ele>2545.6687</ele>
        <time>2015-08-21T12:34:17Z</time>
      </trkpt>
      <trkpt lat="45.45849" lon="6.85955">
        <ele>2548.5127</ele>
        <time>2015-08-21T12:34:27Z</time>
      </trkpt>
      <trkpt lat="45.45848" lon="6.85958">
        <ele>2548.5127</ele>
        <time>2015-08-21T12:34:32Z</time>
      </trkpt>
      <trkpt lat="45.45844" lon="6.85964">
        <ele>2548.5127</ele>
        <time>2015-08-21T12:34:47Z</time>
      </trkpt>
      <trkpt lat="45.45843" lon="6.85967">
        <ele>2551.2444</ele>
        <time>2015-08-21T12:34:52Z</time>
      </trkpt>
      <trkpt lat="45.45842" lon="6.85976">
        <ele>2551.2444</ele>
        <time>2015-08-21T12:35:02Z</time>
      </trkpt>
      <trkpt lat="45.4584" lon="6.85978">
        <ele>2551.2444</ele>
        <time>2015-08-21T12:35:07Z</time>
      </trkpt>
      <trkpt lat="45.45837" lon="6.85985">
        <ele>2554.2266</ele>
        <time>2015-08-21T12:35:17Z</time>
      </trkpt>
      <trkpt lat="45.45835" lon="6.85987">
        <ele>2554.2266</ele>
        <time>2015-08-21T12:35:22Z</time>
      </trkpt>
      <trkpt lat="45.45833" lon="6.85994">
        <ele>2554.2266</ele>
        <time>2015-08-21T12:35:32Z</time>
      </trkpt>
      <trkpt lat="45.45833" lon="6.85996">
        <ele>2557.1328</ele>
        <time>2015-08-21T12:35:37Z</time>
      </trkpt>
      <trkpt lat="45.4583" lon="6.85998">
        <ele>2557.1328</ele>
        <time>2015-08-21T12:35:47Z</time>
      </trkpt>
      <trkpt lat="45.45829" lon="6.86">
        <ele>2557.1328</ele>
        <time>2015-08-21T12:35:52Z</time>
      </trkpt>
      <trkpt lat="45.45828" lon="6.86003">
        <ele>2557.1328</ele>
        <time>2015-08-21T12:36:02Z</time>
      </trkpt>
      <trkpt lat="45.45826" lon="6.86004">
        <ele>2557.1328</ele>
        <time>2015-08-21T12:36:07Z</time>
      </trkpt>
      <trkpt lat="45.45823" lon="6.86008">
        <ele>2560.0496</ele>
        <time>2015-08-21T12:36:17Z</time>
      </trkpt>
      <trkpt lat="45.45821" lon="6.86012">
        <ele>2560.0496</ele>
        <time>2015-08-21T12:36:22Z</time>
      </trkpt>
      <trkpt lat="45.45811" lon="6.86022">
        <ele>2562.9128</ele>
        <time>2015-08-21T12:36:37Z</time>
      </trkpt>
      <trkpt lat="45.45811" lon="6.86023">
        <ele>2562.9128</ele>
        <time>2015-08-21T12:36:42Z</time>
      </trkpt>
      <trkpt lat="45.45813" lon="6.86034">
        <ele>2562.9128</ele>
        <time>2015-08-21T12:36:52Z</time>
      </trkpt>
      <trkpt lat="45.45813" lon="6.86037">
        <ele>2565.5771</ele>
        <time>2015-08-21T12:36:57Z</time>
      </trkpt>
      <trkpt lat="45.45814" lon="6.86044">
        <ele>2565.5771</ele>
        <time>2015-08-21T12:37:07Z</time>
      </trkpt>
      <trkpt lat="45.45815" lon="6.86048">
        <ele>2565.5771</ele>
        <time>2015-08-21T12:37:12Z</time>
      </trkpt>
      <trkpt lat="45.45814" lon="6.86052">
        <ele>2568.2544</ele>
        <time>2015-08-21T12:37:22Z</time>
      </trkpt>
      <trkpt lat="45.45812" lon="6.86051">
        <ele>2568.2544</ele>
        <time>2015-08-21T12:37:27Z</time>
      </trkpt>
      <trkpt lat="45.45814" lon="6.86045">
        <ele>2568.2544</ele>
        <time>2015-08-21T12:37:37Z</time>
      </trkpt>
      <trkpt lat="45.45816" lon="6.86046">
        <ele>2568.2544</ele>
        <time>2015-08-21T12:37:42Z</time>
      </trkpt>
      <trkpt lat="45.45817" lon="6.86048">
        <ele>2570.896</ele>
        <time>2015-08-21T12:37:52Z</time>
      </trkpt>
      <trkpt lat="45.45817" lon="6.86054">
        <ele>2570.896</ele>
        <time>2015-08-21T12:37:57Z</time>
      </trkpt>
      <trkpt lat="45.45818" lon="6.86062">
        <ele>2573.4421</ele>
        <time>2015-08-21T12:38:07Z</time>
      </trkpt>
      <trkpt lat="45.4582" lon="6.86066">
        <ele>2573.4421</ele>
        <time>2015-08-21T12:38:12Z</time>
      </trkpt>
      <trkpt lat="45.45821" lon="6.86078">
        <ele>2576.1414</ele>
        <time>2015-08-21T12:38:27Z</time>
      </trkpt>
      <trkpt lat="45.45822" lon="6.8608">
        <ele>2576.1414</ele>
        <time>2015-08-21T12:38:32Z</time>
      </trkpt>
      <trkpt lat="45.45825" lon="6.86085">
        <ele>2576.1414</ele>
        <time>2015-08-21T12:38:42Z</time>
      </trkpt>
      <trkpt lat="45.45826" lon="6.86088">
        <ele>2576.1414</ele>
        <time>2015-08-21T12:38:47Z</time>
      </trkpt>
      <trkpt lat="45.45827" lon="6.86097">
        <ele>2579.0645</ele>
        <time>2015-08-21T12:38:57Z</time>
      </trkpt>
      <trkpt lat="45.45827" lon="6.86096">
        <ele>2579.0645</ele>
        <time>2015-08-21T12:39:02Z</time>
      </trkpt>
      <trkpt lat="45.45825" lon="6.86101">
        <ele>2579.0645</ele>
        <time>2015-08-21T12:39:12Z</time>
      </trkpt>
      <trkpt lat="45.45824" lon="6.86105">
        <ele>2579.0645</ele>
        <time>2015-08-21T12:39:17Z</time>
      </trkpt>
      <trkpt lat="45.45823" lon="6.8611">
        <ele>2581.6284</ele>
        <time>2015-08-21T12:39:27Z</time>
      </trkpt>
      <trkpt lat="45.45823" lon="6.86112">
        <ele>2581.6284</ele>
        <time>2015-08-21T12:39:32Z</time>
      </trkpt>
      <trkpt lat="45.45825" lon="6.86123">
        <ele>2583.5962</ele>
        <time>2015-08-21T12:39:42Z</time>
      </trkpt>
      <trkpt lat="45.45826" lon="6.86131">
        <ele>2583.5962</ele>
        <time>2015-08-21T12:39:47Z</time>
      </trkpt>
      <trkpt lat="45.45826" lon="6.86132">
        <ele>2583.5962</ele>
        <time>2015-08-21T12:39:57Z</time>
      </trkpt>
      <trkpt lat="45.45826" lon="6.8613">
        <ele>2583.5962</ele>
        <time>2015-08-21T12:40:02Z</time>
      </trkpt>
      <trkpt lat="45.45828" lon="6.86119">
        <ele>2585.4858</ele>
        <time>2015-08-21T12:40:17Z</time>
      </trkpt>
      <trkpt lat="45.45828" lon="6.86119">
        <ele>2585.4858</ele>
        <time>2015-08-21T12:40:22Z</time>
      </trkpt>
      <trkpt lat="45.45828" lon="6.86117">
        <ele>2585.4858</ele>
        <time>2015-08-21T12:40:32Z</time>
      </trkpt>
      <trkpt lat="45.45829" lon="6.86116">
        <ele>2585.4858</ele>
        <time>2015-08-21T12:41:07Z</time>
      </trkpt>
      <trkpt lat="45.45826" lon="6.86113">
        <ele>2585.4858</ele>
        <time>2015-08-21T12:41:17Z</time>
      </trkpt>
      <trkpt lat="45.45828" lon="6.86112">
        <ele>2585.4858</ele>
        <time>2015-08-21T12:41:22Z</time>
      </trkpt>
      <trkpt lat="45.45828" lon="6.86112">
        <ele>2585.4858</ele>
        <time>2015-08-21T12:41:32Z</time>
      </trkpt>
      <trkpt lat="45.45827" lon="6.86111">
        <ele>2586.7104</ele>
        <time>2015-08-21T12:41:52Z</time>
      </trkpt>
      <trkpt lat="45.45825" lon="6.86119">
        <ele>2586.7104</ele>
        <time>2015-08-21T13:19:06Z</time>
      </trkpt>
      <trkpt lat="45.45824" lon="6.8612">
        <ele>2586.7104</ele>
        <time>2015-08-21T13:19:11Z</time>
      </trkpt>
      <trkpt lat="45.45822" lon="6.86121">
        <ele>2590.2163</ele>
        <time>2015-08-21T13:19:21Z</time>
      </trkpt>
      <trkpt lat="45.45822" lon="6.8612">
        <ele>2590.2163</ele>
        <time>2015-08-21T13:19:26Z</time>
      </trkpt>
      <trkpt lat="45.45821" lon="6.8612">
        <ele>2590.2163</ele>
        <time>2015-08-21T13:19:56Z</time>
      </trkpt>
      <trkpt lat="45.45821" lon="6.8612">
        <ele>2590.2163</ele>
        <time>2015-08-21T13:20:06Z</time>
      </trkpt>
      <trkpt lat="45.45821" lon="6.86121">
        <ele>2590.2163</ele>
        <time>2015-08-21T13:20:21Z</time>
      </trkpt>
      <trkpt lat="45.45821" lon="6.86122">
        <ele>2590.2163</ele>
        <time>2015-08-21T13:20:26Z</time>
      </trkpt>
      <trkpt lat="45.45824" lon="6.86136">
        <ele>2592.328</ele>
        <time>2015-08-21T13:20:36Z</time>
      </trkpt>
      <trkpt lat="45.4582" lon="6.86141">
        <ele>2592.328</ele>
        <time>2015-08-21T13:20:41Z</time>
      </trkpt>
      <trkpt lat="45.45809" lon="6.8615">
        <ele>2593.9243</ele>
        <time>2015-08-21T13:20:56Z</time>
      </trkpt>
      <trkpt lat="45.45807" lon="6.86154">
        <ele>2593.9243</ele>
        <time>2015-08-21T13:21:01Z</time>
      </trkpt>
      <trkpt lat="45.45803" lon="6.86163">
        <ele>2595.3171</ele>
        <time>2015-08-21T13:21:11Z</time>
      </trkpt>
      <trkpt lat="45.45802" lon="6.86164">
        <ele>2595.3171</ele>
        <time>2015-08-21T13:21:16Z</time>
      </trkpt>
      <trkpt lat="45.45799" lon="6.86166">
        <ele>2595.3171</ele>
        <time>2015-08-21T13:21:26Z</time>
      </trkpt>
      <trkpt lat="45.45796" lon="6.86168">
        <ele>2595.3171</ele>
        <time>2015-08-21T13:21:31Z</time>
      </trkpt>
      <trkpt lat="45.4579" lon="6.86179">
        <ele>2596.7522</ele>
        <time>2015-08-21T13:21:41Z</time>
      </trkpt>
      <trkpt lat="45.45789" lon="6.8618">
        <ele>2596.7522</ele>
        <time>2015-08-21T13:21:46Z</time>
      </trkpt>
      <trkpt lat="45.45786" lon="6.86182">
        <ele>2596.7522</ele>
        <time>2015-08-21T13:21:56Z</time>
      </trkpt>
      <trkpt lat="45.45786" lon="6.86183">
        <ele>2596.7522</ele>
        <time>2015-08-21T13:22:01Z</time>
      </trkpt>
      <trkpt lat="45.45782" lon="6.86185">
        <ele>2598.126</ele>
        <time>2015-08-21T13:22:11Z</time>
      </trkpt>
      <trkpt lat="45.45781" lon="6.86185">
        <ele>2598.126</ele>
        <time>2015-08-21T13:22:16Z</time>
      </trkpt>
      <trkpt lat="45.45776" lon="6.86185">
        <ele>2598.126</ele>
        <time>2015-08-21T13:22:26Z</time>
      </trkpt>
      <trkpt lat="45.45776" lon="6.86185">
        <ele>2598.126</ele>
        <time>2015-08-21T13:22:31Z</time>
      </trkpt>
      <trkpt lat="45.45775" lon="6.86184">
        <ele>2598.126</ele>
        <time>2015-08-21T13:22:46Z</time>
      </trkpt>
      <trkpt lat="45.45772" lon="6.86185">
        <ele>2599.8906</ele>
        <time>2015-08-21T13:22:51Z</time>
      </trkpt>
      <trkpt lat="45.45765" lon="6.86183">
        <ele>2599.8906</ele>
        <time>2015-08-21T13:23:01Z</time>
      </trkpt>
      <trkpt lat="45.45761" lon="6.86182">
        <ele>2601.902</ele>
        <time>2015-08-21T13:23:06Z</time>
      </trkpt>
      <trkpt lat="45.45761" lon="6.86183">
        <ele>2601.902</ele>
        <time>2015-08-21T13:23:16Z</time>
      </trkpt>
      <trkpt lat="45.45761" lon="6.86183">
        <ele>2601.902</ele>
        <time>2015-08-21T13:23:21Z</time>
      </trkpt>
      <trkpt lat="45.4576" lon="6.86183">
        <ele>2601.902</ele>
        <time>2015-08-21T13:23:31Z</time>
      </trkpt>
      <trkpt lat="45.45758" lon="6.86183">
        <ele>2601.902</ele>
        <time>2015-08-21T13:23:46Z</time>
      </trkpt>
      <trkpt lat="45.45754" lon="6.86184">
        <ele>2601.902</ele>
        <time>2015-08-21T13:23:51Z</time>
      </trkpt>
      <trkpt lat="45.4575" lon="6.86187">
        <ele>2603.8093</ele>
        <time>2015-08-21T13:24:01Z</time>
      </trkpt>
      <trkpt lat="45.45746" lon="6.86189">
        <ele>2603.8093</ele>
        <time>2015-08-21T13:24:06Z</time>
      </trkpt>
      <trkpt lat="45.45744" lon="6.86189">
        <ele>2603.8093</ele>
        <time>2015-08-21T13:24:21Z</time>
      </trkpt>
      <trkpt lat="45.45743" lon="6.86189">
        <ele>2603.8093</ele>
        <time>2015-08-21T13:24:26Z</time>
      </trkpt>
      <trkpt lat="45.45739" lon="6.86188">
        <ele>2606.0955</ele>
        <time>2015-08-21T13:24:36Z</time>
      </trkpt>
      <trkpt lat="45.45737" lon="6.86187">
        <ele>2606.0955</ele>
        <time>2015-08-21T13:24:41Z</time>
      </trkpt>
      <trkpt lat="45.45726" lon="6.8619">
        <ele>2608.2988</ele>
        <time>2015-08-21T13:24:51Z</time>
      </trkpt>
      <trkpt lat="45.45726" lon="6.8619">
        <ele>2608.2988</ele>
        <time>2015-08-21T13:24:56Z</time>
      </trkpt>
      <trkpt lat="45.45723" lon="6.86192">
        <ele>2608.2988</ele>
        <time>2015-08-21T13:25:06Z</time>
      </trkpt>
      <trkpt lat="45.45719" lon="6.86195">
        <ele>2608.2988</ele>
        <time>2015-08-21T13:25:11Z</time>
      </trkpt>
      <trkpt lat="45.45719" lon="6.86195">
        <ele>2608.2988</ele>
        <time>2015-08-21T13:25:21Z</time>
      </trkpt>
      <trkpt lat="45.45716" lon="6.86194">
        <ele>2610.8853</ele>
        <time>2015-08-21T13:25:36Z</time>
      </trkpt>
      <trkpt lat="45.45714" lon="6.86194">
        <ele>2610.8853</ele>
        <time>2015-08-21T13:25:41Z</time>
      </trkpt>
      <trkpt lat="45.45714" lon="6.86194">
        <ele>2610.8853</ele>
        <time>2015-08-21T13:25:51Z</time>
      </trkpt>
      <trkpt lat="45.45714" lon="6.86194">
        <ele>2610.8853</ele>
        <time>2015-08-21T13:25:56Z</time>
      </trkpt>
      <trkpt lat="45.45712" lon="6.86197">
        <ele>2610.8853</ele>
        <time>2015-08-21T13:26:21Z</time>
      </trkpt>
      <trkpt lat="45.45712" lon="6.86197">
        <ele>2610.8853</ele>
        <time>2015-08-21T13:26:26Z</time>
      </trkpt>
      <trkpt lat="45.45712" lon="6.86202">
        <ele>2610.8853</ele>
        <time>2015-08-21T13:26:41Z</time>
      </trkpt>
      <trkpt lat="45.4571" lon="6.86204">
        <ele>2613.6948</ele>
        <time>2015-08-21T13:26:46Z</time>
      </trkpt>
      <trkpt lat="45.4571" lon="6.86204">
        <ele>2613.6948</ele>
        <time>2015-08-21T13:26:56Z</time>
      </trkpt>
      <trkpt lat="45.45705" lon="6.86208">
        <ele>2613.6948</ele>
        <time>2015-08-21T13:27:01Z</time>
      </trkpt>
      <trkpt lat="45.457" lon="6.86215">
        <ele>2616.651</ele>
        <time>2015-08-21T13:27:11Z</time>
      </trkpt>
      <trkpt lat="45.45698" lon="6.86216">
        <ele>2616.651</ele>
        <time>2015-08-21T13:27:16Z</time>
      </trkpt>
      <trkpt lat="45.45695" lon="6.86215">
        <ele>2616.651</ele>
        <time>2015-08-21T13:27:26Z</time>
      </trkpt>
      <trkpt lat="45.45692" lon="6.86214">
        <ele>2616.651</ele>
        <time>2015-08-21T13:27:31Z</time>
      </trkpt>
      <trkpt lat="45.4569" lon="6.86213">
        <ele>2619.7534</ele>
        <time>2015-08-21T13:27:41Z</time>
      </trkpt>
      <trkpt lat="45.45688" lon="6.86215">
        <ele>2619.7534</ele>
        <time>2015-08-21T13:27:46Z</time>
      </trkpt>
      <trkpt lat="45.45684" lon="6.8622">
        <ele>2619.7534</ele>
        <time>2015-08-21T13:27:56Z</time>
      </trkpt>
      <trkpt lat="45.45682" lon="6.86222">
        <ele>2622.7295</ele>
        <time>2015-08-21T13:28:01Z</time>
      </trkpt>
      <trkpt lat="45.4568" lon="6.86219">
        <ele>2622.7295</ele>
        <time>2015-08-21T13:28:11Z</time>
      </trkpt>
      <trkpt lat="45.45677" lon="6.86218">
        <ele>2622.7295</ele>
        <time>2015-08-21T13:28:16Z</time>
      </trkpt>
      <trkpt lat="45.45671" lon="6.86218">
        <ele>2625.7002</ele>
        <time>2015-08-21T13:28:26Z</time>
      </trkpt>
      <trkpt lat="45.45667" lon="6.86218">
        <ele>2625.7002</ele>
        <time>2015-08-21T13:28:31Z</time>
      </trkpt>
      <trkpt lat="45.45661" lon="6.8622">
        <ele>2628.4324</ele>
        <time>2015-08-21T13:28:41Z</time>
      </trkpt>
      <trkpt lat="45.45658" lon="6.86223">
        <ele>2628.4324</ele>
        <time>2015-08-21T13:28:46Z</time>
      </trkpt>
      <trkpt lat="45.45652" lon="6.8623">
        <ele>2631.1292</ele>
        <time>2015-08-21T13:29:01Z</time>
      </trkpt>
      <trkpt lat="45.45651" lon="6.86233">
        <ele>2631.1292</ele>
        <time>2015-08-21T13:29:06Z</time>
      </trkpt>
      <trkpt lat="45.45647" lon="6.86238">
        <ele>2631.1292</ele>
        <time>2015-08-21T13:29:16Z</time>
      </trkpt>
      <trkpt lat="45.45647" lon="6.86241">
        <ele>2633.7764</ele>
        <time>2015-08-21T13:29:21Z</time>
      </trkpt>
      <trkpt lat="45.45643" lon="6.86249">
        <ele>2633.7764</ele>
        <time>2015-08-21T13:29:31Z</time>
      </trkpt>
      <trkpt lat="45.45642" lon="6.86252">
        <ele>2636.3906</ele>
        <time>2015-08-21T13:29:36Z</time>
      </trkpt>
      <trkpt lat="45.45643" lon="6.86247">
        <ele>2636.3906</ele>
        <time>2015-08-21T13:29:46Z</time>
      </trkpt>
      <trkpt lat="45.45643" lon="6.86245">
        <ele>2636.3906</ele>
        <time>2015-08-21T13:29:51Z</time>
      </trkpt>
      <trkpt lat="45.45643" lon="6.86247">
        <ele>2636.3906</ele>
        <time>2015-08-21T13:30:01Z</time>
      </trkpt>
      <trkpt lat="45.45643" lon="6.86246">
        <ele>2636.3906</ele>
        <time>2015-08-21T13:30:06Z</time>
      </trkpt>
      <trkpt lat="45.45644" lon="6.86251">
        <ele>2638.9436</ele>
        <time>2015-08-21T13:30:16Z</time>
      </trkpt>
      <trkpt lat="45.45644" lon="6.86257">
        <ele>2638.9436</ele>
        <time>2015-08-21T13:30:21Z</time>
      </trkpt>
      <trkpt lat="45.45644" lon="6.86271">
        <ele>2641.482</ele>
        <time>2015-08-21T13:30:36Z</time>
      </trkpt>
      <trkpt lat="45.45643" lon="6.86276">
        <ele>2641.482</ele>
        <time>2015-08-21T13:30:41Z</time>
      </trkpt>
      <trkpt lat="45.45642" lon="6.86286">
        <ele>2643.9622</ele>
        <time>2015-08-21T13:30:51Z</time>
      </trkpt>
      <trkpt lat="45.45641" lon="6.86291">
        <ele>2643.9622</ele>
        <time>2015-08-21T13:30:56Z</time>
      </trkpt>
      <trkpt lat="45.45641" lon="6.86296">
        <ele>2643.9622</ele>
        <time>2015-08-21T13:31:06Z</time>
      </trkpt>
      <trkpt lat="45.45641" lon="6.863">
        <ele>2646.3877</ele>
        <time>2015-08-21T13:31:11Z</time>
      </trkpt>
      <trkpt lat="45.4564" lon="6.86307">
        <ele>2646.3877</ele>
        <time>2015-08-21T13:31:21Z</time>
      </trkpt>
      <trkpt lat="45.45639" lon="6.86312">
        <ele>2646.3877</ele>
        <time>2015-08-21T13:31:26Z</time>
      </trkpt>
      <trkpt lat="45.45637" lon="6.86317">
        <ele>2648.8193</ele>
        <time>2015-08-21T13:31:36Z</time>
      </trkpt>
      <trkpt lat="45.45635" lon="6.8632">
        <ele>2648.8193</ele>
        <time>2015-08-21T13:31:41Z</time>
      </trkpt>
      <trkpt lat="45.45635" lon="6.86327">
        <ele>2648.8193</ele>
        <time>2015-08-21T13:31:51Z</time>
      </trkpt>
      <trkpt lat="45.45635" lon="6.8633">
        <ele>2651.1694</ele>
        <time>2015-08-21T13:31:56Z</time>
      </trkpt>
      <trkpt lat="45.45631" lon="6.86338">
        <ele>2651.1694</ele>
        <time>2015-08-21T13:32:06Z</time>
      </trkpt>
      <trkpt lat="45.4563" lon="6.86341">
        <ele>2653.4001</ele>
        <time>2015-08-21T13:32:11Z</time>
      </trkpt>
      <trkpt lat="45.45625" lon="6.86354">
        <ele>2655.5208</ele>
        <time>2015-08-21T13:32:26Z</time>
      </trkpt>
      <trkpt lat="45.45622" lon="6.86358">
        <ele>2655.5208</ele>
        <time>2015-08-21T13:32:31Z</time>
      </trkpt>
      <trkpt lat="45.45622" lon="6.86361">
        <ele>2655.5208</ele>
        <time>2015-08-21T13:32:41Z</time>
      </trkpt>
      <trkpt lat="45.45623" lon="6.86362">
        <ele>2655.5208</ele>
        <time>2015-08-21T13:32:46Z</time>
      </trkpt>
      <trkpt lat="45.45621" lon="6.86366">
        <ele>2657.8564</ele>
        <time>2015-08-21T13:32:56Z</time>
      </trkpt>
      <trkpt lat="45.45621" lon="6.86365">
        <ele>2657.8564</ele>
        <time>2015-08-21T13:33:01Z</time>
      </trkpt>
      <trkpt lat="45.45622" lon="6.86365">
        <ele>2657.8564</ele>
        <time>2015-08-21T13:33:11Z</time>
      </trkpt>
      <trkpt lat="45.45622" lon="6.86365">
        <ele>2657.8564</ele>
        <time>2015-08-21T13:33:16Z</time>
      </trkpt>
      <trkpt lat="45.45623" lon="6.86367">
        <ele>2657.8564</ele>
        <time>2015-08-21T13:33:26Z</time>
      </trkpt>
      <trkpt lat="45.45623" lon="6.86367">
        <ele>2657.8564</ele>
        <time>2015-08-21T13:33:31Z</time>
      </trkpt>
      <trkpt lat="45.45621" lon="6.86364">
        <ele>2657.8564</ele>
        <time>2015-08-21T13:33:41Z</time>
      </trkpt>
      <trkpt lat="45.45621" lon="6.86362">
        <ele>2657.8564</ele>
        <time>2015-08-21T13:33:46Z</time>
      </trkpt>
      <trkpt lat="45.4562" lon="6.86363">
        <ele>2660.0312</ele>
        <time>2015-08-21T13:33:56Z</time>
      </trkpt>
      <trkpt lat="45.4562" lon="6.86366">
        <ele>2660.0312</ele>
        <time>2015-08-21T13:34:01Z</time>
      </trkpt>
      <trkpt lat="45.4562" lon="6.86365">
        <ele>2660.0312</ele>
        <time>2015-08-21T13:34:11Z</time>
      </trkpt>
      <trkpt lat="45.4562" lon="6.86366">
        <ele>2660.0312</ele>
        <time>2015-08-21T13:34:16Z</time>
      </trkpt>
      <trkpt lat="45.4562" lon="6.86367">
        <ele>2660.0312</ele>
        <time>2015-08-21T13:34:21Z</time>
      </trkpt>
      <trkpt lat="45.45621" lon="6.86367">
        <ele>2660.0312</ele>
        <time>2015-08-21T13:34:26Z</time>
      </trkpt>
      <trkpt lat="45.45621" lon="6.86367">
        <ele>2660.0312</ele>
        <time>2015-08-21T13:34:31Z</time>
      </trkpt>
      <trkpt lat="45.45623" lon="6.86366">
        <ele>2660.0312</ele>
        <time>2015-08-21T13:34:36Z</time>
      </trkpt>
      <trkpt lat="45.45624" lon="6.86365">
        <ele>2660.0312</ele>
        <time>2015-08-21T13:34:41Z</time>
      </trkpt>
      <trkpt lat="45.45624" lon="6.86365">
        <ele>2660.0312</ele>
        <time>2015-08-21T13:34:46Z</time>
      </trkpt>
      <trkpt lat="45.45625" lon="6.86367">
        <ele>2662.028</ele>
        <time>2015-08-21T13:34:51Z</time>
      </trkpt>
      <trkpt lat="45.45625" lon="6.86368">
        <ele>2662.028</ele>
        <time>2015-08-21T13:34:56Z</time>
      </trkpt>
      <trkpt lat="45.45625" lon="6.86365">
        <ele>2662.028</ele>
        <time>2015-08-21T13:35:06Z</time>
      </trkpt>
      <trkpt lat="45.45625" lon="6.86364">
        <ele>2662.028</ele>
        <time>2015-08-21T13:35:11Z</time>
      </trkpt>
      <trkpt lat="45.45627" lon="6.86362">
        <ele>2662.028</ele>
        <time>2015-08-21T13:35:21Z</time>
      </trkpt>
      <trkpt lat="45.45626" lon="6.86361">
        <ele>2662.028</ele>
        <time>2015-08-21T13:35:26Z</time>
      </trkpt>
      <trkpt lat="45.45625" lon="6.86368">
        <ele>2663.5151</ele>
        <time>2015-08-21T13:35:36Z</time>
      </trkpt>
      <trkpt lat="45.45624" lon="6.8637">
        <ele>2663.5151</ele>
        <time>2015-08-21T13:35:41Z</time>
      </trkpt>
      <trkpt lat="45.45622" lon="6.86373">
        <ele>2663.5151</ele>
        <time>2015-08-21T13:35:51Z</time>
      </trkpt>
      <trkpt lat="45.45621" lon="6.86377">
        <ele>2663.5151</ele>
        <time>2015-08-21T13:35:56Z</time>
      </trkpt>
      <trkpt lat="45.45621" lon="6.86379">
        <ele>2663.5151</ele>
        <time>2015-08-21T13:36:06Z</time>
      </trkpt>
      <trkpt lat="45.45623" lon="6.86384">
        <ele>2664.6907</ele>
        <time>2015-08-21T13:36:11Z</time>
      </trkpt>
      <trkpt lat="45.45626" lon="6.86397">
        <ele>2665.5522</ele>
        <time>2015-08-21T13:36:21Z</time>
      </trkpt>
      <trkpt lat="45.45626" lon="6.86404">
        <ele>2665.5522</ele>
        <time>2015-08-21T13:36:26Z</time>
      </trkpt>
      <trkpt lat="45.45627" lon="6.86406">
        <ele>2665.5522</ele>
        <time>2015-08-21T13:36:36Z</time>
      </trkpt>
      <trkpt lat="45.45626" lon="6.86405">
        <ele>2665.5522</ele>
        <time>2015-08-21T13:36:41Z</time>
      </trkpt>
      <trkpt lat="45.45623" lon="6.86404">
        <ele>2666.1843</ele>
        <time>2015-08-21T13:36:56Z</time>
      </trkpt>
      <trkpt lat="45.45624" lon="6.86402">
        <ele>2666.1843</ele>
        <time>2015-08-21T13:37:01Z</time>
      </trkpt>
      <trkpt lat="45.45627" lon="6.86409">
        <ele>2666.1843</ele>
        <time>2015-08-21T13:37:11Z</time>
      </trkpt>
      <trkpt lat="45.45627" lon="6.86411">
        <ele>2666.3782</ele>
        <time>2015-08-21T13:37:16Z</time>
      </trkpt>
      <trkpt lat="45.45629" lon="6.86417">
        <ele>2666.3782</ele>
        <time>2015-08-21T13:37:26Z</time>
      </trkpt>
      <trkpt lat="45.45628" lon="6.86419">
        <ele>2666.3782</ele>
        <time>2015-08-21T13:37:31Z</time>
      </trkpt>
      <trkpt lat="45.45625" lon="6.86419">
        <ele>2666.345</ele>
        <time>2015-08-21T13:37:41Z</time>
      </trkpt>
      <trkpt lat="45.45625" lon="6.86417">
        <ele>2666.345</ele>
        <time>2015-08-21T13:37:46Z</time>
      </trkpt>
      <trkpt lat="45.45626" lon="6.86415">
        <ele>2666.345</ele>
        <time>2015-08-21T13:37:56Z</time>
      </trkpt>
      <trkpt lat="45.45626" lon="6.86416">
        <ele>2666.345</ele>
        <time>2015-08-21T13:38:01Z</time>
      </trkpt>
      <trkpt lat="45.45623" lon="6.86432">
        <ele>2666.324</ele>
        <time>2015-08-21T13:38:16Z</time>
      </trkpt>
      <trkpt lat="45.45623" lon="6.86438">
        <ele>2666.324</ele>
        <time>2015-08-21T13:38:21Z</time>
      </trkpt>
      <trkpt lat="45.45616" lon="6.8645">
        <ele>2666.047</ele>
        <time>2015-08-21T13:38:31Z</time>
      </trkpt>
      <trkpt lat="45.45612" lon="6.86456">
        <ele>2666.047</ele>
        <time>2015-08-21T13:38:36Z</time>
      </trkpt>
      <trkpt lat="45.45609" lon="6.8647">
        <ele>2665.497</ele>
        <time>2015-08-21T13:38:46Z</time>
      </trkpt>
      <trkpt lat="45.45606" lon="6.86476">
        <ele>2665.497</ele>
        <time>2015-08-21T13:38:51Z</time>
      </trkpt>
      <trkpt lat="45.45604" lon="6.86493">
        <ele>2664.673</ele>
        <time>2015-08-21T13:39:01Z</time>
      </trkpt>
      <trkpt lat="45.45603" lon="6.86498">
        <ele>2664.673</ele>
        <time>2015-08-21T13:39:06Z</time>
      </trkpt>
      <trkpt lat="45.45598" lon="6.86508">
        <ele>2663.6323</ele>
        <time>2015-08-21T13:39:16Z</time>
      </trkpt>
      <trkpt lat="45.45595" lon="6.86515">
        <ele>2663.6323</ele>
        <time>2015-08-21T13:39:21Z</time>
      </trkpt>
      <trkpt lat="45.45593" lon="6.86529">
        <ele>2662.6016</ele>
        <time>2015-08-21T13:39:31Z</time>
      </trkpt>
      <trkpt lat="45.45592" lon="6.86534">
        <ele>2662.6016</ele>
        <time>2015-08-21T13:39:36Z</time>
      </trkpt>
      <trkpt lat="45.45591" lon="6.8655">
        <ele>2661.4736</ele>
        <time>2015-08-21T13:39:46Z</time>
      </trkpt>
      <trkpt lat="45.4559" lon="6.86557">
        <ele>2661.4736</ele>
        <time>2015-08-21T13:39:51Z</time>
      </trkpt>
      <trkpt lat="45.45586" lon="6.86577">
        <ele>2660.4236</ele>
        <time>2015-08-21T13:40:06Z</time>
      </trkpt>
      <trkpt lat="45.45586" lon="6.8658">
        <ele>2660.4236</ele>
        <time>2015-08-21T13:40:11Z</time>
      </trkpt>
      <trkpt lat="45.45586" lon="6.86578">
        <ele>2660.4236</ele>
        <time>2015-08-21T13:40:21Z</time>
      </trkpt>
      <trkpt lat="45.45586" lon="6.86582">
        <ele>2660.4236</ele>
        <time>2015-08-21T13:40:26Z</time>
      </trkpt>
      <trkpt lat="45.45588" lon="6.86596">
        <ele>2659.2952</ele>
        <time>2015-08-21T13:40:36Z</time>
      </trkpt>
      <trkpt lat="45.4559" lon="6.86603">
        <ele>2659.2952</ele>
        <time>2015-08-21T13:40:41Z</time>
      </trkpt>
      <trkpt lat="45.45592" lon="6.86619">
        <ele>2658.103</ele>
        <time>2015-08-21T13:40:51Z</time>
      </trkpt>
      <trkpt lat="45.45594" lon="6.86625">
        <ele>2658.103</ele>
        <time>2015-08-21T13:40:56Z</time>
      </trkpt>
      <trkpt lat="45.45593" lon="6.86637">
        <ele>2656.7163</ele>
        <time>2015-08-21T13:41:06Z</time>
      </trkpt>
      <trkpt lat="45.45592" lon="6.86645">
        <ele>2656.7163</ele>
        <time>2015-08-21T13:41:11Z</time>
      </trkpt>
      <trkpt lat="45.45591" lon="6.86657">
        <ele>2655.0288</ele>
        <time>2015-08-21T13:41:21Z</time>
      </trkpt>
      <trkpt lat="45.45588" lon="6.86661">
        <ele>2655.0288</ele>
        <time>2015-08-21T13:41:26Z</time>
      </trkpt>
      <trkpt lat="45.45586" lon="6.86671">
        <ele>2653.0574</ele>
        <time>2015-08-21T13:41:36Z</time>
      </trkpt>
      <trkpt lat="45.45584" lon="6.86675">
        <ele>2653.0574</ele>
        <time>2015-08-21T13:41:41Z</time>
      </trkpt>
      <trkpt lat="45.45583" lon="6.86675">
        <ele>2653.0574</ele>
        <time>2015-08-21T13:41:51Z</time>
      </trkpt>
      <trkpt lat="45.45581" lon="6.86682">
        <ele>2650.7612</ele>
        <time>2015-08-21T13:41:56Z</time>
      </trkpt>
      <trkpt lat="45.45574" lon="6.86698">
        <ele>2648.3047</ele>
        <time>2015-08-21T13:42:11Z</time>
      </trkpt>
      <trkpt lat="45.45572" lon="6.86705">
        <ele>2648.3047</ele>
        <time>2015-08-21T13:42:16Z</time>
      </trkpt>
      <trkpt lat="45.45571" lon="6.8672">
        <ele>2645.826</ele>
        <time>2015-08-21T13:42:26Z</time>
      </trkpt>
      <trkpt lat="45.45572" lon="6.86728">
        <ele>2645.826</ele>
        <time>2015-08-21T13:42:31Z</time>
      </trkpt>
      <trkpt lat="45.45573" lon="6.8674">
        <ele>2643.2795</ele>
        <time>2015-08-21T13:42:41Z</time>
      </trkpt>
      <trkpt lat="45.45574" lon="6.86746">
        <ele>2643.2795</ele>
        <time>2015-08-21T13:42:46Z</time>
      </trkpt>
      <trkpt lat="45.45578" lon="6.86755">
        <ele>2640.696</ele>
        <time>2015-08-21T13:42:56Z</time>
      </trkpt>
      <trkpt lat="45.45578" lon="6.86761">
        <ele>2640.696</ele>
        <time>2015-08-21T13:43:01Z</time>
      </trkpt>
      <trkpt lat="45.4558" lon="6.86774">
        <ele>2638.0305</ele>
        <time>2015-08-21T13:43:11Z</time>
      </trkpt>
      <trkpt lat="45.4558" lon="6.86782">
        <ele>2638.0305</ele>
        <time>2015-08-21T13:43:16Z</time>
      </trkpt>
      <trkpt lat="45.4558" lon="6.86794">
        <ele>2635.3142</ele>
        <time>2015-08-21T13:43:26Z</time>
      </trkpt>
      <trkpt lat="45.45581" lon="6.868">
        <ele>2635.3142</ele>
        <time>2015-08-21T13:43:31Z</time>
      </trkpt>
      <trkpt lat="45.4558" lon="6.86815">
        <ele>2632.5608</ele>
        <time>2015-08-21T13:43:41Z</time>
      </trkpt>
      <trkpt lat="45.45582" lon="6.8682">
        <ele>2632.5608</ele>
        <time>2015-08-21T13:43:46Z</time>
      </trkpt>
      <trkpt lat="45.45582" lon="6.86822">
        <ele>2632.5608</ele>
        <time>2015-08-21T13:43:56Z</time>
      </trkpt>
      <trkpt lat="45.45583" lon="6.86823">
        <ele>2632.5608</ele>
        <time>2015-08-21T13:44:01Z</time>
      </trkpt>
      <trkpt lat="45.45582" lon="6.86825">
        <ele>2632.5608</ele>
        <time>2015-08-21T13:44:16Z</time>
      </trkpt>
      <trkpt lat="45.45583" lon="6.86825">
        <ele>2632.5608</ele>
        <time>2015-08-21T13:44:21Z</time>
      </trkpt>
      <trkpt lat="45.45586" lon="6.86826">
        <ele>2629.87</ele>
        <time>2015-08-21T13:44:31Z</time>
      </trkpt>
      <trkpt lat="45.45585" lon="6.86824">
        <ele>2629.87</ele>
        <time>2015-08-21T13:44:36Z</time>
      </trkpt>
      <trkpt lat="45.45585" lon="6.86822">
        <ele>2629.87</ele>
        <time>2015-08-21T13:44:46Z</time>
      </trkpt>
      <trkpt lat="45.45585" lon="6.86822">
        <ele>2629.87</ele>
        <time>2015-08-21T13:44:51Z</time>
      </trkpt>
      <trkpt lat="45.45583" lon="6.86823">
        <ele>2629.87</ele>
        <time>2015-08-21T13:45:01Z</time>
      </trkpt>
      <trkpt lat="45.45583" lon="6.8683">
        <ele>2627.189</ele>
        <time>2015-08-21T13:45:06Z</time>
      </trkpt>
      <trkpt lat="45.45583" lon="6.86838">
        <ele>2627.189</ele>
        <time>2015-08-21T13:45:16Z</time>
      </trkpt>
      <trkpt lat="45.45582" lon="6.86846">
        <ele>2624.5693</ele>
        <time>2015-08-21T13:45:21Z</time>
      </trkpt>
      <trkpt lat="45.4558" lon="6.8685">
        <ele>2624.5693</ele>
        <time>2015-08-21T13:45:31Z</time>
      </trkpt>
      <trkpt lat="45.4558" lon="6.86849">
        <ele>2624.5693</ele>
        <time>2015-08-21T13:45:36Z</time>
      </trkpt>
      <trkpt lat="45.4558" lon="6.86848">
        <ele>2624.5693</ele>
        <time>2015-08-21T13:45:46Z</time>
      </trkpt>
      <trkpt lat="45.4558" lon="6.86844">
        <ele>2624.5693</ele>
        <time>2015-08-21T13:45:51Z</time>
      </trkpt>
      <trkpt lat="45.4558" lon="6.86847">
        <ele>2621.7705</ele>
        <time>2015-08-21T13:46:01Z</time>
      </trkpt>
      <trkpt lat="45.45582" lon="6.86853">
        <ele>2621.7705</ele>
        <time>2015-08-21T13:46:06Z</time>
      </trkpt>
      <trkpt lat="45.45584" lon="6.86871">
        <ele>2618.9585</ele>
        <time>2015-08-21T13:46:21Z</time>
      </trkpt>
      <trkpt lat="45.45587" lon="6.86877">
        <ele>2618.9585</ele>
        <time>2015-08-21T13:46:26Z</time>
      </trkpt>
      <trkpt lat="45.45589" lon="6.86891">
        <ele>2616.258</ele>
        <time>2015-08-21T13:46:36Z</time>
      </trkpt>
      <trkpt lat="45.45587" lon="6.86897">
        <ele>2616.258</ele>
        <time>2015-08-21T13:46:41Z</time>
      </trkpt>
      <trkpt lat="45.45591" lon="6.86906">
        <ele>2613.5972</ele>
        <time>2015-08-21T13:46:51Z</time>
      </trkpt>
      <trkpt lat="45.45592" lon="6.86912">
        <ele>2613.5972</ele>
        <time>2015-08-21T13:46:56Z</time>
      </trkpt>
      <trkpt lat="45.45588" lon="6.86917">
        <ele>2610.9229</ele>
        <time>2015-08-21T13:47:06Z</time>
      </trkpt>
      <trkpt lat="45.45588" lon="6.86921">
        <ele>2610.9229</ele>
        <time>2015-08-21T13:47:11Z</time>
      </trkpt>
      <trkpt lat="45.45582" lon="6.86927">
        <ele>2608.2573</ele>
        <time>2015-08-21T13:47:21Z</time>
      </trkpt>
      <trkpt lat="45.4558" lon="6.86934">
        <ele>2608.2573</ele>
        <time>2015-08-21T13:47:26Z</time>
      </trkpt>
      <trkpt lat="45.45581" lon="6.86946">
        <ele>2605.6934</ele>
        <time>2015-08-21T13:47:36Z</time>
      </trkpt>
      <trkpt lat="45.4558" lon="6.86949">
        <ele>2605.6934</ele>
        <time>2015-08-21T13:47:41Z</time>
      </trkpt>
      <trkpt lat="45.45582" lon="6.86958">
        <ele>2605.6934</ele>
        <time>2015-08-21T13:47:51Z</time>
      </trkpt>
      <trkpt lat="45.45583" lon="6.86962">
        <ele>2602.8123</ele>
        <time>2015-08-21T13:47:56Z</time>
      </trkpt>
      <trkpt lat="45.45587" lon="6.86969">
        <ele>2602.8123</ele>
        <time>2015-08-21T13:48:06Z</time>
      </trkpt>
      <trkpt lat="45.4559" lon="6.86971">
        <ele>2599.8308</ele>
        <time>2015-08-21T13:48:11Z</time>
      </trkpt>
      <trkpt lat="45.45597" lon="6.86978">
        <ele>2599.8308</ele>
        <time>2015-08-21T13:48:21Z</time>
      </trkpt>
      <trkpt lat="45.45598" lon="6.86984">
        <ele>2596.8647</ele>
        <time>2015-08-21T13:48:26Z</time>
      </trkpt>
      <trkpt lat="45.456" lon="6.8699">
        <ele>2596.8647</ele>
        <time>2015-08-21T13:48:41Z</time>
      </trkpt>
      <trkpt lat="45.45598" lon="6.86992">
        <ele>2596.8647</ele>
        <time>2015-08-21T13:48:46Z</time>
      </trkpt>
      <trkpt lat="45.45602" lon="6.86991">
        <ele>2594.1926</ele>
        <time>2015-08-21T13:48:56Z</time>
      </trkpt>
      <trkpt lat="45.45603" lon="6.86996">
        <ele>2594.1926</ele>
        <time>2015-08-21T13:49:01Z</time>
      </trkpt>
      <trkpt lat="45.45605" lon="6.87007">
        <ele>2591.5247</ele>
        <time>2015-08-21T13:49:11Z</time>
      </trkpt>
      <trkpt lat="45.45604" lon="6.87011">
        <ele>2591.5247</ele>
        <time>2015-08-21T13:49:16Z</time>
      </trkpt>
      <trkpt lat="45.45606" lon="6.87022">
        <ele>2588.7935</ele>
        <time>2015-08-21T13:49:26Z</time>
      </trkpt>
      <trkpt lat="45.45605" lon="6.87028">
        <ele>2588.7935</ele>
        <time>2015-08-21T13:49:31Z</time>
      </trkpt>
      <trkpt lat="45.45604" lon="6.87038">
        <ele>2586.0083</ele>
        <time>2015-08-21T13:49:41Z</time>
      </trkpt>
      <trkpt lat="45.45605" lon="6.87042">
        <ele>2586.0083</ele>
        <time>2015-08-21T13:49:46Z</time>
      </trkpt>
      <trkpt lat="45.45603" lon="6.8705">
        <ele>2586.0083</ele>
        <time>2015-08-21T13:49:56Z</time>
      </trkpt>
      <trkpt lat="45.45602" lon="6.87059">
        <ele>2582.7893</ele>
        <time>2015-08-21T13:50:01Z</time>
      </trkpt>
      <trkpt lat="45.45601" lon="6.87075">
        <ele>2579.8796</ele>
        <time>2015-08-21T13:50:11Z</time>
      </trkpt>
      <trkpt lat="45.45602" lon="6.87081">
        <ele>2579.8796</ele>
        <time>2015-08-21T13:50:16Z</time>
      </trkpt>
      <trkpt lat="45.456" lon="6.87095">
        <ele>2577.0454</ele>
        <time>2015-08-21T13:50:26Z</time>
      </trkpt>
      <trkpt lat="45.45598" lon="6.871">
        <ele>2577.0454</ele>
        <time>2015-08-21T13:50:31Z</time>
      </trkpt>
      <trkpt lat="45.45597" lon="6.87116">
        <ele>2574.256</ele>
        <time>2015-08-21T13:50:41Z</time>
      </trkpt>
      <trkpt lat="45.45598" lon="6.87122">
        <ele>2574.256</ele>
        <time>2015-08-21T13:50:46Z</time>
      </trkpt>
      <trkpt lat="45.45595" lon="6.87138">
        <ele>2571.6128</ele>
        <time>2015-08-21T13:50:56Z</time>
      </trkpt>
      <trkpt lat="45.45593" lon="6.87144">
        <ele>2571.6128</ele>
        <time>2015-08-21T13:51:01Z</time>
      </trkpt>
      <trkpt lat="45.45586" lon="6.87154">
        <ele>2569.0505</ele>
        <time>2015-08-21T13:51:11Z</time>
      </trkpt>
      <trkpt lat="45.45585" lon="6.87161">
        <ele>2569.0505</ele>
        <time>2015-08-21T13:51:16Z</time>
      </trkpt>
      <trkpt lat="45.45584" lon="6.87167">
        <ele>2566.566</ele>
        <time>2015-08-21T13:51:26Z</time>
      </trkpt>
      <trkpt lat="45.45577" lon="6.87174">
        <ele>2566.566</ele>
        <time>2015-08-21T13:51:31Z</time>
      </trkpt>
      <trkpt lat="45.45564" lon="6.87191">
        <ele>2564.0974</ele>
        <time>2015-08-21T13:51:46Z</time>
      </trkpt>
      <trkpt lat="45.45561" lon="6.87196">
        <ele>2564.0974</ele>
        <time>2015-08-21T13:51:51Z</time>
      </trkpt>
      <trkpt lat="45.45551" lon="6.87204">
        <ele>2561.718</ele>
        <time>2015-08-21T13:52:01Z</time>
      </trkpt>
      <trkpt lat="45.45548" lon="6.87208">
        <ele>2561.718</ele>
        <time>2015-08-21T13:52:06Z</time>
      </trkpt>
      <trkpt lat="45.45542" lon="6.87217">
        <ele>2559.509</ele>
        <time>2015-08-21T13:52:16Z</time>
      </trkpt>
      <trkpt lat="45.45539" lon="6.87221">
        <ele>2559.509</ele>
        <time>2015-08-21T13:52:21Z</time>
      </trkpt>
      <trkpt lat="45.45534" lon="6.87233">
        <ele>2557.5305</ele>
        <time>2015-08-21T13:52:31Z</time>
      </trkpt>
      <trkpt lat="45.45533" lon="6.87239">
        <ele>2557.5305</ele>
        <time>2015-08-21T13:52:36Z</time>
      </trkpt>
      <trkpt lat="45.45527" lon="6.87249">
        <ele>2555.7656</ele>
        <time>2015-08-21T13:52:46Z</time>
      </trkpt>
      <trkpt lat="45.45526" lon="6.87257">
        <ele>2555.7656</ele>
        <time>2015-08-21T13:52:51Z</time>
      </trkpt>
      <trkpt lat="45.45524" lon="6.87267">
        <ele>2554.1113</ele>
        <time>2015-08-21T13:53:01Z</time>
      </trkpt>
      <trkpt lat="45.45521" lon="6.87273">
        <ele>2554.1113</ele>
        <time>2015-08-21T13:53:06Z</time>
      </trkpt>
      <trkpt lat="45.45517" lon="6.87285">
        <ele>2552.558</ele>
        <time>2015-08-21T13:53:16Z</time>
      </trkpt>
      <trkpt lat="45.45514" lon="6.87291">
        <ele>2552.558</ele>
        <time>2015-08-21T13:53:21Z</time>
      </trkpt>
      <trkpt lat="45.45512" lon="6.87304">
        <ele>2551.0393</ele>
        <time>2015-08-21T13:53:31Z</time>
      </trkpt>
      <trkpt lat="45.45512" lon="6.8731">
        <ele>2551.0393</ele>
        <time>2015-08-21T13:53:36Z</time>
      </trkpt>
      <trkpt lat="45.45512" lon="6.87317">
        <ele>2549.5356</ele>
        <time>2015-08-21T13:53:46Z</time>
      </trkpt>
      <trkpt lat="45.45511" lon="6.87323">
        <ele>2549.5356</ele>
        <time>2015-08-21T13:53:51Z</time>
      </trkpt>
      <trkpt lat="45.4551" lon="6.87339">
        <ele>2547.9004</ele>
        <time>2015-08-21T13:54:06Z</time>
      </trkpt>
      <trkpt lat="45.45508" lon="6.87345">
        <ele>2547.9004</ele>
        <time>2015-08-21T13:54:11Z</time>
      </trkpt>
      <trkpt lat="45.45505" lon="6.87355">
        <ele>2546.1409</ele>
        <time>2015-08-21T13:54:21Z</time>
      </trkpt>
      <trkpt lat="45.45504" lon="6.87361">
        <ele>2546.1409</ele>
        <time>2015-08-21T13:54:26Z</time>
      </trkpt>
      <trkpt lat="45.45502" lon="6.8737">
        <ele>2544.3801</ele>
        <time>2015-08-21T13:54:36Z</time>
      </trkpt>
      <trkpt lat="45.455" lon="6.87377">
        <ele>2544.3801</ele>
        <time>2015-08-21T13:54:41Z</time>
      </trkpt>
      <trkpt lat="45.45497" lon="6.87388">
        <ele>2542.5156</ele>
        <time>2015-08-21T13:54:51Z</time>
      </trkpt>
      <trkpt lat="45.45495" lon="6.87396">
        <ele>2542.5156</ele>
        <time>2015-08-21T13:54:56Z</time>
      </trkpt>
      <trkpt lat="45.45495" lon="6.87407">
        <ele>2540.6545</ele>
        <time>2015-08-21T13:55:06Z</time>
      </trkpt>
      <trkpt lat="45.45493" lon="6.8741">
        <ele>2540.6545</ele>
        <time>2015-08-21T13:55:11Z</time>
      </trkpt>
      <trkpt lat="45.45482" lon="6.87413">
        <ele>2538.9106</ele>
        <time>2015-08-21T13:55:21Z</time>
      </trkpt>
      <trkpt lat="45.45478" lon="6.87419">
        <ele>2538.9106</ele>
        <time>2015-08-21T13:55:26Z</time>
      </trkpt>
      <trkpt lat="45.45477" lon="6.87431">
        <ele>2537.23</ele>
        <time>2015-08-21T13:55:36Z</time>
      </trkpt>
      <trkpt lat="45.45476" lon="6.87438">
        <ele>2537.23</ele>
        <time>2015-08-21T13:55:41Z</time>
      </trkpt>
      <trkpt lat="45.45471" lon="6.87454">
        <ele>2535.6348</ele>
        <time>2015-08-21T13:55:51Z</time>
      </trkpt>
      <trkpt lat="45.45469" lon="6.8746">
        <ele>2535.6348</ele>
        <time>2015-08-21T13:55:56Z</time>
      </trkpt>
      <trkpt lat="45.45466" lon="6.87475">
        <ele>2534.246</ele>
        <time>2015-08-21T13:56:06Z</time>
      </trkpt>
      <trkpt lat="45.45466" lon="6.87482">
        <ele>2534.246</ele>
        <time>2015-08-21T13:56:11Z</time>
      </trkpt>
      <trkpt lat="45.45467" lon="6.87497">
        <ele>2533.1038</ele>
        <time>2015-08-21T13:56:21Z</time>
      </trkpt>
      <trkpt lat="45.45466" lon="6.87503">
        <ele>2533.1038</ele>
        <time>2015-08-21T13:56:26Z</time>
      </trkpt>
      <trkpt lat="45.45465" lon="6.87519">
        <ele>2532.2002</ele>
        <time>2015-08-21T13:56:36Z</time>
      </trkpt>
      <trkpt lat="45.45465" lon="6.87522">
        <ele>2532.2002</ele>
        <time>2015-08-21T13:56:41Z</time>
      </trkpt>
      <trkpt lat="45.45466" lon="6.87537">
        <ele>2531.456</ele>
        <time>2015-08-21T13:56:51Z</time>
      </trkpt>
      <trkpt lat="45.45466" lon="6.87546">
        <ele>2531.456</ele>
        <time>2015-08-21T13:56:56Z</time>
      </trkpt>
      <trkpt lat="45.45466" lon="6.87564">
        <ele>2530.8982</ele>
        <time>2015-08-21T13:57:11Z</time>
      </trkpt>
      <trkpt lat="45.45466" lon="6.87572">
        <ele>2530.8982</ele>
        <time>2015-08-21T13:57:16Z</time>
      </trkpt>
      <trkpt lat="45.45465" lon="6.87586">
        <ele>2530.479</ele>
        <time>2015-08-21T13:57:26Z</time>
      </trkpt>
      <trkpt lat="45.45463" lon="6.87586">
        <ele>2530.479</ele>
        <time>2015-08-21T13:57:31Z</time>
      </trkpt>
      <trkpt lat="45.45463" lon="6.87584">
        <ele>2530.479</ele>
        <time>2015-08-21T13:57:41Z</time>
      </trkpt>
      <trkpt lat="45.45462" lon="6.87583">
        <ele>2530.479</ele>
        <time>2015-08-21T13:57:46Z</time>
      </trkpt>
      <trkpt lat="45.45462" lon="6.87582">
        <ele>2530.479</ele>
        <time>2015-08-21T13:57:56Z</time>
      </trkpt>
      <trkpt lat="45.45461" lon="6.87582">
        <ele>2530.479</ele>
        <time>2015-08-21T13:58:01Z</time>
      </trkpt>
      <trkpt lat="45.45462" lon="6.87583">
        <ele>2530.479</ele>
        <time>2015-08-21T13:58:11Z</time>
      </trkpt>
      <trkpt lat="45.45461" lon="6.87583">
        <ele>2530.479</ele>
        <time>2015-08-21T13:58:16Z</time>
      </trkpt>
      <trkpt lat="45.45462" lon="6.87583">
        <ele>2530.0098</ele>
        <time>2015-08-21T13:58:26Z</time>
      </trkpt>
      <trkpt lat="45.4546" lon="6.87583">
        <ele>2530.0098</ele>
        <time>2015-08-21T13:58:31Z</time>
      </trkpt>
      <trkpt lat="45.45461" lon="6.87584">
        <ele>2530.0098</ele>
        <time>2015-08-21T13:58:41Z</time>
      </trkpt>
      <trkpt lat="45.45462" lon="6.87584">
        <ele>2530.0098</ele>
        <time>2015-08-21T13:58:46Z</time>
      </trkpt>
      <trkpt lat="45.4546" lon="6.87581">
        <ele>2530.0098</ele>
        <time>2015-08-21T13:58:56Z</time>
      </trkpt>
      <trkpt lat="45.45461" lon="6.8758">
        <ele>2530.0098</ele>
        <time>2015-08-21T13:59:01Z</time>
      </trkpt>
      <trkpt lat="45.45462" lon="6.87585">
        <ele>2529.5752</ele>
        <time>2015-08-21T13:59:11Z</time>
      </trkpt>
      <trkpt lat="45.45463" lon="6.87583">
        <ele>2529.5752</ele>
        <time>2015-08-21T13:59:16Z</time>
      </trkpt>
      <trkpt lat="45.45463" lon="6.87582">
        <ele>2529.5752</ele>
        <time>2015-08-21T13:59:26Z</time>
      </trkpt>
      <trkpt lat="45.45462" lon="6.87581">
        <ele>2529.5752</ele>
        <time>2015-08-21T13:59:31Z</time>
      </trkpt>
      <trkpt lat="45.45461" lon="6.87583">
        <ele>2529.5752</ele>
        <time>2015-08-21T13:59:46Z</time>
      </trkpt>
      <trkpt lat="45.4546" lon="6.87583">
        <ele>2529.5752</ele>
        <time>2015-08-21T13:59:51Z</time>
      </trkpt>
      <trkpt lat="45.45462" lon="6.87581">
        <ele>2529.5752</ele>
        <time>2015-08-21T14:00:01Z</time>
      </trkpt>
      <trkpt lat="45.45464" lon="6.87582">
        <ele>2529.456</ele>
        <time>2015-08-21T14:00:06Z</time>
      </trkpt>
      <trkpt lat="45.45462" lon="6.87581">
        <ele>2529.456</ele>
        <time>2015-08-21T14:00:16Z</time>
      </trkpt>
      <trkpt lat="45.45462" lon="6.87582">
        <ele>2529.456</ele>
        <time>2015-08-21T14:00:21Z</time>
      </trkpt>
      <trkpt lat="45.45461" lon="6.87585">
        <ele>2529.456</ele>
        <time>2015-08-21T14:00:31Z</time>
      </trkpt>
      <trkpt lat="45.45462" lon="6.87585">
        <ele>2529.456</ele>
        <time>2015-08-21T14:00:36Z</time>
      </trkpt>
      <trkpt lat="45.45461" lon="6.87586">
        <ele>2529.456</ele>
        <time>2015-08-21T14:00:46Z</time>
      </trkpt>
      <trkpt lat="45.45461" lon="6.87587">
        <ele>2529.456</ele>
        <time>2015-08-21T14:00:51Z</time>
      </trkpt>
      <trkpt lat="45.45461" lon="6.87585">
        <ele>2529.456</ele>
        <time>2015-08-21T14:01:01Z</time>
      </trkpt>
      <trkpt lat="45.45462" lon="6.87585">
        <ele>2529.4062</ele>
        <time>2015-08-21T14:01:06Z</time>
      </trkpt>
      <trkpt lat="45.45463" lon="6.87583">
        <ele>2529.4062</ele>
        <time>2015-08-21T14:01:16Z</time>
      </trkpt>
      <trkpt lat="45.45462" lon="6.87582">
        <ele>2529.4062</ele>
        <time>2015-08-21T14:01:21Z</time>
      </trkpt>
      <trkpt lat="45.45463" lon="6.87583">
        <ele>2529.4062</ele>
        <time>2015-08-21T14:01:31Z</time>
      </trkpt>
      <trkpt lat="45.45462" lon="6.87583">
        <ele>2529.4062</ele>
        <time>2015-08-21T14:01:36Z</time>
      </trkpt>
      <trkpt lat="45.45461" lon="6.87584">
        <ele>2529.4062</ele>
        <time>2015-08-21T14:01:46Z</time>
      </trkpt>
      <trkpt lat="45.45464" lon="6.87588">
        <ele>2529.17</ele>
        <time>2015-08-21T14:01:51Z</time>
      </trkpt>
      <trkpt lat="45.45469" lon="6.876">
        <ele>2529.0576</ele>
        <time>2015-08-21T14:02:01Z</time>
      </trkpt>
      <trkpt lat="45.45471" lon="6.87607">
        <ele>2529.0576</ele>
        <time>2015-08-21T14:02:06Z</time>
      </trkpt>
      <trkpt lat="45.45473" lon="6.87615">
        <ele>2528.939</ele>
        <time>2015-08-21T14:02:16Z</time>
      </trkpt>
      <trkpt lat="45.45473" lon="6.87615">
        <ele>2528.939</ele>
        <time>2015-08-21T14:02:21Z</time>
      </trkpt>
      <trkpt lat="45.45473" lon="6.87619">
        <ele>2528.939</ele>
        <time>2015-08-21T14:02:31Z</time>
      </trkpt>
      <trkpt lat="45.45475" lon="6.8763">
        <ele>2528.78</ele>
        <time>2015-08-21T14:02:36Z</time>
      </trkpt>
      <trkpt lat="45.45478" lon="6.87654">
        <ele>2528.6357</ele>
        <time>2015-08-21T14:02:51Z</time>
      </trkpt>
      <trkpt lat="45.45479" lon="6.87658">
        <ele>2528.6357</ele>
        <time>2015-08-21T14:02:56Z</time>
      </trkpt>
      <trkpt lat="45.45482" lon="6.87673">
        <ele>2528.5288</ele>
        <time>2015-08-21T14:03:06Z</time>
      </trkpt>
      <trkpt lat="45.45484" lon="6.87679">
        <ele>2528.5288</ele>
        <time>2015-08-21T14:03:11Z</time>
      </trkpt>
      <trkpt lat="45.45485" lon="6.87688">
        <ele>2528.4077</ele>
        <time>2015-08-21T14:03:21Z</time>
      </trkpt>
      <trkpt lat="45.45487" lon="6.87694">
        <ele>2528.4077</ele>
        <time>2015-08-21T14:03:26Z</time>
      </trkpt>
      <trkpt lat="45.45492" lon="6.87704">
        <ele>2528.4556</ele>
        <time>2015-08-21T14:03:36Z</time>
      </trkpt>
      <trkpt lat="45.45493" lon="6.8771">
        <ele>2528.4556</ele>
        <time>2015-08-21T14:03:41Z</time>
      </trkpt>
      <trkpt lat="45.45493" lon="6.87719">
        <ele>2528.6404</ele>
        <time>2015-08-21T14:03:51Z</time>
      </trkpt>
      <trkpt lat="45.45492" lon="6.87722">
        <ele>2528.6404</ele>
        <time>2015-08-21T14:03:56Z</time>
      </trkpt>
      <trkpt lat="45.45495" lon="6.8772">
        <ele>2528.6404</ele>
        <time>2015-08-21T14:04:06Z</time>
      </trkpt>
      <trkpt lat="45.45496" lon="6.87721">
        <ele>2528.6404</ele>
        <time>2015-08-21T14:04:11Z</time>
      </trkpt>
      <trkpt lat="45.45496" lon="6.87726">
        <ele>2528.8884</ele>
        <time>2015-08-21T14:04:21Z</time>
      </trkpt>
      <trkpt lat="45.45499" lon="6.87731">
        <ele>2528.8884</ele>
        <time>2015-08-21T14:04:26Z</time>
      </trkpt>
      <trkpt lat="45.45503" lon="6.87743">
        <ele>2529.1462</ele>
        <time>2015-08-21T14:04:36Z</time>
      </trkpt>
      <trkpt lat="45.45505" lon="6.87749">
        <ele>2529.1462</ele>
        <time>2015-08-21T14:04:41Z</time>
      </trkpt>
      <trkpt lat="45.45512" lon="6.87767">
        <ele>2529.3354</ele>
        <time>2015-08-21T14:04:56Z</time>
      </trkpt>
      <trkpt lat="45.45514" lon="6.87774">
        <ele>2529.3354</ele>
        <time>2015-08-21T14:05:01Z</time>
      </trkpt>
      <trkpt lat="45.45519" lon="6.87787">
        <ele>2529.312</ele>
        <time>2015-08-21T14:05:11Z</time>
      </trkpt>
      <trkpt lat="45.45522" lon="6.87795">
        <ele>2529.312</ele>
        <time>2015-08-21T14:05:16Z</time>
      </trkpt>
      <trkpt lat="45.45525" lon="6.87808">
        <ele>2529.173</ele>
        <time>2015-08-21T14:05:26Z</time>
      </trkpt>
      <trkpt lat="45.45528" lon="6.87815">
        <ele>2529.173</ele>
        <time>2015-08-21T14:05:31Z</time>
      </trkpt>
      <trkpt lat="45.45533" lon="6.87828">
        <ele>2528.8516</ele>
        <time>2015-08-21T14:05:41Z</time>
      </trkpt>
      <trkpt lat="45.45535" lon="6.87834">
        <ele>2528.8516</ele>
        <time>2015-08-21T14:05:46Z</time>
      </trkpt>
      <trkpt lat="45.45538" lon="6.87847">
        <ele>2528.415</ele>
        <time>2015-08-21T14:05:56Z</time>
      </trkpt>
      <trkpt lat="45.4554" lon="6.87853">
        <ele>2528.415</ele>
        <time>2015-08-21T14:06:01Z</time>
      </trkpt>
      <trkpt lat="45.4554" lon="6.87863">
        <ele>2527.8982</ele>
        <time>2015-08-21T14:06:11Z</time>
      </trkpt>
      <trkpt lat="45.45541" lon="6.87869">
        <ele>2527.8982</ele>
        <time>2015-08-21T14:06:16Z</time>
      </trkpt>
      <trkpt lat="45.45543" lon="6.87877">
        <ele>2527.1604</ele>
        <time>2015-08-21T14:06:26Z</time>
      </trkpt>
      <trkpt lat="45.45544" lon="6.87883">
        <ele>2527.1604</ele>
        <time>2015-08-21T14:06:31Z</time>
      </trkpt>
      <trkpt lat="45.45546" lon="6.87895">
        <ele>2526.1294</ele>
        <time>2015-08-21T14:06:41Z</time>
      </trkpt>
      <trkpt lat="45.45548" lon="6.879">
        <ele>2526.1294</ele>
        <time>2015-08-21T14:06:46Z</time>
      </trkpt>
      <trkpt lat="45.45553" lon="6.87912">
        <ele>2524.9421</ele>
        <time>2015-08-21T14:06:56Z</time>
      </trkpt>
      <trkpt lat="45.45551" lon="6.87918">
        <ele>2524.9421</ele>
        <time>2015-08-21T14:07:01Z</time>
      </trkpt>
      <trkpt lat="45.45549" lon="6.8793">
        <ele>2523.6094</ele>
        <time>2015-08-21T14:07:11Z</time>
      </trkpt>
      <trkpt lat="45.45548" lon="6.87935">
        <ele>2523.6094</ele>
        <time>2015-08-21T14:07:16Z</time>
      </trkpt>
      <trkpt lat="45.45547" lon="6.87944">
        <ele>2522.1858</ele>
        <time>2015-08-21T14:07:26Z</time>
      </trkpt>
      <trkpt lat="45.45548" lon="6.8795">
        <ele>2522.1858</ele>
        <time>2015-08-21T14:07:31Z</time>
      </trkpt>
      <trkpt lat="45.45546" lon="6.87968">
        <ele>2520.5925</ele>
        <time>2015-08-21T14:07:46Z</time>
      </trkpt>
      <trkpt lat="45.45542" lon="6.87975">
        <ele>2520.5925</ele>
        <time>2015-08-21T14:07:51Z</time>
      </trkpt>
      <trkpt lat="45.45538" lon="6.87988">
        <ele>2518.8289</ele>
        <time>2015-08-21T14:08:01Z</time>
      </trkpt>
      <trkpt lat="45.45536" lon="6.87996">
        <ele>2518.8289</ele>
        <time>2015-08-21T14:08:06Z</time>
      </trkpt>
      <trkpt lat="45.45533" lon="6.88002">
        <ele>2516.9097</ele>
        <time>2015-08-21T14:08:16Z</time>
      </trkpt>
      <trkpt lat="45.45529" lon="6.88008">
        <ele>2516.9097</ele>
        <time>2015-08-21T14:08:21Z</time>
      </trkpt>
      <trkpt lat="45.45528" lon="6.88021">
        <ele>2514.791</ele>
        <time>2015-08-21T14:08:31Z</time>
      </trkpt>
      <trkpt lat="45.45525" lon="6.88028">
        <ele>2514.791</ele>
        <time>2015-08-21T14:08:36Z</time>
      </trkpt>
      <trkpt lat="45.45519" lon="6.8804">
        <ele>2512.606</ele>
        <time>2015-08-21T14:08:46Z</time>
      </trkpt>
      <trkpt lat="45.45516" lon="6.88044">
        <ele>2512.606</ele>
        <time>2015-08-21T14:08:51Z</time>
      </trkpt>
      <trkpt lat="45.45513" lon="6.88054">
        <ele>2510.3486</ele>
        <time>2015-08-21T14:09:01Z</time>
      </trkpt>
      <trkpt lat="45.45511" lon="6.88061">
        <ele>2510.3486</ele>
        <time>2015-08-21T14:09:06Z</time>
      </trkpt>
      <trkpt lat="45.45507" lon="6.88074">
        <ele>2508.0278</ele>
        <time>2015-08-21T14:09:16Z</time>
      </trkpt>
      <trkpt lat="45.45507" lon="6.8808">
        <ele>2508.0278</ele>
        <time>2015-08-21T14:09:21Z</time>
      </trkpt>
      <trkpt lat="45.45508" lon="6.88096">
        <ele>2505.4792</ele>
        <time>2015-08-21T14:09:36Z</time>
      </trkpt>
      <trkpt lat="45.45509" lon="6.88101">
        <ele>2505.4792</ele>
        <time>2015-08-21T14:09:41Z</time>
      </trkpt>
      <trkpt lat="45.4551" lon="6.88117">
        <ele>2502.8103</ele>
        <time>2015-08-21T14:09:51Z</time>
      </trkpt>
      <trkpt lat="45.4551" lon="6.88125">
        <ele>2502.8103</ele>
        <time>2015-08-21T14:09:56Z</time>
      </trkpt>
      <trkpt lat="45.45507" lon="6.88131">
        <ele>2500.1213</ele>
        <time>2015-08-21T14:10:06Z</time>
      </trkpt>
      <trkpt lat="45.45507" lon="6.88131">
        <ele>2500.1213</ele>
        <time>2015-08-21T14:10:11Z</time>
      </trkpt>
      <trkpt lat="45.4551" lon="6.88128">
        <ele>2500.1213</ele>
        <time>2015-08-21T14:10:21Z</time>
      </trkpt>
      <trkpt lat="45.45511" lon="6.88132">
        <ele>2500.1213</ele>
        <time>2015-08-21T14:10:26Z</time>
      </trkpt>
      <trkpt lat="45.45512" lon="6.88151">
        <ele>2497.1162</ele>
        <time>2015-08-21T14:10:36Z</time>
      </trkpt>
      <trkpt lat="45.45514" lon="6.88157">
        <ele>2497.1162</ele>
        <time>2015-08-21T14:10:41Z</time>
      </trkpt>
      <trkpt lat="45.45516" lon="6.88174">
        <ele>2494.1982</ele>
        <time>2015-08-21T14:10:51Z</time>
      </trkpt>
      <trkpt lat="45.45518" lon="6.88183">
        <ele>2494.1982</ele>
        <time>2015-08-21T14:10:56Z</time>
      </trkpt>
      <trkpt lat="45.45523" lon="6.88191">
        <ele>2491.2659</ele>
        <time>2015-08-21T14:11:06Z</time>
      </trkpt>
      <trkpt lat="45.45524" lon="6.88197">
        <ele>2491.2659</ele>
        <time>2015-08-21T14:11:11Z</time>
      </trkpt>
      <trkpt lat="45.45525" lon="6.88211">
        <ele>2488.2678</ele>
        <time>2015-08-21T14:11:21Z</time>
      </trkpt>
      <trkpt lat="45.45525" lon="6.88213">
        <ele>2488.2678</ele>
        <time>2015-08-21T14:11:26Z</time>
      </trkpt>
      <trkpt lat="45.45531" lon="6.88231">
        <ele>2485.2434</ele>
        <time>2015-08-21T14:11:36Z</time>
      </trkpt>
      <trkpt lat="45.45534" lon="6.88237">
        <ele>2485.2434</ele>
        <time>2015-08-21T14:11:41Z</time>
      </trkpt>
      <trkpt lat="45.45539" lon="6.88248">
        <ele>2482.2144</ele>
        <time>2015-08-21T14:11:51Z</time>
      </trkpt>
      <trkpt lat="45.45542" lon="6.88253">
        <ele>2482.2144</ele>
        <time>2015-08-21T14:11:56Z</time>
      </trkpt>
      <trkpt lat="45.45541" lon="6.88272">
        <ele>2479.2583</ele>
        <time>2015-08-21T14:12:11Z</time>
      </trkpt>
      <trkpt lat="45.45535" lon="6.8828">
        <ele>2479.2583</ele>
        <time>2015-08-21T14:12:16Z</time>
      </trkpt>
      <trkpt lat="45.45532" lon="6.88292">
        <ele>2476.5774</ele>
        <time>2015-08-21T14:12:26Z</time>
      </trkpt>
      <trkpt lat="45.45533" lon="6.88299">
        <ele>2476.5774</ele>
        <time>2015-08-21T14:12:31Z</time>
      </trkpt>
      <trkpt lat="45.4554" lon="6.88311">
        <ele>2474.1118</ele>
        <time>2015-08-21T14:12:41Z</time>
      </trkpt>
      <trkpt lat="45.45542" lon="6.88318">
        <ele>2474.1118</ele>
        <time>2015-08-21T14:12:46Z</time>
      </trkpt>
      <trkpt lat="45.45544" lon="6.88332">
        <ele>2471.8643</ele>
        <time>2015-08-21T14:12:56Z</time>
      </trkpt>
      <trkpt lat="45.45546" lon="6.88338">
        <ele>2471.8643</ele>
        <time>2015-08-21T14:13:01Z</time>
      </trkpt>
      <trkpt lat="45.45547" lon="6.88352">
        <ele>2469.6482</ele>
        <time>2015-08-21T14:13:11Z</time>
      </trkpt>
      <trkpt lat="45.45548" lon="6.88359">
        <ele>2469.6482</ele>
        <time>2015-08-21T14:13:16Z</time>
      </trkpt>
      <trkpt lat="45.45551" lon="6.88371">
        <ele>2467.4639</ele>
        <time>2015-08-21T14:13:26Z</time>
      </trkpt>
      <trkpt lat="45.45552" lon="6.88377">
        <ele>2467.4639</ele>
        <time>2015-08-21T14:13:31Z</time>
      </trkpt>
      <trkpt lat="45.45555" lon="6.8839">
        <ele>2465.3262</ele>
        <time>2015-08-21T14:13:41Z</time>
      </trkpt>
      <trkpt lat="45.45554" lon="6.88394">
        <ele>2465.3262</ele>
        <time>2015-08-21T14:13:46Z</time>
      </trkpt>
      <trkpt lat="45.45554" lon="6.88397">
        <ele>2465.3262</ele>
        <time>2015-08-21T14:13:56Z</time>
      </trkpt>
      <trkpt lat="45.45553" lon="6.88398">
        <ele>2465.3262</ele>
        <time>2015-08-21T14:14:01Z</time>
      </trkpt>
      <trkpt lat="45.45552" lon="6.88397">
        <ele>2465.3262</ele>
        <time>2015-08-21T14:14:11Z</time>
      </trkpt>
      <trkpt lat="45.45556" lon="6.88403">
        <ele>2462.8013</ele>
        <time>2015-08-21T14:14:16Z</time>
      </trkpt>
      <trkpt lat="45.45556" lon="6.88419">
        <ele>2460.4253</ele>
        <time>2015-08-21T14:14:26Z</time>
      </trkpt>
      <trkpt lat="45.45557" lon="6.88427">
        <ele>2460.4253</ele>
        <time>2015-08-21T14:14:31Z</time>
      </trkpt>
      <trkpt lat="45.45554" lon="6.88439">
        <ele>2458.0745</ele>
        <time>2015-08-21T14:14:46Z</time>
      </trkpt>
      <trkpt lat="45.45555" lon="6.88445">
        <ele>2458.0745</ele>
        <time>2015-08-21T14:14:51Z</time>
      </trkpt>
      <trkpt lat="45.45551" lon="6.88453">
        <ele>2455.7063</ele>
        <time>2015-08-21T14:15:01Z</time>
      </trkpt>
      <trkpt lat="45.4555" lon="6.88458">
        <ele>2455.7063</ele>
        <time>2015-08-21T14:15:06Z</time>
      </trkpt>
      <trkpt lat="45.45551" lon="6.88469">
        <ele>2453.3098</ele>
        <time>2015-08-21T14:15:16Z</time>
      </trkpt>
      <trkpt lat="45.45552" lon="6.88475">
        <ele>2453.3098</ele>
        <time>2015-08-21T14:15:21Z</time>
      </trkpt>
      <trkpt lat="45.45552" lon="6.88491">
        <ele>2450.9905</ele>
        <time>2015-08-21T14:15:31Z</time>
      </trkpt>
      <trkpt lat="45.45553" lon="6.88498">
        <ele>2450.9905</ele>
        <time>2015-08-21T14:15:36Z</time>
      </trkpt>
      <trkpt lat="45.45555" lon="6.88515">
        <ele>2448.7302</ele>
        <time>2015-08-21T14:15:46Z</time>
      </trkpt>
      <trkpt lat="45.45556" lon="6.8852">
        <ele>2448.7302</ele>
        <time>2015-08-21T14:15:51Z</time>
      </trkpt>
      <trkpt lat="45.45557" lon="6.88534">
        <ele>2446.584</ele>
        <time>2015-08-21T14:16:01Z</time>
      </trkpt>
      <trkpt lat="45.45557" lon="6.88541">
        <ele>2446.584</ele>
        <time>2015-08-21T14:16:06Z</time>
      </trkpt>
      <trkpt lat="45.45558" lon="6.88556">
        <ele>2444.5159</ele>
        <time>2015-08-21T14:16:16Z</time>
      </trkpt>
      <trkpt lat="45.45558" lon="6.88561">
        <ele>2444.5159</ele>
        <time>2015-08-21T14:16:21Z</time>
      </trkpt>
      <trkpt lat="45.45558" lon="6.88573">
        <ele>2442.5935</ele>
        <time>2015-08-21T14:16:31Z</time>
      </trkpt>
      <trkpt lat="45.45556" lon="6.8858">
        <ele>2442.5935</ele>
        <time>2015-08-21T14:16:36Z</time>
      </trkpt>
      <trkpt lat="45.45551" lon="6.88592">
        <ele>2440.7341</ele>
        <time>2015-08-21T14:16:46Z</time>
      </trkpt>
      <trkpt lat="45.45552" lon="6.88597">
        <ele>2440.7341</ele>
        <time>2015-08-21T14:16:51Z</time>
      </trkpt>
      <trkpt lat="45.45552" lon="6.88606">
        <ele>2438.905</ele>
        <time>2015-08-21T14:17:01Z</time>
      </trkpt>
      <trkpt lat="45.45552" lon="6.88611">
        <ele>2438.905</ele>
        <time>2015-08-21T14:17:06Z</time>
      </trkpt>
      <trkpt lat="45.45553" lon="6.88625">
        <ele>2436.83</ele>
        <time>2015-08-21T14:17:21Z</time>
      </trkpt>
      <trkpt lat="45.45554" lon="6.8863">
        <ele>2436.83</ele>
        <time>2015-08-21T14:17:26Z</time>
      </trkpt>
      <trkpt lat="45.4556" lon="6.88639">
        <ele>2434.7585</ele>
        <time>2015-08-21T14:17:36Z</time>
      </trkpt>
      <trkpt lat="45.4556" lon="6.88648">
        <ele>2434.7585</ele>
        <time>2015-08-21T14:17:41Z</time>
      </trkpt>
      <trkpt lat="45.45559" lon="6.8866">
        <ele>2432.705</ele>
        <time>2015-08-21T14:17:51Z</time>
      </trkpt>
      <trkpt lat="45.4556" lon="6.88667">
        <ele>2432.705</ele>
        <time>2015-08-21T14:17:56Z</time>
      </trkpt>
      <trkpt lat="45.45564" lon="6.88681">
        <ele>2430.6257</ele>
        <time>2015-08-21T14:18:06Z</time>
      </trkpt>
      <trkpt lat="45.45564" lon="6.88687">
        <ele>2430.6257</ele>
        <time>2015-08-21T14:18:11Z</time>
      </trkpt>
      <trkpt lat="45.45565" lon="6.887">
        <ele>2428.5083</ele>
        <time>2015-08-21T14:18:21Z</time>
      </trkpt>
      <trkpt lat="45.45566" lon="6.88706">
        <ele>2428.5083</ele>
        <time>2015-08-21T14:18:26Z</time>
      </trkpt>
      <trkpt lat="45.45567" lon="6.88715">
        <ele>2426.3708</ele>
        <time>2015-08-21T14:18:36Z</time>
      </trkpt>
      <trkpt lat="45.45568" lon="6.8872">
        <ele>2426.3708</ele>
        <time>2015-08-21T14:18:41Z</time>
      </trkpt>
      <trkpt lat="45.4557" lon="6.88729">
        <ele>2424.2297</ele>
        <time>2015-08-21T14:18:51Z</time>
      </trkpt>
      <trkpt lat="45.4557" lon="6.8873">
        <ele>2424.2297</ele>
        <time>2015-08-21T14:18:56Z</time>
      </trkpt>
      <trkpt lat="45.45572" lon="6.88734">
        <ele>2424.2297</ele>
        <time>2015-08-21T14:19:11Z</time>
      </trkpt>
      <trkpt lat="45.45571" lon="6.88733">
        <ele>2424.2297</ele>
        <time>2015-08-21T14:19:16Z</time>
      </trkpt>
      <trkpt lat="45.45571" lon="6.8873">
        <ele>2424.2297</ele>
        <time>2015-08-21T14:19:26Z</time>
      </trkpt>
      <trkpt lat="45.4557" lon="6.88729">
        <ele>2424.2297</ele>
        <time>2015-08-21T14:19:31Z</time>
      </trkpt>
      <trkpt lat="45.4557" lon="6.88729">
        <ele>2421.8115</ele>
        <time>2015-08-21T14:19:41Z</time>
      </trkpt>
      <trkpt lat="45.4557" lon="6.88731">
        <ele>2421.8115</ele>
        <time>2015-08-21T14:19:46Z</time>
      </trkpt>
      <trkpt lat="45.45569" lon="6.88731">
        <ele>2421.8115</ele>
        <time>2015-08-21T14:19:56Z</time>
      </trkpt>
      <trkpt lat="45.45569" lon="6.8873">
        <ele>2421.8115</ele>
        <time>2015-08-21T14:20:01Z</time>
      </trkpt>
      <trkpt lat="45.45568" lon="6.88729">
        <ele>2421.8115</ele>
        <time>2015-08-21T14:20:11Z</time>
      </trkpt>
      <trkpt lat="45.4557" lon="6.8873">
        <ele>2421.8115</ele>
        <time>2015-08-21T14:20:16Z</time>
      </trkpt>
      <trkpt lat="45.45575" lon="6.88736">
        <ele>2419.3833</ele>
        <time>2015-08-21T14:20:26Z</time>
      </trkpt>
      <trkpt lat="45.45577" lon="6.88743">
        <ele>2419.3833</ele>
        <time>2015-08-21T14:20:31Z</time>
      </trkpt>
      <trkpt lat="45.45582" lon="6.88751">
        <ele>2417.249</ele>
        <time>2015-08-21T14:20:41Z</time>
      </trkpt>
      <trkpt lat="45.45582" lon="6.88756">
        <ele>2417.249</ele>
        <time>2015-08-21T14:20:46Z</time>
      </trkpt>
      <trkpt lat="45.45587" lon="6.88763">
        <ele>2415.2725</ele>
        <time>2015-08-21T14:20:56Z</time>
      </trkpt>
      <trkpt lat="45.45591" lon="6.88767">
        <ele>2415.2725</ele>
        <time>2015-08-21T14:21:01Z</time>
      </trkpt>
      <trkpt lat="45.45599" lon="6.88778">
        <ele>2413.3267</ele>
        <time>2015-08-21T14:21:11Z</time>
      </trkpt>
      <trkpt lat="45.45602" lon="6.88781">
        <ele>2413.3267</ele>
        <time>2015-08-21T14:21:16Z</time>
      </trkpt>
      <trkpt lat="45.45606" lon="6.88787">
        <ele>2411.409</ele>
        <time>2015-08-21T14:21:26Z</time>
      </trkpt>
      <trkpt lat="45.45607" lon="6.88791">
        <ele>2411.409</ele>
        <time>2015-08-21T14:21:31Z</time>
      </trkpt>
      <trkpt lat="45.45614" lon="6.88804">
        <ele>2409.358</ele>
        <time>2015-08-21T14:21:46Z</time>
      </trkpt>
      <trkpt lat="45.45615" lon="6.88808">
        <ele>2409.358</ele>
        <time>2015-08-21T14:21:51Z</time>
      </trkpt>
      <trkpt lat="45.4562" lon="6.88816">
        <ele>2407.2559</ele>
        <time>2015-08-21T14:22:01Z</time>
      </trkpt>
      <trkpt lat="45.45623" lon="6.88818">
        <ele>2407.2559</ele>
        <time>2015-08-21T14:22:06Z</time>
      </trkpt>
      <trkpt lat="45.45628" lon="6.88827">
        <ele>2405.1064</ele>
        <time>2015-08-21T14:22:16Z</time>
      </trkpt>
      <trkpt lat="45.45631" lon="6.88831">
        <ele>2405.1064</ele>
        <time>2015-08-21T14:22:21Z</time>
      </trkpt>
      <trkpt lat="45.45638" lon="6.88837">
        <ele>2402.8984</ele>
        <time>2015-08-21T14:22:31Z</time>
      </trkpt>
      <trkpt lat="45.45642" lon="6.88843">
        <ele>2402.8984</ele>
        <time>2015-08-21T14:22:36Z</time>
      </trkpt>
      <trkpt lat="45.45646" lon="6.88852">
        <ele>2400.7666</ele>
        <time>2015-08-21T14:22:46Z</time>
      </trkpt>
      <trkpt lat="45.4565" lon="6.88856">
        <ele>2400.7666</ele>
        <time>2015-08-21T14:22:51Z</time>
      </trkpt>
      <trkpt lat="45.45654" lon="6.88862">
        <ele>2398.5608</ele>
        <time>2015-08-21T14:23:01Z</time>
      </trkpt>
      <trkpt lat="45.45654" lon="6.88864">
        <ele>2398.5608</ele>
        <time>2015-08-21T14:23:06Z</time>
      </trkpt>
      <trkpt lat="45.45655" lon="6.88867">
        <ele>2398.5608</ele>
        <time>2015-08-21T14:23:16Z</time>
      </trkpt>
      <trkpt lat="45.4566" lon="6.88872">
        <ele>2396.2583</ele>
        <time>2015-08-21T14:23:21Z</time>
      </trkpt>
      <trkpt lat="45.45666" lon="6.88882">
        <ele>2394.0679</ele>
        <time>2015-08-21T14:23:31Z</time>
      </trkpt>
      <trkpt lat="45.45667" lon="6.88886">
        <ele>2394.0679</ele>
        <time>2015-08-21T14:23:36Z</time>
      </trkpt>
      <trkpt lat="45.45677" lon="6.88899">
        <ele>2391.7224</ele>
        <time>2015-08-21T14:23:51Z</time>
      </trkpt>
      <trkpt lat="45.45678" lon="6.88901">
        <ele>2391.7224</ele>
        <time>2015-08-21T14:23:56Z</time>
      </trkpt>
      <trkpt lat="45.45684" lon="6.88912">
        <ele>2389.3057</ele>
        <time>2015-08-21T14:24:06Z</time>
      </trkpt>
      <trkpt lat="45.45686" lon="6.88916">
        <ele>2389.3057</ele>
        <time>2015-08-21T14:24:11Z</time>
      </trkpt>
      <trkpt lat="45.4569" lon="6.88926">
        <ele>2386.8093</ele>
        <time>2015-08-21T14:24:21Z</time>
      </trkpt>
      <trkpt lat="45.45693" lon="6.88932">
        <ele>2386.8093</ele>
        <time>2015-08-21T14:24:26Z</time>
      </trkpt>
      <trkpt lat="45.45697" lon="6.8894">
        <ele>2384.3118</ele>
        <time>2015-08-21T14:24:36Z</time>
      </trkpt>
      <trkpt lat="45.45699" lon="6.88941">
        <ele>2384.3118</ele>
        <time>2015-08-21T14:24:41Z</time>
      </trkpt>
      <trkpt lat="45.45705" lon="6.88951">
        <ele>2381.8145</ele>
        <time>2015-08-21T14:24:51Z</time>
      </trkpt>
      <trkpt lat="45.4571" lon="6.88955">
        <ele>2381.8145</ele>
        <time>2015-08-21T14:24:56Z</time>
      </trkpt>
      <trkpt lat="45.45718" lon="6.88962">
        <ele>2379.3179</ele>
        <time>2015-08-21T14:25:06Z</time>
      </trkpt>
      <trkpt lat="45.45721" lon="6.88964">
        <ele>2379.3179</ele>
        <time>2015-08-21T14:25:11Z</time>
      </trkpt>
      <trkpt lat="45.4573" lon="6.8897">
        <ele>2376.7078</ele>
        <time>2015-08-21T14:25:21Z</time>
      </trkpt>
      <trkpt lat="45.45732" lon="6.88974">
        <ele>2376.7078</ele>
        <time>2015-08-21T14:25:26Z</time>
      </trkpt>
      <trkpt lat="45.4574" lon="6.8898">
        <ele>2374.1519</ele>
        <time>2015-08-21T14:25:36Z</time>
      </trkpt>
      <trkpt lat="45.45743" lon="6.88983">
        <ele>2374.1519</ele>
        <time>2015-08-21T14:25:41Z</time>
      </trkpt>
      <trkpt lat="45.45744" lon="6.88991">
        <ele>2374.1519</ele>
        <time>2015-08-21T14:25:51Z</time>
      </trkpt>
      <trkpt lat="45.45746" lon="6.88994">
        <ele>2371.474</ele>
        <time>2015-08-21T14:25:56Z</time>
      </trkpt>
      <trkpt lat="45.4575" lon="6.89">
        <ele>2371.474</ele>
        <time>2015-08-21T14:26:11Z</time>
      </trkpt>
      <trkpt lat="45.45752" lon="6.89002">
        <ele>2371.474</ele>
        <time>2015-08-21T14:26:16Z</time>
      </trkpt>
      <trkpt lat="45.4576" lon="6.89009">
        <ele>2368.4546</ele>
        <time>2015-08-21T14:26:26Z</time>
      </trkpt>
      <trkpt lat="45.45763" lon="6.89013">
        <ele>2368.4546</ele>
        <time>2015-08-21T14:26:31Z</time>
      </trkpt>
      <trkpt lat="45.45769" lon="6.89022">
        <ele>2365.5237</ele>
        <time>2015-08-21T14:26:41Z</time>
      </trkpt>
      <trkpt lat="45.45771" lon="6.89027">
        <ele>2365.5237</ele>
        <time>2015-08-21T14:26:46Z</time>
      </trkpt>
      <trkpt lat="45.45774" lon="6.89038">
        <ele>2362.6335</ele>
        <time>2015-08-21T14:26:56Z</time>
      </trkpt>
      <trkpt lat="45.45776" lon="6.89041">
        <ele>2362.6335</ele>
        <time>2015-08-21T14:27:01Z</time>
      </trkpt>
      <trkpt lat="45.45783" lon="6.89046">
        <ele>2359.6821</ele>
        <time>2015-08-21T14:27:11Z</time>
      </trkpt>
      <trkpt lat="45.45784" lon="6.89049">
        <ele>2359.6821</ele>
        <time>2015-08-21T14:27:16Z</time>
      </trkpt>
      <trkpt lat="45.45785" lon="6.89059">
        <ele>2356.7336</ele>
        <time>2015-08-21T14:27:26Z</time>
      </trkpt>
      <trkpt lat="45.45786" lon="6.89065">
        <ele>2356.7336</ele>
        <time>2015-08-21T14:27:31Z</time>
      </trkpt>
      <trkpt lat="45.45783" lon="6.89082">
        <ele>2353.674</ele>
        <time>2015-08-21T14:27:46Z</time>
      </trkpt>
      <trkpt lat="45.45787" lon="6.89087">
        <ele>2353.674</ele>
        <time>2015-08-21T14:27:51Z</time>
      </trkpt>
      <trkpt lat="45.45791" lon="6.89091">
        <ele>2350.5862</ele>
        <time>2015-08-21T14:28:01Z</time>
      </trkpt>
      <trkpt lat="45.45794" lon="6.89096">
        <ele>2350.5862</ele>
        <time>2015-08-21T14:28:06Z</time>
      </trkpt>
      <trkpt lat="45.458" lon="6.89103">
        <ele>2347.5457</ele>
        <time>2015-08-21T14:28:16Z</time>
      </trkpt>
      <trkpt lat="45.45801" lon="6.89108">
        <ele>2347.5457</ele>
        <time>2015-08-21T14:28:21Z</time>
      </trkpt>
      <trkpt lat="45.45805" lon="6.89119">
        <ele>2344.4792</ele>
        <time>2015-08-21T14:28:31Z</time>
      </trkpt>
      <trkpt lat="45.45807" lon="6.89125">
        <ele>2344.4792</ele>
        <time>2015-08-21T14:28:36Z</time>
      </trkpt>
      <trkpt lat="45.45814" lon="6.89129">
        <ele>2341.4917</ele>
        <time>2015-08-21T14:28:46Z</time>
      </trkpt>
      <trkpt lat="45.45814" lon="6.89129">
        <ele>2341.4917</ele>
        <time>2015-08-21T14:28:51Z</time>
      </trkpt>
      <trkpt lat="45.45812" lon="6.89131">
        <ele>2341.4917</ele>
        <time>2015-08-21T14:29:01Z</time>
      </trkpt>
      <trkpt lat="45.45812" lon="6.8913">
        <ele>2341.4917</ele>
        <time>2015-08-21T14:29:06Z</time>
      </trkpt>
      <trkpt lat="45.45813" lon="6.89129">
        <ele>2341.4917</ele>
        <time>2015-08-21T14:29:21Z</time>
      </trkpt>
      <trkpt lat="45.45814" lon="6.89129">
        <ele>2341.4917</ele>
        <time>2015-08-21T14:29:26Z</time>
      </trkpt>
      <trkpt lat="45.45813" lon="6.8913">
        <ele>2341.4917</ele>
        <time>2015-08-21T14:29:36Z</time>
      </trkpt>
      <trkpt lat="45.45813" lon="6.89129">
        <ele>2341.4917</ele>
        <time>2015-08-21T14:29:41Z</time>
      </trkpt>
      <trkpt lat="45.45816" lon="6.8914">
        <ele>2338.0889</ele>
        <time>2015-08-21T14:29:51Z</time>
      </trkpt>
      <trkpt lat="45.4582" lon="6.89145">
        <ele>2338.0889</ele>
        <time>2015-08-21T14:29:56Z</time>
      </trkpt>
      <trkpt lat="45.45826" lon="6.89149">
        <ele>2334.9092</ele>
        <time>2015-08-21T14:30:06Z</time>
      </trkpt>
      <trkpt lat="45.45829" lon="6.8915">
        <ele>2334.9092</ele>
        <time>2015-08-21T14:30:11Z</time>
      </trkpt>
      <trkpt lat="45.45834" lon="6.89161">
        <ele>2331.953</ele>
        <time>2015-08-21T14:30:21Z</time>
      </trkpt>
      <trkpt lat="45.45836" lon="6.89166">
        <ele>2331.953</ele>
        <time>2015-08-21T14:30:26Z</time>
      </trkpt>
      <trkpt lat="45.45835" lon="6.89167">
        <ele>2331.953</ele>
        <time>2015-08-21T14:30:36Z</time>
      </trkpt>
      <trkpt lat="45.45837" lon="6.89166">
        <ele>2331.953</ele>
        <time>2015-08-21T14:30:41Z</time>
      </trkpt>
      <trkpt lat="45.45839" lon="6.89167">
        <ele>2329.0466</ele>
        <time>2015-08-21T14:30:51Z</time>
      </trkpt>
      <trkpt lat="45.45839" lon="6.89169">
        <ele>2329.0466</ele>
        <time>2015-08-21T14:30:56Z</time>
      </trkpt>
      <trkpt lat="45.45837" lon="6.89169">
        <ele>2329.0466</ele>
        <time>2015-08-21T14:31:06Z</time>
      </trkpt>
      <trkpt lat="45.45835" lon="6.8917">
        <ele>2329.0466</ele>
        <time>2015-08-21T14:31:11Z</time>
      </trkpt>
      <trkpt lat="45.45832" lon="6.89167">
        <ele>2329.0466</ele>
        <time>2015-08-21T14:31:21Z</time>
      </trkpt>
      <trkpt lat="45.45833" lon="6.89168">
        <ele>2326.548</ele>
        <time>2015-08-21T14:31:26Z</time>
      </trkpt>
      <trkpt lat="45.45839" lon="6.89172">
        <ele>2326.548</ele>
        <time>2015-08-21T14:31:36Z</time>
      </trkpt>
      <trkpt lat="45.45843" lon="6.89173">
        <ele>2324.2688</ele>
        <time>2015-08-21T14:31:41Z</time>
      </trkpt>
      <trkpt lat="45.4585" lon="6.89174">
        <ele>2324.2688</ele>
        <time>2015-08-21T14:31:51Z</time>
      </trkpt>
      <trkpt lat="45.45852" lon="6.89173">
        <ele>2322.0623</ele>
        <time>2015-08-21T14:31:56Z</time>
      </trkpt>
      <trkpt lat="45.45867" lon="6.89181">
        <ele>2319.9802</ele>
        <time>2015-08-21T14:32:11Z</time>
      </trkpt>
      <trkpt lat="45.45871" lon="6.89184">
        <ele>2319.9802</ele>
        <time>2015-08-21T14:32:16Z</time>
      </trkpt>
      <trkpt lat="45.45882" lon="6.89187">
        <ele>2317.7957</ele>
        <time>2015-08-21T14:32:26Z</time>
      </trkpt>
      <trkpt lat="45.45885" lon="6.8919">
        <ele>2317.7957</ele>
        <time>2015-08-21T14:32:31Z</time>
      </trkpt>
      <trkpt lat="45.45892" lon="6.89192">
        <ele>2315.6304</ele>
        <time>2015-08-21T14:32:41Z</time>
      </trkpt>
      <trkpt lat="45.45896" lon="6.89193">
        <ele>2315.6304</ele>
        <time>2015-08-21T14:32:46Z</time>
      </trkpt>
      <trkpt lat="45.45904" lon="6.892">
        <ele>2313.5398</ele>
        <time>2015-08-21T14:32:56Z</time>
      </trkpt>
      <trkpt lat="45.45908" lon="6.89203">
        <ele>2313.5398</ele>
        <time>2015-08-21T14:33:01Z</time>
      </trkpt>
      <trkpt lat="45.45915" lon="6.89209">
        <ele>2311.4446</ele>
        <time>2015-08-21T14:33:11Z</time>
      </trkpt>
      <trkpt lat="45.45919" lon="6.89209">
        <ele>2311.4446</ele>
        <time>2015-08-21T14:33:16Z</time>
      </trkpt>
      <trkpt lat="45.45926" lon="6.89215">
        <ele>2309.3442</ele>
        <time>2015-08-21T14:33:26Z</time>
      </trkpt>
      <trkpt lat="45.45929" lon="6.89218">
        <ele>2309.3442</ele>
        <time>2015-08-21T14:33:31Z</time>
      </trkpt>
      <trkpt lat="45.45936" lon="6.89223">
        <ele>2307.2517</ele>
        <time>2015-08-21T14:33:41Z</time>
      </trkpt>
      <trkpt lat="45.45939" lon="6.89227">
        <ele>2307.2517</ele>
        <time>2015-08-21T14:33:46Z</time>
      </trkpt>
      <trkpt lat="45.45949" lon="6.89236">
        <ele>2305.1367</ele>
        <time>2015-08-21T14:34:01Z</time>
      </trkpt>
      <trkpt lat="45.45953" lon="6.89238">
        <ele>2305.1367</ele>
        <time>2015-08-21T14:34:06Z</time>
      </trkpt>
      <trkpt lat="45.45962" lon="6.89241">
        <ele>2303.0999</ele>
        <time>2015-08-21T14:34:16Z</time>
      </trkpt>
      <trkpt lat="45.45966" lon="6.89245">
        <ele>2303.0999</ele>
        <time>2015-08-21T14:34:21Z</time>
      </trkpt>
      <trkpt lat="45.45972" lon="6.89251">
        <ele>2301.1199</ele>
        <time>2015-08-21T14:34:31Z</time>
      </trkpt>
      <trkpt lat="45.45976" lon="6.89253">
        <ele>2301.1199</ele>
        <time>2015-08-21T14:34:36Z</time>
      </trkpt>
      <trkpt lat="45.45986" lon="6.89252">
        <ele>2299.191</ele>
        <time>2015-08-21T14:34:46Z</time>
      </trkpt>
      <trkpt lat="45.45989" lon="6.89254">
        <ele>2299.191</ele>
        <time>2015-08-21T14:34:51Z</time>
      </trkpt>
      <trkpt lat="45.45999" lon="6.89261">
        <ele>2297.1484</ele>
        <time>2015-08-21T14:35:01Z</time>
      </trkpt>
      <trkpt lat="45.46003" lon="6.89262">
        <ele>2297.1484</ele>
        <time>2015-08-21T14:35:06Z</time>
      </trkpt>
      <trkpt lat="45.4601" lon="6.89264">
        <ele>2295.0286</ele>
        <time>2015-08-21T14:35:16Z</time>
      </trkpt>
      <trkpt lat="45.46015" lon="6.89263">
        <ele>2295.0286</ele>
        <time>2015-08-21T14:35:21Z</time>
      </trkpt>
      <trkpt lat="45.46022" lon="6.89265">
        <ele>2292.9653</ele>
        <time>2015-08-21T14:35:31Z</time>
      </trkpt>
      <trkpt lat="45.46025" lon="6.89264">
        <ele>2292.9653</ele>
        <time>2015-08-21T14:35:36Z</time>
      </trkpt>
      <trkpt lat="45.46034" lon="6.89266">
        <ele>2291.068</ele>
        <time>2015-08-21T14:35:46Z</time>
      </trkpt>
      <trkpt lat="45.46039" lon="6.89267">
        <ele>2291.068</ele>
        <time>2015-08-21T14:35:51Z</time>
      </trkpt>
      <trkpt lat="45.46045" lon="6.8927">
        <ele>2289.2512</ele>
        <time>2015-08-21T14:36:01Z</time>
      </trkpt>
      <trkpt lat="45.46051" lon="6.89275">
        <ele>2289.2512</ele>
        <time>2015-08-21T14:36:06Z</time>
      </trkpt>
      <trkpt lat="45.4606" lon="6.89276">
        <ele>2287.3914</ele>
        <time>2015-08-21T14:36:16Z</time>
      </trkpt>
      <trkpt lat="45.46064" lon="6.89274">
        <ele>2287.3914</ele>
        <time>2015-08-21T14:36:21Z</time>
      </trkpt>
      <trkpt lat="45.46073" lon="6.89279">
        <ele>2285.4465</ele>
        <time>2015-08-21T14:36:36Z</time>
      </trkpt>
      <trkpt lat="45.46072" lon="6.89279">
        <ele>2285.4465</ele>
        <time>2015-08-21T14:36:41Z</time>
      </trkpt>
      <trkpt lat="45.46077" lon="6.89277">
        <ele>2285.4465</ele>
        <time>2015-08-21T14:36:51Z</time>
      </trkpt>
      <trkpt lat="45.4608" lon="6.89277">
        <ele>2285.4465</ele>
        <time>2015-08-21T14:36:56Z</time>
      </trkpt>
      <trkpt lat="45.46085" lon="6.89281">
        <ele>2283.2627</ele>
        <time>2015-08-21T14:37:06Z</time>
      </trkpt>
      <trkpt lat="45.46088" lon="6.89285">
        <ele>2283.2627</ele>
        <time>2015-08-21T14:37:11Z</time>
      </trkpt>
      <trkpt lat="45.46095" lon="6.8929">
        <ele>2281.1304</ele>
        <time>2015-08-21T14:37:21Z</time>
      </trkpt>
      <trkpt lat="45.46098" lon="6.89293">
        <ele>2281.1304</ele>
        <time>2015-08-21T14:37:26Z</time>
      </trkpt>
      <trkpt lat="45.46105" lon="6.89299">
        <ele>2279.045</ele>
        <time>2015-08-21T14:37:36Z</time>
      </trkpt>
      <trkpt lat="45.46109" lon="6.89304">
        <ele>2279.045</ele>
        <time>2015-08-21T14:37:41Z</time>
      </trkpt>
      <trkpt lat="45.46119" lon="6.89314">
        <ele>2276.7566</ele>
        <time>2015-08-21T14:37:51Z</time>
      </trkpt>
      <trkpt lat="45.46121" lon="6.89318">
        <ele>2276.7566</ele>
        <time>2015-08-21T14:37:56Z</time>
      </trkpt>
      <trkpt lat="45.46126" lon="6.89322">
        <ele>2274.5105</ele>
        <time>2015-08-21T14:38:06Z</time>
      </trkpt>
      <trkpt lat="45.46128" lon="6.89325">
        <ele>2274.5105</ele>
        <time>2015-08-21T14:38:11Z</time>
      </trkpt>
      <trkpt lat="45.46136" lon="6.89329">
        <ele>2272.3315</ele>
        <time>2015-08-21T14:38:21Z</time>
      </trkpt>
      <trkpt lat="45.46141" lon="6.89329">
        <ele>2272.3315</ele>
        <time>2015-08-21T14:38:26Z</time>
      </trkpt>
      <trkpt lat="45.4615" lon="6.89332">
        <ele>2270.3154</ele>
        <time>2015-08-21T14:38:36Z</time>
      </trkpt>
      <trkpt lat="45.46154" lon="6.89334">
        <ele>2270.3154</ele>
        <time>2015-08-21T14:38:41Z</time>
      </trkpt>
      <trkpt lat="45.46167" lon="6.8933">
        <ele>2268.29</ele>
        <time>2015-08-21T14:38:56Z</time>
      </trkpt>
      <trkpt lat="45.4617" lon="6.8933">
        <ele>2268.29</ele>
        <time>2015-08-21T14:39:01Z</time>
      </trkpt>
      <trkpt lat="45.46177" lon="6.89331">
        <ele>2266.2551</ele>
        <time>2015-08-21T14:39:11Z</time>
      </trkpt>
      <trkpt lat="45.46181" lon="6.89329">
        <ele>2266.2551</ele>
        <time>2015-08-21T14:39:16Z</time>
      </trkpt>
      <trkpt lat="45.46187" lon="6.89327">
        <ele>2264.2104</ele>
        <time>2015-08-21T14:39:26Z</time>
      </trkpt>
      <trkpt lat="45.46193" lon="6.89326">
        <ele>2264.2104</ele>
        <time>2015-08-21T14:39:31Z</time>
      </trkpt>
      <trkpt lat="45.46203" lon="6.89325">
        <ele>2262.2852</ele>
        <time>2015-08-21T14:39:41Z</time>
      </trkpt>
      <trkpt lat="45.46209" lon="6.89325">
        <ele>2262.2852</ele>
        <time>2015-08-21T14:39:46Z</time>
      </trkpt>
      <trkpt lat="45.46216" lon="6.89327">
        <ele>2260.412</ele>
        <time>2015-08-21T14:39:56Z</time>
      </trkpt>
      <trkpt lat="45.46222" lon="6.89327">
        <ele>2260.412</ele>
        <time>2015-08-21T14:40:01Z</time>
      </trkpt>
      <trkpt lat="45.46232" lon="6.8933">
        <ele>2258.499</ele>
        <time>2015-08-21T14:40:11Z</time>
      </trkpt>
      <trkpt lat="45.46237" lon="6.8933">
        <ele>2258.499</ele>
        <time>2015-08-21T14:40:16Z</time>
      </trkpt>
      <trkpt lat="45.46245" lon="6.89335">
        <ele>2256.591</ele>
        <time>2015-08-21T14:40:26Z</time>
      </trkpt>
      <trkpt lat="45.46251" lon="6.89338">
        <ele>2256.591</ele>
        <time>2015-08-21T14:40:31Z</time>
      </trkpt>
      <trkpt lat="45.4626" lon="6.89345">
        <ele>2254.7014</ele>
        <time>2015-08-21T14:40:41Z</time>
      </trkpt>
      <trkpt lat="45.46264" lon="6.89347">
        <ele>2254.7014</ele>
        <time>2015-08-21T14:40:46Z</time>
      </trkpt>
      <trkpt lat="45.46272" lon="6.89347">
        <ele>2252.6973</ele>
        <time>2015-08-21T14:40:56Z</time>
      </trkpt>
      <trkpt lat="45.46276" lon="6.89348">
        <ele>2252.6973</ele>
        <time>2015-08-21T14:41:01Z</time>
      </trkpt>
      <trkpt lat="45.46287" lon="6.89356">
        <ele>2250.5144</ele>
        <time>2015-08-21T14:41:16Z</time>
      </trkpt>
      <trkpt lat="45.46291" lon="6.89354">
        <ele>2250.5144</ele>
        <time>2015-08-21T14:41:21Z</time>
      </trkpt>
      <trkpt lat="45.46294" lon="6.89354">
        <ele>2250.5144</ele>
        <time>2015-08-21T14:41:31Z</time>
      </trkpt>
      <trkpt lat="45.46295" lon="6.89358">
        <ele>2248.4106</ele>
        <time>2015-08-21T14:41:36Z</time>
      </trkpt>
      <trkpt lat="45.4629" lon="6.89356">
        <ele>2248.4106</ele>
        <time>2015-08-21T14:41:46Z</time>
      </trkpt>
      <trkpt lat="45.46292" lon="6.89356">
        <ele>2248.4106</ele>
        <time>2015-08-21T14:41:51Z</time>
      </trkpt>
      <trkpt lat="45.463" lon="6.89352">
        <ele>2246.4949</ele>
        <time>2015-08-21T14:42:01Z</time>
      </trkpt>
      <trkpt lat="45.46301" lon="6.89351">
        <ele>2246.4949</ele>
        <time>2015-08-21T14:42:06Z</time>
      </trkpt>
      <trkpt lat="45.46307" lon="6.89346">
        <ele>2246.4949</ele>
        <time>2015-08-21T14:42:16Z</time>
      </trkpt>
      <trkpt lat="45.4631" lon="6.89343">
        <ele>2244.4644</ele>
        <time>2015-08-21T14:42:21Z</time>
      </trkpt>
      <trkpt lat="45.46317" lon="6.8934">
        <ele>2244.4644</ele>
        <time>2015-08-21T14:42:31Z</time>
      </trkpt>
      <trkpt lat="45.4632" lon="6.89339">
        <ele>2242.4417</ele>
        <time>2015-08-21T14:42:36Z</time>
      </trkpt>
      <trkpt lat="45.46326" lon="6.89346">
        <ele>2242.4417</ele>
        <time>2015-08-21T14:42:51Z</time>
      </trkpt>
      <trkpt lat="45.46326" lon="6.89351">
        <ele>2240.2964</ele>
        <time>2015-08-21T14:42:56Z</time>
      </trkpt>
      <trkpt lat="45.46329" lon="6.89361">
        <ele>2240.2964</ele>
        <time>2015-08-21T14:43:06Z</time>
      </trkpt>
      <trkpt lat="45.46329" lon="6.89368">
        <ele>2237.9363</ele>
        <time>2015-08-21T14:43:11Z</time>
      </trkpt>
      <trkpt lat="45.46327" lon="6.89371">
        <ele>2237.9363</ele>
        <time>2015-08-21T14:43:21Z</time>
      </trkpt>
      <trkpt lat="45.46327" lon="6.89375">
        <ele>2237.9363</ele>
        <time>2015-08-21T14:43:26Z</time>
      </trkpt>
      <trkpt lat="45.46325" lon="6.89384">
        <ele>2235.4353</ele>
        <time>2015-08-21T14:43:36Z</time>
      </trkpt>
      <trkpt lat="45.46325" lon="6.8939">
        <ele>2235.4353</ele>
        <time>2015-08-21T14:43:41Z</time>
      </trkpt>
      <trkpt lat="45.46327" lon="6.89397">
        <ele>2232.833</ele>
        <time>2015-08-21T14:43:51Z</time>
      </trkpt>
      <trkpt lat="45.46327" lon="6.894">
        <ele>2232.833</ele>
        <time>2015-08-21T14:43:56Z</time>
      </trkpt>
      <trkpt lat="45.46326" lon="6.89403">
        <ele>2232.833</ele>
        <time>2015-08-21T14:44:06Z</time>
      </trkpt>
      <trkpt lat="45.46324" lon="6.89403">
        <ele>2232.833</ele>
        <time>2015-08-21T14:44:11Z</time>
      </trkpt>
      <trkpt lat="45.46324" lon="6.89404">
        <ele>2232.833</ele>
        <time>2015-08-21T14:44:21Z</time>
      </trkpt>
      <trkpt lat="45.46325" lon="6.8941">
        <ele>2230.3115</ele>
        <time>2015-08-21T14:44:26Z</time>
      </trkpt>
      <trkpt lat="45.46319" lon="6.89413">
        <ele>2230.3115</ele>
        <time>2015-08-21T14:44:36Z</time>
      </trkpt>
      <trkpt lat="45.46317" lon="6.89417">
        <ele>2227.8508</ele>
        <time>2015-08-21T14:44:41Z</time>
      </trkpt>
      <trkpt lat="45.46312" lon="6.89424">
        <ele>2227.8508</ele>
        <time>2015-08-21T14:44:51Z</time>
      </trkpt>
      <trkpt lat="45.46307" lon="6.89426">
        <ele>2225.3613</ele>
        <time>2015-08-21T14:44:56Z</time>
      </trkpt>
      <trkpt lat="45.46299" lon="6.89439">
        <ele>2222.759</ele>
        <time>2015-08-21T14:45:11Z</time>
      </trkpt>
      <trkpt lat="45.46295" lon="6.89445">
        <ele>2222.759</ele>
        <time>2015-08-21T14:45:16Z</time>
      </trkpt>
      <trkpt lat="45.46287" lon="6.89453">
        <ele>2220.1545</ele>
        <time>2015-08-21T14:45:26Z</time>
      </trkpt>
      <trkpt lat="45.46287" lon="6.89456">
        <ele>2220.1545</ele>
        <time>2015-08-21T14:45:31Z</time>
      </trkpt>
      <trkpt lat="45.46276" lon="6.89463">
        <ele>2217.3765</ele>
        <time>2015-08-21T14:45:41Z</time>
      </trkpt>
      <trkpt lat="45.46272" lon="6.89466">
        <ele>2217.3765</ele>
        <time>2015-08-21T14:45:46Z</time>
      </trkpt>
      <trkpt lat="45.46263" lon="6.89477">
        <ele>2214.5686</ele>
        <time>2015-08-21T14:45:56Z</time>
      </trkpt>
      <trkpt lat="45.46258" lon="6.89481">
        <ele>2214.5686</ele>
        <time>2015-08-21T14:46:01Z</time>
      </trkpt>
      <trkpt lat="45.46249" lon="6.89489">
        <ele>2211.764</ele>
        <time>2015-08-21T14:46:11Z</time>
      </trkpt>
      <trkpt lat="45.46244" lon="6.89493">
        <ele>2211.764</ele>
        <time>2015-08-21T14:46:16Z</time>
      </trkpt>
      <trkpt lat="45.46238" lon="6.89501">
        <ele>2209.079</ele>
        <time>2015-08-21T14:46:26Z</time>
      </trkpt>
      <trkpt lat="45.46239" lon="6.89501">
        <ele>2209.079</ele>
        <time>2015-08-21T14:46:31Z</time>
      </trkpt>
      <trkpt lat="45.46241" lon="6.89507">
        <ele>2209.079</ele>
        <time>2015-08-21T14:46:41Z</time>
      </trkpt>
      <trkpt lat="45.46237" lon="6.89507">
        <ele>2206.1611</ele>
        <time>2015-08-21T14:46:46Z</time>
      </trkpt>
      <trkpt lat="45.46227" lon="6.89514">
        <ele>2203.3748</ele>
        <time>2015-08-21T14:46:56Z</time>
      </trkpt>
      <trkpt lat="45.46228" lon="6.89517">
        <ele>2203.3748</ele>
        <time>2015-08-21T14:47:01Z</time>
      </trkpt>
      <trkpt lat="45.46234" lon="6.89531">
        <ele>2200.5535</ele>
        <time>2015-08-21T14:47:11Z</time>
      </trkpt>
      <trkpt lat="45.46239" lon="6.89532">
        <ele>2200.5535</ele>
        <time>2015-08-21T14:47:16Z</time>
      </trkpt>
      <trkpt lat="45.46249" lon="6.89534">
        <ele>2197.7305</ele>
        <time>2015-08-21T14:47:26Z</time>
      </trkpt>
      <trkpt lat="45.46253" lon="6.89538">
        <ele>2197.7305</ele>
        <time>2015-08-21T14:47:31Z</time>
      </trkpt>
      <trkpt lat="45.46262" lon="6.89545">
        <ele>2194.7922</ele>
        <time>2015-08-21T14:47:41Z</time>
      </trkpt>
      <trkpt lat="45.4626" lon="6.89555">
        <ele>2194.7922</ele>
        <time>2015-08-21T14:47:46Z</time>
      </trkpt>
      <trkpt lat="45.46263" lon="6.89575">
        <ele>2191.6917</ele>
        <time>2015-08-21T14:48:01Z</time>
      </trkpt>
      <trkpt lat="45.46266" lon="6.89587">
        <ele>2188.9329</ele>
        <time>2015-08-21T14:48:06Z</time>
      </trkpt>
      <trkpt lat="45.46266" lon="6.89595">
        <ele>2188.9329</ele>
        <time>2015-08-21T14:48:16Z</time>
      </trkpt>
      <trkpt lat="45.46264" lon="6.89597">
        <ele>2188.9329</ele>
        <time>2015-08-21T14:48:21Z</time>
      </trkpt>
      <trkpt lat="45.46265" lon="6.896">
        <ele>2186.3914</ele>
        <time>2015-08-21T14:48:31Z</time>
      </trkpt>
      <trkpt lat="45.46267" lon="6.89602">
        <ele>2186.3914</ele>
        <time>2015-08-21T14:48:36Z</time>
      </trkpt>
      <trkpt lat="45.46276" lon="6.89608">
        <ele>2184.0232</ele>
        <time>2015-08-21T14:48:46Z</time>
      </trkpt>
      <trkpt lat="45.46282" lon="6.89609">
        <ele>2184.0232</ele>
        <time>2015-08-21T14:48:51Z</time>
      </trkpt>
      <trkpt lat="45.46293" lon="6.89614">
        <ele>2181.7725</ele>
        <time>2015-08-21T14:49:01Z</time>
      </trkpt>
      <trkpt lat="45.46298" lon="6.89619">
        <ele>2181.7725</ele>
        <time>2015-08-21T14:49:06Z</time>
      </trkpt>
      <trkpt lat="45.46308" lon="6.89624">
        <ele>2179.443</ele>
        <time>2015-08-21T14:49:16Z</time>
      </trkpt>
      <trkpt lat="45.46312" lon="6.89629">
        <ele>2179.443</ele>
        <time>2015-08-21T14:49:21Z</time>
      </trkpt>
      <trkpt lat="45.46323" lon="6.89635">
        <ele>2177.0842</ele>
        <time>2015-08-21T14:49:31Z</time>
      </trkpt>
      <trkpt lat="45.46328" lon="6.89637">
        <ele>2177.0842</ele>
        <time>2015-08-21T14:49:36Z</time>
      </trkpt>
      <trkpt lat="45.4634" lon="6.89645">
        <ele>2174.6982</ele>
        <time>2015-08-21T14:49:46Z</time>
      </trkpt>
      <trkpt lat="45.46344" lon="6.89648">
        <ele>2174.6982</ele>
        <time>2015-08-21T14:49:51Z</time>
      </trkpt>
      <trkpt lat="45.46354" lon="6.89653">
        <ele>2172.4744</ele>
        <time>2015-08-21T14:50:01Z</time>
      </trkpt>
      <trkpt lat="45.46359" lon="6.89658">
        <ele>2172.4744</ele>
        <time>2015-08-21T14:50:06Z</time>
      </trkpt>
      <trkpt lat="45.46369" lon="6.89665">
        <ele>2170.3572</ele>
        <time>2015-08-21T14:50:16Z</time>
      </trkpt>
      <trkpt lat="45.4637" lon="6.8967">
        <ele>2170.3572</ele>
        <time>2015-08-21T14:50:21Z</time>
      </trkpt>
      <trkpt lat="45.46381" lon="6.8968">
        <ele>2168.4104</ele>
        <time>2015-08-21T14:50:31Z</time>
      </trkpt>
      <trkpt lat="45.46387" lon="6.89683">
        <ele>2168.4104</ele>
        <time>2015-08-21T14:50:36Z</time>
      </trkpt>
      <trkpt lat="45.46399" lon="6.89697">
        <ele>2166.5337</ele>
        <time>2015-08-21T14:50:51Z</time>
      </trkpt>
      <trkpt lat="45.46403" lon="6.897">
        <ele>2166.5337</ele>
        <time>2015-08-21T14:50:56Z</time>
      </trkpt>
      <trkpt lat="45.46412" lon="6.89708">
        <ele>2164.7783</ele>
        <time>2015-08-21T14:51:06Z</time>
      </trkpt>
      <trkpt lat="45.46417" lon="6.89709">
        <ele>2164.7783</ele>
        <time>2015-08-21T14:51:11Z</time>
      </trkpt>
      <trkpt lat="45.46429" lon="6.89713">
        <ele>2163.1335</ele>
        <time>2015-08-21T14:51:21Z</time>
      </trkpt>
      <trkpt lat="45.46431" lon="6.89715">
        <ele>2163.1335</ele>
        <time>2015-08-21T14:51:26Z</time>
      </trkpt>
      <trkpt lat="45.46438" lon="6.89724">
        <ele>2161.4883</ele>
        <time>2015-08-21T14:51:36Z</time>
      </trkpt>
      <trkpt lat="45.46443" lon="6.89727">
        <ele>2161.4883</ele>
        <time>2015-08-21T14:51:41Z</time>
      </trkpt>
      <trkpt lat="45.46451" lon="6.89729">
        <ele>2159.956</ele>
        <time>2015-08-21T14:51:51Z</time>
      </trkpt>
      <trkpt lat="45.46453" lon="6.89729">
        <ele>2159.956</ele>
        <time>2015-08-21T14:51:56Z</time>
      </trkpt>
      <trkpt lat="45.46456" lon="6.89736">
        <ele>2159.956</ele>
        <time>2015-08-21T14:52:06Z</time>
      </trkpt>
      <trkpt lat="45.46462" lon="6.8974">
        <ele>2158.5547</ele>
        <time>2015-08-21T14:52:11Z</time>
      </trkpt>
      <trkpt lat="45.46472" lon="6.89745">
        <ele>2156.9263</ele>
        <time>2015-08-21T14:52:26Z</time>
      </trkpt>
      <trkpt lat="45.46477" lon="6.89749">
        <ele>2156.9263</ele>
        <time>2015-08-21T14:52:31Z</time>
      </trkpt>
      <trkpt lat="45.46481" lon="6.89755">
        <ele>2155.2297</ele>
        <time>2015-08-21T14:52:41Z</time>
      </trkpt>
      <trkpt lat="45.46487" lon="6.89758">
        <ele>2155.2297</ele>
        <time>2015-08-21T14:52:46Z</time>
      </trkpt>
      <trkpt lat="45.46496" lon="6.89762">
        <ele>2153.5542</ele>
        <time>2015-08-21T14:52:56Z</time>
      </trkpt>
      <trkpt lat="45.46501" lon="6.89764">
        <ele>2153.5542</ele>
        <time>2015-08-21T14:53:01Z</time>
      </trkpt>
      <trkpt lat="45.46506" lon="6.89763">
        <ele>2151.8103</ele>
        <time>2015-08-21T14:53:11Z</time>
      </trkpt>
      <trkpt lat="45.46508" lon="6.89766">
        <ele>2151.8103</ele>
        <time>2015-08-21T14:53:16Z</time>
      </trkpt>
      <trkpt lat="45.46504" lon="6.89769">
        <ele>2151.8103</ele>
        <time>2015-08-21T14:53:26Z</time>
      </trkpt>
      <trkpt lat="45.4651" lon="6.89773">
        <ele>2149.8425</ele>
        <time>2015-08-21T14:53:31Z</time>
      </trkpt>
      <trkpt lat="45.46505" lon="6.89779">
        <ele>2149.8425</ele>
        <time>2015-08-21T14:53:41Z</time>
      </trkpt>
      <trkpt lat="45.46505" lon="6.89782">
        <ele>2149.8425</ele>
        <time>2015-08-21T14:53:46Z</time>
      </trkpt>
      <trkpt lat="45.46512" lon="6.89788">
        <ele>2147.6235</ele>
        <time>2015-08-21T14:53:56Z</time>
      </trkpt>
      <trkpt lat="45.46514" lon="6.89789">
        <ele>2147.6235</ele>
        <time>2015-08-21T14:54:01Z</time>
      </trkpt>
      <trkpt lat="45.4652" lon="6.89794">
        <ele>2147.6235</ele>
        <time>2015-08-21T14:54:11Z</time>
      </trkpt>
      <trkpt lat="45.46526" lon="6.89797">
        <ele>2145.2288</ele>
        <time>2015-08-21T14:54:16Z</time>
      </trkpt>
      <trkpt lat="45.46535" lon="6.898">
        <ele>2142.9167</ele>
        <time>2015-08-21T14:54:26Z</time>
      </trkpt>
      <trkpt lat="45.4654" lon="6.89804">
        <ele>2142.9167</ele>
        <time>2015-08-21T14:54:31Z</time>
      </trkpt>
      <trkpt lat="45.46546" lon="6.89811">
        <ele>2140.6523</ele>
        <time>2015-08-21T14:54:41Z</time>
      </trkpt>
      <trkpt lat="45.46549" lon="6.89813">
        <ele>2140.6523</ele>
        <time>2015-08-21T14:54:46Z</time>
      </trkpt>
      <trkpt lat="45.46568" lon="6.89821">
        <ele>2138.0435</ele>
        <time>2015-08-21T14:55:01Z</time>
      </trkpt>
      <trkpt lat="45.46571" lon="6.89822">
        <ele>2138.0435</ele>
        <time>2015-08-21T14:55:06Z</time>
      </trkpt>
      <trkpt lat="45.46578" lon="6.89823">
        <ele>2135.3464</ele>
        <time>2015-08-21T14:55:16Z</time>
      </trkpt>
      <trkpt lat="45.46582" lon="6.89823">
        <ele>2135.3464</ele>
        <time>2015-08-21T14:55:21Z</time>
      </trkpt>
      <trkpt lat="45.46588" lon="6.89829">
        <ele>2132.627</ele>
        <time>2015-08-21T14:55:31Z</time>
      </trkpt>
      <trkpt lat="45.46589" lon="6.89832">
        <ele>2132.627</ele>
        <time>2015-08-21T14:55:36Z</time>
      </trkpt>
      <trkpt lat="45.46589" lon="6.89833">
        <ele>2132.627</ele>
        <time>2015-08-21T14:55:46Z</time>
      </trkpt>
      <trkpt lat="45.46587" lon="6.89835">
        <ele>2132.627</ele>
        <time>2015-08-21T14:55:51Z</time>
      </trkpt>
      <trkpt lat="45.46587" lon="6.89836">
        <ele>2132.627</ele>
        <time>2015-08-21T14:56:01Z</time>
      </trkpt>
      <trkpt lat="45.46588" lon="6.89835">
        <ele>2132.627</ele>
        <time>2015-08-21T14:56:06Z</time>
      </trkpt>
      <trkpt lat="45.46591" lon="6.89839">
        <ele>2129.686</ele>
        <time>2015-08-21T14:56:16Z</time>
      </trkpt>
      <trkpt lat="45.46592" lon="6.8984">
        <ele>2129.686</ele>
        <time>2015-08-21T14:56:21Z</time>
      </trkpt>
      <trkpt lat="45.46592" lon="6.89838">
        <ele>2129.686</ele>
        <time>2015-08-21T14:56:31Z</time>
      </trkpt>
      <trkpt lat="45.46593" lon="6.8984">
        <ele>2129.686</ele>
        <time>2015-08-21T14:56:36Z</time>
      </trkpt>
      <trkpt lat="45.466" lon="6.89845">
        <ele>2126.196</ele>
        <time>2015-08-21T14:56:51Z</time>
      </trkpt>
      <trkpt lat="45.46602" lon="6.89847">
        <ele>2126.196</ele>
        <time>2015-08-21T14:56:56Z</time>
      </trkpt>
      <trkpt lat="45.46602" lon="6.89847">
        <ele>2126.196</ele>
        <time>2015-08-21T14:57:06Z</time>
      </trkpt>
      <trkpt lat="45.46603" lon="6.89842">
        <ele>2126.196</ele>
        <time>2015-08-21T14:57:11Z</time>
      </trkpt>
      <trkpt lat="45.46604" lon="6.89846">
        <ele>2126.196</ele>
        <time>2015-08-21T14:57:21Z</time>
      </trkpt>
      <trkpt lat="45.46603" lon="6.89847">
        <ele>2123.2244</ele>
        <time>2015-08-21T14:57:26Z</time>
      </trkpt>
      <trkpt lat="45.46602" lon="6.89848">
        <ele>2123.2244</ele>
        <time>2015-08-21T14:57:36Z</time>
      </trkpt>
      <trkpt lat="45.46602" lon="6.89848">
        <ele>2123.2244</ele>
        <time>2015-08-21T14:57:41Z</time>
      </trkpt>
      <trkpt lat="45.46602" lon="6.89855">
        <ele>2123.2244</ele>
        <time>2015-08-21T14:57:51Z</time>
      </trkpt>
      <trkpt lat="45.46604" lon="6.89856">
        <ele>2123.2244</ele>
        <time>2015-08-21T14:57:56Z</time>
      </trkpt>
      <trkpt lat="45.46605" lon="6.89863">
        <ele>2120.576</ele>
        <time>2015-08-21T14:58:06Z</time>
      </trkpt>
      <trkpt lat="45.46604" lon="6.89867">
        <ele>2120.576</ele>
        <time>2015-08-21T14:58:11Z</time>
      </trkpt>
      <trkpt lat="45.46603" lon="6.89867">
        <ele>2120.576</ele>
        <time>2015-08-21T14:58:21Z</time>
      </trkpt>
      <trkpt lat="45.46599" lon="6.89869">
        <ele>2120.576</ele>
        <time>2015-08-21T14:58:26Z</time>
      </trkpt>
      <trkpt lat="45.46599" lon="6.89873">
        <ele>2117.9978</ele>
        <time>2015-08-21T14:58:36Z</time>
      </trkpt>
      <trkpt lat="45.46602" lon="6.89877">
        <ele>2117.9978</ele>
        <time>2015-08-21T14:58:41Z</time>
      </trkpt>
      <trkpt lat="45.4661" lon="6.89885">
        <ele>2115.6443</ele>
        <time>2015-08-21T14:58:51Z</time>
      </trkpt>
      <trkpt lat="45.46613" lon="6.89888">
        <ele>2115.6443</ele>
        <time>2015-08-21T14:58:56Z</time>
      </trkpt>
      <trkpt lat="45.46614" lon="6.89897">
        <ele>2113.2974</ele>
        <time>2015-08-21T14:59:11Z</time>
      </trkpt>
      <trkpt lat="45.46612" lon="6.89895">
        <ele>2113.2974</ele>
        <time>2015-08-21T14:59:16Z</time>
      </trkpt>
      <trkpt lat="45.46609" lon="6.89904">
        <ele>2110.7837</ele>
        <time>2015-08-21T14:59:26Z</time>
      </trkpt>
      <trkpt lat="45.46614" lon="6.89915">
        <ele>2110.7837</ele>
        <time>2015-08-21T14:59:31Z</time>
      </trkpt>
      <trkpt lat="45.46618" lon="6.89927">
        <ele>2108.3037</ele>
        <time>2015-08-21T14:59:41Z</time>
      </trkpt>
      <trkpt lat="45.46617" lon="6.89929">
        <ele>2108.3037</ele>
        <time>2015-08-21T14:59:46Z</time>
      </trkpt>
      <trkpt lat="45.46608" lon="6.8993">
        <ele>2105.9275</ele>
        <time>2015-08-21T14:59:56Z</time>
      </trkpt>
      <trkpt lat="45.46609" lon="6.8993">
        <ele>2105.9275</ele>
        <time>2015-08-21T15:00:01Z</time>
      </trkpt>
      <trkpt lat="45.46613" lon="6.89938">
        <ele>2105.9275</ele>
        <time>2015-08-21T15:00:11Z</time>
      </trkpt>
      <trkpt lat="45.46615" lon="6.89945">
        <ele>2103.662</ele>
        <time>2015-08-21T15:00:16Z</time>
      </trkpt>
      <trkpt lat="45.46615" lon="6.8995">
        <ele>2103.662</ele>
        <time>2015-08-21T15:00:26Z</time>
      </trkpt>
      <trkpt lat="45.46616" lon="6.89949">
        <ele>2103.662</ele>
        <time>2015-08-21T15:00:31Z</time>
      </trkpt>
      <trkpt lat="45.46618" lon="6.89948">
        <ele>2103.662</ele>
        <time>2015-08-21T15:00:41Z</time>
      </trkpt>
      <trkpt lat="45.46617" lon="6.89947">
        <ele>2103.662</ele>
        <time>2015-08-21T15:00:46Z</time>
      </trkpt>
      <trkpt lat="45.4662" lon="6.89963">
        <ele>2101.1248</ele>
        <time>2015-08-21T15:00:56Z</time>
      </trkpt>
      <trkpt lat="45.46618" lon="6.89966">
        <ele>2101.1248</ele>
        <time>2015-08-21T15:01:01Z</time>
      </trkpt>
      <trkpt lat="45.4662" lon="6.89967">
        <ele>2101.1248</ele>
        <time>2015-08-21T15:01:11Z</time>
      </trkpt>
      <trkpt lat="45.46621" lon="6.89971">
        <ele>2101.1248</ele>
        <time>2015-08-21T15:01:16Z</time>
      </trkpt>
      <trkpt lat="45.46621" lon="6.89977">
        <ele>2098.2205</ele>
        <time>2015-08-21T15:01:31Z</time>
      </trkpt>
      <trkpt lat="45.4662" lon="6.89981">
        <ele>2098.2205</ele>
        <time>2015-08-21T15:01:36Z</time>
      </trkpt>
      <trkpt lat="45.46619" lon="6.89986">
        <ele>2098.2205</ele>
        <time>2015-08-21T15:01:46Z</time>
      </trkpt>
      <trkpt lat="45.46618" lon="6.89985">
        <ele>2098.2205</ele>
        <time>2015-08-21T15:01:51Z</time>
      </trkpt>
      <trkpt lat="45.46623" lon="6.89993">
        <ele>2095.2234</ele>
        <time>2015-08-21T15:02:01Z</time>
      </trkpt>
      <trkpt lat="45.46626" lon="6.9">
        <ele>2095.2234</ele>
        <time>2015-08-21T15:02:06Z</time>
      </trkpt>
      <trkpt lat="45.46633" lon="6.9001">
        <ele>2092.329</ele>
        <time>2015-08-21T15:02:16Z</time>
      </trkpt>
      <trkpt lat="45.46636" lon="6.90017">
        <ele>2092.329</ele>
        <time>2015-08-21T15:02:21Z</time>
      </trkpt>
      <trkpt lat="45.46641" lon="6.90031">
        <ele>2089.705</ele>
        <time>2015-08-21T15:02:31Z</time>
      </trkpt>
      <trkpt lat="45.4664" lon="6.90041">
        <ele>2089.705</ele>
        <time>2015-08-21T15:02:36Z</time>
      </trkpt>
      <trkpt lat="45.46644" lon="6.90056">
        <ele>2087.476</ele>
        <time>2015-08-21T15:02:46Z</time>
      </trkpt>
      <trkpt lat="45.46648" lon="6.9006">
        <ele>2087.476</ele>
        <time>2015-08-21T15:02:51Z</time>
      </trkpt>
      <trkpt lat="45.46653" lon="6.90073">
        <ele>2085.512</ele>
        <time>2015-08-21T15:03:01Z</time>
      </trkpt>
      <trkpt lat="45.46656" lon="6.90081">
        <ele>2085.512</ele>
        <time>2015-08-21T15:03:06Z</time>
      </trkpt>
      <trkpt lat="45.46661" lon="6.90095">
        <ele>2083.9219</ele>
        <time>2015-08-21T15:03:16Z</time>
      </trkpt>
      <trkpt lat="45.46664" lon="6.90101">
        <ele>2083.9219</ele>
        <time>2015-08-21T15:03:21Z</time>
      </trkpt>
      <trkpt lat="45.46675" lon="6.9011">
        <ele>2082.6477</ele>
        <time>2015-08-21T15:03:36Z</time>
      </trkpt>
      <trkpt lat="45.46679" lon="6.90114">
        <ele>2082.6477</ele>
        <time>2015-08-21T15:03:41Z</time>
      </trkpt>
      <trkpt lat="45.46685" lon="6.90125">
        <ele>2081.6628</ele>
        <time>2015-08-21T15:03:51Z</time>
      </trkpt>
      <trkpt lat="45.46687" lon="6.90133">
        <ele>2081.6628</ele>
        <time>2015-08-21T15:03:56Z</time>
      </trkpt>
      <trkpt lat="45.46695" lon="6.90145">
        <ele>2080.8848</ele>
        <time>2015-08-21T15:04:06Z</time>
      </trkpt>
      <trkpt lat="45.46698" lon="6.90152">
        <ele>2080.8848</ele>
        <time>2015-08-21T15:04:11Z</time>
      </trkpt>
      <trkpt lat="45.46701" lon="6.90164">
        <ele>2080.337</ele>
        <time>2015-08-21T15:04:21Z</time>
      </trkpt>
      <trkpt lat="45.46704" lon="6.9017">
        <ele>2080.337</ele>
        <time>2015-08-21T15:04:26Z</time>
      </trkpt>
      <trkpt lat="45.46709" lon="6.90184">
        <ele>2080.0984</ele>
        <time>2015-08-21T15:04:36Z</time>
      </trkpt>
      <trkpt lat="45.46712" lon="6.90189">
        <ele>2080.0984</ele>
        <time>2015-08-21T15:04:41Z</time>
      </trkpt>
      <trkpt lat="45.46721" lon="6.90196">
        <ele>2080.1116</ele>
        <time>2015-08-21T15:04:51Z</time>
      </trkpt>
      <trkpt lat="45.46723" lon="6.90202">
        <ele>2080.1116</ele>
        <time>2015-08-21T15:04:56Z</time>
      </trkpt>
      <trkpt lat="45.4673" lon="6.90212">
        <ele>2080.3374</ele>
        <time>2015-08-21T15:05:06Z</time>
      </trkpt>
      <trkpt lat="45.46734" lon="6.90219">
        <ele>2080.3374</ele>
        <time>2015-08-21T15:05:11Z</time>
      </trkpt>
      <trkpt lat="45.46739" lon="6.9023">
        <ele>2080.8396</ele>
        <time>2015-08-21T15:05:21Z</time>
      </trkpt>
      <trkpt lat="45.46741" lon="6.90236">
        <ele>2080.8396</ele>
        <time>2015-08-21T15:05:26Z</time>
      </trkpt>
      <trkpt lat="45.46748" lon="6.90243">
        <ele>2081.5754</ele>
        <time>2015-08-21T15:05:36Z</time>
      </trkpt>
      <trkpt lat="45.4675" lon="6.90248">
        <ele>2081.5754</ele>
        <time>2015-08-21T15:05:41Z</time>
      </trkpt>
      <trkpt lat="45.46755" lon="6.90267">
        <ele>2082.318</ele>
        <time>2015-08-21T15:05:56Z</time>
      </trkpt>
      <trkpt lat="45.46755" lon="6.90273">
        <ele>2082.318</ele>
        <time>2015-08-21T15:06:01Z</time>
      </trkpt>
      <trkpt lat="45.4676" lon="6.90286">
        <ele>2083.0583</ele>
        <time>2015-08-21T15:06:11Z</time>
      </trkpt>
      <trkpt lat="45.46761" lon="6.90293">
        <ele>2083.0583</ele>
        <time>2015-08-21T15:06:16Z</time>
      </trkpt>
      <trkpt lat="45.46764" lon="6.90305">
        <ele>2083.9043</ele>
        <time>2015-08-21T15:06:26Z</time>
      </trkpt>
      <trkpt lat="45.46767" lon="6.90309">
        <ele>2083.9043</ele>
        <time>2015-08-21T15:06:31Z</time>
      </trkpt>
      <trkpt lat="45.46771" lon="6.9032">
        <ele>2084.753</ele>
        <time>2015-08-21T15:06:41Z</time>
      </trkpt>
      <trkpt lat="45.46775" lon="6.90326">
        <ele>2084.753</ele>
        <time>2015-08-21T15:06:46Z</time>
      </trkpt>
      <trkpt lat="45.46781" lon="6.90338">
        <ele>2085.265</ele>
        <time>2015-08-21T15:06:56Z</time>
      </trkpt>
      <trkpt lat="45.46782" lon="6.90342">
        <ele>2085.265</ele>
        <time>2015-08-21T15:07:01Z</time>
      </trkpt>
      <trkpt lat="45.46787" lon="6.90354">
        <ele>2085.4146</ele>
        <time>2015-08-21T15:07:11Z</time>
      </trkpt>
      <trkpt lat="45.46792" lon="6.90358">
        <ele>2085.4146</ele>
        <time>2015-08-21T15:07:16Z</time>
      </trkpt>
      <trkpt lat="45.46797" lon="6.90368">
        <ele>2085.5256</ele>
        <time>2015-08-21T15:07:26Z</time>
      </trkpt>
      <trkpt lat="45.46799" lon="6.90378">
        <ele>2085.5256</ele>
        <time>2015-08-21T15:07:31Z</time>
      </trkpt>
      <trkpt lat="45.46808" lon="6.90395">
        <ele>2085.552</ele>
        <time>2015-08-21T15:07:46Z</time>
      </trkpt>
      <trkpt lat="45.4681" lon="6.90402">
        <ele>2085.552</ele>
        <time>2015-08-21T15:07:51Z</time>
      </trkpt>
      <trkpt lat="45.46811" lon="6.90416">
        <ele>2085.495</ele>
        <time>2015-08-21T15:08:01Z</time>
      </trkpt>
      <trkpt lat="45.46812" lon="6.9042">
        <ele>2085.495</ele>
        <time>2015-08-21T15:08:06Z</time>
      </trkpt>
      <trkpt lat="45.46813" lon="6.9043">
        <ele>2085.3706</ele>
        <time>2015-08-21T15:08:16Z</time>
      </trkpt>
      <trkpt lat="45.46817" lon="6.90438">
        <ele>2085.3706</ele>
        <time>2015-08-21T15:08:21Z</time>
      </trkpt>
      <trkpt lat="45.46824" lon="6.90453">
        <ele>2085.367</ele>
        <time>2015-08-21T15:08:31Z</time>
      </trkpt>
      <trkpt lat="45.46826" lon="6.90459">
        <ele>2085.367</ele>
        <time>2015-08-21T15:08:36Z</time>
      </trkpt>
      <trkpt lat="45.4683" lon="6.9047">
        <ele>2085.7876</ele>
        <time>2015-08-21T15:08:46Z</time>
      </trkpt>
      <trkpt lat="45.46832" lon="6.90482">
        <ele>2085.7876</ele>
        <time>2015-08-21T15:08:51Z</time>
      </trkpt>
      <trkpt lat="45.46835" lon="6.90503">
        <ele>2086.9421</ele>
        <time>2015-08-21T15:09:01Z</time>
      </trkpt>
      <trkpt lat="45.46837" lon="6.9051">
        <ele>2086.9421</ele>
        <time>2015-08-21T15:09:06Z</time>
      </trkpt>
      <trkpt lat="45.46841" lon="6.90518">
        <ele>2088.625</ele>
        <time>2015-08-21T15:09:16Z</time>
      </trkpt>
      <trkpt lat="45.46844" lon="6.90526">
        <ele>2088.625</ele>
        <time>2015-08-21T15:09:21Z</time>
      </trkpt>
      <trkpt lat="45.46847" lon="6.9053">
        <ele>2090.6018</ele>
        <time>2015-08-21T15:09:31Z</time>
      </trkpt>
      <trkpt lat="45.46847" lon="6.9053">
        <ele>2090.6018</ele>
        <time>2015-08-21T15:09:36Z</time>
      </trkpt>
      <trkpt lat="45.4685" lon="6.90532">
        <ele>2090.6018</ele>
        <time>2015-08-21T15:10:11Z</time>
      </trkpt>
      <trkpt lat="45.46851" lon="6.90533">
        <ele>2090.6018</ele>
        <time>2015-08-21T15:10:21Z</time>
      </trkpt>
      <trkpt lat="45.46852" lon="6.90536">
        <ele>2090.6018</ele>
        <time>2015-08-21T15:10:56Z</time>
      </trkpt>
      <trkpt lat="45.46852" lon="6.90552">
        <ele>2092.5967</ele>
        <time>2015-08-21T15:11:06Z</time>
      </trkpt>
      <trkpt lat="45.46852" lon="6.90559">
        <ele>2092.5967</ele>
        <time>2015-08-21T15:11:11Z</time>
      </trkpt>
      <trkpt lat="45.46858" lon="6.90571">
        <ele>2094.383</ele>
        <time>2015-08-21T15:11:21Z</time>
      </trkpt>
      <trkpt lat="45.4686" lon="6.90578">
        <ele>2094.383</ele>
        <time>2015-08-21T15:11:26Z</time>
      </trkpt>
      <trkpt lat="45.46866" lon="6.90598">
        <ele>2096.3574</ele>
        <time>2015-08-21T15:11:41Z</time>
      </trkpt>
      <trkpt lat="45.46869" lon="6.90607">
        <ele>2096.3574</ele>
        <time>2015-08-21T15:11:46Z</time>
      </trkpt>
      <trkpt lat="45.46872" lon="6.90625">
        <ele>2098.5981</ele>
        <time>2015-08-21T15:11:56Z</time>
      </trkpt>
      <trkpt lat="45.46875" lon="6.90629">
        <ele>2098.5981</ele>
        <time>2015-08-21T15:12:01Z</time>
      </trkpt>
      <trkpt lat="45.46876" lon="6.90631">
        <ele>2098.5981</ele>
        <time>2015-08-21T15:12:11Z</time>
      </trkpt>
      <trkpt lat="45.4688" lon="6.90633">
        <ele>2100.8174</ele>
        <time>2015-08-21T15:12:16Z</time>
      </trkpt>
      <trkpt lat="45.46886" lon="6.90647">
        <ele>2102.6765</ele>
        <time>2015-08-21T15:12:26Z</time>
      </trkpt>
      <trkpt lat="45.46892" lon="6.90657">
        <ele>2104.3967</ele>
        <time>2015-08-21T15:12:31Z</time>
      </trkpt>
      <trkpt lat="45.46894" lon="6.90664">
        <ele>2104.3967</ele>
        <time>2015-08-21T15:12:41Z</time>
      </trkpt>
      <trkpt lat="45.46892" lon="6.9067">
        <ele>2105.837</ele>
        <time>2015-08-21T15:12:46Z</time>
      </trkpt>
      <trkpt lat="45.46893" lon="6.90683">
        <ele>2106.7673</ele>
        <time>2015-08-21T15:12:56Z</time>
      </trkpt>
      <trkpt lat="45.46891" lon="6.90687">
        <ele>2106.7673</ele>
        <time>2015-08-21T15:13:01Z</time>
      </trkpt>
      <trkpt lat="45.4689" lon="6.90701">
        <ele>2107.0625</ele>
        <time>2015-08-21T15:13:11Z</time>
      </trkpt>
      <trkpt lat="45.4689" lon="6.90708">
        <ele>2107.0625</ele>
        <time>2015-08-21T15:13:16Z</time>
      </trkpt>
      <trkpt lat="45.46892" lon="6.90725">
        <ele>2107.0125</ele>
        <time>2015-08-21T15:13:31Z</time>
      </trkpt>
      <trkpt lat="45.46892" lon="6.90734">
        <ele>2107.0125</ele>
        <time>2015-08-21T15:13:36Z</time>
      </trkpt>
      <trkpt lat="45.46891" lon="6.90747">
        <ele>2106.7712</ele>
        <time>2015-08-21T15:13:46Z</time>
      </trkpt>
      <trkpt lat="45.46891" lon="6.90752">
        <ele>2106.7712</ele>
        <time>2015-08-21T15:13:51Z</time>
      </trkpt>
      <trkpt lat="45.46891" lon="6.90756">
        <ele>2106.7712</ele>
        <time>2015-08-21T15:14:01Z</time>
      </trkpt>
      <trkpt lat="45.4689" lon="6.90753">
        <ele>2106.7712</ele>
        <time>2015-08-21T15:14:06Z</time>
      </trkpt>
      <trkpt lat="45.46891" lon="6.90751">
        <ele>2105.6902</ele>
        <time>2015-08-21T15:14:16Z</time>
      </trkpt>
      <trkpt lat="45.46891" lon="6.90751">
        <ele>2105.6902</ele>
        <time>2015-08-21T15:14:21Z</time>
      </trkpt>
      <trkpt lat="45.4689" lon="6.90753">
        <ele>2105.6902</ele>
        <time>2015-08-21T15:14:31Z</time>
      </trkpt>
      <trkpt lat="45.4689" lon="6.90753">
        <ele>2105.6902</ele>
        <time>2015-08-21T15:14:36Z</time>
      </trkpt>
      <trkpt lat="45.46892" lon="6.90755">
        <ele>2105.6902</ele>
        <time>2015-08-21T15:20:31Z</time>
      </trkpt>
      <trkpt lat="45.46892" lon="6.90755">
        <ele>2105.6902</ele>
        <time>2015-08-21T15:20:36Z</time>
      </trkpt>
      <trkpt lat="45.46892" lon="6.90756">
        <ele>2105.6902</ele>
        <time>2015-08-21T15:20:46Z</time>
      </trkpt>
      <trkpt lat="45.4689" lon="6.90766">
        <ele>2105.3896</ele>
        <time>2015-08-21T15:20:51Z</time>
      </trkpt>
      <trkpt lat="45.46888" lon="6.9077">
        <ele>2105.3896</ele>
        <time>2015-08-21T15:21:01Z</time>
      </trkpt>
    </trkseg>
  </trk>
</gpx>